# Wetter Temperatur Luftdruck Luftfeuchtigkeit Sichtweite Windgeschwindigkeit Windrichtung Zeit
1 Clouds 18 993 51 0 0.45 225 20:19 12.07.2020
2 Clouds 19 993 48 0 0.89 225 19:54 12.07.2020
3 Clouds 19 993 46 0 0.45 225 19:36 12.07.2020
4 Clouds 19 993 44 0 0.45 225 19:18 12.07.2020
5 Clouds 19 994 45 0 0.89 225 18:40 12.07.2020
6 Clouds 18 993 46 0 0.45 225 18:19 12.07.2020
7 Clouds 19 994 43 0 0.45 225 17:42 12.07.2020
8 Clouds 19 994 40 0 0.45 225 17:22 12.07.2020
9 Clouds 20 994 40 0 0.89 225 16:58 12.07.2020
10 Clouds 20 994 41 0 1.34 225 16:40 12.07.2020
11 Clouds 20 994 40 0 0.89 225 16:19 12.07.2020
12 Clouds 20 994 35 0 0.89 225 15:43 12.07.2020
13 Clouds 20 994 31 0 1.34 225 15:23 12.07.2020
14 Clouds 19 994 31 0 0.45 225 14:45 12.07.2020
15 Clouds 19 994 30 0 0.45 225 14:27 12.07.2020
16 Clouds 19 994 31 0 0.89 225 13:56 12.07.2020
17 Clouds 19 994 31 0 0.89 225 13:56 12.07.2020
18 Clouds 19 994 31 0 0.89 225 13:38 12.07.2020
19 Clouds 19 994 31 0 0.45 225 13:19 12.07.2020
20 Clouds 19 994 32 0 0.89 225 12:42 12.07.2020
21 Clouds 18 994 32 0 0.45 225 12:20 12.07.2020
22 Clouds 18 994 32 0 0.45 225 11:59 12.07.2020
23 Clouds 17 994 36 0 1.96 254 11:41 12.07.2020
24 Clouds 18 994 36 0 0.88 282 11:19 12.07.2020
25 Clouds 17 994 43 0 0.45 225 10:42 12.07.2020
26 Clouds 18 994 42 0 0.45 225 10:21 12.07.2020
27 Clouds 18 994 42 0 0.95 340 09:54 12.07.2020
28 Clear 13 1016 54 10000 1 0 09:36 12.07.2020
29 Clear 13 1016 54 10000 1 0 09:18 12.07.2020
30 Clear 13 1016 58 10000 1.5 330 08:41 12.07.2020
31 Clouds 14 994 45 0 1.92 351 08:22 12.07.2020
32 Clouds 12 1015 61 10000 2.6 350 07:56 12.07.2020
33 Clouds 13 1013 45 0 1.82 334 07:36 12.07.2020
34 Clouds 13 1013 46 0 1.82 334 07:18 12.07.2020
35 Clouds 12 1013 50 0 1.82 334 06:48 12.07.2020
36 Clouds 8 1015 66 10000 2.1 350 06:19 12.07.2020
37 Clouds 8 1014 66 10000 1.5 10 05:23 12.07.2020
38 Clouds 9 1013 55 0 1.76 326 04:42 12.07.2020
39 Clouds 9 1013 53 0 1.52 313 04:23 12.07.2020
40 Clouds 9 1014 85 0 1.41 311 03:31 12.07.2020
41 Clouds 11 1014 77 0 1.41 311 02:47 12.07.2020
42 Clouds 12 1014 72 0 1.7 298 01:36 12.07.2020
43 Clouds 11 1014 54 10000 1.5 0 00:44 12.07.2020
44 Clouds 12 991 42 0 0.45 225 00:23 12.07.2020
45 Clouds 12 1014 69 0 1.96 287 23:56 11.07.2020
46 Clouds 13 991 40 0 0.45 225 23:38 11.07.2020
47 Clouds 14 991 40 0 2.23 285 23:19 11.07.2020
48 Clouds 14 1013 54 0 2.23 285 22:45 11.07.2020
49 Clouds 16 991 37 0 0.45 225 22:26 11.07.2020
50 Clouds 16 991 37 0 0.45 225 21:59 11.07.2020
51 Clouds 16 990 38 0 0.45 225 21:40 11.07.2020
52 Clouds 18 990 33 0 0.45 225 21:21 11.07.2020
53 Clouds 18 990 30 0 0.89 225 20:56 11.07.2020
54 Clouds 18 989 30 0 0.45 225 20:38 11.07.2020
55 Clouds 19 989 26 0 0.45 225 20:19 11.07.2020
56 Clouds 20 989 25 0 0.45 225 19:56 11.07.2020
57 Clouds 20 989 24 0 0.45 225 19:38 11.07.2020
58 Clouds 20 989 25 0 0.45 225 19:19 11.07.2020
59 Clouds 20 988 27 0 0.45 225 18:54 11.07.2020
60 Clouds 20 988 27 0 0.45 225 18:36 11.07.2020
61 Clouds 20 989 28 0 0.89 225 18:36 11.07.2020
62 Clouds 20 989 30 0 0.45 225 18:18 11.07.2020
63 Clouds 20 988 31 0 0.45 225 17:40 11.07.2020
64 Clouds 20 988 30 0 0.89 225 17:21 11.07.2020
65 Clouds 20 988 30 0 0.89 225 16:58 11.07.2020
66 Clouds 21 988 30 0 0.45 225 16:38 11.07.2020
67 Clouds 20 988 30 0 0.89 225 16:19 11.07.2020
68 Clouds 21 988 30 0 0.45 225 15:42 11.07.2020
69 Clouds 21 988 30 0 0.89 225 15:22 11.07.2020
70 Clouds 21 988 32 0 0.45 225 14:59 11.07.2020
71 Clouds 20 988 32 0 0.45 225 14:40 11.07.2020
72 Clouds 20 988 34 0 1.34 225 14:22 11.07.2020
73 Clouds 20 988 38 0 1.34 225 13:44 11.07.2020
74 Rain 20 988 40 0 0.45 225 13:23 11.07.2020
75 Rain 18 988 41 0 0.45 225 12:59 11.07.2020
76 Rain 18 988 42 0 1.34 225 12:41 11.07.2020
77 Rain 18 988 42 0 0.45 225 12:23 11.07.2020
78 Rain 19 988 41 0 0.45 225 11:58 11.07.2020
79 Rain 19 988 42 0 0.45 225 11:40 11.07.2020
80 Rain 18 988 44 0 0.45 225 11:19 11.07.2020
81 Rain 18 988 44 0 0.45 225 10:45 11.07.2020
82 Rain 18 988 45 0 1.4 273 10:26 11.07.2020
83 Rain 17 987 46 0 0.45 225 09:56 11.07.2020
84 Rain 14 991 1 0 0.89 234 09:37 11.07.2020
85 Clear 14 991 1 0 1.04 299 09:18 11.07.2020
86 Clouds 14 987 60 0 1.01 319 08:38 11.07.2020
87 Clouds 14 986 61 0 1.01 319 08:19 11.07.2020
88 Clouds 13 986 63 0 1.01 319 07:46 11.07.2020
89 Clouds 13 986 64 0 0.92 321 07:27 11.07.2020
90 Clouds 12 986 67 0 0.92 321 06:59 11.07.2020
91 Clouds 10 990 1 0 1.04 320 06:22 11.07.2020
92 Clouds 10 985 82 0 1.04 320 05:41 11.07.2020
93 Clouds 10 985 82 0 1 323 04:57 11.07.2020
94 Clouds 10 985 82 0 1.03 335 04:33 11.07.2020
95 Clouds 10 985 82 0 1.03 335 03:38 11.07.2020
96 Clouds 10 985 79 0 1.16 351 02:48 11.07.2020
97 Clouds 11 984 75 0 1.12 0 01:51 11.07.2020
98 Clouds 12 984 74 0 1.02 5 01:19 11.07.2020
99 Clouds 11 984 77 0 0.45 315 00:41 11.07.2020
100 Clouds 12 984 74 0 0.45 45 00:22 11.07.2020
101 Clouds 11 984 76 0 0.45 270 23:58 10.07.2020
102 Clouds 11 984 77 0 0.79 4 23:40 10.07.2020
103 Rain 13 984 76 0 0.34 334 23:20 10.07.2020
104 Rain 12 988 1 0 0.34 334 22:46 10.07.2020
105 Rain 14 984 67 0 0.56 230 22:22 10.07.2020
106 Rain 14 984 66 0 0.56 230 21:58 10.07.2020
107 Clouds 14 984 63 0 0.09 158 21:38 10.07.2020
108 Rain 14 984 63 0 0.56 230 21:38 10.07.2020
109 Rain 15 984 64 0 0.99 168 21:19 10.07.2020
110 Rain 16 984 60 0 0.99 168 20:43 10.07.2020
111 Rain 16 984 60 0 1.32 164 20:24 10.07.2020
112 Rain 16 984 60 0 0.45 270 19:59 10.07.2020
113 Rain 17 984 55 0 0.45 270 19:41 10.07.2020
114 Rain 17 984 55 0 1.78 149 19:21 10.07.2020
115 Rain 17 984 57 0 0.45 270 18:42 10.07.2020
116 Rain 17 984 59 0 0.45 270 18:22 10.07.2020
117 Rain 17 984 60 0 1.83 169 17:59 10.07.2020
118 Rain 17 984 61 0 1.83 169 17:41 10.07.2020
119 Rain 17 984 62 0 2.07 184 17:22 10.07.2020
120 Rain 16 985 65 0 0.45 270 16:56 10.07.2020
121 Rain 16 985 66 0 2.07 184 16:37 10.07.2020
122 Rain 15 1007 67 10000 3.6 330 16:18 10.07.2020
123 Rain 16 1007 62 10000 3.6 290 15:42 10.07.2020
124 Rain 16 1007 45 10000 4.1 130 15:18 10.07.2020
125 Clouds 16 1004 37 0 2.02 160 14:43 10.07.2020
126 Clouds 16 1002 38 0 1.41 113 14:22 10.07.2020
127 Rain 16 989 1 0 2.18 131 13:58 10.07.2020
128 Rain 16 989 26 0 1.79 121 13:40 10.07.2020
129 Rain 17 985 51 0 0.45 225 13:22 10.07.2020
130 Rain 18 985 58 0 0.45 225 12:59 10.07.2020
131 Rain 18 985 58 0 0.45 225 12:40 10.07.2020
132 Rain 18 985 53 0 0.45 269 12:22 10.07.2020
133 Rain 18 985 42 0 0.89 270 11:43 10.07.2020
134 Rain 16 989 28 0 0.45 157 11:24 10.07.2020
135 Rain 19 985 43 0 0.45 225 10:59 10.07.2020
136 Rain 19 985 43 0 0.45 226 10:59 10.07.2020
137 Rain 19 985 43 0 0.45 139 10:41 10.07.2020
138 Rain 19 986 43 0 0.45 219 10:21 10.07.2020
139 Rain 18 986 49 0 1.5 104 09:55 10.07.2020
140 Rain 18 986 54 0 0.45 225 09:36 10.07.2020
141 Clouds 13 1008 62 10000 3.1 20 09:18 10.07.2020
142 Clouds 14 986 62 0 0.45 270 08:43 10.07.2020
143 Clouds 14 986 61 0 0.45 270 08:25 10.07.2020
144 Clouds 13 1005 69 0 0.8 58 07:59 10.07.2020
145 Clouds 13 990 1 0 0.8 58 07:41 10.07.2020
146 Clouds 13 1005 81 0 0.78 46 07:20 10.07.2020
147 Clouds 12 986 69 0 0.78 46 06:45 10.07.2020
148 Clouds 9 1005 85 0 1.14 25 05:53 10.07.2020
149 Clouds 9 1006 82 0 1.12 29 04:31 10.07.2020
150 Clouds 9 1006 80 0 0.92 46 03:26 10.07.2020
151 Clouds 9 991 1 0 0.92 46 02:48 10.07.2020
152 Clouds 10 1006 74 0 0.88 55 01:39 10.07.2020
153 Clouds 11 991 1 0 0.48 63 00:40 10.07.2020
154 Rain 11 991 1 0 0.23 112 00:18 10.07.2020
155 Rain 12 1006 59 0 0.23 112 23:43 09.07.2020
156 Rain 12 991 1 0 0.6 163 23:20 09.07.2020
157 Rain 13 1005 56 0 0.6 163 22:57 09.07.2020
158 Rain 14 991 1 0 0.6 163 22:39 09.07.2020
159 Clouds 14 987 61 0 0.45 270 22:20 09.07.2020
160 Clouds 15 987 58 0 0.45 180 21:55 09.07.2020
161 Clouds 15 987 58 0 0.45 180 21:37 09.07.2020
162 Clear 16 987 57 0 0.45 180 21:18 09.07.2020
163 Clear 16 987 57 0 0.45 202 21:18 09.07.2020
164 Clear 16 987 54 0 1.34 138 20:42 09.07.2020
165 Clouds 17 986 52 0 0.89 93 20:24 09.07.2020
166 Clouds 18 986 45 0 0.89 67 19:56 09.07.2020
167 Clouds 18 986 31 0 0.45 225 19:38 09.07.2020
168 Clouds 19 986 30 0 0.45 225 19:20 09.07.2020
169 Clouds 19 986 30 0 0.45 226 18:42 09.07.2020
170 Clouds 19 986 31 0 0.45 316 18:20 09.07.2020
171 Clouds 19 987 30 0 0.45 160 17:55 09.07.2020
172 Clouds 19 987 30 0 0.89 225 17:37 09.07.2020
173 Clouds 19 987 30 0 0.89 311 17:18 09.07.2020
174 Clouds 20 987 31 0 0.89 270 16:54 09.07.2020
175 Clouds 21 987 31 0 0.45 225 16:36 09.07.2020
176 Clouds 20 987 30 0 1.13 220 16:18 09.07.2020
177 Clouds 20 987 32 0 0.45 269 15:45 09.07.2020
178 Clouds 20 987 32 0 0.45 269 15:45 09.07.2020
179 Clouds 20 987 32 0 0.45 227 15:27 09.07.2020
180 Clouds 20 988 35 0 0.45 224 14:59 09.07.2020
181 Clouds 19 988 41 0 1.04 246 14:40 09.07.2020
182 Clouds 19 988 41 0 1.04 246 14:40 09.07.2020
183 Clouds 19 988 41 0 0.45 270 14:22 09.07.2020
184 Clouds 18 988 40 0 1.1 221 13:58 09.07.2020
185 Clouds 19 988 37 0 1.1 221 13:39 09.07.2020
186 Clouds 20 988 30 0 0.45 268 13:20 09.07.2020
187 Clouds 20 988 32 0 0.89 158 12:43 09.07.2020
188 Clouds 18 988 36 0 0.74 147 12:24 09.07.2020
189 Clouds 18 988 40 0 0.45 227 11:59 09.07.2020
190 Clouds 18 988 37 0 1.34 137 11:41 09.07.2020
191 Clouds 18 988 40 0 0.45 179 11:23 09.07.2020
192 Clouds 18 988 38 0 0.45 133 10:58 09.07.2020
193 Clouds 17 988 48 0 0.45 202 10:40 09.07.2020
194 Clouds 18 988 42 0 0.45 270 10:40 09.07.2020
195 Clouds 17 989 46 0 0.45 137 10:21 09.07.2020
196 Clouds 18 989 46 0 1.34 176 09:44 09.07.2020
197 Clouds 13 1011 62 10000 2.6 30 09:24 09.07.2020
198 Clouds 13 1011 62 10000 3.1 360 08:56 09.07.2020
199 Clouds 13 988 60 0 1.79 51 08:37 09.07.2020
200 Clouds 13 993 1 0 1.79 51 08:18 09.07.2020
201 Clouds 13 992 1 0 1.79 51 07:45 09.07.2020
202 Clouds 12 992 1 0 1.79 42 07:21 09.07.2020
203 Clouds 12 988 74 0 1.79 42 06:40 09.07.2020
204 Clouds 9 992 1 0 1.44 33 06:19 09.07.2020
205 Clouds 9 987 78 0 1.68 31 04:29 09.07.2020
206 Clouds 9 987 79 0 1.54 27 03:24 09.07.2020
207 Clouds 9 1007 69 0 1.65 19 01:58 09.07.2020
208 Clouds 10 986 80 0 1.62 25 01:23 09.07.2020
209 Clouds 11 986 76 0 0.45 268 00:43 09.07.2020
210 Clouds 11 986 73 0 1.44 33 00:23 09.07.2020
211 Clouds 12 1008 71 10000 2.1 320 23:44 08.07.2020
212 Rain 12 990 1 0 0.94 15 23:26 08.07.2020
213 Rain 12 990 1 0 0.94 15 22:57 08.07.2020
214 Rain 12 990 1 0 0.94 15 22:38 08.07.2020
215 Rain 14 985 55 0 0.4 325 22:20 08.07.2020
216 Rain 15 985 52 0 0.45 270 21:57 08.07.2020
217 Rain 15 985 51 0 0.4 325 21:38 08.07.2020
218 Clouds 15 985 51 0 0.45 270 21:20 08.07.2020
219 Clouds 16 985 51 0 0.45 114 20:42 08.07.2020
220 Clouds 16 985 49 0 0.45 225 20:24 08.07.2020
221 Clouds 16 985 45 0 0.45 268 19:57 08.07.2020
222 Clouds 16 984 44 0 0.89 225 19:39 08.07.2020
223 Clouds 17 984 47 0 0.89 186 19:20 08.07.2020
224 Clouds 17 984 48 0 0.45 225 18:42 08.07.2020
225 Clouds 17 984 46 0 1.34 313 18:21 08.07.2020
226 Clouds 17 985 40 0 0.89 264 17:59 08.07.2020
227 Clouds 17 985 40 0 0.45 225 17:40 08.07.2020
228 Clouds 18 985 38 0 0.45 228 17:21 08.07.2020
229 Clouds 19 985 38 0 0.45 225 16:58 08.07.2020
230 Clouds 18 985 47 0 1.87 265 16:38 08.07.2020
231 Clouds 18 985 40 0 0.45 225 16:19 08.07.2020
232 Clouds 17 984 41 0 0.45 270 15:58 08.07.2020
233 Clouds 17 984 36 0 0.89 138 15:38 08.07.2020
234 Clouds 17 984 36 0 1.34 273 15:19 08.07.2020
235 Clouds 18 984 36 0 0.45 269 14:44 08.07.2020
236 Clouds 17 984 35 0 0.89 226 14:25 08.07.2020
237 Clouds 17 984 50 0 0.45 90 13:58 08.07.2020
238 Clouds 17 984 47 0 0.45 130 13:40 08.07.2020
239 Clouds 17 984 42 0 0.45 225 13:18 08.07.2020
240 Clouds 17 983 36 0 0.89 225 12:41 08.07.2020
241 Clouds 14 988 30 0 1.34 251 12:20 08.07.2020
242 Clouds 15 988 32 0 0.45 288 11:56 08.07.2020
243 Clouds 15 988 32 0 0.45 288 11:37 08.07.2020
244 Clouds 17 1003 41 0 2.21 320 11:19 08.07.2020
245 Clouds 17 983 44 0 0.45 268 10:43 08.07.2020
246 Clouds 16 983 50 0 0.45 248 10:24 08.07.2020
247 Clouds 15 983 52 0 0.45 248 09:46 08.07.2020
248 Clouds 11 1005 66 10000 5.1 350 09:25 08.07.2020
249 Clouds 11 1005 66 10000 5.7 350 08:56 08.07.2020
250 Clouds 11 1005 66 10000 5.7 350 08:38 08.07.2020
251 Clouds 12 983 61 0 0.45 265 08:19 08.07.2020
252 Clouds 11 1002 70 0 2.14 346 07:42 08.07.2020
253 Clouds 10 987 1 0 2.25 335 07:19 08.07.2020
254 Clouds 9 982 79 0 2.25 335 06:45 08.07.2020
255 Clouds 7 1004 87 10000 2.1 330 06:25 08.07.2020
256 Clouds 8 982 80 0 2.33 327 05:45 08.07.2020
257 Clouds 7 987 1 0 2.38 326 04:44 08.07.2020
258 Clouds 9 982 84 0 2.48 322 03:39 08.07.2020
259 Rain 9 982 83 0 1.94 331 02:19 08.07.2020
260 Rain 9 981 82 0 0.89 270 01:38 08.07.2020
261 Rain 9 981 81 0 0.45 270 00:51 08.07.2020
262 Rain 9 981 80 0 0.45 273 00:19 08.07.2020
263 Rain 9 981 79 0 2.21 351 23:43 07.07.2020
264 Rain 9 981 77 0 2.7 344 23:22 07.07.2020
265 Rain 9 981 77 0 0.45 226 22:56 07.07.2020
266 Rain 9 981 76 0 3.49 341 22:38 07.07.2020
267 Rain 10 981 75 0 3.49 341 22:19 07.07.2020
268 Rain 10 981 76 0 3.49 341 21:42 07.07.2020
269 Rain 10 981 76 0 3.49 341 21:42 07.07.2020
270 Rain 10 981 75 0 2.75 329 21:22 07.07.2020
271 Rain 10 981 74 0 2.75 329 20:59 07.07.2020
272 Rain 10 981 72 0 0.45 227 20:41 07.07.2020
273 Rain 11 980 72 0 2.65 346 20:23 07.07.2020
274 Rain 11 980 72 0 0.45 227 19:56 07.07.2020
275 Rain 12 980 72 0 0.45 225 19:37 07.07.2020
276 Rain 12 980 71 0 2.65 360 19:19 07.07.2020
277 Rain 13 980 69 0 2.65 360 18:55 07.07.2020
278 Rain 13 981 62 0 2.65 360 18:37 07.07.2020
279 Rain 13 981 59 0 1.94 357 18:18 07.07.2020
280 Rain 13 981 55 0 0.45 90 17:44 07.07.2020
281 Rain 12 981 54 0 1.75 314 17:23 07.07.2020
282 Rain 12 981 53 0 0.45 90 16:59 07.07.2020
283 Rain 12 981 54 0 0.45 90 16:58 07.07.2020
284 Rain 12 981 53 0 1.75 314 16:40 07.07.2020
285 Rain 14 981 57 0 0.45 90 16:21 07.07.2020
286 Rain 13 981 63 0 0.45 90 15:55 07.07.2020
287 Rain 14 981 65 0 1.52 300 15:36 07.07.2020
288 Rain 13 981 65 0 0.45 90 15:18 07.07.2020
289 Rain 12 981 63 0 0.89 270 14:42 07.07.2020
290 Rain 12 980 61 0 1.34 50 14:23 07.07.2020
291 Rain 15 980 42 0 1.34 183 13:43 07.07.2020
292 Rain 16 980 40 0 1.34 224 13:20 07.07.2020
293 Rain 16 980 40 0 0.89 176 12:56 07.07.2020
294 Clear 16 980 40 0 0.45 314 12:36 07.07.2020
295 Rain 16 980 41 0 0.45 159 12:36 07.07.2020
296 Clear 16 980 40 0 0.45 314 12:36 07.07.2020
297 Clear 16 980 39 0 0.89 270 12:18 07.07.2020
298 Clear 15 980 41 0 0.89 167 11:42 07.07.2020
299 Clear 16 980 42 0 0.89 231 11:22 07.07.2020
300 Clear 16 980 43 0 0.45 48 10:58 07.07.2020
301 Clear 16 980 41 0 0.89 228 10:39 07.07.2020
302 Clear 16 980 44 0 0.45 225 10:20 07.07.2020
303 Clear 13 985 30 0 1.09 190 09:42 07.07.2020
304 Clouds 12 1002 58 10000 1.5 300 09:21 07.07.2020
305 Clouds 12 980 49 0 0.45 180 08:54 07.07.2020
306 Clouds 12 980 50 0 0.45 180 08:36 07.07.2020
307 Clouds 13 980 50 0 0.29 7 08:18 07.07.2020
308 Clouds 12 980 50 0 0.45 180 07:38 07.07.2020
309 Clouds 11 980 61 0 0.45 180 07:19 07.07.2020
310 Clouds 10 980 62 0 0.3 359 06:41 07.07.2020
311 Clouds 9 980 61 0 0.72 311 06:22 07.07.2020
312 Clouds 10 980 59 0 0.82 292 05:28 07.07.2020
313 Clouds 10 984 1 0 0.82 292 04:44 07.07.2020
314 Clouds 11 979 62 0 0.9 262 03:42 07.07.2020
315 Clouds 11 979 61 0 0.95 264 02:57 07.07.2020
316 Clouds 12 979 57 0 1.66 255 01:41 07.07.2020
317 Clouds 12 999 66 10000 2.6 290 00:59 07.07.2020
318 Clouds 12 999 66 10000 2.1 250 00:40 07.07.2020
319 Clouds 12 1000 68 0 1.07 268 00:20 07.07.2020
320 Clouds 12 981 1 0 0.45 283 23:43 06.07.2020
321 Clouds 13 977 60 0 0.91 270 23:25 06.07.2020
322 Clouds 12 977 62 0 0.45 90 22:57 06.07.2020
323 Clouds 13 976 62 0 0.91 270 22:38 06.07.2020
324 Clouds 13 976 66 0 0.45 265 22:18 06.07.2020
325 Clouds 13 976 67 0 0.81 30 21:56 06.07.2020
326 Clouds 13 975 65 0 2.09 18 21:36 06.07.2020
327 Clouds 13 975 63 0 2.09 18 21:18 06.07.2020
328 Rain 13 974 62 0 0.45 225 20:40 06.07.2020
329 Rain 14 974 62 0 1.84 330 20:20 06.07.2020
330 Rain 14 973 62 0 1.84 330 19:58 06.07.2020
331 Rain 14 973 62 0 0.45 248 19:40 06.07.2020
332 Rain 14 973 63 0 0.45 225 19:22 06.07.2020
333 Rain 15 972 62 0 0.45 225 18:58 06.07.2020
334 Rain 15 972 60 0 0.45 224 18:39 06.07.2020
335 Rain 16 972 59 0 0.45 225 18:21 06.07.2020
336 Rain 16 971 61 0 0.45 225 17:54 06.07.2020
337 Clouds 15 971 62 0 2.33 343 17:36 06.07.2020
338 Clouds 15 971 63 0 0.45 270 17:18 06.07.2020
339 Clouds 15 970 67 0 0.89 270 16:42 06.07.2020
340 Rain 17 969 66 0 0.45 227 16:22 06.07.2020
341 Rain 16 969 62 0 2.03 360 15:44 06.07.2020
342 Clouds 16 968 70 0 1.51 43 15:26 06.07.2020
343 Clouds 15 968 72 0 1.51 43 14:57 06.07.2020
344 Clouds 15 968 72 0 1.51 43 14:57 06.07.2020
345 Clouds 16 967 70 0 1.51 43 14:38 06.07.2020
346 Clouds 16 967 67 0 1.52 112 14:20 06.07.2020
347 Rain 16 966 62 0 0.45 158 13:58 06.07.2020
348 Rain 16 966 64 0 0.45 138 13:39 06.07.2020
349 Rain 15 966 71 0 0.45 227 13:20 06.07.2020
350 Rain 15 965 72 0 0.89 269 12:43 06.07.2020
351 Clouds 15 965 71 0 0.89 90 12:20 06.07.2020
352 Clouds 15 965 70 0 0.89 270 11:58 06.07.2020
353 Clouds 15 965 69 0 1.34 135 11:39 06.07.2020
354 Clouds 15 965 67 0 0.89 223 11:21 06.07.2020
355 Clouds 15 964 66 0 1.34 185 10:57 06.07.2020
356 Clouds 15 964 70 0 1.34 222 10:39 06.07.2020
357 Clouds 14 964 71 0 0.89 155 10:18 06.07.2020
358 Clouds 13 964 75 0 1.34 114 09:42 06.07.2020
359 Clouds 13 963 76 0 0.89 113 09:22 06.07.2020
360 Clouds 11 964 83 0 0.89 180 08:58 06.07.2020
361 Clouds 11 963 84 0 1.34 182 08:38 06.07.2020
362 Clouds 11 963 84 0 1.34 226 08:20 06.07.2020
363 Clouds 11 963 85 0 1.34 337 07:46 06.07.2020
364 Clouds 11 963 84 0 1.34 265 07:24 06.07.2020
365 Clouds 11 963 81 0 0.89 181 06:42 06.07.2020
366 Clouds 11 963 76 0 1.34 180 06:24 06.07.2020
367 Clouds 11 963 74 0 0.45 135 05:42 06.07.2020
368 Clouds 11 963 75 0 1.34 137 05:19 06.07.2020
369 Clouds 11 963 79 0 0.89 137 03:44 06.07.2020
370 Clouds 11 964 71 0 1.79 143 02:24 06.07.2020
371 Clouds 12 964 69 0 2.24 139 01:42 06.07.2020
372 Clouds 13 963 62 0 1.34 269 00:39 06.07.2020
373 Clouds 14 963 61 0 2.24 249 00:20 06.07.2020
374 Clouds 14 963 54 0 1.79 182 23:44 05.07.2020
375 Clear 15 963 55 0 3.13 203 23:26 05.07.2020
376 Clear 15 963 57 0 1.34 290 22:59 05.07.2020
377 Clear 15 963 60 0 1.34 268 22:40 05.07.2020
378 Clear 15 962 59 0 1.34 225 22:20 05.07.2020
379 Clear 15 962 58 0 1.79 137 22:20 05.07.2020
380 Clear 15 962 58 0 2.24 225 21:58 05.07.2020
381 Clouds 15 961 71 0 2.68 270 21:40 05.07.2020
382 Clouds 15 961 75 0 2.68 338 21:18 05.07.2020
383 Clouds 15 961 74 0 2.24 178 20:58 05.07.2020
384 Clouds 15 961 74 0 1.34 183 20:39 05.07.2020
385 Clouds 15 960 75 0 2.24 178 20:20 05.07.2020
386 Clouds 15 960 75 0 2.24 178 20:20 05.07.2020
387 Clouds 16 961 75 0 2.24 224 19:43 05.07.2020
388 Rain 16 961 75 0 2.68 183 19:22 05.07.2020
389 Rain 16 961 75 0 2.24 228 18:58 05.07.2020
390 Rain 16 961 76 0 1.34 177 18:40 05.07.2020
391 Rain 16 961 78 0 1.34 137 18:21 05.07.2020
392 Rain 16 961 81 0 1.34 91 17:55 05.07.2020
393 Rain 16 961 84 0 1.79 135 17:37 05.07.2020
394 Rain 16 961 87 0 1.34 267 17:18 05.07.2020
395 Rain 16 962 92 0 2.24 180 16:42 05.07.2020
396 Rain 16 962 92 0 1.34 267 16:24 05.07.2020
397 Rain 16 962 90 0 0.89 267 15:54 05.07.2020
398 Rain 15 985 93 10000 3.1 120 15:36 05.07.2020
399 Rain 14 985 93 10000 3.1 120 15:18 05.07.2020
400 Rain 14 962 91 0 1.34 227 14:40 05.07.2020
401 Rain 13 963 91 0 2.24 180 14:21 05.07.2020
402 Rain 13 964 90 0 0.45 132 13:42 05.07.2020
403 Rain 13 964 90 0 1.79 137 13:23 05.07.2020
404 Rain 13 965 89 0 1.34 269 12:47 05.07.2020
405 Rain 13 965 89 0 1.79 223 12:27 05.07.2020
406 Rain 12 966 89 0 0.89 269 11:58 05.07.2020
407 Rain 12 966 89 0 0.89 269 11:58 05.07.2020
408 Rain 12 967 88 0 1.34 93 11:40 05.07.2020
409 Rain 12 968 88 0 0.89 354 11:21 05.07.2020
410 Rain 12 969 89 0 1.79 176 10:58 05.07.2020
411 Rain 12 970 88 0 1.34 222 10:39 05.07.2020
412 Rain 12 970 88 0 0.89 268 10:19 05.07.2020
413 Rain 12 971 89 0 1.34 319 09:56 05.07.2020
414 Rain 12 971 87 0 0.89 136 09:37 05.07.2020
415 Rain 12 972 85 0 0.45 155 09:19 05.07.2020
416 Rain 12 973 83 0 0.45 224 08:45 05.07.2020
417 Rain 12 973 83 0 0.45 224 08:45 05.07.2020
418 Rain 12 973 86 0 0.45 90 08:27 05.07.2020
419 Rain 12 974 85 0 0.89 133 07:47 05.07.2020
420 Rain 12 974 85 0 0.89 178 07:47 05.07.2020
421 Rain 12 974 85 0 0.45 52 07:29 05.07.2020
422 Rain 12 975 75 0 0.89 241 06:51 05.07.2020
423 Clouds 11 995 82 0 1.4 73 05:41 05.07.2020
424 Clouds 11 977 75 0 0.89 134 03:31 05.07.2020
425 Clouds 11 997 76 0 0.83 120 02:41 05.07.2020
426 Clouds 11 1000 81 10000 1.5 310 02:18 05.07.2020
427 Clouds 12 1001 71 10000 0.81 105 01:33 05.07.2020
428 Clouds 12 1001 71 10000 1 330 00:58 05.07.2020
429 Clouds 13 1001 58 10000 1 10 00:38 05.07.2020
430 Clouds 13 1001 58 10000 1 10 00:20 05.07.2020
431 Clouds 13 1001 58 10000 1 230 23:46 04.07.2020
432 Clouds 14 979 62 0 1.3 200 23:28 04.07.2020
433 Clouds 14 1001 62 10000 1 330 22:55 04.07.2020
434 Clouds 15 979 60 0 1.62 197 22:37 04.07.2020
435 Rain 15 979 60 0 0.45 90 22:18 04.07.2020
436 Rain 16 979 55 0 0.45 90 21:42 04.07.2020
437 Clouds 16 979 54 0 0.45 90 21:23 04.07.2020
438 Clouds 16 979 51 0 0.45 90 20:57 04.07.2020
439 Clouds 17 979 48 0 0.45 90 20:38 04.07.2020
440 Clouds 17 979 41 0 0.45 90 20:18 04.07.2020
441 Clouds 18 979 41 0 0.45 92 19:43 04.07.2020
442 Clouds 18 979 41 0 0.45 270 19:22 04.07.2020
443 Clouds 18 979 41 0 0.45 270 19:22 04.07.2020
444 Clouds 18 979 41 0 0.45 270 18:55 04.07.2020
445 Clouds 19 979 40 0 0.89 224 18:37 04.07.2020
446 Clouds 19 980 41 0 0.45 185 18:19 04.07.2020
447 Clouds 19 980 40 0 0.45 225 17:42 04.07.2020
448 Clouds 19 980 38 0 0.45 119 17:23 04.07.2020
449 Clouds 19 980 36 0 0.45 140 16:57 04.07.2020
450 Clear 20 980 34 0 0.45 227 16:38 04.07.2020
451 Clear 21 980 33 0 0.45 225 16:19 04.07.2020
452 Clear 20 980 31 0 0.45 180 15:46 04.07.2020
453 Clear 21 980 31 0 0.45 225 15:27 04.07.2020
454 Clear 20 980 31 0 0.45 182 14:59 04.07.2020
455 Clear 20 980 32 0 0.45 202 14:38 04.07.2020
456 Clear 20 980 34 0 0.45 272 14:19 04.07.2020
457 Clear 20 980 33 0 0.45 225 13:58 04.07.2020
458 Clear 20 980 37 0 0.77 66 13:39 04.07.2020
459 Clear 19 980 40 0 0.45 270 13:18 04.07.2020
460 Clear 19 980 38 0 0.45 269 12:42 04.07.2020
461 Clouds 15 1002 47 10000 4.1 40 12:21 04.07.2020
462 Clouds 16 1002 54 10000 3.6 40 11:54 04.07.2020
463 Clear 15 980 56 0 0.45 180 11:36 04.07.2020
464 Clear 17 980 55 0 0.45 180 11:18 04.07.2020
465 Clear 15 980 56 0 0.45 137 10:41 04.07.2020
466 Clear 14 980 60 0 0.45 45 10:21 04.07.2020
467 Clear 13 980 61 0 2.39 35 09:58 04.07.2020
468 Clear 13 980 61 0 2.39 35 09:58 04.07.2020
469 Clouds 11 1002 71 10000 4.6 360 09:37 04.07.2020
470 Clouds 11 1002 71 10000 4.6 360 09:19 04.07.2020
471 Clouds 11 1002 76 10000 4.6 360 08:46 04.07.2020
472 Clouds 10 1002 81 10000 3.6 360 08:27 04.07.2020
473 Clouds 11 979 74 0 0.45 272 07:46 04.07.2020
474 Clouds 10 1002 87 10000 2.6 360 07:28 04.07.2020
475 Clouds 10 979 85 0 0.45 90 06:55 04.07.2020
476 Rain 9 979 87 0 0.45 90 06:22 04.07.2020
477 Rain 9 980 87 0 1.77 341 05:35 04.07.2020
478 Rain 9 979 83 0 1.55 338 04:43 04.07.2020
479 Rain 10 980 86 0 0.45 270 02:51 04.07.2020
480 Rain 10 980 88 0 0.18 267 02:19 04.07.2020
481 Clouds 10 980 87 0 0.44 180 01:26 04.07.2020
482 Clouds 10 980 87 0 0.45 95 00:41 04.07.2020
483 Clouds 11 981 88 0 1.19 171 00:22 04.07.2020
484 Clouds 11 981 87 0 0.45 90 23:40 03.07.2020
485 Clouds 11 981 87 0 1.87 184 23:19 03.07.2020
486 Clouds 11 981 86 0 1.87 184 22:55 03.07.2020
487 Rain 11 982 84 0 2.63 196 22:37 03.07.2020
488 Rain 11 982 84 0 2.63 196 22:19 03.07.2020
489 Rain 11 982 84 0 2.63 196 21:41 03.07.2020
490 Rain 11 982 83 0 2.9 195 21:20 03.07.2020
491 Rain 12 981 81 0 2.9 195 20:55 03.07.2020
492 Rain 12 982 80 0 2.9 195 20:37 03.07.2020
493 Rain 12 982 80 0 0.89 223 20:18 03.07.2020
494 Rain 12 981 79 0 0.45 269 19:41 03.07.2020
495 Rain 12 981 73 0 0.45 225 19:19 03.07.2020
496 Rain 13 982 71 0 0.89 180 18:55 03.07.2020
497 Rain 13 981 64 0 1.34 110 18:37 03.07.2020
498 Rain 13 981 65 0 1.79 268 18:18 03.07.2020
499 Rain 13 981 71 0 0.89 181 17:41 03.07.2020
500 Rain 13 982 67 0 0.89 184 17:22 03.07.2020
501 Rain 14 982 65 0 1.34 178 16:45 03.07.2020
502 Rain 14 982 66 0 0.89 222 16:26 03.07.2020
503 Rain 14 982 72 0 0.45 247 15:48 03.07.2020
504 Clouds 15 1004 44 10000 7.7 210 15:25 03.07.2020
505 Rain 16 983 57 0 2.24 184 14:59 03.07.2020
506 Rain 16 982 51 0 0.89 79 14:41 03.07.2020
507 Clouds 16 983 48 0 0.45 270 14:22 03.07.2020
508 Clouds 17 983 43 0 0.89 174 13:48 03.07.2020
509 Clouds 16 983 45 0 0.45 179 13:29 03.07.2020
510 Clouds 17 983 46 0 0.89 223 12:59 03.07.2020
511 Clouds 16 983 42 0 0.89 225 12:40 03.07.2020
512 Clouds 15 983 42 0 1.34 224 12:20 03.07.2020
513 Clouds 15 983 44 0 1.79 180 11:44 03.07.2020
514 Clouds 14 983 44 0 0.89 138 11:25 03.07.2020
515 Clouds 14 983 46 0 0.89 225 10:59 03.07.2020
516 Clouds 14 983 45 0 0.89 132 10:40 03.07.2020
517 Clouds 14 983 44 0 0.89 135 10:21 03.07.2020
518 Clouds 14 983 44 0 0.89 224 09:56 03.07.2020
519 Clouds 12 1005 62 10000 3.1 190 09:37 03.07.2020
520 Clouds 12 1005 62 10000 3.1 190 09:18 03.07.2020
521 Clouds 12 983 46 0 0.89 248 08:40 03.07.2020
522 Clouds 13 983 51 0 0.45 226 08:19 03.07.2020
523 Clouds 13 983 51 0 0.45 0 08:19 03.07.2020
524 Clouds 12 983 50 0 0.45 270 07:50 03.07.2020
525 Clouds 12 1002 38 0 0.86 271 07:28 03.07.2020
526 Clouds 13 982 48 0 0.45 180 06:58 03.07.2020
527 Clouds 8 1004 75 10000 1.5 300 06:20 03.07.2020
528 Clouds 7 1004 70 10000 1 0 04:56 03.07.2020
529 Clouds 7 1004 75 10000 1 0 03:45 03.07.2020
530 Clouds 8 1003 75 10000 0.5 0 02:49 03.07.2020
531 Clouds 8 1003 75 10000 1 0 02:29 03.07.2020
532 Clouds 9 1003 76 10000 1 0 01:29 03.07.2020
533 Clouds 10 1003 76 10000 1.5 330 00:56 03.07.2020
534 Clouds 11 981 44 0 0.45 46 00:36 03.07.2020
535 Clouds 11 1002 76 10000 1 330 23:49 02.07.2020
536 Clouds 13 980 39 0 0.45 90 23:21 02.07.2020
537 Clouds 14 980 38 0 0.45 315 22:58 02.07.2020
538 Clouds 14 980 37 0 0.45 247 22:40 02.07.2020
539 Clouds 15 980 38 0 0.45 68 22:20 02.07.2020
540 Clouds 15 980 37 0 0.45 46 21:57 02.07.2020
541 Thunderstorm 15 1001 62 10000 2.1 30 21:39 02.07.2020
542 Clouds 16 979 34 0 0.89 183 21:19 02.07.2020
543 Clouds 17 996 26 0 0.45 226 20:57 02.07.2020
544 Clouds 17 997 25 0 0.89 225 20:39 02.07.2020
545 Rain 17 979 51 0 0.45 180 20:18 02.07.2020
546 Rain 18 979 53 0 0.45 135 19:42 02.07.2020
547 Rain 18 978 54 0 0.89 180 19:23 02.07.2020
548 Rain 17 978 56 0 0.45 135 18:58 02.07.2020
549 Rain 17 979 55 0 0.45 135 18:40 02.07.2020
550 Rain 17 979 56 0 0.45 135 18:21 02.07.2020
551 Rain 17 979 58 0 0.45 135 17:54 02.07.2020
552 Rain 17 978 53 0 0.45 225 17:36 02.07.2020
553 Rain 18 978 52 0 0.45 225 17:18 02.07.2020
554 Clouds 16 1000 58 10000 3.1 30 16:41 02.07.2020
555 Rain 18 978 59 0 0.45 225 16:20 02.07.2020
556 Rain 18 978 58 0 0.45 225 15:56 02.07.2020
557 Rain 18 978 58 0 0.45 225 15:56 02.07.2020
558 Rain 18 978 57 0 0.45 135 15:37 02.07.2020
559 Rain 17 978 65 0 0.45 134 15:18 02.07.2020
560 Rain 15 999 55 10000 3.6 350 14:44 02.07.2020
561 Rain 16 999 55 10000 3.6 350 14:22 02.07.2020
562 Rain 18 977 52 0 0.45 45 13:57 02.07.2020
563 Rain 17 977 62 0 0.45 225 13:38 02.07.2020
564 Rain 17 977 64 0 0.45 224 13:18 02.07.2020
565 Rain 16 977 69 0 0.45 95 12:41 02.07.2020
566 Clouds 16 977 65 0 0.45 223 12:22 02.07.2020
567 Clouds 15 977 61 0 0.45 90 11:57 02.07.2020
568 Clouds 16 977 62 0 0.45 225 11:39 02.07.2020
569 Clouds 15 994 46 0 0.45 100 11:21 02.07.2020
570 Clouds 15 999 67 10000 4.6 20 10:42 02.07.2020
571 Clouds 15 999 67 10000 4.6 20 10:24 02.07.2020
572 Clouds 15 977 59 0 0.45 90 09:45 02.07.2020
573 Clouds 12 998 71 10000 4.6 20 09:23 02.07.2020
574 Clouds 11 998 76 10000 5.1 360 08:59 02.07.2020
575 Clouds 11 998 76 10000 4.1 360 08:40 02.07.2020
576 Clouds 11 998 76 10000 4.1 360 08:20 02.07.2020
577 Clouds 11 998 87 10000 4.1 360 07:42 02.07.2020
578 Clouds 10 998 87 10000 2.6 350 07:22 02.07.2020
579 Clouds 11 975 78 0 0.45 270 06:50 02.07.2020
580 Fog 9 998 93 10000 2.6 330 06:27 02.07.2020
581 Fog 7 997 93 10000 2.1 320 05:50 02.07.2020
582 Fog 8 997 93 10000 1 0 04:58 02.07.2020
583 Clear 8 994 86 0 1.77 16 03:34 02.07.2020
584 Clouds 10 993 78 0 1.42 21 01:51 02.07.2020
585 Clouds 11 993 70 0 1.2 28 00:44 02.07.2020
586 Thunderstorm 11 998 93 8000 2.1 80 00:19 02.07.2020
587 Thunderstorm 11 998 93 10000 2.1 280 23:43 01.07.2020
588 Rain 12 975 70 0 0.45 270 23:23 01.07.2020
589 Rain 13 975 71 0 0.45 45 22:55 01.07.2020
590 Rain 13 975 70 0 0.81 100 22:37 01.07.2020
591 Rain 13 975 70 0 0.45 133 22:18 01.07.2020
592 Rain 13 975 69 0 0.45 158 21:56 01.07.2020
593 Rain 14 975 63 0 0.45 182 21:38 01.07.2020
594 Rain 15 975 63 0 1.61 173 21:19 01.07.2020
595 Clouds 15 975 63 0 0.87 150 20:46 01.07.2020
596 Clouds 14 975 61 0 1.34 158 20:26 01.07.2020
597 Clouds 15 975 62 0 0.45 225 19:57 01.07.2020
598 Clouds 15 975 59 0 1.34 222 19:39 01.07.2020
599 Clouds 15 975 52 0 0.89 114 19:20 01.07.2020
600 Clouds 16 975 51 0 0.45 178 18:55 01.07.2020
601 Clouds 17 975 52 0 0.45 140 18:37 01.07.2020
602 Clouds 18 975 51 0 0.89 274 18:19 01.07.2020
603 Clouds 18 975 43 0 0.89 288 17:41 01.07.2020
604 Clouds 18 975 42 0 0.45 268 17:20 01.07.2020
605 Clouds 18 975 39 0 0.89 270 16:49 01.07.2020
606 Clouds 18 975 40 0 0.45 268 16:29 01.07.2020
607 Clouds 18 975 39 0 0.45 92 15:59 01.07.2020
608 Clouds 18 975 40 0 0.45 90 15:41 01.07.2020
609 Clouds 19 997 48 10000 2.1 140 15:22 01.07.2020
610 Clouds 19 997 47 10000 1.5 0 14:55 01.07.2020
611 Rain 17 997 47 10000 2.1 20 14:37 01.07.2020
612 Clouds 18 997 47 10000 2.1 20 14:19 01.07.2020
613 Clouds 17 975 40 0 0.45 270 13:40 01.07.2020
614 Clouds 17 975 41 0 0.45 225 13:22 01.07.2020
615 Clouds 14 997 54 10000 1.5 0 12:59 01.07.2020
616 Clouds 17 975 40 0 0.45 225 12:40 01.07.2020
617 Clouds 14 997 58 10000 2.6 350 12:22 01.07.2020
618 Clouds 13 997 62 10000 2.6 330 11:56 01.07.2020
619 Clouds 13 997 62 10000 2.6 330 11:56 01.07.2020
620 Clouds 13 997 62 10000 2.6 330 11:37 01.07.2020
621 Clouds 12 997 62 10000 2.6 350 11:18 01.07.2020
622 Clouds 11 997 66 10000 4.1 360 10:42 01.07.2020
623 Clouds 11 996 62 10000 4.6 360 10:23 01.07.2020
624 Clouds 11 996 66 10000 4.6 20 09:59 01.07.2020
625 Clouds 11 996 66 10000 4.6 20 09:59 01.07.2020
626 Clouds 10 996 71 10000 6.2 10 09:38 01.07.2020
627 Clouds 10 996 71 10000 6.2 10 09:19 01.07.2020
628 Clouds 10 996 71 10000 4.1 10 08:55 01.07.2020
629 Clouds 11 974 65 0 0.45 248 08:37 01.07.2020
630 Clouds 11 973 68 0 0.45 270 08:18 01.07.2020
631 Clouds 11 973 71 0 2.64 19 07:39 01.07.2020
632 Clouds 11 973 73 0 0.45 268 07:20 01.07.2020
633 Clouds 11 972 73 0 2.25 19 06:50 01.07.2020
634 Clouds 11 972 75 0 1.64 1 06:28 01.07.2020
635 Clouds 11 971 75 0 0.45 314 05:28 01.07.2020
636 Clouds 11 970 80 0 0.45 275 03:48 01.07.2020
637 Clouds 11 970 80 0 0.45 222 03:28 01.07.2020
638 Clouds 11 970 80 0 0.89 266 02:41 01.07.2020
639 Clouds 12 968 82 0 0.45 228 01:49 01.07.2020
640 Rain 12 990 93 10000 5.1 10 00:45 01.07.2020
641 Clouds 13 968 91 0 0.45 225 00:25 01.07.2020
642 Clouds 14 967 89 0 1.82 338 23:42 30.06.2020
643 Clouds 14 967 87 0 0.65 319 23:23 30.06.2020
644 Clouds 14 967 87 0 0.65 319 22:59 30.06.2020
645 Clouds 14 967 85 0 0.65 319 22:40 30.06.2020
646 Rain 14 967 84 0 0.64 171 22:18 30.06.2020
647 Clouds 14 967 84 0 0.84 160 21:41 30.06.2020
648 Rain 14 967 83 0 1.45 180 21:41 30.06.2020
649 Rain 14 967 82 0 0.45 135 21:19 30.06.2020
650 Rain 14 966 82 0 1.45 180 21:19 30.06.2020
651 Rain 14 966 80 0 1.45 180 20:55 30.06.2020
652 Rain 15 967 80 0 2.27 183 20:37 30.06.2020
653 Rain 15 967 80 0 2.27 183 20:19 30.06.2020
654 Rain 16 967 79 0 0.45 180 19:42 30.06.2020
655 Rain 16 967 81 0 0.45 112 19:19 30.06.2020
656 Rain 16 967 81 0 0.45 112 19:19 30.06.2020
657 Rain 16 967 81 0 0.45 90 18:46 30.06.2020
658 Rain 16 967 80 0 2.8 182 18:21 30.06.2020
659 Rain 16 968 72 0 1.34 159 17:59 30.06.2020
660 Rain 17 967 62 0 0.45 225 17:38 30.06.2020
661 Rain 16 990 77 10000 2.6 320 17:19 30.06.2020
662 Rain 16 990 87 10000 2.6 310 16:43 30.06.2020
663 Rain 17 968 53 0 0.45 180 16:24 30.06.2020
664 Rain 17 991 87 10000 1.5 290 15:59 30.06.2020
665 Rain 18 969 55 0 1.34 270 15:40 30.06.2020
666 Rain 18 969 53 0 1.34 247 15:22 30.06.2020
667 Rain 18 969 60 0 1.34 270 14:56 30.06.2020
668 Clouds 17 992 72 10000 2.1 0 14:38 30.06.2020
669 Rain 17 969 67 0 0.89 268 14:18 30.06.2020
670 Rain 17 970 71 0 0.45 138 13:40 30.06.2020
671 Rain 16 970 75 0 0.89 177 13:20 30.06.2020
672 Rain 17 970 72 0 0.89 179 12:58 30.06.2020
673 Rain 16 970 70 0 0.89 161 12:40 30.06.2020
674 Rain 16 970 69 0 1.34 180 12:21 30.06.2020
675 Rain 17 971 72 0 1.79 139 11:58 30.06.2020
676 Rain 16 971 81 0 0.45 135 11:39 30.06.2020
677 Rain 14 994 93 8000 3.1 170 11:19 30.06.2020
678 Rain 15 994 87 10000 1.5 80 10:58 30.06.2020
679 Rain 18 984 90 0 0.89 182 16:39 28.06.2020
680 Rain 19 983 85 0 0.45 137 16:20 28.06.2020
681 Rain 19 984 76 0 1.34 225 15:56 28.06.2020
682 Rain 21 983 80 0 3.81 184 15:37 28.06.2020
683 Rain 20 983 84 0 3.73 192 15:18 28.06.2020
684 Rain 19 984 84 0 0.89 93 14:44 28.06.2020
685 Rain 19 984 85 0 0.89 269 14:25 28.06.2020
686 Rain 19 984 87 0 0.89 138 13:58 28.06.2020
687 Rain 19 984 85 0 0.45 224 13:37 28.06.2020
688 Rain 19 984 83 0 2.11 167 13:19 28.06.2020
689 Rain 18 984 83 0 0.45 182 12:56 28.06.2020
690 Rain 19 984 83 0 0.45 91 12:37 28.06.2020
691 Rain 19 984 82 0 2.38 153 12:18 28.06.2020
692 Rain 19 984 84 0 0.45 48 11:55 28.06.2020
693 Rain 19 984 84 0 2.38 153 11:37 28.06.2020
694 Rain 19 984 84 0 2.38 153 11:37 28.06.2020
695 Rain 19 984 82 0 0.45 314 11:19 28.06.2020
696 Rain 19 984 82 0 0.45 314 11:19 28.06.2020
697 Rain 20 984 81 0 2.95 132 10:41 28.06.2020
698 Rain 20 984 77 0 2.44 113 10:23 28.06.2020
699 Rain 20 984 75 0 2.44 113 09:57 28.06.2020
700 Rain 21 984 75 0 2.44 113 09:39 28.06.2020
701 Rain 19 984 77 0 1.48 93 09:20 28.06.2020
702 Rain 19 985 77 0 0.45 93 08:42 28.06.2020
703 Rain 20 985 71 0 0.89 228 08:22 28.06.2020
704 Clouds 20 1007 88 10000 1.5 30 07:40 28.06.2020
705 Clouds 20 1007 88 10000 1.5 30 07:20 28.06.2020
706 Rain 19 1007 88 10000 1.5 30 06:34 28.06.2020
707 Rain 18 1007 88 10000 1.26 59 05:54 28.06.2020
708 Rain 18 988 1 0 1.28 58 05:24 28.06.2020
709 Clouds 19 1002 79 0 1.1 61 03:18 28.06.2020
710 Clouds 19 1002 71 0 0.55 83 02:28 28.06.2020
711 Clouds 19 1003 69 0 0.55 20 01:46 28.06.2020
712 Clouds 19 1004 69 0 0.35 161 01:22 28.06.2020
713 Clouds 19 989 1 0 0.45 258 00:42 28.06.2020
714 Clouds 19 1003 66 0 0.79 142 00:21 28.06.2020
715 Clouds 19 1003 63 0 0.79 142 23:40 27.06.2020
716 Clouds 20 1003 60 0 1 153 23:21 27.06.2020
717 Clouds 21 1003 59 0 1 153 22:54 27.06.2020
718 Clouds 21 1003 58 0 1 153 22:36 27.06.2020
719 Clouds 22 985 51 0 1.16 172 22:18 27.06.2020
720 Clouds 23 985 51 0 1.16 172 21:42 27.06.2020
721 Clouds 23 985 50 0 0.45 158 21:20 27.06.2020
722 Clouds 24 985 49 0 0.45 158 20:56 27.06.2020
723 Clouds 24 986 50 0 1.53 150 20:37 27.06.2020
724 Clouds 24 985 50 0 1.5 167 20:18 27.06.2020
725 Clouds 24 986 51 0 1.5 167 19:38 27.06.2020
726 Clouds 24 986 52 0 0.45 158 19:19 27.06.2020
727 Clouds 24 986 52 0 0.45 314 18:59 27.06.2020
728 Clouds 25 986 52 0 1.34 185 18:40 27.06.2020
729 Clouds 26 986 46 0 1.34 223 18:20 27.06.2020
730 Clouds 28 986 38 0 1.41 184 17:41 27.06.2020
731 Clouds 28 986 36 0 0.45 225 17:21 27.06.2020
732 Clouds 29 986 32 0 0.45 158 16:59 27.06.2020
733 Clouds 29 987 30 0 0.45 315 16:39 27.06.2020
734 Clouds 29 986 30 0 0.45 137 16:39 27.06.2020
735 Clouds 29 1010 34 10000 2.6 120 16:20 27.06.2020
736 Clouds 29 987 32 0 0.89 23 15:45 27.06.2020
737 Clouds 29 987 33 0 2.44 157 15:24 27.06.2020
738 Clouds 29 987 33 0 0.45 135 14:59 27.06.2020
739 Clouds 29 988 32 0 0.89 270 14:39 27.06.2020
740 Clouds 29 988 38 0 1.86 151 14:20 27.06.2020
741 Clouds 28 988 36 0 1.86 151 13:54 27.06.2020
742 Clouds 28 989 33 0 1.86 151 13:36 27.06.2020
743 Clouds 29 989 41 0 2.31 147 13:18 27.06.2020
744 Clouds 29 989 40 0 0.45 225 12:41 27.06.2020
745 Clouds 29 989 42 0 0.45 270 12:22 27.06.2020
746 Clouds 28 990 42 0 2.41 135 11:59 27.06.2020
747 Clouds 28 990 42 0 0.45 135 11:40 27.06.2020
748 Clear 28 990 43 0 1.92 121 11:21 27.06.2020
749 Clear 26 990 50 0 1.92 121 10:41 27.06.2020
750 Clear 26 990 43 0 1.16 126 10:19 27.06.2020
751 Clear 26 990 43 0 1.16 126 10:19 27.06.2020
752 Clear 26 990 42 0 1.16 126 09:58 27.06.2020
753 Clear 26 991 50 0 0.45 135 09:39 27.06.2020
754 Clear 22 1013 60 10000 1 0 09:20 27.06.2020
755 Clear 22 991 55 0 0.83 123 08:44 27.06.2020
756 Clouds 22 991 56 0 0.54 89 08:23 27.06.2020
757 Clouds 21 991 57 0 0.45 135 07:48 27.06.2020
758 Clouds 21 991 61 0 0.59 48 07:25 27.06.2020
759 Clouds 20 991 62 0 0.59 48 06:51 27.06.2020
760 Clouds 20 991 63 0 0.59 48 06:33 27.06.2020
761 Clouds 17 996 1 0 0.27 29 04:44 27.06.2020
762 Clouds 16 996 1 0 0.38 28 04:18 27.06.2020
763 Clouds 16 1011 71 0 0.38 28 03:43 27.06.2020
764 Clouds 17 1012 69 0 0.19 76 02:42 27.06.2020
765 Clear 17 997 1 0 0.34 160 02:22 27.06.2020
766 Clear 18 1013 65 0 0.41 178 01:24 27.06.2020
767 Clear 18 1013 65 0 0.41 178 01:24 27.06.2020
768 Clear 18 1012 63 0 0.41 178 00:42 27.06.2020
769 Clear 19 997 1 0 0.58 190 23:47 26.06.2020
770 Clear 19 1013 52 0 0.97 184 23:27 26.06.2020
771 Clear 19 1013 52 0 0.97 184 23:27 26.06.2020
772 Clear 21 1016 46 10000 2.1 240 22:58 26.06.2020
773 Clear 21 1016 46 10000 2.1 240 22:39 26.06.2020
774 Clear 22 993 49 0 0.45 180 22:20 26.06.2020
775 Clear 23 994 46 0 1.37 177 21:58 26.06.2020
776 Clear 23 1013 41 0 1.37 177 21:38 26.06.2020
777 Clear 23 993 43 0 0.45 225 21:20 26.06.2020
778 Clear 24 993 43 0 0.45 225 21:20 26.06.2020
779 Clear 25 994 42 0 1.75 179 20:47 26.06.2020
780 Clear 25 994 41 0 0.45 234 20:26 26.06.2020
781 Clear 26 994 35 0 0.45 185 19:47 26.06.2020
782 Clear 26 994 37 0 0.89 174 19:25 26.06.2020
783 Clear 27 994 37 0 0.89 270 18:59 26.06.2020
784 Clear 27 994 36 0 0.45 135 18:40 26.06.2020
785 Clear 27 995 35 0 0.89 225 18:21 26.06.2020
786 Clear 28 994 30 0 0.45 69 17:44 26.06.2020
787 Clear 28 995 30 0 0.89 270 17:26 26.06.2020
788 Clear 28 995 27 0 0.89 223 16:55 26.06.2020
789 Clear 29 995 26 0 0.89 269 16:36 26.06.2020
790 Clear 29 995 26 0 0.45 223 16:18 26.06.2020
791 Clear 28 996 26 0 1.34 141 15:41 26.06.2020
792 Clear 28 996 25 0 0.89 224 15:21 26.06.2020
793 Clear 28 997 27 0 0.89 269 14:57 26.06.2020
794 Clear 28 997 30 0 1.34 113 14:38 26.06.2020
795 Clear 28 997 24 0 1.34 137 14:20 26.06.2020
796 Clear 27 997 30 0 2.24 0 13:44 26.06.2020
797 Clear 27 997 32 0 0.89 179 13:23 26.06.2020
798 Clear 27 997 32 0 0.89 179 13:23 26.06.2020
799 Clear 27 997 33 0 1.34 227 12:56 26.06.2020
800 Clear 27 997 33 0 0.89 90 12:38 26.06.2020
801 Clear 27 997 38 0 0.45 271 12:19 26.06.2020
802 Clear 27 997 40 0 0.89 203 11:56 26.06.2020
803 Clear 26 997 41 0 0.89 138 11:38 26.06.2020
804 Clear 26 998 43 0 0.45 47 11:19 26.06.2020
805 Clear 25 998 43 0 0.89 222 10:56 26.06.2020
806 Clear 25 998 46 0 0.89 226 10:37 26.06.2020
807 Clear 25 998 46 0 0.89 226 10:37 26.06.2020
808 Clear 25 998 50 0 0.45 223 10:18 26.06.2020
809 Clear 24 998 51 0 0.45 135 09:42 26.06.2020
810 Clear 21 1021 72 10000 2.6 200 09:22 26.06.2020
811 Clear 21 999 65 0 0.45 270 08:48 26.06.2020
812 Clear 20 999 70 0 0.45 180 08:27 26.06.2020
813 Clear 19 999 71 0 0.45 136 07:48 26.06.2020
814 Clear 19 1003 1 0 0.76 175 07:24 26.06.2020
815 Clear 19 998 77 0 0.45 135 06:54 26.06.2020
816 Clear 18 999 81 0 0.45 225 06:33 26.06.2020
817 Clear 15 1003 1 0 0.66 159 05:55 26.06.2020
818 Clear 14 1019 93 0 0.65 160 05:30 26.06.2020
819 Clear 15 1020 88 0 1 160 02:41 26.06.2020
820 Clear 15 1020 87 0 1.04 161 02:21 26.06.2020
821 Clear 16 1020 82 0 0.75 150 00:56 26.06.2020
822 Clear 17 1020 81 0 0.75 150 00:37 26.06.2020
823 Clear 18 1023 68 10000 2.6 200 23:48 25.06.2020
824 Clear 19 1020 74 0 1.23 165 23:23 25.06.2020
825 Clear 20 1020 70 0 1.23 165 22:59 25.06.2020
826 Clear 20 1023 64 10000 4.1 180 22:39 25.06.2020
827 Clear 21 1000 62 0 0.45 225 22:20 25.06.2020
828 Clear 21 1000 62 0 0.45 225 22:20 25.06.2020
829 Clear 21 1020 61 0 1.83 163 21:58 25.06.2020
830 Clear 22 1000 51 0 0.45 225 21:40 25.06.2020
831 Clear 22 1000 51 0 0.45 227 21:21 25.06.2020
832 Clear 23 1001 49 0 0.89 179 20:59 25.06.2020
833 Clear 23 1000 50 0 0.89 132 20:40 25.06.2020
834 Clouds 24 1000 49 0 0.45 91 20:22 25.06.2020
835 Clouds 24 1001 48 0 1.34 140 19:56 25.06.2020
836 Clouds 24 1001 47 0 0.89 230 19:37 25.06.2020
837 Clouds 24 1001 47 0 0.89 227 19:18 25.06.2020
838 Clouds 25 1001 46 0 0.45 314 18:40 25.06.2020
839 Clouds 25 1001 44 0 0.89 138 18:21 25.06.2020
840 Clouds 26 1002 44 0 0.89 157 17:45 25.06.2020
841 Clouds 26 1002 43 0 1.34 183 17:20 25.06.2020
842 Clouds 27 1002 42 0 0.89 93 16:59 25.06.2020
843 Clouds 27 1002 41 0 1.34 223 16:40 25.06.2020
844 Clouds 27 1002 40 0 1.34 312 16:19 25.06.2020
845 Clouds 27 1002 41 0 0.45 178 15:44 25.06.2020
846 Clouds 27 1002 42 0 0.89 269 15:26 25.06.2020
847 Clouds 27 1003 42 0 0.89 222 14:56 25.06.2020
848 Clouds 27 1003 44 0 0.45 225 14:37 25.06.2020
849 Clouds 27 1003 42 0 0.89 135 14:19 25.06.2020
850 Clouds 26 1003 41 0 0.89 135 13:55 25.06.2020
851 Clouds 26 1003 46 0 0.89 225 13:36 25.06.2020
852 Clouds 26 1003 45 0 0.89 180 13:18 25.06.2020
853 Clouds 26 1003 49 0 0.89 179 12:42 25.06.2020
854 Clouds 25 1004 51 0 0.89 136 12:20 25.06.2020
855 Clouds 25 1003 53 0 0.89 139 11:43 25.06.2020
856 Clouds 24 1004 54 0 0.45 2 11:25 25.06.2020
857 Clouds 24 1004 56 0 0.45 270 10:57 25.06.2020
858 Clouds 24 1004 60 0 0.45 135 10:39 25.06.2020
859 Clouds 24 1004 62 0 0.89 246 10:20 25.06.2020
860 Clouds 22 1004 70 0 0.45 136 09:41 25.06.2020
861 Clear 20 1004 71 0 0.89 198 09:22 25.06.2020
862 Clear 19 1004 74 0 2.24 130 08:47 25.06.2020
863 Clouds 19 1004 78 0 0.45 265 08:20 25.06.2020
864 Clouds 18 1004 85 0 0.45 223 07:45 25.06.2020
865 Clouds 18 1004 88 0 1.18 162 07:26 25.06.2020
866 Clouds 17 1003 94 0 0.45 313 06:50 25.06.2020
867 Clouds 16 1026 93 10000 1.5 230 06:27 25.06.2020
868 Fog 16 1026 100 5000 2.6 200 05:51 25.06.2020
869 Clear 15 1026 87 10000 2.6 210 04:29 25.06.2020
870 Clear 15 1026 87 10000 2.6 210 03:34 25.06.2020
871 Clear 16 1025 90 0 1.05 168 02:42 25.06.2020
872 Clear 16 1025 89 0 1.05 168 01:59 25.06.2020
873 Clear 17 1025 85 0 1.33 167 01:21 25.06.2020
874 Clear 17 1024 82 0 1.33 167 00:44 25.06.2020
875 Clear 17 1024 81 0 1.4 165 00:21 25.06.2020
876 Clear 18 1023 77 0 1.4 165 23:44 24.06.2020
877 Clear 19 1008 1 0 0.45 157 23:26 24.06.2020
878 Clear 19 1023 71 0 1.42 168 22:59 24.06.2020
879 Clear 20 1023 69 0 1.42 168 22:41 24.06.2020
880 Clear 21 1003 60 0 0.45 180 22:20 24.06.2020
881 Clear 21 1023 62 0 1.68 166 21:56 24.06.2020
882 Clear 22 1023 61 0 1.83 168 21:37 24.06.2020
883 Clear 23 1003 49 0 0.45 179 21:18 24.06.2020
884 Clear 23 1003 47 0 0.45 130 20:58 24.06.2020
885 Clear 24 1003 48 0 0.45 115 20:39 24.06.2020
886 Clear 24 1002 46 0 1.34 132 20:20 24.06.2020
887 Clear 25 1003 43 0 1.34 315 19:57 24.06.2020
888 Clear 25 1003 43 0 1.34 137 19:37 24.06.2020
889 Clear 25 1003 42 0 0.89 132 19:18 24.06.2020
890 Clear 25 1003 45 0 1.34 312 18:57 24.06.2020
891 Clear 26 1003 42 0 0.89 90 18:38 24.06.2020
892 Clear 26 1003 41 0 0.89 141 18:20 24.06.2020
893 Clear 27 1003 41 0 1.34 277 17:44 24.06.2020
894 Clear 28 1003 40 0 0.89 224 17:21 24.06.2020
895 Clear 28 1003 40 0 0.89 308 16:59 24.06.2020
896 Clear 27 1003 35 0 0.45 299 16:41 24.06.2020
897 Clear 28 1003 33 0 1.34 5 16:22 24.06.2020
898 Clear 28 1003 40 0 1.34 179 15:59 24.06.2020
899 Clear 28 1003 42 0 1.34 312 15:39 24.06.2020
900 Clear 27 1003 50 0 1.34 228 15:20 24.06.2020
901 Clear 27 1003 52 0 0.89 225 14:54 24.06.2020
902 Clear 27 1003 54 0 0.89 225 14:36 24.06.2020
903 Clear 26 1003 54 0 1.34 225 14:18 24.06.2020
904 Clear 26 1003 55 0 0.45 270 13:42 24.06.2020
905 Clear 27 1003 55 0 0.89 270 13:21 24.06.2020
906 Clear 26 1003 58 0 0.89 270 12:43 24.06.2020
907 Clear 25 1003 58 0 0.45 248 12:21 24.06.2020
908 Clear 24 1003 58 0 0.45 248 11:58 24.06.2020
909 Clear 25 1003 60 0 0.45 225 11:39 24.06.2020
910 Clear 24 1003 61 0 0.45 225 11:21 24.06.2020
911 Clear 24 1003 62 0 0.45 268 10:45 24.06.2020
912 Clear 23 1003 63 0 1.83 187 10:19 24.06.2020
913 Clear 21 1003 72 0 0.45 135 09:46 24.06.2020
914 Clear 20 1003 72 0 0.89 227 09:26 24.06.2020
915 Clear 20 1003 76 0 0.45 270 08:59 24.06.2020
916 Clear 19 1003 77 0 0.45 223 08:40 24.06.2020
917 Clear 18 1003 80 0 0.45 315 08:18 24.06.2020
918 Clear 18 1003 81 0 0.45 178 07:46 24.06.2020
919 Clear 17 1003 86 0 0.45 270 07:25 24.06.2020
920 Clear 17 1002 86 0 0.45 267 06:45 24.06.2020
921 Clear 16 1025 82 10000 0.5 0 06:24 24.06.2020
922 Clear 15 1023 91 0 0.29 140 05:39 24.06.2020
923 Clear 14 1023 91 0 0.16 203 04:38 24.06.2020
924 Clear 14 1022 89 0 0.25 189 03:38 24.06.2020
925 Clear 15 1006 1 0 0.35 170 02:54 24.06.2020
926 Clouds 15 1006 1 0 0.57 164 02:23 24.06.2020
927 Clouds 16 1023 77 10000 3.1 190 00:52 24.06.2020
928 Clouds 17 1001 69 0 0.45 225 00:33 24.06.2020
929 Clouds 17 1023 72 10000 3.1 180 23:49 23.06.2020
930 Clouds 18 1001 63 0 0.45 225 23:23 23.06.2020
931 Clouds 19 1001 62 0 0.45 180 22:59 23.06.2020
932 Clouds 19 1023 68 10000 4.6 190 22:41 23.06.2020
933 Clouds 20 1000 56 0 0.89 180 22:18 23.06.2020
934 Clouds 20 1001 56 0 0.45 180 21:56 23.06.2020
935 Clouds 21 1000 52 0 0.45 180 21:37 23.06.2020
936 Clouds 21 1000 48 0 0.89 183 21:18 23.06.2020
937 Clouds 22 1000 47 0 0.89 170 20:55 23.06.2020
938 Clouds 22 1000 52 0 0.89 226 20:36 23.06.2020
939 Clouds 22 1000 53 0 0.45 180 20:36 23.06.2020
940 Clouds 22 1000 54 0 1.34 269 20:18 23.06.2020
941 Clouds 23 999 54 0 0.89 225 19:41 23.06.2020
942 Clear 23 999 53 0 0.45 225 19:23 23.06.2020
943 Clear 24 999 52 0 0.89 225 18:39 23.06.2020
944 Clear 24 999 51 0 0.45 314 18:19 23.06.2020
945 Clear 24 999 51 0 0.45 314 18:19 23.06.2020
946 Clear 25 999 43 0 0.45 271 17:43 23.06.2020
947 Clear 26 999 41 0 0.45 269 17:25 23.06.2020
948 Clear 26 999 41 0 0.45 223 16:57 23.06.2020
949 Clear 26 999 40 0 0.45 174 16:38 23.06.2020
950 Clear 26 999 33 0 0.45 90 16:20 23.06.2020
951 Clear 26 999 35 0 0.45 225 15:59 23.06.2020
952 Clear 26 999 40 0 0.45 270 15:41 23.06.2020
953 Clear 26 999 40 0 0.89 225 15:22 23.06.2020
954 Clouds 26 999 40 0 3.55 196 14:43 23.06.2020
955 Clouds 25 999 40 0 0.45 270 14:20 23.06.2020
956 Clouds 25 999 40 0 0.45 270 14:20 23.06.2020
957 Clouds 25 999 41 0 0.45 225 13:59 23.06.2020
958 Clouds 25 999 42 0 0.45 270 13:40 23.06.2020
959 Clear 24 1000 40 0 0.45 228 13:22 23.06.2020
960 Clear 23 999 45 0 0.45 267 12:45 23.06.2020
961 Clear 23 1000 48 0 0.45 225 12:23 23.06.2020
962 Clear 23 999 50 0 0.45 270 11:59 23.06.2020
963 Clear 23 999 49 0 0.45 270 11:40 23.06.2020
964 Clear 23 999 50 0 0.45 270 11:20 23.06.2020
965 Clear 23 999 51 0 1.68 209 10:58 23.06.2020
966 Clear 23 999 52 0 0.45 161 10:39 23.06.2020
967 Clear 21 999 60 0 0.45 180 10:21 23.06.2020
968 Clear 21 999 56 0 0.89 164 09:55 23.06.2020
969 Clear 21 999 59 0 1.21 212 09:36 23.06.2020
970 Clear 19 999 61 0 0.45 225 09:18 23.06.2020
971 Clear 18 999 66 0 0.51 240 08:42 23.06.2020
972 Clear 18 999 72 0 0.1 333 08:22 23.06.2020
973 Clear 17 998 62 0 0.1 333 07:44 23.06.2020
974 Clear 16 1020 89 0 0.46 325 07:24 23.06.2020
975 Clear 15 998 81 0 0.46 325 06:51 23.06.2020
976 Clouds 14 1021 87 10000 1.5 330 06:31 23.06.2020
977 Clear 12 998 86 0 1.06 333 05:48 23.06.2020
978 Clear 13 998 83 0 0.45 90 04:41 23.06.2020
979 Clear 12 1018 92 0 1 5 03:20 23.06.2020
980 Clear 13 1018 92 0 1 5 02:46 23.06.2020
981 Clouds 14 997 80 0 1.08 352 02:27 23.06.2020
982 Clouds 14 997 82 0 1.08 352 01:44 23.06.2020
983 Clouds 14 997 82 0 1.08 335 01:21 23.06.2020
984 Clouds 14 997 82 0 1.08 335 00:38 23.06.2020
985 Clouds 14 997 81 0 0.83 42 00:18 23.06.2020
986 Clouds 15 996 80 0 0.83 42 23:39 22.06.2020
987 Clouds 15 996 79 0 0.72 71 23:19 22.06.2020
988 Clouds 16 996 78 0 0.72 71 22:58 22.06.2020
989 Clouds 15 996 77 0 0.72 71 22:40 22.06.2020
990 Clouds 17 996 74 0 0.42 103 22:20 22.06.2020
991 Clouds 17 996 74 0 0.42 103 21:58 22.06.2020
992 Clouds 17 996 74 0 0.45 47 21:58 22.06.2020
993 Clouds 17 996 74 0 0.42 103 21:58 22.06.2020
994 Clouds 17 996 74 0 0.42 103 21:40 22.06.2020
995 Clouds 17 996 73 0 1.27 67 21:21 22.06.2020
996 Clouds 18 996 72 0 1.27 67 20:55 22.06.2020
997 Clouds 18 996 68 0 0.45 94 20:36 22.06.2020
998 Clouds 19 995 67 0 0.45 270 20:18 22.06.2020
999 Clouds 18 996 69 0 0.45 224 19:43 22.06.2020
1000 Clouds 19 996 68 0 0.45 135 19:19 22.06.2020
1001 Clouds 18 996 67 0 0.45 265 18:56 22.06.2020
1002 Clouds 18 996 68 0 0.45 135 18:36 22.06.2020
1003 Clouds 18 996 69 0 0.45 270 18:18 22.06.2020
1004 Clouds 18 996 67 0 0.45 225 17:55 22.06.2020
1005 Clouds 18 996 66 0 0.45 270 17:36 22.06.2020
1006 Rain 18 995 67 0 0.89 270 17:18 22.06.2020
1007 Rain 19 995 69 0 0.45 45 16:41 22.06.2020
1008 Rain 19 995 70 0 0.45 90 16:18 22.06.2020
1009 Rain 18 995 70 0 0.45 227 15:55 22.06.2020
1010 Rain 19 995 70 0 0.45 270 15:37 22.06.2020
1011 Rain 19 995 70 0 0.45 45 15:19 22.06.2020
1012 Rain 19 995 71 0 0.45 225 14:39 22.06.2020
1013 Rain 19 995 74 0 0.45 180 14:20 22.06.2020
1014 Rain 19 995 74 0 0.45 265 13:56 22.06.2020
1015 Rain 19 995 74 0 0.45 270 13:37 22.06.2020
1016 Rain 19 1015 70 0 1.95 56 13:19 22.06.2020
1017 Rain 17 995 76 0 0.45 92 12:42 22.06.2020
1018 Rain 17 995 80 0 0.45 85 12:23 22.06.2020
1019 Rain 16 995 84 0 0.89 270 11:57 22.06.2020
1020 Rain 15 994 85 0 0.45 248 11:37 22.06.2020
1021 Clouds 15 994 85 0 0.45 180 11:18 22.06.2020
1022 Clouds 14 994 86 0 2.01 76 10:54 22.06.2020
1023 Clouds 14 994 86 0 2.01 76 10:36 22.06.2020
1024 Clouds 15 994 87 0 1.51 102 10:18 22.06.2020
1025 Clouds 14 994 86 0 0.45 90 09:41 22.06.2020
1026 Clouds 15 994 88 0 1.01 135 09:20 22.06.2020
1027 Clouds 14 994 87 0 0.45 183 08:59 22.06.2020
1028 Clouds 14 994 87 0 0.45 228 08:39 22.06.2020
1029 Clouds 14 994 87 0 0.45 228 08:39 22.06.2020
1030 Clouds 15 993 88 0 0.45 270 08:39 22.06.2020
1031 Clouds 15 994 88 0 0.45 264 08:20 22.06.2020
1032 Clouds 15 993 89 0 0.89 159 07:52 22.06.2020
1033 Clouds 15 993 91 0 0.89 270 07:33 22.06.2020
1034 Clouds 15 993 92 0 1.02 123 06:45 22.06.2020
1035 Rain 15 993 92 0 0.72 126 06:26 22.06.2020
1036 Rain 14 993 93 0 0.45 130 05:58 22.06.2020
1037 Rain 14 993 93 0 0.45 93 05:30 22.06.2020
1038 Rain 15 994 93 0 1.34 225 02:55 22.06.2020
1039 Rain 16 994 90 0 1.79 184 01:25 22.06.2020
1040 Rain 16 994 95 0 1.34 311 00:41 22.06.2020
1041 Rain 16 994 94 0 0.89 135 23:59 21.06.2020
1042 Rain 17 994 94 0 0.89 90 23:39 21.06.2020
1043 Rain 17 994 93 0 1.34 135 23:21 21.06.2020
1044 Rain 17 994 92 0 0.45 180 22:57 21.06.2020
1045 Rain 17 994 90 0 1.34 95 22:38 21.06.2020
1046 Rain 17 994 91 0 0.89 131 22:19 21.06.2020
1047 Rain 17 994 92 0 0.89 114 21:58 21.06.2020
1048 Rain 17 994 93 0 0.45 135 21:40 21.06.2020
1049 Rain 17 994 93 0 0.89 132 21:21 21.06.2020
1050 Rain 17 994 92 0 0.45 138 20:59 21.06.2020
1051 Rain 17 994 91 0 0.45 135 20:38 21.06.2020
1052 Rain 17 995 90 0 0.45 223 20:19 21.06.2020
1053 Rain 17 994 89 0 0.89 265 19:56 21.06.2020
1054 Rain 17 995 87 0 0.45 135 19:38 21.06.2020
1055 Rain 17 995 85 0 0.89 133 19:19 21.06.2020
1056 Rain 18 995 82 0 1.79 201 18:54 21.06.2020
1057 Rain 18 995 84 0 0.45 91 18:36 21.06.2020
1058 Rain 18 995 83 0 1.51 215 18:18 21.06.2020
1059 Rain 18 995 82 0 1.51 215 17:40 21.06.2020
1060 Rain 18 995 81 0 1.26 231 17:20 21.06.2020
1061 Rain 18 995 80 0 1.26 231 16:56 21.06.2020
1062 Rain 18 995 79 0 1.26 231 16:37 21.06.2020
1063 Rain 18 995 74 0 1.09 248 16:18 21.06.2020
1064 Rain 19 995 69 0 0.45 181 15:38 21.06.2020
1065 Rain 19 995 69 0 0.45 223 15:20 21.06.2020
1066 Rain 19 995 67 0 1.34 272 14:39 21.06.2020
1067 Rain 19 996 68 0 0.89 139 14:21 21.06.2020
1068 Rain 19 995 69 0 0.89 136 13:59 21.06.2020
1069 Rain 19 996 69 0 0.45 267 13:59 21.06.2020
1070 Rain 19 995 69 0 0.45 228 13:41 21.06.2020
1071 Rain 19 995 69 0 0.45 179 13:22 21.06.2020
1072 Rain 19 996 65 0 0.45 182 12:56 21.06.2020
1073 Rain 19 995 64 0 0.45 180 12:37 21.06.2020
1074 Rain 18 996 64 0 0.45 222 12:19 21.06.2020
1075 Rain 18 996 63 0 0.45 270 11:42 21.06.2020
1076 Rain 18 996 63 0 0.45 270 11:42 21.06.2020
1077 Clouds 18 996 62 0 0.45 270 11:23 21.06.2020
1078 Clouds 18 996 62 0 0.89 223 10:58 21.06.2020
1079 Clouds 18 996 62 0 0.45 312 10:39 21.06.2020
1080 Clouds 18 996 62 0 0.45 272 10:21 21.06.2020
1081 Clouds 18 996 62 0 0.45 313 09:44 21.06.2020
1082 Clouds 18 996 63 0 0.45 270 09:23 21.06.2020
1083 Clouds 18 996 65 0 0.45 270 08:57 21.06.2020
1084 Clouds 18 996 67 0 0.45 225 08:39 21.06.2020
1085 Clouds 18 996 67 0 0.45 248 08:20 21.06.2020
1086 Clouds 18 996 66 0 0.45 225 07:42 21.06.2020
1087 Clouds 19 996 65 0 0.45 270 07:24 21.06.2020
1088 Clouds 19 996 69 0 0.45 40 06:51 21.06.2020
1089 Clouds 18 1019 82 10000 3.1 50 06:31 21.06.2020
1090 Clouds 18 1020 82 10000 3.1 50 05:57 21.06.2020
1091 Clouds 17 1000 1 0 1.89 31 04:42 21.06.2020
1092 Clouds 18 997 74 0 0.45 270 03:19 21.06.2020
1093 Clouds 18 997 73 0 0.45 225 02:36 21.06.2020
1094 Clouds 18 996 78 0 0.45 270 01:40 21.06.2020
1095 Clouds 18 996 79 0 0.45 270 01:19 21.06.2020
1096 Clouds 18 996 78 0 0.45 225 00:46 21.06.2020
1097 Rain 18 996 77 0 0.45 47 00:25 21.06.2020
1098 Rain 19 996 76 0 0.45 225 23:46 20.06.2020
1099 Rain 19 996 77 0 0.45 225 23:23 20.06.2020
1100 Rain 19 996 77 0 0.45 225 22:59 20.06.2020
1101 Rain 19 996 77 0 0.45 225 22:59 20.06.2020
1102 Rain 19 996 76 0 0.45 225 22:40 20.06.2020
1103 Rain 20 996 72 0 0.45 269 22:20 20.06.2020
1104 Rain 21 995 66 0 1.99 86 21:58 20.06.2020
1105 Rain 21 995 62 0 3.33 97 21:40 20.06.2020
1106 Clouds 21 995 62 0 1.96 97 21:21 20.06.2020
1107 Clouds 21 995 62 0 1.96 97 20:58 20.06.2020
1108 Clouds 21 995 62 0 1.96 97 20:40 20.06.2020
1109 Clouds 21 995 63 0 0.45 267 20:21 20.06.2020
1110 Clouds 21 995 63 0 2.79 95 19:59 20.06.2020
1111 Clouds 21 995 63 0 2.79 95 19:40 20.06.2020
1112 Clouds 21 995 62 0 2.07 83 19:20 20.06.2020
1113 Clouds 21 995 63 0 0.45 224 18:43 20.06.2020
1114 Clouds 21 995 69 0 0.45 114 18:21 20.06.2020
1115 Clouds 21 995 71 0 0.45 182 17:58 20.06.2020
1116 Clouds 21 999 1 0 1.34 209 17:39 20.06.2020
1117 Clouds 21 1015 72 0 1.76 114 17:20 20.06.2020
1118 Clouds 23 995 72 0 2.68 315 16:55 20.06.2020
1119 Clouds 26 995 53 0 1.34 225 16:37 20.06.2020
1120 Clouds 26 994 41 0 0.45 180 16:18 20.06.2020
1121 Clouds 27 994 36 0 0.45 220 15:41 20.06.2020
1122 Clouds 27 994 40 0 0.45 180 15:18 20.06.2020
1123 Clouds 27 994 40 0 0.89 50 14:43 20.06.2020
1124 Clouds 28 994 34 0 0.89 230 14:21 20.06.2020
1125 Clouds 27 994 40 0 0.45 182 13:46 20.06.2020
1126 Clouds 27 994 35 0 0.45 270 13:27 20.06.2020
1127 -273 0 0 0 0 0 12:59 20.06.2020
1128 Clouds 26 994 42 0 0.45 135 12:40 20.06.2020
1129 Clouds 25 1017 50 10000 4.6 80 12:20 20.06.2020
1130 Clouds 25 1017 50 10000 4.6 80 11:57 20.06.2020
1131 Clouds 24 1018 53 10000 5.1 70 11:37 20.06.2020
1132 Clouds 26 994 45 0 0.45 67 11:19 20.06.2020
1133 Clouds 25 995 47 0 0.89 269 10:47 20.06.2020
1134 Clouds 24 995 49 0 0.45 225 10:22 20.06.2020
1135 Clouds 24 995 48 0 1.34 135 09:56 20.06.2020
1136 Clouds 21 1017 60 10000 3.1 60 09:38 20.06.2020
1137 Clouds 22 1017 60 10000 4.1 60 09:20 20.06.2020
1138 Clouds 21 1017 60 10000 4.1 40 08:46 20.06.2020
1139 Clouds 21 1017 60 10000 4.1 40 08:27 20.06.2020
1140 Clouds 20 1017 64 10000 4.6 30 07:52 20.06.2020
1141 Clouds 21 1018 64 10000 3.6 20 07:28 20.06.2020
1142 Clouds 21 995 55 0 0.45 270 06:58 20.06.2020
1143 Clouds 19 1018 63 10000 3.1 40 06:23 20.06.2020
1144 Clouds 18 1018 68 10000 1 0 05:53 20.06.2020
1145 Clouds 18 1017 63 10000 2.1 340 04:58 20.06.2020
1146 Clear 18 1013 59 0 2.11 44 02:50 20.06.2020
1147 Clouds 18 1012 55 0 1.74 62 01:48 20.06.2020
1148 Clouds 19 1011 48 0 1.47 59 00:57 20.06.2020
1149 Clouds 20 1010 46 0 1.48 73 00:21 20.06.2020
1150 Clouds 21 1015 44 10000 1.5 100 23:56 19.06.2020
1151 Clouds 21 1015 44 10000 1.5 100 23:56 19.06.2020
1152 Clouds 21 1011 43 0 1.48 73 23:37 19.06.2020
1153 Clouds 22 1011 41 0 1.51 84 23:18 19.06.2020
1154 Clouds 24 1015 36 10000 2.1 110 22:41 19.06.2020
1155 Clouds 24 1015 36 10000 2.1 110 22:41 19.06.2020
1156 Clouds 25 992 40 0 0.45 93 22:22 19.06.2020
1157 Clouds 25 1014 34 10000 2.6 110 21:59 19.06.2020
1158 Clouds 27 1014 32 10000 3.6 120 21:38 19.06.2020
1159 Clouds 27 1014 32 10000 3.6 120 21:18 19.06.2020
1160 Clouds 27 1014 30 10000 4.1 120 20:58 19.06.2020
1161 Clouds 27 1014 30 10000 3.1 120 20:40 19.06.2020
1162 Clouds 27 991 33 0 0.45 270 20:21 19.06.2020
1163 Clouds 28 1014 30 10000 4.6 110 19:57 19.06.2020
1164 Clouds 29 991 31 0 0.45 135 19:39 19.06.2020
1165 Clouds 29 991 31 0 0.45 267 19:21 19.06.2020
1166 Clouds 29 991 30 0 0.45 268 18:42 19.06.2020
1167 Clouds 29 991 30 0 0.45 266 18:22 19.06.2020
1168 Clouds 29 991 30 0 0.89 268 17:59 19.06.2020
1169 Clouds 29 991 27 0 1.34 270 17:40 19.06.2020
1170 Clouds 30 991 29 0 0.45 177 17:22 19.06.2020
1171 Clouds 30 991 27 0 0.89 222 16:56 19.06.2020
1172 Clouds 30 992 26 0 1.34 221 16:37 19.06.2020
1173 Clouds 30 992 25 0 0.89 292 16:19 19.06.2020
1174 Clouds 30 1015 30 10000 5.7 120 15:43 19.06.2020
1175 Clouds 30 1015 30 10000 5.7 120 15:24 19.06.2020
1176 Clouds 30 992 26 0 1.79 357 14:56 19.06.2020
1177 Clouds 30 992 26 0 0.89 133 14:38 19.06.2020
1178 Clear 29 992 26 0 1.34 180 14:19 19.06.2020
1179 Clear 29 992 29 0 1.34 205 13:45 19.06.2020
1180 Clear 30 993 27 0 1.34 316 13:26 19.06.2020
1181 Clear 29 993 30 0 0.45 183 12:49 19.06.2020
1182 Clear 27 1015 39 10000 3.6 70 12:24 19.06.2020
1183 Clear 27 1016 39 10000 3.1 70 11:59 19.06.2020
1184 Clear 28 993 37 0 0.89 181 11:40 19.06.2020
1185 Clear 27 1016 53 10000 4.1 40 11:19 19.06.2020
1186 Clear 27 993 36 0 0.45 312 10:55 19.06.2020
1187 Clear 27 993 36 0 0.45 312 10:55 19.06.2020
1188 Clear 26 993 41 0 1.34 268 10:37 19.06.2020
1189 Clear 26 993 44 0 0.45 270 10:18 19.06.2020
1190 Clouds 25 993 46 0 0.45 270 09:42 19.06.2020
1191 Clouds 21 1016 60 10000 3.1 40 09:21 19.06.2020
1192 Clouds 21 1016 60 10000 3.1 40 08:55 19.06.2020
1193 Clouds 23 993 50 0 0.45 225 08:37 19.06.2020
1194 Clouds 22 993 50 0 0.45 288 08:19 19.06.2020
1195 Clouds 21 1012 60 0 1.06 48 07:40 19.06.2020
1196 Clouds 21 1012 67 0 1.06 48 07:21 19.06.2020
1197 Clouds 21 993 61 0 1.06 48 06:44 19.06.2020
1198 Clouds 16 1015 82 10000 1.5 340 06:19 19.06.2020
1199 Clouds 16 1011 71 0 1.33 19 04:30 19.06.2020
1200 Clouds 16 1012 69 0 1.11 21 03:29 19.06.2020
1201 Clouds 18 1015 68 10000 1 0 01:23 19.06.2020
1202 Clouds 19 1014 60 10000 2.6 200 00:42 19.06.2020
1203 Clouds 19 1011 53 0 0.43 174 00:22 19.06.2020
1204 Clouds 20 1014 53 10000 3.6 170 23:55 18.06.2020
1205 Clouds 20 1010 47 0 1.02 174 23:36 18.06.2020
1206 Clouds 20 1010 47 0 1.02 174 23:36 18.06.2020
1207 Clouds 21 1010 47 0 1.02 174 23:18 18.06.2020
1208 Clouds 21 1010 47 0 1.02 174 23:18 18.06.2020
1209 Clouds 23 1013 41 10000 1.5 70 22:39 18.06.2020
1210 Clouds 24 991 42 0 0.89 137 22:19 18.06.2020
1211 Clouds 24 1013 41 10000 1.5 70 21:55 18.06.2020
1212 Clouds 24 1013 41 10000 1.5 80 21:36 18.06.2020
1213 Clouds 26 990 38 0 0.45 181 21:18 18.06.2020
1214 Clouds 26 990 36 0 0.89 135 20:40 18.06.2020
1215 Clouds 27 990 33 0 0.45 171 20:20 18.06.2020
1216 Clouds 28 990 33 0 0.89 134 19:56 18.06.2020
1217 Clouds 27 990 30 0 1.36 25 19:37 18.06.2020
1218 Clouds 27 990 30 0 0.45 226 19:18 18.06.2020
1219 Clouds 28 990 26 0 0.45 268 18:38 18.06.2020
1220 Clouds 29 990 27 0 0.45 268 18:19 18.06.2020
1221 Clouds 29 991 30 0 0.45 270 17:45 18.06.2020
1222 Clouds 29 990 33 0 0.45 270 17:26 18.06.2020
1223 Clouds 29 990 30 0 0.89 45 16:57 18.06.2020
1224 Clouds 29 991 30 0 0.45 269 16:39 18.06.2020
1225 Clouds 29 991 33 0 0.45 226 16:20 18.06.2020
1226 Clouds 29 991 32 0 0.45 225 15:57 18.06.2020
1227 Clouds 29 991 33 0 0.89 305 15:38 18.06.2020
1228 Clouds 29 991 33 0 0.45 270 15:19 18.06.2020
1229 Clouds 28 991 34 0 0.45 269 14:55 18.06.2020
1230 Clouds 28 991 32 0 0.89 264 14:37 18.06.2020
1231 Clouds 28 991 34 0 0.45 180 14:18 18.06.2020
1232 Clouds 27 991 35 0 0.45 225 13:47 18.06.2020
1233 Clouds 27 991 35 0 1.34 90 13:27 18.06.2020
1234 Clouds 26 992 41 0 0.45 270 12:57 18.06.2020
1235 Clouds 26 992 41 0 0.45 225 12:39 18.06.2020
1236 Clouds 26 992 43 0 0.45 227 12:19 18.06.2020
1237 Clouds 24 992 48 0 0.89 276 11:48 18.06.2020
1238 Clear 25 992 50 0 0.45 223 11:21 18.06.2020
1239 Clear 25 992 50 0 0.45 226 10:59 18.06.2020
1240 Clear 25 992 50 0 0.45 225 10:39 18.06.2020
1241 Clear 24 992 51 0 0.45 269 10:18 18.06.2020
1242 Clear 24 992 53 0 0.45 226 09:44 18.06.2020
1243 Clear 20 1014 68 10000 1.5 0 09:26 18.06.2020
1244 Clear 21 992 60 0 0.64 91 08:54 18.06.2020
1245 Clear 20 992 61 0 0.45 180 08:36 18.06.2020
1246 Clear 20 992 60 0 0.45 270 08:18 18.06.2020
1247 Clear 20 992 54 0 0.66 77 07:43 18.06.2020
1248 Clear 19 1011 86 0 0.87 55 07:23 18.06.2020
1249 Clear 17 1015 87 10000 1 340 06:34 18.06.2020
1250 Clear 14 1013 91 0 0.8 11 04:27 18.06.2020
1251 Clear 14 1012 91 0 0.99 22 03:30 18.06.2020
1252 Clear 15 1012 86 0 1.02 20 01:43 18.06.2020
1253 Clear 16 1011 85 0 1.06 25 01:18 18.06.2020
1254 Clear 17 1015 72 10000 1.5 100 00:49 18.06.2020
1255 Clear 17 1011 82 0 1.38 32 00:26 18.06.2020
1256 Clear 18 1015 72 10000 1.5 100 23:54 17.06.2020
1257 Clear 18 1011 78 0 1.38 32 23:36 17.06.2020
1258 Clear 18 1011 78 0 1.28 33 23:18 17.06.2020
1259 Clear 19 1014 63 10000 3.1 0 22:54 17.06.2020
1260 Clear 20 992 59 0 0.89 132 22:36 17.06.2020
1261 Clear 21 992 58 0 0.45 135 22:18 17.06.2020
1262 Clear 22 991 53 0 0.89 269 21:39 17.06.2020
1263 Clear 22 991 45 0 0.45 135 21:20 17.06.2020
1264 Clear 23 991 46 0 1.3 103 20:55 17.06.2020
1265 Clouds 23 991 47 0 0.45 317 20:37 17.06.2020
1266 Clouds 24 991 47 0 0.45 270 20:18 17.06.2020
1267 Clouds 24 991 45 0 0.45 100 19:42 17.06.2020
1268 Clouds 23 991 45 0 0.45 40 19:21 17.06.2020
1269 Clouds 24 991 45 0 0.45 93 18:56 17.06.2020
1270 Clouds 24 991 45 0 0.89 183 18:37 17.06.2020
1271 Clouds 24 1013 49 10000 4.6 110 18:19 17.06.2020
1272 Clouds 25 1013 47 10000 5.7 110 17:40 17.06.2020
1273 Clouds 25 1013 47 10000 5.7 110 17:21 17.06.2020
1274 Clouds 26 1013 50 10000 6.7 90 16:56 17.06.2020
1275 Clouds 25 1013 47 10000 3.1 0 16:37 17.06.2020
1276 Clouds 25 1013 47 10000 3.1 0 16:19 17.06.2020
1277 Clouds 26 1013 44 10000 3.6 80 15:40 17.06.2020
1278 Clear 25 1013 44 10000 3.6 80 15:21 17.06.2020
1279 Clear 26 1013 44 10000 5.1 60 14:58 17.06.2020
1280 Clear 25 1013 44 10000 2.6 0 14:40 17.06.2020
1281 Clouds 26 1013 44 10000 3.6 60 14:19 17.06.2020
1282 Clouds 25 1013 44 10000 3.6 60 13:58 17.06.2020
1283 Clouds 25 1013 47 10000 2.1 0 13:39 17.06.2020
1284 Clouds 25 1013 47 10000 2.1 0 13:21 17.06.2020
1285 Clouds 24 1013 50 10000 4.1 10 12:55 17.06.2020
1286 Clouds 24 1014 46 10000 3.1 0 12:36 17.06.2020
1287 Clouds 23 1014 49 10000 4.6 10 12:18 17.06.2020
1288 Clouds 24 1014 49 10000 5.1 40 11:43 17.06.2020
1289 Clouds 23 1014 49 10000 5.1 40 11:23 17.06.2020
1290 Clouds 23 1014 60 10000 4.1 360 10:39 17.06.2020
1291 Clouds 22 1014 64 10000 3.6 360 10:19 17.06.2020
1292 Clouds 24 992 44 0 0.89 271 09:59 17.06.2020
1293 Clouds 23 991 47 0 0.45 270 09:41 17.06.2020
1294 Clear 19 1014 68 10000 1.5 350 09:21 17.06.2020
1295 Clear 18 1014 77 10000 2.1 70 08:55 17.06.2020
1296 Clear 18 1015 82 10000 1.5 20 08:36 17.06.2020
1297 Clouds 19 1015 82 10000 1.5 20 08:18 17.06.2020
1298 Clouds 19 1015 88 10000 2.1 340 08:18 17.06.2020
1299 Clouds 19 1015 82 10000 1.5 340 07:42 17.06.2020
1300 Clouds 18 1015 82 10000 1.5 340 07:21 17.06.2020
1301 Clouds 19 1011 75 0 1.02 20 06:55 17.06.2020
1302 Clouds 15 1015 87 10000 1.5 10 06:37 17.06.2020
1303 Clouds 15 1015 87 10000 1.5 10 06:19 17.06.2020
1304 Clouds 15 1010 82 0 1.06 358 04:58 17.06.2020
1305 Clouds 16 1011 80 0 1.19 22 02:59 17.06.2020
1306 Clouds 16 1011 77 0 1.07 58 01:51 17.06.2020
1307 Clouds 17 1011 75 0 1.45 61 00:41 17.06.2020
1308 Rain 17 1011 77 0 1.7 38 00:23 17.06.2020
1309 Rain 17 1011 76 0 1.7 38 23:56 16.06.2020
1310 Rain 17 1011 76 0 1.7 38 23:56 16.06.2020
1311 Rain 17 1011 74 0 1.98 359 23:37 16.06.2020
1312 Rain 17 1011 74 0 1.98 359 23:19 16.06.2020
1313 Rain 18 1011 71 0 1.98 359 22:55 16.06.2020
1314 Rain 18 1010 69 0 1.93 348 22:36 16.06.2020
1315 Rain 18 1010 68 0 1.93 348 22:36 16.06.2020
1316 Rain 19 1011 67 0 1.93 348 22:18 16.06.2020
1317 Rain 19 1011 66 0 1.93 348 21:47 16.06.2020
1318 Rain 20 1011 65 0 1.81 329 21:23 16.06.2020
1319 Rain 20 1011 64 0 1.81 329 20:57 16.06.2020
1320 Rain 20 1010 61 0 1.81 329 20:39 16.06.2020
1321 Rain 22 992 48 0 0.97 33 20:19 16.06.2020
1322 Rain 22 991 47 0 0.45 268 19:57 16.06.2020
1323 Rain 24 991 51 0 2.34 117 19:38 16.06.2020
1324 Rain 23 991 51 0 0.45 180 19:20 16.06.2020
1325 Rain 25 992 40 0 1.34 183 18:45 16.06.2020
1326 Clouds 28 991 32 0 0.45 181 18:22 16.06.2020
1327 Clouds 28 991 36 0 0.45 182 17:59 16.06.2020
1328 Clouds 28 991 39 0 0.45 47 17:39 16.06.2020
1329 Clouds 27 991 38 0 0.89 111 17:21 16.06.2020
1330 Clouds 28 1014 39 0 2.49 47 17:00 16.06.2020
1331 Clouds 27 1015 39 10000 4.1 360 16:41 16.06.2020
1332 Clouds 27 1015 41 10000 4.1 10 16:20 16.06.2020
1333 Clouds 27 1015 41 0 2.94 52 15:57 16.06.2020
1334 Clouds 27 1014 41 0 2.94 52 15:39 16.06.2020
1335 Clouds 26 1015 44 0 2.83 53 15:21 16.06.2020
1336 Clouds 27 1015 45 0 2.83 53 14:56 16.06.2020
1337 Clouds 26 1015 42 0 2.83 53 14:38 16.06.2020
1338 Clouds 26 1015 45 0 2.68 56 14:20 16.06.2020
1339 Clouds 29 993 31 0 0.45 270 13:46 16.06.2020
1340 Clouds 28 993 33 0 0.45 228 13:25 16.06.2020
1341 Clouds 26 994 40 0 0.45 225 12:55 16.06.2020
1342 Clouds 26 994 40 0 0.89 226 12:37 16.06.2020
1343 Clouds 25 994 35 0 0.45 270 12:18 16.06.2020
1344 Clouds 25 1017 52 0 2.54 57 11:42 16.06.2020
1345 Clouds 25 1016 47 0 2.35 54 11:23 16.06.2020
1346 Clouds 24 1017 53 0 2.35 54 10:59 16.06.2020
1347 Clouds 24 1017 47 0 2.35 54 10:41 16.06.2020
1348 Clouds 25 994 35 0 0.89 270 10:20 16.06.2020
1349 Clouds 25 994 35 0 0.89 229 09:47 16.06.2020
1350 Clear 22 1017 63 10000 2.6 30 09:26 16.06.2020
1351 Clear 21 1017 63 10000 3.1 40 08:59 16.06.2020
1352 Clear 20 1017 63 10000 2.6 40 08:41 16.06.2020
1353 Clear 21 1013 37 0 1.84 48 08:22 16.06.2020
1354 Clear 21 1013 46 0 1.84 48 07:45 16.06.2020
1355 Clear 19 1012 48 0 1.8 30 07:26 16.06.2020
1356 Clear 21 993 44 0 0.45 225 06:44 16.06.2020
1357 Clear 16 1016 78 0 1.75 18 06:19 16.06.2020
1358 Clear 16 1013 49 0 1.72 24 05:26 16.06.2020
1359 Clear 16 1012 50 0 1.83 353 04:27 16.06.2020
1360 Clear 16 1011 47 0 1.81 348 02:49 16.06.2020
1361 Clouds 17 1011 44 0 1.54 9 01:52 16.06.2020
1362 Clouds 17 1012 40 0 1.42 341 01:20 16.06.2020
1363 Clouds 19 992 40 0 1.4 350 00:40 16.06.2020
1364 Clouds 19 1010 35 0 1.4 350 00:19 16.06.2020
1365 Clouds 19 1010 34 0 1.4 350 23:41 15.06.2020
1366 Clouds 20 1011 34 0 1.48 342 23:21 15.06.2020
1367 Clouds 20 1011 34 0 1.48 342 22:55 15.06.2020
1368 Clouds 21 1011 33 0 1.48 342 22:36 15.06.2020
1369 Clouds 21 1011 32 0 1.09 335 22:18 15.06.2020
1370 Clouds 23 1015 34 10000 1.5 260 21:55 15.06.2020
1371 Clouds 24 1015 36 10000 1.5 250 21:36 15.06.2020
1372 Clouds 25 992 25 0 0.59 355 21:18 15.06.2020
1373 Clouds 25 992 25 0 0.59 355 20:54 15.06.2020
1374 Clouds 25 992 25 0 0.59 355 20:54 15.06.2020
1375 Clouds 26 992 25 0 0.45 180 20:36 15.06.2020
1376 Clear 27 992 25 0 0.56 116 20:18 15.06.2020
1377 Clear 27 992 22 0 0.45 180 19:41 15.06.2020
1378 Clear 27 992 22 0 1.34 105 19:22 15.06.2020
1379 Clear 28 992 22 0 1.34 105 18:58 15.06.2020
1380 Clear 28 992 22 0 0.45 180 18:40 15.06.2020
1381 Clear 28 993 23 0 1.39 90 18:21 15.06.2020
1382 Clear 28 993 21 0 0.45 180 17:58 15.06.2020
1383 Clear 28 993 22 0 0.45 180 17:40 15.06.2020
1384 Clear 29 993 21 0 0.45 272 17:19 15.06.2020
1385 Clear 29 993 21 0 0.45 135 16:56 15.06.2020
1386 Clear 29 993 21 0 0.45 270 16:38 15.06.2020
1387 Clear 30 993 21 0 0.45 270 16:18 15.06.2020
1388 Clear 29 994 21 0 0.45 270 15:41 15.06.2020
1389 Clear 29 994 22 0 0.89 225 15:21 15.06.2020
1390 Clear 29 994 21 0 0.45 225 14:58 15.06.2020
1391 Clear 29 994 21 0 0.45 270 14:40 15.06.2020
1392 Clear 29 995 22 0 0.45 225 14:19 15.06.2020
1393 Clear 28 995 22 0 0.45 270 13:56 15.06.2020
1394 Clear 26 995 22 0 0.45 270 13:38 15.06.2020
1395 Clear 27 995 22 0 0.45 225 13:18 15.06.2020
1396 Clear 27 995 21 0 0.45 225 12:42 15.06.2020
1397 Clear 27 995 22 0 0.45 270 12:22 15.06.2020
1398 Clear 26 996 22 0 0.45 270 11:58 15.06.2020
1399 Clear 27 996 22 0 0.45 225 11:40 15.06.2020
1400 Clear 28 996 22 0 0.45 225 11:22 15.06.2020
1401 Clear 27 996 28 0 0.49 9 10:41 15.06.2020
1402 Clear 26 996 32 0 0.45 225 10:21 15.06.2020
1403 Clear 25 996 32 0 0.45 225 09:44 15.06.2020
1404 Clear 17 1019 52 10000 1.5 60 09:23 15.06.2020
1405 Clear 20 996 43 0 0.44 357 08:48 15.06.2020
1406 Clear 18 996 47 0 0.69 352 08:27 15.06.2020
1407 Clear 19 996 45 0 0.69 352 07:57 15.06.2020
1408 Clear 18 1017 45 0 0.69 352 07:39 15.06.2020
1409 Clear 18 1017 46 0 0.65 351 07:19 15.06.2020
1410 Clear 14 1017 50 0 1.05 346 06:29 15.06.2020
1411 Clear 12 1017 49 0 1.05 346 05:51 15.06.2020
1412 Clear 12 1017 49 0 1.17 344 05:30 15.06.2020
1413 Clear 11 1016 48 0 1.22 341 04:22 15.06.2020
1414 Clear 12 1017 47 0 1.22 341 03:49 15.06.2020
1415 Clear 13 1017 46 0 1.02 342 02:58 15.06.2020
1416 Clear 13 1017 44 0 0.9 342 02:33 15.06.2020
1417 Clear 14 1017 42 0 0.77 0 01:49 15.06.2020
1418 Clear 14 1017 41 0 0.69 356 01:29 15.06.2020
1419 Clear 15 1017 39 0 0.69 356 00:45 15.06.2020
1420 Clear 15 1017 38 0 0.36 320 00:25 15.06.2020
1421 Clear 15 1017 37 0 0.36 320 23:59 14.06.2020
1422 Clear 16 1017 36 0 0.36 320 23:41 14.06.2020
1423 Clear 17 1017 35 0 0.4 228 23:23 14.06.2020
1424 Clear 17 1017 34 0 0.4 228 22:57 14.06.2020
1425 Clear 19 1020 28 10000 1 280 22:38 14.06.2020
1426 Clear 20 1020 28 10000 1 300 22:18 14.06.2020
1427 Clear 20 1020 28 10000 1 300 21:56 14.06.2020
1428 Clear 21 1020 29 10000 1 0 21:38 14.06.2020
1429 Clear 22 997 23 0 1.26 165 21:19 14.06.2020
1430 Clear 22 997 23 0 1.25 182 21:19 14.06.2020
1431 Clear 23 997 23 0 0.45 225 20:57 14.06.2020
1432 Clear 23 997 23 0 1.26 165 20:38 14.06.2020
1433 Clear 25 997 23 0 1.62 156 20:19 14.06.2020
1434 Clear 25 997 22 0 1.62 156 19:56 14.06.2020
1435 Clear 24 997 23 0 1.62 156 19:37 14.06.2020
1436 Clear 25 997 22 0 0.45 225 19:19 14.06.2020
1437 Clear 25 997 21 0 0.89 223 18:56 14.06.2020
1438 Clear 25 997 23 0 0.45 270 18:37 14.06.2020
1439 Clear 25 997 22 0 0.45 270 18:19 14.06.2020
1440 Clear 25 997 22 0 0.45 270 18:19 14.06.2020
1441 Clear 26 997 23 0 0.45 90 17:55 14.06.2020
1442 Clear 26 997 22 0 2.38 147 17:37 14.06.2020
1443 Clear 26 998 21 0 0.45 90 17:19 14.06.2020
1444 Clear 26 998 21 0 0.45 135 16:40 14.06.2020
1445 Rain 26 998 21 0 2.33 132 16:20 14.06.2020
1446 Rain 26 998 21 0 0.45 180 15:58 14.06.2020
1447 Rain 26 999 20 0 1.34 223 15:40 14.06.2020
1448 Rain 26 999 21 0 0.45 180 15:18 14.06.2020
1449 Rain 25 999 21 0 0.45 225 14:57 14.06.2020
1450 Rain 25 999 21 0 0.45 226 14:38 14.06.2020
1451 Rain 25 1000 20 0 0.89 135 14:18 14.06.2020
1452 Clear 25 1000 21 0 0.45 270 13:42 14.06.2020
1453 Clear 24 1000 21 0 0.45 225 13:22 14.06.2020
1454 Clear 24 1001 22 0 0.45 227 12:59 14.06.2020
1455 Clear 23 1001 22 0 0.45 270 12:41 14.06.2020
1456 Clear 23 1001 22 0 0.45 270 12:41 14.06.2020
1457 Clear 23 1001 23 0 0.45 135 12:23 14.06.2020
1458 Clear 22 1001 22 0 1.34 178 11:59 14.06.2020
1459 Clear 23 1001 24 0 0.45 270 11:40 14.06.2020
1460 Clear 22 1001 26 0 0.45 71 11:22 14.06.2020
1461 Clear 22 1001 30 0 0.45 268 10:59 14.06.2020
1462 Clear 21 1002 32 0 0.89 224 10:39 14.06.2020
1463 Clear 21 1002 32 0 0.45 91 10:18 14.06.2020
1464 Clear 21 1002 33 0 0.45 178 09:43 14.06.2020
1465 Clear 18 1025 45 10000 2.6 90 09:23 14.06.2020
1466 Clear 18 1002 41 0 0.45 225 08:42 14.06.2020
1467 Clear 17 1002 41 0 0.89 244 08:22 14.06.2020
1468 Clear 17 1002 41 0 0.89 244 08:22 14.06.2020
1469 Clear 17 1002 40 0 0.45 43 07:53 14.06.2020
1470 Clear 17 1002 37 0 0.89 156 07:35 14.06.2020
1471 Clear 17 1001 40 0 0.45 270 06:54 14.06.2020
1472 Clear 11 1025 76 10000 1 330 05:54 14.06.2020
1473 Clear 12 1023 53 0 1 31 05:34 14.06.2020
1474 Clear 11 1023 56 0 1 31 04:39 14.06.2020
1475 Clear 12 1023 55 0 1.02 32 03:55 14.06.2020
1476 Clear 13 1023 52 0 0.88 42 02:40 14.06.2020
1477 Clear 14 1022 51 0 0.88 72 02:18 14.06.2020
1478 Clear 15 1022 50 0 0.88 72 01:30 14.06.2020
1479 Clear 17 1024 39 10000 5.1 150 00:48 14.06.2020
1480 Clear 17 1020 48 0 1.23 112 00:21 14.06.2020
1481 Clear 18 1023 37 10000 1.5 130 23:46 13.06.2020
1482 Clear 19 1001 36 0 0.45 135 23:26 13.06.2020
1483 Clear 20 1020 43 0 1.6 130 22:59 13.06.2020
1484 Clear 20 1019 42 0 1.6 130 22:38 13.06.2020
1485 Clear 21 1000 35 0 0.45 90 22:19 13.06.2020
1486 Clear 21 1000 36 0 1.34 135 21:58 13.06.2020
1487 Clear 22 1000 33 0 0.45 91 21:40 13.06.2020
1488 Clear 22 1000 32 0 1.34 223 21:21 13.06.2020
1489 Clear 23 1000 33 0 0.89 135 20:54 13.06.2020
1490 Clouds 24 1000 33 0 0.89 225 20:36 13.06.2020
1491 Clouds 23 1000 34 0 0.45 135 20:18 13.06.2020
1492 Clouds 25 999 34 0 0.45 135 19:38 13.06.2020
1493 Clouds 25 999 34 0 0.45 135 19:19 13.06.2020
1494 Clouds 25 999 35 0 0.45 269 18:58 13.06.2020
1495 Clouds 25 999 34 0 0.45 224 18:39 13.06.2020
1496 Clouds 26 1000 33 0 0.45 220 18:20 13.06.2020
1497 Clouds 25 1000 34 0 1.34 139 17:56 13.06.2020
1498 Clouds 25 1000 32 0 0.45 90 17:37 13.06.2020
1499 Clouds 25 1000 32 0 0.45 135 17:19 13.06.2020
1500 Clouds 25 1000 32 0 1.34 266 16:54 13.06.2020
1501 Clouds 25 1000 32 0 0.89 273 16:36 13.06.2020
1502 Clouds 26 1000 31 0 0.89 71 16:18 13.06.2020
1503 Clouds 25 1000 31 0 0.45 249 15:41 13.06.2020
1504 Clouds 24 1000 30 0 0.45 269 15:21 13.06.2020
1505 Clouds 25 1001 29 0 0.89 91 14:44 13.06.2020
1506 Clouds 25 1001 25 0 0.45 90 14:24 13.06.2020
1507 Clouds 24 1001 25 0 0.89 136 13:57 13.06.2020
1508 Clouds 24 1001 24 0 1.34 89 13:37 13.06.2020
1509 Clouds 24 1001 23 0 1.34 42 13:19 13.06.2020
1510 Clouds 24 1001 21 0 1.34 224 12:43 13.06.2020
1511 Clouds 22 1025 35 10000 7.2 80 12:25 13.06.2020
1512 Clouds 21 1025 35 10000 7.2 80 11:57 13.06.2020
1513 Clouds 22 1025 37 10000 4.6 80 11:37 13.06.2020
1514 Clouds 21 1025 42 10000 2.6 50 11:19 13.06.2020
1515 Clouds 20 1025 42 10000 2.6 50 10:54 13.06.2020
1516 Clouds 20 1025 42 10000 3.6 60 10:36 13.06.2020
1517 Clouds 21 1002 35 0 0.45 180 10:18 13.06.2020
1518 Clouds 21 1002 40 0 0.45 271 09:42 13.06.2020
1519 Clouds 18 1025 51 10000 3.6 30 09:20 13.06.2020
1520 Clouds 18 1025 51 10000 3.1 20 08:46 13.06.2020
1521 Clouds 18 1025 51 10000 3.1 20 08:27 13.06.2020
1522 Clouds 16 1025 62 10000 2.1 340 07:45 13.06.2020
1523 Clouds 16 1025 62 10000 2.1 340 07:27 13.06.2020
1524 Clouds 17 1022 38 0 2.31 20 06:47 13.06.2020
1525 Clouds 13 1025 66 10000 2.1 340 06:27 13.06.2020
1526 Clouds 13 1025 58 10000 1.5 330 05:33 13.06.2020
1527 Clouds 13 1025 58 10000 1.5 330 04:55 13.06.2020
1528 Clouds 13 1025 54 10000 1.5 320 03:46 13.06.2020
1529 Clouds 14 1025 44 10000 2.1 60 02:53 13.06.2020
1530 Clouds 14 1021 35 0 2.27 43 02:24 13.06.2020
1531 Clouds 16 1021 34 0 2.51 51 01:26 13.06.2020
1532 Clouds 16 1024 36 10000 2.6 80 00:57 13.06.2020
1533 Clouds 17 1023 39 10000 2.6 80 00:37 13.06.2020
1534 Clouds 17 1023 49 0 2.6 63 00:19 13.06.2020
1535 Clouds 19 1022 37 10000 2.6 70 23:40 12.06.2020
1536 Clouds 19 1023 44 0 2.81 71 23:18 12.06.2020
1537 Clouds 19 1023 44 0 2.81 71 23:18 12.06.2020
1538 Clouds 19 1022 42 0 2.81 71 22:55 12.06.2020
1539 Clouds 20 1022 33 10000 2.6 90 22:37 12.06.2020
1540 Clouds 21 1022 36 0 3.09 76 22:18 12.06.2020
1541 Clouds 22 1022 28 10000 3.6 100 21:44 12.06.2020
1542 Clouds 23 999 24 0 0.89 135 21:23 12.06.2020
1543 Clouds 23 999 24 0 0.89 135 21:23 12.06.2020
1544 Clouds 23 999 24 0 1.34 135 20:57 12.06.2020
1545 Clouds 23 1021 28 10000 4.6 80 20:57 12.06.2020
1546 Clouds 24 1016 20 0 1.34 216 20:38 12.06.2020
1547 Clouds 25 998 25 0 0.45 133 20:20 12.06.2020
1548 Clouds 25 998 25 0 0.89 134 19:44 12.06.2020
1549 Clouds 25 998 27 0 0.45 140 19:22 12.06.2020
1550 Clouds 25 998 26 0 0.45 137 18:58 12.06.2020
1551 Clouds 26 998 25 0 0.45 272 18:37 12.06.2020
1552 Clear 26 998 24 0 1.79 270 18:18 12.06.2020
1553 Clear 26 998 25 0 0.45 225 17:43 12.06.2020
1554 Clear 26 998 24 0 0.89 158 17:25 12.06.2020
1555 Clear 26 999 23 0 0.89 229 16:47 12.06.2020
1556 Clear 26 999 22 0 1.79 270 16:23 12.06.2020
1557 Clear 26 999 23 0 0.89 270 15:53 12.06.2020
1558 Clear 26 1000 23 0 1.34 273 15:29 12.06.2020
1559 Clear 25 1000 22 0 0.89 158 14:59 12.06.2020
1560 Clouds 25 1000 24 0 0.89 270 14:41 12.06.2020
1561 Clouds 25 1000 23 0 1.34 98 14:22 12.06.2020
1562 Clouds 25 1000 23 0 1.34 177 13:56 12.06.2020
1563 Clouds 25 1000 23 0 1.34 270 13:56 12.06.2020
1564 Clouds 25 1000 25 0 0.89 90 13:37 12.06.2020
1565 Clouds 24 1000 25 0 0.89 270 13:18 12.06.2020
1566 Clouds 24 1000 25 0 1.34 113 12:39 12.06.2020
1567 Clouds 22 1024 35 10000 6.7 40 12:19 12.06.2020
1568 Clouds 22 1001 24 0 2.68 180 11:45 12.06.2020
1569 Clouds 21 1025 33 10000 5.7 60 11:23 12.06.2020
1570 Clouds 21 1025 33 10000 5.7 60 11:23 12.06.2020
1571 Clouds 22 1001 31 0 0.89 270 10:57 12.06.2020
1572 Clouds 22 1001 31 0 0.45 270 10:39 12.06.2020
1573 Clouds 22 1002 33 0 0.45 270 10:21 12.06.2020
1574 Clouds 22 1001 40 0 0.89 269 09:44 12.06.2020
1575 Clouds 19 1025 45 10000 5.1 30 09:20 12.06.2020
1576 Clouds 19 1002 45 0 0.89 225 08:42 12.06.2020
1577 Clouds 18 1001 49 0 0.45 180 08:23 12.06.2020
1578 Clouds 19 1001 44 0 0.45 87 07:43 12.06.2020
1579 Clouds 17 1022 44 0 2.73 45 07:24 12.06.2020
1580 Clouds 17 1001 51 0 0.45 180 06:44 12.06.2020
1581 Clouds 15 1024 67 10000 3.1 30 06:23 12.06.2020
1582 Clouds 14 1024 71 10000 3.1 30 05:50 12.06.2020
1583 Clouds 15 1021 49 0 2.21 16 05:25 12.06.2020
1584 Clouds 13 1021 58 0 2.22 11 03:56 12.06.2020
1585 Clouds 14 1021 55 0 2.09 12 02:43 12.06.2020
1586 Clouds 15 1022 50 0 1.97 14 01:47 12.06.2020
1587 Clouds 16 1001 41 0 1.35 34 01:20 12.06.2020
1588 Clouds 16 1020 44 0 1.35 34 00:40 12.06.2020
1589 Clouds 18 1001 42 0 1.4 69 00:21 12.06.2020
1590 Clouds 18 1000 43 0 1.4 69 23:57 11.06.2020
1591 Clouds 18 1019 36 0 1.4 69 23:39 11.06.2020
1592 Clouds 19 1019 36 0 2.09 46 23:20 11.06.2020
1593 Clouds 18 1023 59 0 2.09 46 22:55 11.06.2020
1594 Clouds 19 1022 37 10000 1.5 60 22:37 11.06.2020
1595 Clouds 21 1018 30 0 2.2 31 22:19 11.06.2020
1596 Clouds 21 1022 35 10000 4.1 70 21:43 11.06.2020
1597 Clouds 23 999 34 0 2.19 21 21:20 11.06.2020
1598 Clouds 23 999 32 0 2.09 24 20:58 11.06.2020
1599 Clouds 24 999 32 0 2.09 24 20:40 11.06.2020
1600 Clouds 24 999 31 0 0.45 270 20:20 11.06.2020
1601 Clouds 24 999 31 0 0.45 225 19:44 11.06.2020
1602 Clouds 25 999 31 0 0.45 270 19:22 11.06.2020
1603 Clouds 25 999 30 0 0.45 270 18:57 11.06.2020
1604 Clouds 25 999 30 0 0.45 272 18:39 11.06.2020
1605 Clouds 24 999 30 0 0.45 270 18:19 11.06.2020
1606 Clouds 24 999 30 0 0.45 270 17:55 11.06.2020
1607 Clouds 25 999 30 0 0.45 225 17:37 11.06.2020
1608 Clouds 26 999 30 0 0.45 270 17:18 11.06.2020
1609 Clouds 24 1022 31 0 4.1 49 16:43 11.06.2020
1610 Clouds 24 1022 31 0 4.23 50 16:25 11.06.2020
1611 Clouds 23 1023 35 10000 3.6 0 15:58 11.06.2020
1612 Clouds 25 1023 32 0 4.23 50 15:39 11.06.2020
1613 Clouds 25 1023 32 0 4.23 50 15:39 11.06.2020
1614 Clear 24 1023 33 0 4.03 52 15:21 11.06.2020
1615 Clear 24 1001 31 0 0.45 137 14:46 11.06.2020
1616 Clouds 23 1023 34 0 3.95 56 14:21 11.06.2020
1617 Clouds 24 1000 31 0 0.89 309 14:21 11.06.2020
1618 Clouds 23 1023 36 0 3.95 56 13:57 11.06.2020
1619 Clouds 24 1001 31 0 3.95 56 13:39 11.06.2020
1620 Clouds 24 1001 32 0 0.89 231 13:20 11.06.2020
1621 Clouds 24 1001 32 0 0.89 315 12:57 11.06.2020
1622 Clouds 24 1002 33 0 0.89 204 12:39 11.06.2020
1623 Clear 21 1024 33 0 3.55 53 12:19 11.06.2020
1624 Clear 21 1025 33 0 3.55 53 11:57 11.06.2020
1625 Clear 21 1025 33 0 3.55 53 11:38 11.06.2020
1626 Clear 21 1025 33 0 3.55 53 11:38 11.06.2020
1627 Clear 21 1025 33 0 3.31 52 11:20 11.06.2020
1628 Clear 21 1025 33 0 3.31 52 10:57 11.06.2020
1629 Clear 21 1002 37 0 0.45 270 10:38 11.06.2020
1630 Clear 21 1003 40 0 0.45 270 10:18 11.06.2020
1631 Clear 21 1002 44 0 0.45 248 09:41 11.06.2020
1632 Clouds 17 1025 63 10000 3.6 40 09:23 11.06.2020
1633 Clouds 17 1002 51 0 0.45 270 08:44 11.06.2020
1634 Clouds 17 1002 62 0 0.45 270 08:20 11.06.2020
1635 Clouds 16 1002 56 0 0.45 319 07:43 11.06.2020
1636 Clouds 16 1023 70 0 1.42 34 07:25 11.06.2020
1637 Clouds 17 1002 60 0 0.45 226 06:52 11.06.2020
1638 Clouds 13 1023 72 0 1.6 16 06:28 11.06.2020
1639 Clouds 12 1023 73 0 1.6 16 05:36 11.06.2020
1640 Clouds 12 1022 72 0 1.67 20 03:50 11.06.2020
1641 Clouds 13 1021 72 0 1.82 19 03:23 11.06.2020
1642 Clouds 14 1001 63 0 0.45 270 02:32 11.06.2020
1643 Clouds 14 1000 63 0 0.45 270 01:50 11.06.2020
1644 Clouds 14 1000 63 0 0.45 270 01:24 11.06.2020
1645 Clouds 14 1000 64 0 0.45 222 00:50 11.06.2020
1646 Clouds 14 1000 66 0 0.45 269 00:27 11.06.2020
1647 Clouds 14 1000 68 0 0.45 270 23:47 10.06.2020
1648 Clouds 14 1000 67 0 0.45 270 23:27 10.06.2020
1649 Clouds 14 999 66 0 0.45 270 22:57 10.06.2020
1650 Clouds 15 999 67 0 1.97 12 22:38 10.06.2020
1651 Clouds 15 999 68 0 0.45 268 22:19 10.06.2020
1652 Clouds 16 999 69 0 0.45 224 21:56 10.06.2020
1653 Clouds 16 999 75 0 1.89 15 21:38 10.06.2020
1654 Rain 17 999 73 0 1.6 24 21:18 10.06.2020
1655 Rain 17 999 71 0 1.6 24 20:56 10.06.2020
1656 Rain 17 999 70 0 1.6 24 20:38 10.06.2020
1657 Clouds 17 998 71 0 1.28 6 20:20 10.06.2020
1658 Clouds 17 999 73 0 1.28 6 19:41 10.06.2020
1659 Clouds 17 998 72 0 0.41 19 19:20 10.06.2020
1660 Clouds 17 998 71 0 0.45 250 18:59 10.06.2020
1661 Clouds 17 999 71 0 0.41 19 18:40 10.06.2020
1662 Clouds 18 999 70 0 0.45 90 18:19 10.06.2020
1663 Clouds 18 998 66 0 0.72 156 17:56 10.06.2020
1664 Clouds 18 999 61 0 0.45 180 17:37 10.06.2020
1665 Clouds 19 999 55 0 0.45 177 17:19 10.06.2020
1666 Clouds 19 999 55 0 0.45 177 17:19 10.06.2020
1667 Clouds 20 998 51 0 0.45 226 16:57 10.06.2020
1668 Clouds 21 998 45 0 0.89 231 16:39 10.06.2020
1669 Clouds 20 1020 50 0 2.28 193 16:20 10.06.2020
1670 Clouds 20 1020 50 0 2.28 193 16:20 10.06.2020
1671 Clouds 20 1020 45 10000 2.6 170 15:41 10.06.2020
1672 Clouds 21 1020 45 0 2.78 199 15:22 10.06.2020
1673 Clouds 19 1020 55 10000 2.6 130 14:59 10.06.2020
1674 Clouds 20 1020 45 0 2.78 199 14:40 10.06.2020
1675 Clouds 19 1020 55 10000 2.6 100 14:20 10.06.2020
1676 Clouds 22 998 51 0 0.45 291 13:41 10.06.2020
1677 Clouds 21 998 50 0 0.45 225 13:22 10.06.2020
1678 Clouds 20 998 51 0 2.25 169 12:46 10.06.2020
1679 Clouds 18 997 51 0 0.45 248 12:23 10.06.2020
1680 Clouds 19 998 55 0 1.89 160 11:59 10.06.2020
1681 Clouds 19 998 56 0 0.45 90 11:41 10.06.2020
1682 Clouds 18 998 53 0 0.45 225 11:20 10.06.2020
1683 Clouds 19 998 51 0 1.51 159 10:58 10.06.2020
1684 Clouds 18 998 53 0 0.45 315 10:40 10.06.2020
1685 Clouds 17 998 54 0 0.45 158 10:21 10.06.2020
1686 Clear 17 997 56 0 0.45 90 09:43 10.06.2020
1687 Clouds 14 1020 72 10000 2.6 40 09:24 10.06.2020
1688 Clear 14 997 63 0 0.71 175 08:57 10.06.2020
1689 Clear 14 997 68 0 0.71 175 08:39 10.06.2020
1690 Clear 13 998 68 0 0.45 225 08:20 10.06.2020
1691 Clear 14 998 62 0 0.51 174 07:39 10.06.2020
1692 Clear 13 998 67 0 0.24 160 07:21 10.06.2020
1693 Clear 12 997 75 0 0.24 160 06:47 10.06.2020
1694 Clear 10 1020 87 10000 1.5 350 06:25 10.06.2020
1695 Clear 9 1020 99 0 0.13 13 05:58 10.06.2020
1696 Clear 9 1020 97 0 0.08 166 05:28 10.06.2020
1697 Clear 8 1018 87 0 0.08 166 04:37 10.06.2020
1698 Clear 8 1017 84 0 0.36 156 03:33 10.06.2020
1699 Clear 9 1017 80 0 0.54 137 02:23 10.06.2020
1700 Clear 9 1016 77 0 0.54 137 01:39 10.06.2020
1701 Clear 10 1017 72 0 0.62 164 00:40 10.06.2020
1702 Clear 10 1017 70 0 0.83 180 00:22 10.06.2020
1703 Clear 12 1019 62 10000 3.6 170 23:57 09.06.2020
1704 Clear 12 1018 62 10000 3.1 160 23:39 09.06.2020
1705 Clear 12 1016 61 0 1.15 187 23:20 09.06.2020
1706 Clear 14 1000 31 0 1.15 187 22:56 09.06.2020
1707 Clear 15 996 55 0 1.62 181 22:38 09.06.2020
1708 Clear 15 996 54 0 1.62 181 22:19 09.06.2020
1709 Clear 16 996 52 0 0.89 158 21:56 09.06.2020
1710 Clear 16 1000 31 0 1.62 181 21:38 09.06.2020
1711 Clear 16 1000 31 0 1.62 181 21:38 09.06.2020
1712 Clear 17 996 50 0 0.45 135 21:20 09.06.2020
1713 Clear 17 996 49 0 0.45 225 20:56 09.06.2020
1714 Clear 17 995 49 0 0.45 221 20:38 09.06.2020
1715 Clear 17 995 47 0 0.89 179 20:18 09.06.2020
1716 Clear 18 995 41 0 0.45 137 19:57 09.06.2020
1717 Clear 18 995 40 0 0.89 314 19:38 09.06.2020
1718 Clear 18 995 40 0 1.34 226 19:20 09.06.2020
1719 Clear 18 995 40 0 1.34 185 19:20 09.06.2020
1720 Clear 19 995 41 0 0.89 225 18:46 09.06.2020
1721 Clear 19 995 47 0 0.45 270 18:28 09.06.2020
1722 Clear 19 995 47 0 0.45 270 17:59 09.06.2020
1723 Clear 19 995 47 0 0.45 225 17:41 09.06.2020
1724 Clear 19 995 49 0 3.57 201 17:22 09.06.2020
1725 Clear 19 995 47 0 3.57 201 17:00 09.06.2020
1726 Clear 19 995 49 0 0.45 225 16:40 09.06.2020
1727 Clear 19 995 45 0 0.45 270 16:21 09.06.2020
1728 Clear 20 995 44 0 3.72 212 15:42 09.06.2020
1729 Clear 19 995 45 0 0.45 268 15:23 09.06.2020
1730 Clear 18 995 49 0 0.89 20 14:59 09.06.2020
1731 Clouds 18 995 51 0 0.89 225 14:40 09.06.2020
1732 Clouds 19 995 50 0 0.45 180 14:20 09.06.2020
1733 Clouds 19 995 49 0 0.45 225 13:57 09.06.2020
1734 Clouds 19 995 50 0 0.45 112 13:57 09.06.2020
1735 Clouds 19 995 51 0 0.45 225 13:38 09.06.2020
1736 Clouds 18 995 52 0 0.45 225 13:20 09.06.2020
1737 Clouds 19 995 60 0 0.45 225 12:42 09.06.2020
1738 Rain 17 995 64 0 0.45 225 12:21 09.06.2020
1739 Rain 17 996 65 0 0.45 137 11:58 09.06.2020
1740 Rain 17 996 64 0 0.95 170 11:40 09.06.2020
1741 Rain 17 996 64 0 0.95 170 11:40 09.06.2020
1742 Rain 17 995 66 0 1.17 104 11:20 09.06.2020
1743 Rain 17 995 65 0 1.17 104 11:20 09.06.2020
1744 Rain 16 995 64 0 0.45 92 10:58 09.06.2020
1745 Rain 17 995 67 0 0.45 179 10:39 09.06.2020
1746 Rain 16 995 71 0 1.7 92 10:19 09.06.2020
1747 Rain 15 995 72 0 1.7 92 09:41 09.06.2020
1748 Clouds 14 995 69 0 1.92 80 09:22 09.06.2020
1749 Clouds 14 999 1 0 1.34 202 08:56 09.06.2020
1750 Clouds 14 995 72 0 1.92 80 08:37 09.06.2020
1751 Clear 14 994 72 0 1.27 59 08:19 09.06.2020
1752 Clear 13 1014 78 0 1.27 59 07:38 09.06.2020
1753 Clear 12 1014 85 0 0.95 41 07:19 09.06.2020
1754 Clear 12 994 79 0 0.45 180 06:53 09.06.2020
1755 Clouds 10 1016 87 10000 1 20 06:33 09.06.2020
1756 Clear 9 998 1 0 1.25 18 05:23 09.06.2020
1757 Clear 10 998 1 0 1.54 4 02:56 09.06.2020
1758 Clouds 11 997 1 0 1.32 9 01:41 09.06.2020
1759 Clouds 11 997 1 0 1.42 8 01:19 09.06.2020
1760 Clouds 11 997 1 0 1.42 8 00:49 09.06.2020
1761 Clouds 12 992 76 0 1.31 8 00:20 09.06.2020
1762 Clouds 12 992 76 0 1.31 8 23:58 08.06.2020
1763 Clouds 12 992 75 0 1 29 23:37 08.06.2020
1764 Clouds 12 992 74 0 1 29 23:19 08.06.2020
1765 Clouds 13 992 71 0 1 29 22:42 08.06.2020
1766 Clouds 13 992 71 0 0.45 270 22:22 08.06.2020
1767 Clouds 13 992 70 0 1.03 56 21:58 08.06.2020
1768 Clouds 13 992 70 0 1.03 56 21:58 08.06.2020
1769 Clouds 14 991 70 0 0.93 50 21:40 08.06.2020
1770 Clouds 14 991 70 0 1.27 61 21:21 08.06.2020
1771 Clouds 14 991 70 0 0.45 202 20:57 08.06.2020
1772 Clouds 15 991 68 0 1.64 35 20:39 08.06.2020
1773 Clouds 15 990 68 0 0.45 88 20:20 08.06.2020
1774 Clouds 15 991 67 0 0.45 272 19:55 08.06.2020
1775 Clouds 16 991 65 0 0.45 225 19:37 08.06.2020
1776 Clouds 16 990 66 0 0.45 271 19:19 08.06.2020
1777 Clouds 15 990 67 0 0.45 270 18:41 08.06.2020
1778 Clouds 16 990 65 0 0.45 138 18:18 08.06.2020
1779 Clouds 16 991 66 0 0.45 270 17:56 08.06.2020
1780 Clouds 16 991 69 0 0.45 228 17:38 08.06.2020
1781 Clouds 15 991 69 0 0.45 41 17:19 08.06.2020
1782 Clouds 15 991 68 0 0.45 315 16:45 08.06.2020
1783 Clouds 15 991 69 0 0.45 312 16:25 08.06.2020
1784 Clouds 14 991 70 0 0.45 227 15:59 08.06.2020
1785 Clouds 14 990 70 0 0.89 227 15:41 08.06.2020
1786 Clouds 14 990 71 0 0.45 310 15:20 08.06.2020
1787 Clouds 13 990 73 0 0.45 270 15:20 08.06.2020
1788 Clouds 13 990 74 0 0.45 270 14:56 08.06.2020
1789 Clouds 13 990 75 0 0.45 270 14:36 08.06.2020
1790 Clouds 13 990 75 0 0.45 270 14:18 08.06.2020
1791 Clouds 12 990 79 0 3.03 13 13:41 08.06.2020
1792 Clouds 12 990 79 0 0.89 270 13:20 08.06.2020
1793 Clouds 12 990 81 0 0.45 264 12:40 08.06.2020
1794 Clouds 11 994 1 0 3.95 19 12:19 08.06.2020
1795 Clouds 11 994 1 0 3.95 19 11:57 08.06.2020
1796 Clouds 11 989 81 0 0.89 270 11:38 08.06.2020
1797 Clouds 11 989 81 0 0.89 270 11:38 08.06.2020
1798 Clouds 11 989 81 0 0.45 313 11:20 08.06.2020
1799 Clouds 10 989 81 0 0.89 294 10:56 08.06.2020
1800 Clouds 10 989 80 0 0.45 228 10:37 08.06.2020
1801 Clouds 10 988 80 0 0.45 251 10:19 08.06.2020
1802 Clouds 11 988 80 0 0.89 270 09:43 08.06.2020
1803 Rain 11 987 80 0 0.89 313 09:23 08.06.2020
1804 Clouds 11 987 82 0 0.89 315 08:49 08.06.2020
1805 Clouds 11 987 85 0 0.45 264 08:24 08.06.2020
1806 Clouds 11 986 88 0 0.45 270 07:56 08.06.2020
1807 Clouds 11 986 90 0 0.45 291 07:37 08.06.2020
1808 Clouds 11 986 90 0 0.45 291 07:37 08.06.2020
1809 Clouds 11 986 92 0 0.45 270 07:18 08.06.2020
1810 Clouds 10 985 93 0 0.38 61 06:38 08.06.2020
1811 Clouds 11 985 92 0 0.3 86 05:54 08.06.2020
1812 Clouds 11 984 90 0 0.45 314 04:59 08.06.2020
1813 Rain 10 1006 93 10000 3.6 170 03:24 08.06.2020
1814 Clouds 10 984 88 0 0.89 91 02:26 08.06.2020
1815 Clouds 10 984 86 0 0.89 184 01:42 08.06.2020
1816 Clouds 10 983 84 0 0.89 280 00:57 08.06.2020
1817 Clouds 11 983 82 0 0.45 137 00:24 08.06.2020
1818 Clouds 11 983 81 0 1.34 180 23:38 07.06.2020
1819 Clouds 11 983 81 0 0.89 174 23:19 07.06.2020
1820 Clouds 11 983 81 0 1.34 270 22:57 07.06.2020
1821 Clouds 11 987 1 0 1.34 194 22:37 07.06.2020
1822 Clouds 12 983 79 0 0.45 294 22:18 07.06.2020
1823 Clouds 12 983 79 0 0.89 272 21:57 07.06.2020
1824 Clouds 12 982 78 0 0.89 290 21:36 07.06.2020
1825 Clouds 12 982 76 0 1.34 136 21:18 07.06.2020
1826 Clouds 12 982 73 0 1.34 0 20:39 07.06.2020
1827 Clouds 12 982 72 0 0.89 152 20:20 07.06.2020
1828 Clouds 13 982 71 0 0.89 292 19:57 07.06.2020
1829 Clouds 13 981 70 0 0.89 270 19:38 07.06.2020
1830 Clouds 13 981 70 0 0.89 225 19:20 07.06.2020
1831 Clouds 13 981 70 0 0.89 266 18:59 07.06.2020
1832 Clouds 12 981 67 0 1.34 177 18:38 07.06.2020
1833 Rain 13 985 1 0 1.79 188 18:19 07.06.2020
1834 Rain 13 985 2 0 1.34 132 17:57 07.06.2020
1835 Clouds 13 985 1 0 1.34 199 17:38 07.06.2020
1836 Clouds 13 985 1 0 0.89 232 17:19 07.06.2020
1837 Clouds 14 985 1 0 1.34 162 16:42 07.06.2020
1838 Clouds 14 1002 71 10000 6.7 200 16:21 07.06.2020
1839 Clouds 13 1001 76 10000 6.2 210 15:42 07.06.2020
1840 Clouds 13 1001 76 10000 6.2 210 15:22 07.06.2020
1841 Clouds 13 1001 71 10000 7.2 190 14:41 07.06.2020
1842 Clouds 13 1001 71 10000 7.2 200 14:22 07.06.2020
1843 Clouds 13 1001 71 10000 7.2 200 14:22 07.06.2020
1844 Rain 12 1000 71 10000 7.2 200 13:50 07.06.2020
1845 Rain 11 979 81 0 0.89 269 13:22 07.06.2020
1846 Rain 11 979 81 0 1.34 182 12:58 07.06.2020
1847 Rain 11 979 81 0 1.79 225 12:40 07.06.2020
1848 Rain 10 978 82 0 1.34 180 12:20 07.06.2020
1849 Rain 10 978 84 0 0.45 93 11:55 07.06.2020
1850 Rain 10 978 86 0 1.34 225 11:37 07.06.2020
1851 Rain 10 978 86 0 1.34 225 11:37 07.06.2020
1852 Rain 10 977 87 0 0.89 136 11:18 07.06.2020
1853 Rain 10 977 88 0 0.89 139 10:45 07.06.2020
1854 Rain 10 977 90 0 0.89 180 10:22 07.06.2020
1855 Rain 10 976 90 0 1.34 177 09:59 07.06.2020
1856 Rain 10 976 91 0 0.89 270 09:40 07.06.2020
1857 Rain 10 975 91 0 1.34 90 09:21 07.06.2020
1858 Rain 10 975 92 0 1.34 179 08:58 07.06.2020
1859 Rain 10 974 92 0 0.89 180 08:40 07.06.2020
1860 Rain 10 974 93 0 0.89 187 08:21 07.06.2020
1861 Rain 10 974 93 0 1.34 224 07:39 07.06.2020
1862 Rain 10 973 92 0 0.89 90 06:55 07.06.2020
1863 Rain 9 972 91 0 1.34 88 05:54 07.06.2020
1864 Clouds 9 971 89 0 1.34 92 04:22 07.06.2020
1865 Clouds 9 970 91 0 0.89 315 03:48 07.06.2020
1866 Rain 9 970 93 0 0.89 90 02:19 07.06.2020
1867 Rain 9 969 93 0 0.89 100 01:26 07.06.2020
1868 Rain 9 969 95 0 0.89 181 00:48 07.06.2020
1869 Rain 10 968 95 0 1.34 139 00:21 07.06.2020
1870 Rain 10 968 95 0 0.45 224 23:59 06.06.2020
1871 Rain 10 968 95 0 0.45 110 23:38 06.06.2020
1872 Rain 10 968 95 0 0.45 177 23:20 06.06.2020
1873 Rain 10 968 96 0 0.89 218 22:57 06.06.2020
1874 Rain 10 968 96 0 0.89 220 22:39 06.06.2020
1875 Rain 10 967 96 0 0.45 182 22:19 06.06.2020
1876 Rain 10 967 95 0 0.45 267 21:56 06.06.2020
1877 Rain 10 967 95 0 0.89 181 21:37 06.06.2020
1878 Rain 10 967 95 0 1.34 246 21:19 06.06.2020
1879 Rain 11 966 94 0 0.89 175 20:40 06.06.2020
1880 Rain 11 966 94 0 0.89 225 20:20 06.06.2020
1881 Rain 11 966 94 0 0.45 228 19:58 06.06.2020
1882 Rain 11 966 94 0 0.45 181 19:40 06.06.2020
1883 Rain 11 966 93 0 0.89 310 19:21 06.06.2020
1884 Rain 11 966 93 0 0.89 5 18:55 06.06.2020
1885 Rain 11 966 92 0 0.89 183 18:36 06.06.2020
1886 Rain 11 965 92 0 0.89 270 18:18 06.06.2020
1887 Rain 11 966 91 0 0.45 180 17:43 06.06.2020
1888 Rain 11 966 92 0 0.45 135 17:20 06.06.2020
1889 Rain 11 965 92 0 0.45 89 16:56 06.06.2020
1890 Rain 11 965 91 0 0.45 272 16:38 06.06.2020
1891 Rain 11 965 91 0 0.45 227 16:19 06.06.2020
1892 Rain 11 966 91 0 0.89 267 15:44 06.06.2020
1893 Rain 10 965 90 0 0.45 221 15:20 06.06.2020
1894 Rain 10 966 90 0 0.45 267 14:57 06.06.2020
1895 Rain 11 965 90 0 0.45 182 14:37 06.06.2020
1896 Rain 11 965 91 0 0.45 90 14:19 06.06.2020
1897 Rain 11 965 91 0 1.32 278 13:46 06.06.2020
1898 Rain 11 966 90 0 1.24 288 13:19 06.06.2020
1899 Rain 11 965 88 0 0.45 225 12:57 06.06.2020
1900 Rain 11 965 86 0 0.45 270 12:38 06.06.2020
1901 Rain 11 965 83 0 0.45 226 12:18 06.06.2020
1902 Rain 11 970 1 0 1.52 299 11:54 06.06.2020
1903 Rain 11 970 1 0 1.79 316 11:36 06.06.2020
1904 Rain 11 970 1 0 1.52 299 11:36 06.06.2020
1905 Rain 11 970 1 0 1.79 316 11:18 06.06.2020
1906 Rain 10 971 1 0 1.79 316 10:55 06.06.2020
1907 Rain 10 971 1 0 1.79 316 10:36 06.06.2020
1908 Rain 10 971 1 0 1.72 317 10:18 06.06.2020
1909 Rain 10 971 1 0 1.72 317 09:41 06.06.2020
1910 Rain 11 966 90 0 1.23 321 09:23 06.06.2020
1911 Rain 11 967 91 0 1.41 332 08:47 06.06.2020
1912 Rain 11 967 92 0 1.07 334 08:24 06.06.2020
1913 Rain 10 967 91 0 1.07 334 07:56 06.06.2020
1914 Clouds 10 967 91 0 0.92 335 07:38 06.06.2020
1915 Clouds 10 967 91 0 0.92 335 07:19 06.06.2020
1916 Clouds 9 967 91 0 0.92 335 06:43 06.06.2020
1917 Clouds 9 967 90 0 0.8 339 06:25 06.06.2020
1918 Clouds 9 968 90 0 0.66 320 05:33 06.06.2020
1919 Clouds 8 968 90 0 0.66 320 04:50 06.06.2020
1920 Clouds 9 969 91 0 0.31 276 03:29 06.06.2020
1921 Clouds 9 969 90 0 0.31 276 02:35 06.06.2020
1922 Clouds 9 970 90 0 0.31 338 01:23 06.06.2020
1923 Clouds 9 970 90 0 0.31 338 00:57 06.06.2020
1924 Clouds 9 970 90 0 0.31 338 00:39 06.06.2020
1925 Clouds 9 970 89 0 0.44 96 00:20 06.06.2020
1926 Clouds 9 970 87 0 0.44 96 23:40 05.06.2020
1927 Clouds 9 970 86 0 0.62 91 23:20 05.06.2020
1928 Clouds 9 970 85 0 0.62 91 22:56 05.06.2020
1929 Clouds 9 970 85 0 0.62 91 22:38 05.06.2020
1930 Rain 10 970 85 0 0.83 68 22:20 05.06.2020
1931 Rain 10 970 85 0 0.83 68 21:43 05.06.2020
1932 Rain 10 970 88 0 0.68 125 21:23 05.06.2020
1933 Rain 10 970 90 0 0.45 109 20:59 05.06.2020
1934 Rain 10 970 89 0 0.68 125 20:41 05.06.2020
1935 Rain 10 970 88 0 2.44 116 20:22 05.06.2020
1936 Rain 11 970 87 0 2.44 116 19:44 05.06.2020
1937 Rain 11 969 84 0 1.34 313 19:24 05.06.2020
1938 Rain 12 969 77 0 1.34 175 18:59 05.06.2020
1939 Rain 12 968 78 0 1.34 93 18:39 05.06.2020
1940 Rain 13 968 79 0 1.34 227 18:20 05.06.2020
1941 Rain 13 968 80 0 0.89 91 17:58 05.06.2020
1942 Rain 13 969 79 0 1.34 225 17:58 05.06.2020
1943 Rain 13 968 78 0 0.89 268 17:40 05.06.2020
1944 Rain 13 969 75 0 0.89 358 17:20 05.06.2020
1945 Rain 13 969 71 0 0.45 90 16:41 05.06.2020
1946 Rain 13 969 71 0 0.89 49 16:23 05.06.2020
1947 Rain 13 970 72 0 0.89 226 15:58 05.06.2020
1948 Rain 13 969 74 0 0.45 45 15:38 05.06.2020
1949 Rain 13 970 76 0 0.89 180 15:20 05.06.2020
1950 Rain 14 970 68 0 1.79 269 14:56 05.06.2020
1951 Rain 15 969 65 0 0.45 225 14:38 05.06.2020
1952 Rain 15 969 64 0 0.45 268 14:19 05.06.2020
1953 Rain 15 970 63 0 0.45 87 13:44 05.06.2020
1954 Rain 16 970 59 0 1.79 219 13:26 05.06.2020
1955 Rain 16 970 60 0 0.45 132 12:55 05.06.2020
1956 Rain 15 970 60 0 0.45 138 12:37 05.06.2020
1957 Rain 15 970 60 0 0.89 270 12:18 05.06.2020
1958 Rain 16 970 61 0 1.34 183 11:42 05.06.2020
1959 Rain 15 971 61 0 1.79 177 11:23 05.06.2020
1960 Rain 15 971 64 0 0.89 266 10:56 05.06.2020
1961 Rain 15 971 65 0 1.34 270 10:38 05.06.2020
1962 Clouds 14 971 66 0 0.45 224 10:19 05.06.2020
1963 Clouds 15 971 65 0 1.34 268 09:55 05.06.2020
1964 Clouds 15 971 65 0 1.34 264 09:37 05.06.2020
1965 Clouds 14 972 66 0 0.89 270 09:18 05.06.2020
1966 Clouds 14 971 66 0 0.45 132 08:55 05.06.2020
1967 Clouds 14 971 66 0 1.79 90 08:36 05.06.2020
1968 Clouds 14 971 66 0 2.24 175 08:18 05.06.2020
1969 Clouds 14 971 66 0 1.34 222 07:43 05.06.2020
1970 Clouds 14 972 64 0 1.34 249 07:20 05.06.2020
1971 Clouds 13 995 71 10000 3.1 80 06:20 05.06.2020
1972 Clouds 12 996 71 10000 2.6 90 05:21 05.06.2020
1973 Clouds 12 977 1 0 3.33 68 04:26 05.06.2020
1974 Clouds 13 978 25 0 0.45 116 02:56 05.06.2020
1975 Clouds 14 978 34 0 0.89 134 02:25 05.06.2020
1976 Clouds 14 978 42 0 0.45 99 01:56 05.06.2020
1977 Clouds 14 979 45 0 0.89 70 01:27 05.06.2020
1978 Clouds 14 979 48 0 3.26 83 00:42 05.06.2020
1979 Clouds 14 979 49 0 3.36 80 00:21 05.06.2020
1980 Clouds 15 979 50 0 0.89 127 23:46 04.06.2020
1981 Clouds 15 975 48 0 0.45 270 23:28 04.06.2020
1982 Clouds 16 975 45 0 3.47 86 22:56 04.06.2020
1983 Clouds 15 979 50 0 3.47 86 22:37 04.06.2020
1984 Clouds 16 975 44 0 3.24 90 22:18 04.06.2020
1985 Clouds 16 976 43 0 0.45 133 21:56 04.06.2020
1986 Clouds 17 976 42 0 0.45 270 21:37 04.06.2020
1987 Clouds 17 976 42 0 0.45 180 21:19 04.06.2020
1988 Clouds 17 976 42 0 1.34 139 20:54 04.06.2020
1989 Clouds 17 976 42 0 0.45 178 20:36 04.06.2020
1990 Clouds 17 976 41 0 1.34 225 20:18 04.06.2020
1991 Clouds 18 976 41 0 1.79 42 19:39 04.06.2020
1992 Clouds 18 976 41 0 1.79 42 19:39 04.06.2020
1993 Clouds 18 976 41 0 0.89 113 19:21 04.06.2020
1994 Clouds 18 976 41 0 1.79 270 18:56 04.06.2020
1995 Clouds 18 976 38 0 1.34 228 18:38 04.06.2020
1996 Clouds 19 976 35 0 1.79 270 18:19 04.06.2020
1997 Clouds 19 976 33 0 0.45 222 17:42 04.06.2020
1998 Clouds 20 977 30 0 1.79 222 17:21 04.06.2020
1999 Clouds 20 976 30 0 0.45 137 16:56 04.06.2020
2000 Clouds 20 977 28 0 1.34 266 16:38 04.06.2020
2001 Clouds 20 977 28 0 0.45 135 16:18 04.06.2020
2002 Clouds 19 977 30 0 1.34 254 15:42 04.06.2020
2003 Rain 17 978 31 0 2.24 183 15:24 04.06.2020
2004 Clouds 14 1001 76 10000 2.6 290 14:40 04.06.2020
2005 Clouds 16 1001 76 10000 2.6 290 14:21 04.06.2020
2006 Clouds 13 1002 76 10000 2.1 240 13:56 04.06.2020
2007 Rain 12 1002 81 10000 3.6 160 13:38 04.06.2020
2008 Rain 13 983 1 0 1.34 205 13:20 04.06.2020
2009 Rain 13 983 1 0 2.63 106 12:55 04.06.2020
2010 Rain 13 979 72 0 0.89 270 12:37 04.06.2020
2011 Rain 13 979 72 0 0.89 270 12:37 04.06.2020
2012 Rain 12 979 78 0 0.45 135 12:18 04.06.2020
2013 Rain 12 980 80 0 1.79 134 11:41 04.06.2020
2014 Rain 13 980 75 0 0.45 90 11:20 04.06.2020
2015 Rain 12 980 74 0 0.45 95 10:59 04.06.2020
2016 Rain 12 984 1 0 0.89 160 10:39 04.06.2020
2017 Rain 12 984 1 0 1.79 169 10:20 04.06.2020
2018 Clouds 12 1002 58 10000 5.1 110 09:46 04.06.2020
2019 Rain 12 1002 58 10000 3.6 80 09:28 04.06.2020
2020 Rain 12 1002 58 10000 4.1 80 08:51 04.06.2020
2021 Rain 12 1002 58 10000 4.1 100 08:31 04.06.2020
2022 Rain 12 1003 58 10000 4.1 90 07:59 04.06.2020
2023 Rain 12 984 1 0 2.15 70 07:31 04.06.2020
2024 Rain 12 984 1 0 2.15 70 06:45 04.06.2020
2025 Rain 12 984 1 0 0.89 128 06:27 04.06.2020
2026 Rain 12 985 20 0 0.45 127 05:51 04.06.2020
2027 Rain 13 998 70 0 0.89 185 05:31 04.06.2020
2028 Rain 13 998 70 0 0.89 185 05:31 04.06.2020
2029 Clouds 13 999 73 0 1.52 68 03:31 04.06.2020
2030 Clouds 14 1004 44 10000 2.1 100 02:19 04.06.2020
2031 Clouds 15 1004 47 10000 2.1 80 01:20 04.06.2020
2032 Clouds 15 1004 44 10000 2.1 130 00:53 04.06.2020
2033 Clouds 15 1005 41 10000 2.6 140 23:58 03.06.2020
2034 Clouds 15 1005 44 10000 3.1 140 23:36 03.06.2020
2035 Clouds 15 987 43 0 1.04 109 23:18 03.06.2020
2036 Rain 16 983 48 0 1.38 134 22:40 03.06.2020
2037 Rain 16 983 49 0 0.45 135 22:19 03.06.2020
2038 Rain 16 983 50 0 0.45 180 21:59 03.06.2020
2039 Rain 17 1001 39 0 1.38 134 21:41 03.06.2020
2040 Clouds 17 983 44 0 2.26 153 21:22 03.06.2020
2041 Clouds 18 983 43 0 0.45 225 20:58 03.06.2020
2042 Clouds 18 983 41 0 2.26 153 20:40 03.06.2020
2043 Clouds 19 983 40 0 3.07 173 20:20 03.06.2020
2044 Clouds 19 983 40 0 0.45 225 19:57 03.06.2020
2045 Clouds 19 983 40 0 0.45 225 19:38 03.06.2020
2046 Clouds 19 983 40 0 0.89 179 19:19 03.06.2020
2047 Clouds 20 983 38 0 1.34 267 18:57 03.06.2020
2048 Clouds 20 983 36 0 0.89 208 18:38 03.06.2020
2049 Clouds 21 983 36 0 0.89 224 18:18 03.06.2020
2050 Clouds 22 983 39 0 0.45 180 17:44 03.06.2020
2051 Clouds 21 984 40 0 0.45 137 17:22 03.06.2020
2052 Clouds 22 984 41 0 1.79 156 16:58 03.06.2020
2053 Clouds 22 984 41 0 0.45 223 16:39 03.06.2020
2054 Clouds 22 984 41 0 0.89 178 16:19 03.06.2020
2055 Clouds 22 984 43 0 0.89 229 15:54 03.06.2020
2056 Clouds 22 984 44 0 2.24 138 15:36 03.06.2020
2057 Clouds 22 984 43 0 0.89 268 15:18 03.06.2020
2058 Clouds 23 985 31 0 0.89 135 14:42 03.06.2020
2059 Clouds 23 985 28 0 1.34 226 14:22 03.06.2020
2060 Clouds 23 985 30 0 1.34 312 13:40 03.06.2020
2061 Clouds 23 985 30 0 1.34 137 13:20 03.06.2020
2062 Clouds 23 985 30 0 1.34 137 13:20 03.06.2020
2063 Clouds 22 985 30 0 0.89 221 12:54 03.06.2020
2064 Clouds 22 985 30 0 0.45 180 12:36 03.06.2020
2065 Clouds 21 986 27 0 1.79 136 12:18 03.06.2020
2066 Clouds 22 986 27 0 0.45 180 11:41 03.06.2020
2067 Clouds 21 986 28 0 0.45 136 11:23 03.06.2020
2068 Clouds 20 986 30 0 0.89 270 10:43 03.06.2020
2069 Clouds 19 986 30 0 2.16 95 10:24 03.06.2020
2070 Clouds 19 986 35 0 0.45 270 09:47 03.06.2020
2071 Clouds 16 991 42 0 0.45 184 09:23 03.06.2020
2072 Clouds 16 991 42 0 0.89 123 08:59 03.06.2020
2073 Clouds 16 987 46 0 0.45 225 08:41 03.06.2020
2074 Clouds 16 987 46 0 0.45 225 08:21 03.06.2020
2075 Clouds 16 987 43 0 0.45 315 07:44 03.06.2020
2076 Clouds 15 1006 61 0 1.4 51 07:23 03.06.2020
2077 Clouds 13 1006 66 0 1.4 51 06:54 03.06.2020
2078 Clouds 12 991 10 0 1.19 43 06:33 03.06.2020
2079 Clouds 10 1006 73 0 1.19 43 05:49 03.06.2020
2080 Clouds 10 1005 73 0 1.34 90 05:21 03.06.2020
2081 Clouds 10 991 1 0 0.8 50 03:52 03.06.2020
2082 Clouds 11 992 1 0 0.93 58 03:24 03.06.2020
2083 Clouds 11 1006 65 0 0.66 46 02:24 03.06.2020
2084 Clouds 12 992 3 0 0.02 330 00:56 03.06.2020
2085 Clouds 13 1007 53 0 0.56 164 00:37 03.06.2020
2086 Clouds 13 1007 52 0 0.56 164 00:18 03.06.2020
2087 Clouds 13 1007 48 0 0.56 164 23:38 02.06.2020
2088 Clouds 15 1007 45 0 0.96 182 23:20 02.06.2020
2089 Clouds 16 1007 39 0 0.96 182 22:39 02.06.2020
2090 Clouds 17 988 20 0 0.89 221 22:19 02.06.2020
2091 Clouds 18 992 42 0 1.34 171 21:57 02.06.2020
2092 Clouds 18 992 37 0 0.45 199 21:38 02.06.2020
2093 Clouds 19 989 15 0 0.45 270 21:20 02.06.2020
2094 Clouds 20 989 15 0 0.45 180 20:58 02.06.2020
2095 Clouds 21 988 15 0 0.89 270 20:40 02.06.2020
2096 Clouds 21 988 15 0 0.89 269 20:21 02.06.2020
2097 Clouds 22 989 15 0 0.89 186 19:44 02.06.2020
2098 Clouds 23 989 20 0 0.45 270 19:26 02.06.2020
2099 Clouds 23 989 20 0 0.45 270 19:26 02.06.2020
2100 Clouds 23 989 20 0 0.45 270 19:26 02.06.2020
2101 Clouds 23 989 23 0 0.89 45 18:58 02.06.2020
2102 Clouds 23 989 23 0 0.89 45 18:58 02.06.2020
2103 Clouds 23 989 23 0 0.89 270 18:40 02.06.2020
2104 Clouds 24 990 30 0 0.89 180 18:20 02.06.2020
2105 Clouds 24 990 26 0 0.89 270 17:57 02.06.2020
2106 Clouds 24 990 26 0 0.45 268 17:39 02.06.2020
2107 Clouds 25 990 24 0 1.34 270 17:20 02.06.2020
2108 Clouds 26 990 23 0 0.89 268 16:55 02.06.2020
2109 Clouds 26 991 23 0 0.89 270 16:37 02.06.2020
2110 Clouds 26 991 22 0 1.34 225 16:19 02.06.2020
2111 Clouds 26 991 22 0 1.34 270 16:19 02.06.2020
2112 Clouds 26 991 25 0 0.45 270 15:40 02.06.2020
2113 Clouds 26 992 26 0 0.45 225 15:20 02.06.2020
2114 Clouds 26 992 25 0 0.45 90 14:47 02.06.2020
2115 Clouds 26 992 25 0 0.45 248 14:28 02.06.2020
2116 Clouds 26 993 26 0 0.89 225 13:55 02.06.2020
2117 Clouds 26 993 26 0 0.89 225 13:37 02.06.2020
2118 Clouds 26 993 25 0 0.45 135 13:18 02.06.2020
2119 Clouds 26 993 26 0 0.45 248 12:56 02.06.2020
2120 Clouds 26 994 25 0 0.45 248 12:37 02.06.2020
2121 Clouds 25 994 25 0 0.45 248 12:19 02.06.2020
2122 Clouds 24 995 26 0 0.45 270 11:41 02.06.2020
2123 Clouds 24 995 28 0 0.45 180 11:22 02.06.2020
2124 Clouds 24 995 32 0 0.45 180 10:56 02.06.2020
2125 Clouds 23 995 36 0 1.87 192 10:38 02.06.2020
2126 Clouds 23 996 32 0 0.45 180 10:20 02.06.2020
2127 Clouds 21 996 40 0 0.45 180 09:43 02.06.2020
2128 Clouds 17 1000 33 0 0.43 207 09:21 02.06.2020
2129 Clouds 18 996 46 0 0.45 180 08:54 02.06.2020
2130 Clouds 18 996 50 0 0.38 255 08:28 02.06.2020
2131 -273 0 0 0 0 0 07:58 02.06.2020
2132 Clouds 17 997 40 0 0.38 255 07:33 02.06.2020
2133 Clouds 16 997 47 0 0.25 239 06:59 02.06.2020
2134 Clouds 14 997 55 0 0.25 239 06:38 02.06.2020
2135 Clouds 12 1018 62 0 0.27 277 05:38 02.06.2020
2136 Clouds 11 1002 1 0 0.34 294 04:41 02.06.2020
2137 Clouds 13 1018 50 0 0.21 201 02:37 02.06.2020
2138 Clouds 14 1003 40 0 0.56 174 01:55 02.06.2020
2139 Clouds 15 1022 42 10000 1.5 140 00:51 02.06.2020
2140 Clouds 16 1020 43 0 0.94 172 00:21 02.06.2020
2141 Clouds 17 1023 37 10000 1 0 23:39 01.06.2020
2142 Clouds 17 1004 48 0 1.13 189 23:20 01.06.2020
2143 Clouds 17 1020 38 0 1.13 189 22:58 01.06.2020
2144 Clouds 18 1004 50 0 1.13 189 22:39 01.06.2020
2145 Clouds 18 1020 35 0 1.24 192 22:19 01.06.2020
2146 Clouds 19 1020 33 0 1.24 192 21:54 01.06.2020
2147 Clouds 20 1005 44 0 1.24 192 21:36 01.06.2020
2148 Clouds 22 1001 25 0 1.53 195 21:18 01.06.2020
2149 Clouds 23 1020 27 0 1.53 195 20:42 01.06.2020
2150 Clouds 24 1001 25 0 0.45 180 20:21 01.06.2020
2151 Clouds 24 1001 25 0 0.45 180 20:21 01.06.2020
2152 Clouds 24 1001 24 0 0.45 202 19:59 01.06.2020
2153 Clouds 24 1001 23 0 0.45 180 19:41 01.06.2020
2154 Clouds 24 1001 22 0 1.34 180 19:20 01.06.2020
2155 Clouds 24 1001 22 0 1.34 180 19:20 01.06.2020
2156 Clouds 25 1002 22 0 0.89 270 18:58 01.06.2020
2157 Clouds 25 1002 23 0 0.45 270 18:39 01.06.2020
2158 Clouds 26 1002 23 0 0.89 225 18:19 01.06.2020
2159 Clouds 26 1002 22 0 0.45 225 17:54 01.06.2020
2160 Clouds 26 1002 21 0 0.45 180 17:36 01.06.2020
2161 Clouds 27 1003 21 0 0.45 225 17:18 01.06.2020
2162 Clouds 27 1003 20 0 0.45 270 16:39 01.06.2020
2163 Clouds 27 1003 20 0 0.45 270 16:20 01.06.2020
2164 Clouds 27 1003 22 0 0.45 225 15:55 01.06.2020
2165 Clouds 28 1004 20 0 0.45 248 15:36 01.06.2020
2166 Clouds 27 1004 21 0 0.45 270 15:18 01.06.2020
2167 Clouds 27 1004 20 0 0.45 270 14:55 01.06.2020
2168 Clouds 27 1004 21 0 0.89 248 14:36 01.06.2020
2169 Clouds 28 1005 20 0 0.89 223 14:18 01.06.2020
2170 Clouds 28 1005 20 0 0.45 90 13:41 01.06.2020
2171 Clouds 27 1005 23 0 0.45 90 13:21 01.06.2020
2172 Clouds 26 1005 22 0 0.45 90 12:58 01.06.2020
2173 Clouds 26 1005 21 0 0.45 270 12:40 01.06.2020
2174 Clouds 26 1006 21 0 0.45 248 12:21 01.06.2020
2175 Clouds 26 1006 21 0 0.45 248 11:56 01.06.2020
2176 Clouds 24 1006 21 0 0.45 248 11:36 01.06.2020
2177 Clouds 26 1006 22 0 0.45 248 11:18 01.06.2020
2178 Clouds 24 1006 32 0 1.53 226 10:40 01.06.2020
2179 Clouds 24 1006 34 0 0.45 248 10:20 01.06.2020
2180 Clouds 23 1007 33 0 0.45 248 09:58 01.06.2020
2181 Clouds 22 1006 34 0 0.9 220 09:40 01.06.2020
2182 Clouds 17 1011 44 0 0.32 237 09:20 01.06.2020
2183 Clouds 19 1007 41 0 0.45 248 08:52 01.06.2020
2184 Clouds 18 1007 44 0 0.3 244 08:30 01.06.2020
2185 Clouds 17 1007 41 0 0.45 248 07:54 01.06.2020
2186 Clouds 17 1007 34 0 0.47 314 07:36 01.06.2020
2187 Clear 15 1028 53 0 0.55 322 07:18 01.06.2020
2188 Clear 15 1007 45 0 0.55 322 06:43 01.06.2020
2189 Clear 10 1028 59 0 0.73 339 05:54 01.06.2020
2190 Clear 10 1029 59 0 0.85 351 04:50 01.06.2020
2191 Clear 10 1028 54 0 0.88 1 03:50 01.06.2020
2192 Clear 10 1028 53 0 0.97 2 03:32 01.06.2020
2193 Clear 11 1011 32 0 0.97 2 02:32 01.06.2020
2194 Clear 12 1028 46 0 0.66 352 01:35 01.06.2020
2195 Clear 13 1011 51 0 0.66 352 00:59 01.06.2020
2196 Clear 14 1027 43 0 0.66 352 00:40 01.06.2020
2197 Clear 14 1011 49 0 0.46 333 00:21 01.06.2020
2198 Clear 15 1011 50 0 0.46 333 23:58 31.05.2020
2199 Clear 15 1026 38 0 0.17 47 23:39 31.05.2020
2200 Clear 15 1026 38 0 0.17 47 23:39 31.05.2020
2201 Clear 16 1011 51 0 0.17 47 23:21 31.05.2020
2202 Clear 16 1027 36 0 0.17 47 22:57 31.05.2020
2203 Clear 16 1011 49 0 0.17 47 22:38 31.05.2020
2204 Clear 18 1026 33 0 0.58 121 22:20 31.05.2020
2205 Clear 19 1026 26 0 0.58 121 21:42 31.05.2020
2206 Clear 21 1006 21 0 0.45 248 21:24 31.05.2020
2207 Clear 22 1006 20 0 0.45 248 20:58 31.05.2020
2208 Clear 22 1026 22 0 1.13 121 20:40 31.05.2020
2209 Clear 23 1006 20 0 0.45 248 20:21 31.05.2020
2210 Clear 24 1006 20 0 1.48 115 19:56 31.05.2020
2211 Clear 24 1006 20 0 1.48 115 19:37 31.05.2020
2212 Clear 25 1006 20 0 0.45 248 19:19 31.05.2020
2213 Clear 25 1007 21 0 0.45 225 18:44 31.05.2020
2214 Clear 25 1007 22 0 0.45 0 18:25 31.05.2020
2215 Clear 25 1007 22 0 0.45 270 17:54 31.05.2020
2216 Clear 25 1007 23 0 0.45 180 17:36 31.05.2020
2217 Clear 26 1007 23 0 0.45 225 17:18 31.05.2020
2218 Clear 26 1011 30 0 2.23 90 16:40 31.05.2020
2219 Clouds 23 1031 33 10000 3.1 90 16:21 31.05.2020
2220 Clouds 25 1012 32 0 2.31 82 15:40 31.05.2020
2221 Clouds 24 1012 34 0 2.56 74 15:21 31.05.2020
2222 Clouds 25 1012 32 0 0.45 65 14:56 31.05.2020
2223 Clouds 23 1031 30 0 2.56 74 14:38 31.05.2020
2224 Clear 23 1031 28 0 2.74 65 14:18 31.05.2020
2225 Clear 24 1013 35 0 2.74 65 13:54 31.05.2020
2226 Clear 23 1013 36 0 2.74 65 13:36 31.05.2020
2227 Clear 24 1009 27 0 0.45 0 13:18 31.05.2020
2228 Clear 24 1009 28 0 0.45 270 12:41 31.05.2020
2229 Clear 19 1032 40 10000 3.6 30 12:22 31.05.2020
2230 Clear 20 1014 42 0 2.87 57 11:49 31.05.2020
2231 Clear 19 1014 42 0 2.88 57 11:25 31.05.2020
2232 Clear 20 1014 42 0 2.88 57 11:25 31.05.2020
2233 Clear 19 1014 42 0 0.45 34 10:59 31.05.2020
2234 Clear 19 1014 42 0 2.88 57 10:41 31.05.2020
2235 Clear 18 1014 42 0 0.45 36 10:23 31.05.2020
2236 Clear 20 1010 35 0 0.45 90 10:23 31.05.2020
2237 Clear 21 1010 36 0 0.45 90 09:56 31.05.2020
2238 Clear 20 1011 36 0 0.89 94 09:38 31.05.2020
2239 Clear 20 1010 40 0 2.57 51 09:38 31.05.2020
2240 Clear 17 1010 39 0 0.45 50 09:19 31.05.2020
2241 Clear 17 1010 43 0 0.45 270 08:41 31.05.2020
2242 Clear 16 1010 43 0 0.89 181 08:23 31.05.2020
2243 Clear 16 1011 41 0 0.45 135 07:48 31.05.2020
2244 Clear 14 1015 7 0 1.17 24 07:21 31.05.2020
2245 Clear 14 1015 1 0 1.17 24 06:55 31.05.2020
2246 Clear 13 1010 54 0 1.17 24 06:34 31.05.2020
2247 Clear 10 1015 1 0 1.3 23 05:48 31.05.2020
2248 Clear 9 1031 67 0 1.48 23 05:30 31.05.2020
2249 Clear 10 1030 64 0 1.5 24 03:57 31.05.2020
2250 Clear 10 1031 59 0 1.4 34 02:59 31.05.2020
2251 Clear 11 1031 56 0 1.32 40 02:33 31.05.2020
2252 Clear 12 1031 52 0 1.32 40 01:39 31.05.2020
2253 Clear 13 1013 21 0 1.44 27 00:37 31.05.2020
2254 Clear 14 1030 48 0 1.25 25 00:19 31.05.2020
2255 Clear 15 1013 39 0 1.25 25 23:41 30.05.2020
2256 Clear 16 1029 44 0 1.3 59 23:23 30.05.2020
2257 Clear 17 1030 37 10000 3.1 100 22:42 30.05.2020
2258 Clear 18 1008 40 0 0.45 112 22:23 30.05.2020
2259 Clear 19 1007 37 0 1.34 91 21:58 30.05.2020
2260 Clear 19 1026 28 0 1.5 82 21:40 30.05.2020
2261 Clear 21 1006 31 0 0.89 91 21:22 30.05.2020
2262 Clear 21 1006 31 0 0.45 225 20:57 30.05.2020
2263 Clear 21 1006 30 0 0.45 225 20:39 30.05.2020
2264 Clear 22 1006 30 0 0.45 45 20:21 30.05.2020
2265 Clear 22 1006 31 0 0.89 225 19:44 30.05.2020
2266 Clear 23 1006 28 0 0.45 0 19:22 30.05.2020
2267 Clear 23 1006 28 0 0.45 183 18:59 30.05.2020
2268 Clear 23 1006 28 0 0.45 225 18:40 30.05.2020
2269 Clear 23 1006 30 0 0.45 225 18:18 30.05.2020
2270 Clear 24 1007 30 0 0.89 180 17:40 30.05.2020
2271 Clear 24 1007 28 0 0.45 180 17:22 30.05.2020
2272 Clear 23 1011 37 0 0.45 322 16:55 30.05.2020
2273 Clear 24 1011 38 0 2.99 65 16:37 30.05.2020
2274 Clear 22 1030 32 0 2.86 61 16:18 30.05.2020
2275 Clear 21 1031 40 10000 2.6 0 15:42 30.05.2020
2276 Clear 21 1031 40 10000 2.6 0 15:42 30.05.2020
2277 Clear 21 1031 40 10000 2.6 0 15:23 30.05.2020
2278 Clear 23 1008 29 0 0.89 180 14:43 30.05.2020
2279 Clear 22 1012 39 0 3.35 54 14:24 30.05.2020
2280 Clear 23 1008 30 0 0.89 180 13:43 30.05.2020
2281 Clear 23 1008 28 0 0.89 180 13:23 30.05.2020
2282 Rain 22 1009 30 0 0.45 180 12:42 30.05.2020
2283 Clear 20 1013 40 0 2.8 52 12:20 30.05.2020
2284 Clear 19 1014 43 0 2.8 52 11:57 30.05.2020
2285 Clear 19 1014 41 0 0.89 71 11:39 30.05.2020
2286 Clear 19 1014 44 0 2.48 51 11:21 30.05.2020
2287 Clear 19 1010 36 0 0.45 180 10:41 30.05.2020
2288 Clouds 19 1010 39 0 0.45 180 10:21 30.05.2020
2289 Clouds 19 1010 39 0 0.45 180 09:49 30.05.2020
2290 Clouds 16 1014 43 0 1.88 67 09:31 30.05.2020
2291 Clouds 16 1010 46 0 0.89 180 08:51 30.05.2020
2292 Clouds 16 1010 48 0 0.45 180 08:33 30.05.2020
2293 Clouds 15 1010 48 0 0.45 180 07:49 30.05.2020
2294 Clouds 15 1010 43 0 0.45 180 07:26 30.05.2020
2295 Clouds 14 1031 39 0 1.49 25 06:58 30.05.2020
2296 Clouds 12 1032 71 10000 2.1 20 06:25 30.05.2020
2297 Clouds 12 1032 66 10000 3.1 360 05:49 30.05.2020
2298 Clouds 12 1031 62 10000 1.5 310 04:21 30.05.2020
2299 Clouds 12 1029 50 0 1.88 18 02:33 30.05.2020
2300 Clouds 12 1029 50 0 1.8 23 01:51 30.05.2020
2301 Clouds 13 1027 49 0 1.52 359 00:42 30.05.2020
2302 Clear 13 1011 38 0 1.05 319 00:21 30.05.2020
2303 Clear 12 1011 36 0 1.05 319 23:58 29.05.2020
2304 Clear 13 1011 39 0 1.05 319 23:38 29.05.2020
2305 Clear 14 1027 43 0 0.48 298 23:19 29.05.2020
2306 Clear 15 1028 33 10000 1 0 22:42 29.05.2020
2307 Clear 16 1010 50 0 0.53 184 22:21 29.05.2020
2308 Clear 16 1026 35 0 0.53 184 21:59 29.05.2020
2309 Rain 18 1006 34 0 1.16 189 21:39 29.05.2020
2310 Rain 18 1006 33 0 1.16 189 21:20 29.05.2020
2311 Rain 19 1005 32 0 0.45 180 20:55 29.05.2020
2312 Rain 19 1005 32 0 0.45 180 20:37 29.05.2020
2313 Rain 20 1005 30 0 0.89 180 20:18 29.05.2020
2314 Clear 21 1005 24 0 0.45 180 19:42 29.05.2020
2315 Clear 21 1005 24 0 0.45 180 19:23 29.05.2020
2316 Clear 21 1005 22 0 0.45 180 18:47 29.05.2020
2317 Clear 22 1005 22 0 0.45 180 18:21 29.05.2020
2318 Clear 22 1005 21 0 0.45 180 17:57 29.05.2020
2319 Clear 22 1005 20 0 0.45 180 17:38 29.05.2020
2320 Clear 22 1005 20 0 0.45 180 17:38 29.05.2020
2321 Clear 23 1006 21 0 0.45 180 17:20 29.05.2020
2322 Rain 23 1006 22 0 0.45 180 16:45 29.05.2020
2323 Rain 23 1006 21 0 0.45 180 16:27 29.05.2020
2324 Clear 23 1006 21 0 0.45 180 15:57 29.05.2020
2325 Clear 22 1006 26 0 1.86 210 15:39 29.05.2020
2326 Clear 22 1006 24 0 0.45 180 15:20 29.05.2020
2327 Clear 22 1006 21 0 0.89 180 14:51 29.05.2020
2328 Clear 22 1007 23 0 0.89 180 14:25 29.05.2020
2329 Clear 22 1007 25 0 0.45 180 13:59 29.05.2020
2330 Clear 21 1007 28 0 0.89 180 13:41 29.05.2020
2331 Clear 21 1007 30 0 0.45 180 13:21 29.05.2020
2332 Clear 21 1007 30 0 0.45 180 12:45 29.05.2020
2333 Clear 20 1007 28 0 0.45 180 12:26 29.05.2020
2334 Clear 19 1008 30 0 0.89 180 11:58 29.05.2020
2335 Clear 20 1008 31 0 0.45 180 11:40 29.05.2020
2336 Clear 19 1008 32 0 1.37 200 11:22 29.05.2020
2337 Rain 19 1008 32 0 1.37 200 10:42 29.05.2020
2338 Rain 18 1008 35 0 0.63 183 10:21 29.05.2020
2339 Rain 17 1008 40 0 0.63 183 09:56 29.05.2020
2340 Clear 17 1008 41 0 0.45 180 09:37 29.05.2020
2341 Clear 13 1013 43 0 0.42 125 09:18 29.05.2020
2342 Clear 12 1008 43 0 0.45 180 08:44 29.05.2020
2343 Clouds 13 1008 43 0 0.45 180 08:22 29.05.2020
2344 Clouds 13 1008 38 0 0.46 71 07:46 29.05.2020
2345 Clouds 12 1030 55 0 0.46 28 07:28 29.05.2020
2346 Clouds 11 1008 43 0 0.45 180 06:52 29.05.2020
2347 Clouds 8 1030 65 0 0.53 359 06:30 29.05.2020
2348 Clouds 8 1008 55 0 0.53 359 05:58 29.05.2020
2349 Clouds 8 1008 54 0 0.34 354 04:53 29.05.2020
2350 Clear 8 1029 53 0 0.49 163 01:48 29.05.2020
2351 Clear 8 1029 51 0 0.72 139 01:25 29.05.2020
2352 Clear 8 1012 33 0 0.72 139 00:50 29.05.2020
2353 Clear 9 1028 48 0 0.52 169 00:23 29.05.2020
2354 Clear 10 1012 46 0 0.52 169 23:41 28.05.2020
2355 Clear 10 1011 48 0 0.78 207 23:20 28.05.2020
2356 Clear 11 1027 39 0 0.78 207 22:59 28.05.2020
2357 Clear 12 1027 37 0 0.78 207 22:40 28.05.2020
2358 Clear 14 1007 35 0 1.3 214 22:20 28.05.2020
2359 Clear 14 1007 34 0 1.3 214 21:55 28.05.2020
2360 Clouds 15 1007 32 0 0.45 180 21:36 28.05.2020
2361 Clouds 15 1007 32 0 0.89 180 21:18 28.05.2020
2362 Clouds 16 1007 30 0 0.45 180 20:41 28.05.2020
2363 Clouds 17 1006 28 0 0.45 180 20:20 28.05.2020
2364 Clouds 18 1006 30 0 0.45 180 19:59 28.05.2020
2365 Clouds 18 1006 27 0 0.45 180 19:41 28.05.2020
2366 Clouds 18 1006 27 0 1.81 187 19:20 28.05.2020
2367 Clouds 19 1006 26 0 0.89 180 18:57 28.05.2020
2368 Clouds 19 1007 26 0 0.45 180 18:38 28.05.2020
2369 Clouds 19 1007 26 0 0.45 180 18:20 28.05.2020
2370 Clouds 19 1007 24 0 0.45 180 17:40 28.05.2020
2371 Clouds 20 1007 27 0 0.45 180 17:21 28.05.2020
2372 Clouds 20 1007 25 0 1.69 213 16:47 28.05.2020
2373 Clouds 20 1007 27 0 0.45 180 16:21 28.05.2020
2374 Clouds 19 1007 26 0 0.89 180 15:59 28.05.2020
2375 Clouds 19 1007 26 0 0.45 180 15:40 28.05.2020
2376 Clouds 19 1007 26 0 0.45 180 15:22 28.05.2020
2377 Clouds 19 1007 25 0 0.45 180 14:42 28.05.2020
2378 Clouds 19 1008 28 0 0.45 180 14:23 28.05.2020
2379 Rain 18 1008 30 0 0.89 180 13:47 28.05.2020
2380 Rain 18 1008 27 0 0.45 180 13:29 28.05.2020
2381 Clouds 17 1008 32 0 0.45 180 12:57 28.05.2020
2382 Clouds 17 1008 31 0 0.45 180 12:38 28.05.2020
2383 Clouds 17 1008 34 0 0.45 180 12:18 28.05.2020
2384 Clouds 17 1008 32 0 0.45 180 11:41 28.05.2020
2385 Clouds 16 1008 33 0 0.45 180 11:23 28.05.2020
2386 Clouds 16 1009 30 0 0.45 180 10:56 28.05.2020
2387 Clouds 16 1009 31 0 0.45 180 10:37 28.05.2020
2388 Clouds 16 1008 37 0 1.58 114 10:18 28.05.2020
2389 Clouds 15 1009 38 0 0.45 180 09:39 28.05.2020
2390 Clouds 10 1031 57 10000 2.6 10 09:19 28.05.2020
2391 Clouds 11 1014 40 0 1.67 94 08:45 28.05.2020
2392 Clouds 12 1014 39 0 1.36 77 08:26 28.05.2020
2393 Clouds 12 1009 45 0 1.36 77 07:45 28.05.2020
2394 Clouds 10 1013 37 0 1.3 36 07:25 28.05.2020
2395 Clouds 11 1008 44 0 1.3 36 06:55 28.05.2020
2396 Clouds 10 1008 50 0 1.3 36 06:36 28.05.2020
2397 Clouds 7 1013 13 0 1.21 12 05:40 28.05.2020
2398 Clouds 7 1013 26 0 1.52 7 04:46 28.05.2020
2399 Clouds 8 1029 47 0 1.87 352 04:25 28.05.2020
2400 Clouds 8 1012 30 0 1.87 352 03:45 28.05.2020
2401 Clouds 9 1007 47 0 2.02 354 02:45 28.05.2020
2402 Clouds 9 1007 44 0 2.34 344 01:49 28.05.2020
2403 Clouds 9 1012 47 0 2.18 334 00:54 28.05.2020
2404 Clouds 11 1007 41 0 2.21 317 00:23 28.05.2020
2405 Clouds 11 1007 41 0 2.21 317 23:57 27.05.2020
2406 Clouds 11 1011 50 0 2.21 317 23:38 27.05.2020
2407 Clear 12 1006 41 0 2.36 317 23:20 27.05.2020
2408 Clear 11 1011 49 0 2.36 317 22:54 27.05.2020
2409 Clear 12 1011 51 0 2.36 317 22:36 27.05.2020
2410 Clear 13 1006 34 0 2.65 319 22:18 27.05.2020
2411 Clear 14 1006 32 0 2.65 319 21:40 27.05.2020
2412 Clear 14 1005 31 0 0.45 180 21:21 27.05.2020
2413 Clear 15 1005 30 0 0.89 180 20:58 27.05.2020
2414 Clear 16 1005 30 0 0.45 180 20:40 27.05.2020
2415 Clouds 16 1005 26 0 1.34 180 20:20 27.05.2020
2416 Clouds 17 1005 24 0 0.45 180 19:47 27.05.2020
2417 Clouds 17 1005 24 0 0.45 180 19:47 27.05.2020
2418 Clouds 17 1005 22 0 0.89 180 19:21 27.05.2020
2419 Clouds 18 1005 22 0 0.89 180 18:58 27.05.2020
2420 Clouds 18 1005 23 0 0.45 180 18:39 27.05.2020
2421 Clouds 18 1004 24 0 0.45 180 18:19 27.05.2020
2422 Clouds 19 1004 22 0 0.45 180 17:43 27.05.2020
2423 Clouds 19 1004 23 0 0.89 180 17:25 27.05.2020
2424 Clouds 19 1005 23 0 0.45 180 16:57 27.05.2020
2425 Clouds 19 1005 23 0 0.45 180 16:57 27.05.2020
2426 Clouds 19 1004 22 0 0.45 180 16:38 27.05.2020
2427 Clouds 19 1004 24 0 0.45 180 16:20 27.05.2020
2428 Clouds 18 1005 23 0 0.45 180 15:55 27.05.2020
2429 Clouds 18 1005 24 0 0.45 180 15:37 27.05.2020
2430 Clear 18 1005 24 0 0.45 180 15:18 27.05.2020
2431 Clear 18 1005 24 0 0.45 180 14:42 27.05.2020
2432 Clouds 18 1005 25 0 0.45 180 14:20 27.05.2020
2433 Clouds 18 1005 24 0 0.45 180 13:44 27.05.2020
2434 Clouds 17 1005 24 0 0.45 180 13:25 27.05.2020
2435 Clouds 18 1005 30 0 0.45 180 12:56 27.05.2020
2436 Clouds 19 1005 30 0 0.89 180 12:37 27.05.2020
2437 Clouds 16 1010 43 0 0.45 17 12:18 27.05.2020
2438 Clouds 15 1010 42 0 1.34 101 11:39 27.05.2020
2439 Clouds 16 1005 36 0 0.45 180 11:21 27.05.2020
2440 Clouds 15 1005 38 0 0.45 180 10:56 27.05.2020
2441 Clouds 15 1005 38 0 0.89 180 10:38 27.05.2020
2442 Clouds 15 1005 40 0 0.89 180 10:19 27.05.2020
2443 Clouds 15 1005 42 0 0.45 180 09:40 27.05.2020
2444 Clouds 13 1010 40 0 2.86 317 09:21 27.05.2020
2445 Clouds 13 1005 48 0 0.45 180 08:55 27.05.2020
2446 Clouds 12 1005 51 0 0.45 180 08:36 27.05.2020
2447 Clouds 11 1005 55 0 0.45 180 08:18 27.05.2020
2448 Clouds 12 1005 56 0 0.45 180 07:41 27.05.2020
2449 Clouds 12 1005 54 0 1.61 302 07:23 27.05.2020
2450 Clouds 10 1005 64 0 1.61 302 06:45 27.05.2020
2451 Clouds 9 1010 1 0 1.35 299 06:20 27.05.2020
2452 Clouds 8 1005 73 0 1.35 299 05:48 27.05.2020
2453 Clouds 8 1005 76 0 1 297 04:24 27.05.2020
2454 Clouds 8 1006 81 0 1.1 285 02:32 27.05.2020
2455 Clouds 9 1006 81 0 1.1 285 01:53 27.05.2020
2456 Clouds 9 1006 81 0 0.9 271 01:25 27.05.2020
2457 Clouds 10 1006 81 0 0.9 271 00:46 27.05.2020
2458 Clouds 10 1006 81 0 0.89 219 00:20 27.05.2020
2459 Clouds 11 1006 80 0 0.45 314 23:54 26.05.2020
2460 Clouds 11 1006 79 0 0.89 219 23:36 26.05.2020
2461 Clouds 11 1006 79 0 1.23 211 23:18 26.05.2020
2462 Clear 12 1006 73 0 1.43 232 22:40 26.05.2020
2463 Clear 12 1006 73 0 1.43 232 22:21 26.05.2020
2464 Clear 12 1006 72 0 0.45 270 21:58 26.05.2020
2465 Clear 13 1006 71 0 0.45 270 21:40 26.05.2020
2466 Clear 14 1006 70 0 0.45 225 21:21 26.05.2020
2467 Clear 14 1006 69 0 0.45 270 20:43 26.05.2020
2468 Clouds 14 1006 69 0 0.45 314 20:22 26.05.2020
2469 Clouds 14 1006 66 0 0.45 182 19:58 26.05.2020
2470 Clouds 15 1006 65 0 0.89 136 19:38 26.05.2020
2471 Clouds 15 1006 64 0 0.45 265 19:19 26.05.2020
2472 Clouds 15 1006 60 0 0.89 135 18:43 26.05.2020
2473 Clouds 15 1007 59 0 0.89 225 18:24 26.05.2020
2474 Clouds 16 1007 50 0 0.45 225 17:59 26.05.2020
2475 Clouds 16 1007 48 0 0.89 133 17:38 26.05.2020
2476 Clouds 17 1007 44 0 0.89 137 17:20 26.05.2020
2477 Clouds 17 1007 41 0 0.89 223 16:45 26.05.2020
2478 Clouds 17 1007 42 0 0.89 138 16:20 26.05.2020
2479 Clouds 17 1007 45 0 2.24 228 15:55 26.05.2020
2480 Clouds 18 1007 46 0 2.24 311 15:37 26.05.2020
2481 Clouds 18 1007 41 0 1.79 286 15:19 26.05.2020
2482 Clouds 17 1008 38 0 0.89 2 14:43 26.05.2020
2483 Clouds 18 1008 37 0 1.79 92 14:23 26.05.2020
2484 Clouds 18 1008 33 0 2.24 223 13:56 26.05.2020
2485 Clouds 18 1008 32 0 2.68 227 13:37 26.05.2020
2486 Clouds 18 1008 36 0 1.34 183 13:18 26.05.2020
2487 Clouds 18 1009 41 0 1.34 136 12:42 26.05.2020
2488 Clouds 18 1008 42 0 0.89 233 12:22 26.05.2020
2489 Clouds 17 1009 50 0 1.34 355 11:58 26.05.2020
2490 Clouds 17 1009 50 0 1.34 355 11:58 26.05.2020
2491 Clouds 17 1009 50 0 0.89 135 11:40 26.05.2020
2492 Clouds 16 1009 50 0 1.34 94 11:18 26.05.2020
2493 Clouds 15 1009 54 0 1.79 215 10:43 26.05.2020
2494 Clouds 15 1009 60 0 0.45 68 10:19 26.05.2020
2495 Clouds 15 1009 62 0 1.79 183 09:41 26.05.2020
2496 Clouds 14 1009 66 0 0.89 177 09:20 26.05.2020
2497 Clouds 12 1009 73 0 0.45 220 08:44 26.05.2020
2498 Clouds 12 1009 73 0 0.89 314 08:23 26.05.2020
2499 Clouds 12 1009 74 0 0.45 135 07:58 26.05.2020
2500 Clouds 12 1009 74 0 0.45 270 07:39 26.05.2020
2501 Clouds 11 1009 73 0 0.45 135 07:21 26.05.2020
2502 Clouds 10 1008 73 0 0.45 135 06:46 26.05.2020
2503 Clouds 10 1009 71 0 2.14 176 06:23 26.05.2020
2504 Clouds 10 1009 72 0 0.45 180 05:35 26.05.2020
2505 Clouds 10 1008 71 0 0.45 226 04:56 26.05.2020
2506 Clouds 10 1008 71 0 1.62 168 04:37 26.05.2020
2507 Clouds 10 1008 71 0 1.48 165 04:18 26.05.2020
2508 Clouds 9 1030 83 0 1.46 152 02:52 26.05.2020
2509 Clouds 10 1008 71 0 0.45 181 02:21 26.05.2020
2510 Clouds 10 1008 70 0 0.45 227 01:40 26.05.2020
2511 Clouds 12 1029 74 0 1.02 167 00:39 26.05.2020
2512 Clouds 12 1008 61 0 0.45 135 00:20 26.05.2020
2513 Clouds 12 1008 60 0 0.45 68 23:58 25.05.2020
2514 Clouds 13 1008 60 0 0.45 95 23:38 25.05.2020
2515 Clouds 13 1012 1 0 1.06 163 23:19 25.05.2020
2516 Clouds 14 1029 59 0 1.06 163 22:55 25.05.2020
2517 Clouds 14 1029 55 0 1.06 163 22:37 25.05.2020
2518 Clouds 14 1029 55 0 1.06 163 22:37 25.05.2020
2519 Clouds 15 1007 51 0 0.45 249 22:19 25.05.2020
2520 Clouds 16 1007 50 0 0.45 137 21:58 25.05.2020
2521 Clouds 16 1007 48 0 0.45 201 21:37 25.05.2020
2522 Clouds 17 1007 44 0 0.45 223 21:18 25.05.2020
2523 Clouds 17 1007 43 0 0.89 172 20:57 25.05.2020
2524 Clouds 18 1007 40 0 0.45 223 20:38 25.05.2020
2525 Clouds 18 1006 39 0 0.45 205 20:19 25.05.2020
2526 Clouds 19 1007 37 0 0.63 163 19:41 25.05.2020
2527 Clouds 19 1007 39 0 0.12 216 19:20 25.05.2020
2528 Clouds 20 1006 39 0 0.45 225 18:58 25.05.2020
2529 Clouds 21 1006 40 0 0.12 216 18:40 25.05.2020
2530 Clouds 21 1006 40 0 0.45 267 18:21 25.05.2020
2531 Clouds 21 1006 39 0 0.89 133 17:44 25.05.2020
2532 Rain 22 1006 40 0 0.45 225 17:25 25.05.2020
2533 Clouds 21 1010 43 0 1.31 323 16:58 25.05.2020
2534 Rain 21 1006 38 0 0.45 181 16:40 25.05.2020
2535 Clouds 21 1006 37 0 0.89 225 16:21 25.05.2020
2536 Clouds 20 1010 41 0 1.39 334 15:45 25.05.2020
2537 Clouds 20 1010 42 0 1.39 334 15:45 25.05.2020
2538 Clouds 21 1006 42 0 1.24 358 15:21 25.05.2020
2539 Clouds 19 1006 44 0 0.45 207 14:59 25.05.2020
2540 Clouds 19 1005 44 0 0.45 225 14:41 25.05.2020
2541 Clouds 20 1005 44 0 0.89 142 14:23 25.05.2020
2542 Clouds 18 1005 49 0 1.58 32 13:56 25.05.2020
2543 Clouds 19 1005 48 0 0.45 270 13:37 25.05.2020
2544 Clear 20 1005 45 0 0.45 90 13:19 25.05.2020
2545 Rain 20 1005 43 0 0.45 225 12:39 25.05.2020
2546 Clear 16 1009 38 0 0.89 130 12:21 25.05.2020
2547 Clear 16 1009 30 0 0.45 101 11:57 25.05.2020
2548 Clear 15 1009 24 0 0.45 98 11:37 25.05.2020
2549 Clear 15 1009 24 0 0.45 98 11:18 25.05.2020
2550 Clear 14 1009 2 0 0.45 322 10:41 25.05.2020
2551 Clear 16 1004 56 0 0.45 90 10:21 25.05.2020
2552 Clear 17 1004 55 0 0.45 90 10:21 25.05.2020
2553 Clear 15 1004 66 0 0.45 226 09:56 25.05.2020
2554 Clear 15 1004 67 0 0.45 229 09:38 25.05.2020
2555 Clear 13 1003 68 0 2.55 344 09:19 25.05.2020
2556 Clear 12 1003 70 0 0.45 273 08:44 25.05.2020
2557 Clouds 12 1003 70 0 2.44 341 08:24 25.05.2020
2558 Clouds 11 1002 74 0 0.45 225 07:59 25.05.2020
2559 Clouds 11 1001 74 0 0.45 267 07:39 25.05.2020
2560 Clouds 11 1001 75 0 2.34 339 07:19 25.05.2020
2561 Clouds 11 1001 77 0 0.45 270 06:45 25.05.2020
2562 Clouds 10 1005 1 0 2.19 334 06:27 25.05.2020
2563 Clouds 10 997 80 0 0.45 270 03:40 25.05.2020
2564 Clouds 10 997 80 0 0.45 270 03:22 25.05.2020
2565 Clouds 10 996 81 0 0.45 270 02:44 25.05.2020
2566 Clouds 10 995 87 0 2.87 349 01:42 25.05.2020
2567 Clouds 10 995 85 0 3.01 350 00:58 25.05.2020
2568 Clouds 10 994 84 0 2.76 345 00:32 25.05.2020
2569 Clouds 11 994 83 0 2.76 345 23:59 24.05.2020
2570 Clouds 11 993 82 0 2.76 345 23:39 24.05.2020
2571 Clouds 11 993 81 0 2.46 342 23:21 24.05.2020
2572 Clouds 11 992 81 0 0.45 267 22:58 24.05.2020
2573 Clouds 11 992 80 0 2.46 342 22:39 24.05.2020
2574 Rain 12 992 79 0 1.8 345 22:18 24.05.2020
2575 Rain 12 992 78 0 1.8 345 21:55 24.05.2020
2576 Clouds 12 991 76 0 0.29 253 21:37 24.05.2020
2577 Clouds 12 991 75 0 0.47 203 21:18 24.05.2020
2578 Clouds 13 990 68 0 0.47 203 20:43 24.05.2020
2579 Clouds 13 990 68 0 1.02 170 20:21 24.05.2020
2580 Clouds 13 989 65 0 1.02 170 19:58 24.05.2020
2581 Rain 13 989 66 0 1.91 174 19:40 24.05.2020
2582 Rain 13 989 66 0 0.45 225 19:19 24.05.2020
2583 Rain 13 988 66 0 1.91 174 18:43 24.05.2020
2584 Rain 12 988 65 0 0.45 227 18:24 24.05.2020
2585 Rain 13 987 61 0 0.45 180 17:59 24.05.2020
2586 Rain 13 987 61 0 0.45 312 17:40 24.05.2020
2587 Rain 13 987 62 0 0.45 247 17:21 24.05.2020
2588 Rain 14 987 61 0 0.45 315 16:56 24.05.2020
2589 Rain 14 986 60 0 1.34 139 16:38 24.05.2020
2590 Rain 14 986 60 0 1.34 270 16:19 24.05.2020
2591 Rain 14 986 61 0 0.89 224 15:56 24.05.2020
2592 Rain 14 986 61 0 0.89 90 15:38 24.05.2020
2593 Rain 14 985 61 0 0.89 43 15:18 24.05.2020
2594 Rain 13 985 71 0 1.34 90 14:45 24.05.2020
2595 Rain 14 985 68 0 0.89 134 14:24 24.05.2020
2596 Rain 13 985 74 0 0.89 90 13:58 24.05.2020
2597 Rain 13 985 68 0 0.89 135 13:39 24.05.2020
2598 Rain 14 985 62 0 1.34 180 13:21 24.05.2020
2599 Rain 14 985 61 0 0.89 180 12:59 24.05.2020
2600 Rain 14 985 61 0 0.89 113 12:40 24.05.2020
2601 Rain 14 985 60 0 0.89 135 12:22 24.05.2020
2602 Rain 14 985 61 0 1.34 43 11:59 24.05.2020
2603 Rain 13 985 64 0 1.34 180 11:41 24.05.2020
2604 Rain 13 985 67 0 0.89 228 11:22 24.05.2020
2605 Rain 13 985 72 0 0.45 179 10:56 24.05.2020
2606 Rain 13 984 75 0 0.89 222 10:37 24.05.2020
2607 Rain 13 984 78 0 0.89 183 10:19 24.05.2020
2608 Rain 12 984 82 0 1.34 225 09:41 24.05.2020
2609 Rain 10 984 87 0 0.89 180 09:18 24.05.2020
2610 Rain 10 984 91 0 0.45 267 08:56 24.05.2020
2611 Rain 10 984 93 0 0.89 136 08:38 24.05.2020
2612 Rain 10 984 94 0 0.89 135 08:19 24.05.2020
2613 Clouds 10 984 94 0 0.45 272 07:44 24.05.2020
2614 Clouds 10 984 94 0 1.34 181 07:25 24.05.2020
2615 Clouds 9 984 93 0 1.34 271 06:49 24.05.2020
2616 Rain 9 983 93 0 2.24 313 06:29 24.05.2020
2617 Rain 9 984 93 0 1.34 156 04:54 24.05.2020
2618 Clouds 8 985 91 0 0.89 272 03:41 24.05.2020
2619 Clouds 8 985 91 0 0.89 184 02:46 24.05.2020
2620 Rain 8 985 88 0 0.45 131 01:47 24.05.2020
2621 Rain 9 986 81 0 1.34 181 00:41 24.05.2020
2622 Rain 9 986 84 0 0.89 90 00:22 24.05.2020
2623 Rain 9 986 88 0 1.34 246 23:44 23.05.2020
2624 Rain 9 986 89 0 1.79 180 23:25 23.05.2020
2625 Rain 9 986 88 0 0.89 181 22:59 23.05.2020
2626 Rain 9 986 86 0 0.89 188 22:39 23.05.2020
2627 Rain 9 986 84 0 1.34 183 22:20 23.05.2020
2628 Rain 9 986 83 0 0.89 90 21:58 23.05.2020
2629 Rain 9 986 79 0 1.34 132 21:40 23.05.2020
2630 Rain 10 986 72 0 0.89 314 21:20 23.05.2020
2631 Rain 10 986 71 0 0.45 136 20:59 23.05.2020
2632 Rain 10 986 74 0 0.89 181 20:38 23.05.2020
2633 Rain 10 986 73 0 0.89 270 20:19 23.05.2020
2634 Rain 11 986 71 0 1.34 182 19:54 23.05.2020
2635 Rain 11 986 71 0 1.34 182 19:36 23.05.2020
2636 Rain 11 986 71 0 1.34 182 19:36 23.05.2020
2637 Rain 11 986 71 0 0.45 136 19:18 23.05.2020
2638 Rain 11 986 73 0 0.45 225 18:40 23.05.2020
2639 Rain 10 986 71 0 0.45 315 18:22 23.05.2020
2640 Rain 11 987 70 0 0.89 268 17:57 23.05.2020
2641 Rain 12 986 70 0 0.45 178 17:39 23.05.2020
2642 Rain 12 987 70 0 0.45 138 17:19 23.05.2020
2643 Rain 12 987 69 0 0.45 226 16:57 23.05.2020
2644 Rain 11 987 72 0 5.4 207 16:39 23.05.2020
2645 Rain 10 987 71 0 5.4 207 16:20 23.05.2020
2646 Rain 13 986 63 0 0.89 225 15:43 23.05.2020
2647 Rain 13 986 65 0 1.34 137 15:24 23.05.2020
2648 Rain 13 987 72 0 1.34 182 14:58 23.05.2020
2649 Rain 12 986 71 0 1.34 117 14:40 23.05.2020
2650 Rain 12 987 77 0 0.89 163 14:22 23.05.2020
2651 Rain 12 987 73 0 1.79 312 13:41 23.05.2020
2652 Rain 12 987 80 0 1.34 267 13:19 23.05.2020
2653 Rain 12 987 80 0 1.34 179 13:19 23.05.2020
2654 Rain 12 987 80 0 1.34 267 13:19 23.05.2020
2655 Rain 13 987 84 0 1.34 291 12:57 23.05.2020
2656 Rain 13 987 84 0 1.34 291 12:57 23.05.2020
2657 Rain 12 987 86 0 0.89 224 12:39 23.05.2020
2658 Rain 12 987 85 0 1.34 136 12:19 23.05.2020
2659 Rain 12 988 88 0 1.34 180 11:43 23.05.2020
2660 Rain 12 988 90 0 1.34 270 11:22 23.05.2020
2661 Rain 12 988 93 0 0.45 93 10:57 23.05.2020
2662 Rain 11 988 92 0 0.45 218 10:39 23.05.2020
2663 Rain 11 988 92 0 0.89 100 10:20 23.05.2020
2664 Rain 11 988 91 0 1.34 225 09:59 23.05.2020
2665 Rain 11 988 90 0 0.89 269 09:41 23.05.2020
2666 Rain 11 988 87 0 1.34 269 09:22 23.05.2020
2667 Rain 11 988 88 0 1.79 134 08:44 23.05.2020
2668 Rain 11 988 91 0 2.24 180 08:20 23.05.2020
2669 Rain 10 988 92 0 1.79 244 07:59 23.05.2020
2670 Rain 10 988 92 0 0.89 225 07:39 23.05.2020
2671 Rain 10 988 93 0 0.89 138 07:21 23.05.2020
2672 Rain 10 989 95 0 0.89 47 06:40 23.05.2020
2673 Clouds 9 989 95 0 0.89 225 05:46 23.05.2020
2674 Clouds 9 989 96 0 0.45 135 03:48 23.05.2020
2675 Clouds 9 989 95 0 1.34 225 03:21 23.05.2020
2676 Rain 9 989 92 0 1.79 317 01:59 23.05.2020
2677 Rain 9 989 92 0 1.79 317 01:59 23.05.2020
2678 Rain 9 989 91 0 2.68 268 01:27 23.05.2020
2679 Rain 9 989 90 0 3.13 180 00:47 23.05.2020
2680 Rain 9 989 90 0 3.13 180 00:47 23.05.2020
2681 Rain 9 989 90 0 2.68 200 00:29 23.05.2020
2682 Rain 9 990 88 0 1.34 68 23:58 22.05.2020
2683 Rain 9 990 86 0 0.45 183 23:39 22.05.2020
2684 Rain 9 990 84 0 1.34 21 23:19 22.05.2020
2685 Rain 9 989 77 0 2.24 224 22:55 22.05.2020
2686 Rain 9 989 77 0 2.24 224 22:55 22.05.2020
2687 Rain 10 990 70 0 1.34 135 22:37 22.05.2020
2688 Rain 11 990 50 0 3.13 137 22:18 22.05.2020
2689 Rain 14 990 42 0 2.68 178 21:42 22.05.2020
2690 Rain 14 990 41 0 2.68 180 21:21 22.05.2020
2691 Rain 14 990 49 0 0.89 224 20:46 22.05.2020
2692 Clouds 14 991 61 0 1.34 270 20:21 22.05.2020
2693 Clouds 14 992 64 0 0.89 114 19:59 22.05.2020
2694 Clouds 13 992 64 0 0.45 115 19:41 22.05.2020
2695 Clouds 13 992 58 0 0.89 133 19:22 22.05.2020
2696 Rain 14 993 50 0 0.89 184 18:40 22.05.2020
2697 Rain 14 993 51 0 1.34 270 18:21 22.05.2020
2698 Rain 15 993 51 0 0.45 227 17:58 22.05.2020
2699 Rain 15 994 52 0 0.89 270 17:38 22.05.2020
2700 Clouds 16 994 48 0 0.89 167 17:18 22.05.2020
2701 Rain 16 994 44 0 1.34 90 16:44 22.05.2020
2702 Rain 17 995 47 0 1.34 137 16:20 22.05.2020
2703 Rain 16 995 47 0 0.89 266 15:59 22.05.2020
2704 Rain 16 995 44 0 0.45 135 15:41 22.05.2020
2705 Rain 16 995 43 0 2.68 0 15:20 22.05.2020
2706 Clouds 17 996 41 0 1.79 225 14:44 22.05.2020
2707 Clouds 17 996 41 0 2.24 265 14:24 22.05.2020
2708 Clouds 17 997 41 0 1.34 225 13:46 22.05.2020
2709 Clouds 16 997 40 0 2.68 225 13:21 22.05.2020
2710 Clouds 16 997 43 0 1.34 358 12:54 22.05.2020
2711 Clouds 16 998 42 0 2.68 270 12:36 22.05.2020
2712 Clouds 14 1002 48 0 2.24 175 12:18 22.05.2020
2713 Clouds 14 1002 48 0 1.34 113 11:43 22.05.2020
2714 Clouds 13 1021 60 0 2.95 159 11:20 22.05.2020
2715 Rain 14 998 45 0 1.34 135 10:55 22.05.2020
2716 Rain 14 998 44 0 0.89 135 10:37 22.05.2020
2717 Rain 14 998 44 0 0.89 135 10:37 22.05.2020
2718 Rain 13 998 47 0 0.45 45 10:18 22.05.2020
2719 Rain 13 998 50 0 0.45 112 09:42 22.05.2020
2720 Clouds 11 999 57 0 0.45 225 09:19 22.05.2020
2721 Rain 11 999 58 0 2.42 158 08:44 22.05.2020
2722 Rain 11 999 58 0 2.42 158 08:44 22.05.2020
2723 Rain 11 999 57 0 1.8 144 08:21 22.05.2020
2724 Rain 11 999 57 0 0.45 135 07:57 22.05.2020
2725 Rain 11 999 55 0 1.41 133 07:27 22.05.2020
2726 Rain 11 999 54 0 1.41 133 06:58 22.05.2020
2727 Rain 11 998 53 0 1.41 133 06:40 22.05.2020
2728 Rain 10 999 53 0 1.3 152 05:40 22.05.2020
2729 Clouds 10 999 56 0 0.45 117 04:51 22.05.2020
2730 Clouds 10 999 57 0 0.45 270 04:32 22.05.2020
2731 Clouds 10 999 61 0 0.89 225 03:48 22.05.2020
2732 Clouds 10 999 54 0 0.45 180 03:23 22.05.2020
2733 Clouds 10 999 62 0 0.45 180 01:57 22.05.2020
2734 Clouds 11 999 61 0 0.45 180 01:29 22.05.2020
2735 Clouds 11 1004 35 0 1.46 179 00:49 22.05.2020
2736 Clouds 11 999 52 0 0.45 180 00:28 22.05.2020
2737 Clouds 11 999 50 0 0.45 137 23:45 21.05.2020
2738 Clouds 11 1004 49 0 1.12 177 23:25 21.05.2020
2739 Clouds 11 1004 50 0 1.12 177 22:59 21.05.2020
2740 Clouds 11 1004 50 0 1.12 177 22:59 21.05.2020
2741 Clouds 11 1004 50 0 1.12 177 22:40 21.05.2020
2742 Clouds 12 1004 50 0 1.44 187 22:22 21.05.2020
2743 Clouds 12 1004 51 0 1.44 187 21:59 21.05.2020
2744 Clouds 12 1004 51 0 1.44 187 21:59 21.05.2020
2745 Clouds 13 1021 50 10000 4.1 220 21:41 21.05.2020
2746 Clouds 13 1021 50 10000 4.1 220 21:22 21.05.2020
2747 Clouds 15 1021 44 10000 4.1 210 20:46 21.05.2020
2748 Clouds 14 1021 44 10000 4.1 210 20:22 21.05.2020
2749 Clouds 15 1022 44 10000 4.6 220 19:55 21.05.2020
2750 Rain 15 999 42 0 0.89 269 19:36 21.05.2020
2751 Rain 15 999 42 0 0.45 159 19:18 21.05.2020
2752 Rain 16 1000 42 0 0.89 231 18:40 21.05.2020
2753 Rain 16 1000 42 0 0.89 231 18:40 21.05.2020
2754 Rain 16 1000 40 0 0.89 358 18:20 21.05.2020
2755 Rain 16 1000 40 0 1.34 271 17:58 21.05.2020
2756 Rain 16 1000 37 0 0.89 221 17:40 21.05.2020
2757 Rain 16 1000 38 0 0.89 45 17:22 21.05.2020
2758 Rain 17 1000 40 0 0.89 91 16:46 21.05.2020
2759 Rain 17 1000 37 0 0.45 225 16:24 21.05.2020
2760 Clouds 17 1000 32 0 0.89 225 15:47 21.05.2020
2761 Clouds 17 1005 46 0 2.68 209 15:24 21.05.2020
2762 Clouds 17 1000 31 0 0.89 231 14:57 21.05.2020
2763 Clouds 18 1000 34 0 2.24 135 14:38 21.05.2020
2764 Clouds 18 1001 33 0 0.89 156 14:18 21.05.2020
2765 Clouds 17 1000 31 0 2.24 226 13:41 21.05.2020
2766 Clouds 17 1001 30 0 0.89 135 13:22 21.05.2020
2767 Clouds 16 1001 31 0 1.34 268 12:57 21.05.2020
2768 Clouds 16 1001 33 0 0.89 201 12:37 21.05.2020
2769 Clouds 16 1001 35 0 0.89 225 12:18 21.05.2020
2770 Clouds 14 1001 34 0 0.89 139 11:41 21.05.2020
2771 Clouds 14 1001 32 0 0.89 270 11:23 21.05.2020
2772 Rain 14 1001 37 0 1.34 183 10:57 21.05.2020
2773 Rain 14 1001 41 0 0.89 136 10:39 21.05.2020
2774 Rain 13 1001 43 0 1.34 247 10:19 21.05.2020
2775 Clouds 12 1001 51 0 0.45 270 09:43 21.05.2020
2776 Clouds 12 1001 52 0 1.54 177 09:25 21.05.2020
2777 Clouds 11 1001 55 0 0.45 225 08:59 21.05.2020
2778 Clouds 11 1001 58 0 0.45 130 08:40 21.05.2020
2779 Clouds 10 1001 60 0 0.89 183 08:22 21.05.2020
2780 Clouds 9 1001 64 0 0.45 180 07:44 21.05.2020
2781 Clouds 9 1001 63 0 0.45 270 07:25 21.05.2020
2782 Clouds 8 1001 62 0 0.45 270 06:48 21.05.2020
2783 Clouds 5 1022 54 0 0.3 93 05:53 21.05.2020
2784 Clouds 5 1006 6 0 0.15 73 04:56 21.05.2020
2785 Clouds 5 1021 50 0 0.53 120 03:22 21.05.2020
2786 Clouds 6 1021 48 0 0.53 120 02:38 21.05.2020
2787 Clouds 6 1005 43 0 0.7 177 02:20 21.05.2020
2788 Clouds 5 1021 45 0 0.7 177 01:42 21.05.2020
2789 Clouds 6 1021 43 0 0.84 175 01:19 21.05.2020
2790 Clouds 6 1021 42 0 0.84 175 00:45 21.05.2020
2791 Clouds 6 1021 41 0 0.84 175 00:45 21.05.2020
2792 Clouds 7 1000 40 0 0.81 175 00:21 21.05.2020
2793 Clouds 7 1021 38 0 0.81 175 23:41 20.05.2020
2794 Clouds 9 1021 33 0 1.05 201 23:20 20.05.2020
2795 Clouds 9 1020 31 0 1.05 201 22:57 20.05.2020
2796 Clouds 10 1021 29 0 1.05 201 22:38 20.05.2020
2797 Clouds 10 1000 33 0 1.25 205 22:20 20.05.2020
2798 Clouds 11 1019 27 0 1.25 205 21:40 20.05.2020
2799 Clouds 12 999 30 0 0.45 248 21:21 20.05.2020
2800 Clouds 13 999 28 0 0.45 180 20:44 20.05.2020
2801 Clouds 14 999 26 0 0.45 270 20:24 20.05.2020
2802 Clouds 15 999 24 0 0.89 225 19:56 20.05.2020
2803 Clouds 15 999 24 0 0.89 268 19:37 20.05.2020
2804 Clouds 15 999 22 0 0.45 225 19:19 20.05.2020
2805 Clouds 16 999 22 0 0.89 226 18:43 20.05.2020
2806 Clouds 16 999 20 0 1.34 227 18:23 20.05.2020
2807 Clouds 17 999 20 0 0.45 225 17:42 20.05.2020
2808 Rain 17 999 20 0 0.45 270 17:22 20.05.2020
2809 Clouds 18 1004 27 0 2.39 198 16:57 20.05.2020
2810 Clouds 18 1004 28 0 2.39 198 16:39 20.05.2020
2811 Clouds 18 1000 20 0 0.45 225 16:20 20.05.2020
2812 Clouds 18 1000 20 0 1.34 203 15:44 20.05.2020
2813 Clouds 17 1000 20 0 0.45 248 15:25 20.05.2020
2814 Clouds 16 1000 22 0 0.45 268 14:45 20.05.2020
2815 Clouds 16 1000 22 0 0.45 268 14:45 20.05.2020
2816 Clear 17 1000 20 0 0.89 224 14:26 20.05.2020
2817 Clear 16 1000 20 0 0.45 135 13:59 20.05.2020
2818 Clear 16 1000 22 0 0.45 270 13:39 20.05.2020
2819 Clear 16 1000 22 0 0.89 272 13:18 20.05.2020
2820 Clear 16 1000 22 0 1.34 226 12:42 20.05.2020
2821 Clear 15 1000 22 0 0.45 187 12:21 20.05.2020
2822 Clear 15 1001 24 0 0.45 270 11:39 20.05.2020
2823 Clear 13 1005 39 0 1.02 84 11:20 20.05.2020
2824 Clear 14 1000 28 0 0.45 225 10:55 20.05.2020
2825 Clear 14 1000 28 0 0.45 225 10:55 20.05.2020
2826 Rain 14 1001 30 0 1.02 84 10:37 20.05.2020
2827 Rain 13 1001 31 0 1.41 72 10:18 20.05.2020
2828 Rain 12 1001 38 0 0.45 270 09:41 20.05.2020
2829 Clear 9 1005 46 0 1.55 60 09:20 20.05.2020
2830 Clear 8 1001 43 0 1.55 60 08:42 20.05.2020
2831 Clouds 8 1000 50 0 0.45 271 08:19 20.05.2020
2832 Clouds 8 1000 39 0 0.45 248 07:50 20.05.2020
2833 Clouds 7 1021 39 0 1.54 20 07:25 20.05.2020
2834 Clouds 7 1021 44 0 1.54 20 06:53 20.05.2020
2835 Clouds 5 1004 35 0 1.59 3 06:18 20.05.2020
2836 Clouds 4 1004 41 0 1.63 359 04:40 20.05.2020
2837 Clouds 4 1020 41 0 1.67 8 04:18 20.05.2020
2838 Clouds 5 1019 39 0 2.05 29 03:29 20.05.2020
2839 Clouds 6 1019 32 0 2.36 32 01:41 20.05.2020
2840 Clouds 7 997 37 0 0.45 270 01:23 20.05.2020
2841 Clouds 7 997 36 0 0.45 248 00:40 20.05.2020
2842 Clouds 7 997 35 0 2.84 37 00:20 20.05.2020
2843 Clouds 9 997 32 0 0.45 225 23:36 19.05.2020
2844 Clouds 9 997 32 0 2.38 24 23:18 19.05.2020
2845 Clouds 9 996 31 0 2.38 24 22:55 19.05.2020
2846 Clouds 10 996 31 0 0.45 225 22:36 19.05.2020
2847 Clouds 10 996 30 0 0.45 225 22:18 19.05.2020
2848 Clouds 11 995 30 0 0.45 225 21:55 19.05.2020
2849 Clouds 11 995 30 0 1.61 23 21:36 19.05.2020
2850 Clouds 12 995 30 0 0.45 225 21:18 19.05.2020
2851 Clouds 12 994 30 0 0.45 268 20:54 19.05.2020
2852 Clouds 13 994 24 0 0.45 310 20:36 19.05.2020
2853 Clouds 13 994 24 0 0.45 272 20:18 19.05.2020
2854 Clouds 14 994 24 0 0.45 270 19:38 19.05.2020
2855 Rain 15 993 24 0 0.45 269 19:19 19.05.2020
2856 Rain 15 993 24 0 0.45 135 18:44 19.05.2020
2857 Rain 15 993 22 0 0.45 293 18:23 19.05.2020
2858 Clouds 16 993 22 0 0.45 270 17:58 19.05.2020
2859 Clouds 16 993 22 0 0.45 225 17:39 19.05.2020
2860 Clouds 17 993 20 0 1.15 339 17:20 19.05.2020
2861 Clouds 17 993 20 0 1.15 339 16:41 19.05.2020
2862 Clouds 17 992 20 0 0.45 137 16:23 19.05.2020
2863 Clouds 17 992 15 0 0.45 355 15:58 19.05.2020
2864 Clouds 15 997 30 0 0.45 111 15:39 19.05.2020
2865 Clouds 16 992 20 0 1.87 306 15:20 19.05.2020
2866 Clouds 16 992 20 0 0.45 68 14:54 19.05.2020
2867 Clouds 17 992 20 0 0.45 225 14:36 19.05.2020
2868 Clouds 16 992 20 0 0.45 226 14:18 19.05.2020
2869 Clouds 16 992 22 0 1.32 351 13:54 19.05.2020
2870 Clear 14 997 35 0 1.61 14 13:36 19.05.2020
2871 Clear 15 992 20 0 0.45 135 13:18 19.05.2020
2872 Clear 15 992 24 0 0.45 136 12:40 19.05.2020
2873 Clear 13 997 35 0 0.89 76 12:22 19.05.2020
2874 Clear 12 996 38 0 2.14 22 11:59 19.05.2020
2875 Clear 12 996 39 0 0.45 63 11:40 19.05.2020
2876 Clear 12 996 39 0 2.58 33 11:21 19.05.2020
2877 Clear 11 996 40 0 0.45 332 10:49 19.05.2020
2878 Clear 12 991 31 0 0.89 229 10:29 19.05.2020
2879 Rain 12 991 34 0 1.34 270 09:59 19.05.2020
2880 Rain 12 991 37 0 0.89 183 09:41 19.05.2020
2881 Clear 9 995 46 0 0.89 41 09:23 19.05.2020
2882 Clear 8 990 44 0 0.45 271 08:44 19.05.2020
2883 Clouds 8 990 45 0 0.45 271 08:24 19.05.2020
2884 Clouds 8 989 45 0 0.89 271 07:45 19.05.2020
2885 Clouds 7 989 44 0 0.89 228 07:26 19.05.2020
2886 Clouds 6 1010 41 0 2.62 14 06:54 19.05.2020
2887 Clouds 5 994 1 0 2.29 6 06:25 19.05.2020
2888 Clouds 4 994 1 0 2.29 6 05:42 19.05.2020
2889 Clouds 4 994 1 0 2.29 6 05:42 19.05.2020
2890 Clouds 4 1009 51 0 2.35 8 04:56 19.05.2020
2891 Clouds 3 1008 53 0 2.1 12 04:34 19.05.2020
2892 Clouds 4 1008 53 0 1.52 19 01:51 19.05.2020
2893 Clouds 6 988 62 0 1.32 36 00:47 19.05.2020
2894 Clouds 6 988 60 0 0.45 225 00:25 19.05.2020
2895 Clouds 7 988 56 0 0.45 135 23:58 18.05.2020
2896 Clouds 7 988 48 0 0.89 180 23:39 18.05.2020
2897 Clouds 7 1007 43 0 0.92 83 23:19 18.05.2020
2898 Clouds 8 993 55 0 0.45 140 22:41 18.05.2020
2899 Clouds 9 988 37 0 0.45 140 22:22 18.05.2020
2900 Clouds 9 988 34 0 0.89 184 21:58 18.05.2020
2901 Clouds 10 989 33 0 0.89 180 21:39 18.05.2020
2902 Clouds 10 989 34 0 0.89 313 21:19 18.05.2020
2903 Clouds 11 989 35 0 1.07 198 20:43 18.05.2020
2904 Clouds 12 988 35 0 0.45 135 20:22 18.05.2020
2905 Clouds 12 988 34 0 0.45 225 19:59 18.05.2020
2906 Clouds 13 988 32 0 0.45 88 19:41 18.05.2020
2907 Clouds 13 988 32 0 0.45 92 19:19 18.05.2020
2908 Clouds 13 988 26 0 0.89 225 18:46 18.05.2020
2909 Clouds 14 989 24 0 0.45 180 18:25 18.05.2020
2910 Clouds 14 989 24 0 0.45 270 17:55 18.05.2020
2911 Clouds 14 989 22 0 0.89 225 17:37 18.05.2020
2912 Clouds 14 989 22 0 0.89 133 17:18 18.05.2020
2913 Clouds 14 989 22 0 0.89 227 16:44 18.05.2020
2914 Clouds 14 990 24 0 0.45 270 16:22 18.05.2020
2915 Clouds 15 990 22 0 0.45 249 15:59 18.05.2020
2916 Clouds 14 990 24 0 2.56 217 15:41 18.05.2020
2917 Clouds 15 990 24 0 2.45 221 15:22 18.05.2020
2918 Clouds 15 990 24 0 0.45 225 14:57 18.05.2020
2919 Clouds 15 990 22 0 0.45 270 14:38 18.05.2020
2920 Clouds 15 990 24 0 0.45 220 14:20 18.05.2020
2921 Clouds 14 990 26 0 0.45 223 13:41 18.05.2020
2922 Clouds 14 990 30 0 0.85 206 13:21 18.05.2020
2923 Clouds 14 990 30 0 0.45 225 13:21 18.05.2020
2924 Clouds 15 990 30 0 0.85 206 12:58 18.05.2020
2925 Clouds 15 990 28 0 0.85 206 12:40 18.05.2020
2926 Clouds 14 990 31 0 0.45 45 12:19 18.05.2020
2927 Clouds 13 990 31 0 0.45 225 11:59 18.05.2020
2928 -273 0 0 0 0 0 11:59 18.05.2020
2929 Clouds 13 990 31 0 0.45 225 11:40 18.05.2020
2930 Clouds 13 990 31 0 0.45 112 11:21 18.05.2020
2931 Clouds 12 1011 27 0 1.19 30 10:46 18.05.2020
2932 Clouds 13 1010 26 0 2.08 10 10:23 18.05.2020
2933 Rain 13 990 32 0 2.08 10 09:45 18.05.2020
2934 Clear 9 1012 42 10000 4.1 350 09:26 18.05.2020
2935 Clouds 8 1012 45 10000 3.1 360 08:56 18.05.2020
2936 Clouds 8 990 42 0 0.45 270 08:38 18.05.2020
2937 Clear 8 990 41 0 0.45 248 08:19 18.05.2020
2938 Clear 7 1010 42 0 1.98 339 07:42 18.05.2020
2939 Clear 8 995 49 0 1.77 324 07:21 18.05.2020
2940 Clear 6 994 49 0 1.77 324 06:47 18.05.2020
2941 Clear 2 1011 52 10000 2.6 310 06:21 18.05.2020
2942 Clear 3 989 60 0 1.83 324 05:42 18.05.2020
2943 Clear 4 988 55 0 1.74 319 03:38 18.05.2020
2944 Clear 4 987 55 0 0.45 248 02:35 18.05.2020
2945 Clear 4 992 45 0 1.77 318 01:45 18.05.2020
2946 Clear 6 986 50 0 2.06 304 00:38 18.05.2020
2947 Clear 5 991 53 0 2.01 314 00:38 18.05.2020
2948 Clear 6 986 50 0 2.06 304 00:18 18.05.2020
2949 Clear 6 991 56 0 2.06 304 23:42 17.05.2020
2950 Clear 6 985 39 0 2.04 297 23:20 17.05.2020
2951 Clear 6 990 52 0 2.04 297 22:59 17.05.2020
2952 Clear 7 990 52 0 2.04 297 22:39 17.05.2020
2953 Rain 9 985 34 0 2.23 292 22:21 17.05.2020
2954 Rain 9 985 33 0 2.23 292 21:59 17.05.2020
2955 Rain 10 985 32 0 0.45 270 21:41 17.05.2020
2956 Rain 10 985 32 0 2.57 289 21:19 17.05.2020
2957 Rain 11 984 31 0 0.45 225 20:55 17.05.2020
2958 Rain 11 984 31 0 0.45 270 20:36 17.05.2020
2959 Rain 12 984 31 0 0.45 270 20:18 17.05.2020
2960 Rain 12 982 31 0 0.45 226 19:42 17.05.2020
2961 Rain 12 982 31 0 0.45 180 19:23 17.05.2020
2962 Clouds 13 983 33 0 0.89 225 18:55 17.05.2020
2963 Clouds 13 983 32 0 0.45 269 18:37 17.05.2020
2964 Clouds 12 983 32 0 0.45 248 18:19 17.05.2020
2965 Clouds 13 983 30 0 0.89 270 17:40 17.05.2020
2966 Rain 13 983 26 0 0.45 246 17:21 17.05.2020
2967 Rain 13 983 26 0 0.89 247 17:21 17.05.2020
2968 Rain 13 983 26 0 0.89 247 17:21 17.05.2020
2969 Rain 13 983 31 0 0.89 224 16:57 17.05.2020
2970 Rain 13 983 31 0 1.79 269 16:38 17.05.2020
2971 Clouds 12 983 32 0 0.45 225 16:19 17.05.2020
2972 Clouds 13 983 32 0 0.45 248 15:45 17.05.2020
2973 Clouds 12 983 30 0 0.45 268 15:24 17.05.2020
2974 Clouds 14 983 28 0 0.45 225 14:58 17.05.2020
2975 Clouds 13 983 26 0 0.89 181 14:39 17.05.2020
2976 Clouds 13 983 24 0 0.89 46 14:19 17.05.2020
2977 Clouds 13 983 24 0 0.89 137 13:41 17.05.2020
2978 Clouds 12 982 24 0 0.45 187 13:20 17.05.2020
2979 Clouds 4 987 53 0 1.34 217 05:22 17.05.2020
2980 Clouds 5 981 51 0 0.89 249 03:31 17.05.2020
2981 Clouds 6 981 53 0 0.89 184 02:26 17.05.2020
2982 Clouds 6 981 50 0 0.89 183 01:54 17.05.2020
2983 Clouds 6 986 54 0 0.45 173 00:48 17.05.2020
2984 Clouds 6 981 48 0 0.45 265 00:30 17.05.2020
2985 Clouds 7 981 47 0 1.34 221 23:42 16.05.2020
2986 Clouds 7 981 47 0 0.89 225 23:24 16.05.2020
2987 Clouds 7 986 50 0 0.45 28 22:59 16.05.2020
2988 Clouds 7 986 49 0 1.34 287 22:41 16.05.2020
2989 Clouds 7 980 39 0 0.89 225 22:22 16.05.2020
2990 Rain 8 980 40 0 1.34 225 21:56 16.05.2020
2991 Rain 8 980 40 0 0.45 135 21:38 16.05.2020
2992 Rain 8 980 40 0 0.89 176 21:19 16.05.2020
2993 Clouds 8 980 41 0 0.45 180 20:56 16.05.2020
2994 Clouds 8 980 40 0 0.89 137 20:56 16.05.2020
2995 Clouds 8 980 40 0 0.89 221 20:37 16.05.2020
2996 Clouds 9 980 40 0 0.89 311 20:19 16.05.2020
2997 Clouds 9 980 39 0 1.34 266 19:42 16.05.2020
2998 Clouds 9 980 36 0 0.89 227 19:23 16.05.2020
2999 Clouds 9 980 35 0 0.89 270 18:57 16.05.2020
3000 Clouds 10 980 34 0 1.34 270 18:38 16.05.2020
3001 Clouds 10 980 33 0 2.24 136 18:20 16.05.2020
3002 Clouds 9 980 32 0 0.89 230 17:42 16.05.2020
3003 Rain 9 980 32 0 1.34 226 17:21 16.05.2020
3004 Rain 9 981 34 0 0.45 249 16:45 16.05.2020
3005 Clouds 9 979 34 0 1.34 271 16:25 16.05.2020
3006 Clouds 10 981 34 0 2.24 355 15:59 16.05.2020
3007 Clouds 10 981 34 0 0.89 138 15:41 16.05.2020
3008 Clouds 9 981 33 0 0.89 225 15:21 16.05.2020
3009 Clouds 9 981 34 0 0.89 0 14:58 16.05.2020
3010 Clouds 9 981 34 0 1.34 267 14:38 16.05.2020
3011 Clouds 9 981 36 0 0.89 227 14:19 16.05.2020
3012 Clouds 9 981 35 0 2.24 43 13:42 16.05.2020
3013 Clouds 8 981 33 0 1.34 225 13:24 16.05.2020
3014 Clouds 9 981 33 0 0.89 268 12:59 16.05.2020
3015 Clouds 8 981 33 0 0.45 137 12:40 16.05.2020
3016 Clouds 8 981 31 0 0.45 263 12:19 16.05.2020
3017 Clouds 8 981 32 0 0.45 270 11:42 16.05.2020
3018 Clouds 8 981 33 0 0.45 136 11:23 16.05.2020
3019 Clouds 8 981 41 0 0.45 220 10:58 16.05.2020
3020 Clouds 7 981 41 0 0.45 115 10:39 16.05.2020
3021 Clouds 7 981 41 0 0.89 90 10:21 16.05.2020
3022 Clouds 7 981 41 0 0.45 225 09:47 16.05.2020
3023 Clouds 6 981 41 0 0.45 267 09:28 16.05.2020
3024 Clouds 6 981 41 0 0.45 138 08:59 16.05.2020
3025 Clouds 6 981 41 0 0.89 316 08:40 16.05.2020
3026 Clouds 6 981 44 0 0.45 180 08:18 16.05.2020
3027 Clouds 6 981 42 0 0.45 185 07:43 16.05.2020
3028 Clouds 6 981 43 0 0.89 225 07:43 16.05.2020
3029 Clouds 6 999 35 0 3.85 268 07:21 16.05.2020
3030 Clouds 6 981 50 0 3.85 268 06:47 16.05.2020
3031 Clouds 3 980 51 0 0.45 225 06:21 16.05.2020
3032 Clouds 3 981 52 0 0.45 225 05:43 16.05.2020
3033 Clouds 3 981 51 0 0.45 90 05:24 16.05.2020
3034 Clouds 3 981 49 0 0.45 268 03:29 16.05.2020
3035 Clouds 3 981 50 0 0.45 222 02:49 16.05.2020
3036 Clouds 3 987 55 0 2.63 271 02:20 16.05.2020
3037 Clouds 4 987 51 0 0.45 256 01:40 16.05.2020
3038 Clouds 4 982 46 0 0.45 225 00:58 16.05.2020
3039 Clouds 5 982 46 0 0.45 115 00:40 16.05.2020
3040 Clouds 5 982 46 0 0.45 225 00:20 16.05.2020
3041 Clouds 5 982 43 0 0.45 225 23:40 15.05.2020
3042 Clear 5 982 42 0 0.45 227 23:20 15.05.2020
3043 Clear 6 982 42 0 1.34 223 22:42 15.05.2020
3044 Clear 6 982 41 0 0.45 224 22:22 15.05.2020
3045 Clear 7 982 40 0 0.89 90 21:58 15.05.2020
3046 Clear 7 982 40 0 0.89 239 21:39 15.05.2020
3047 Clouds 8 982 31 0 0.89 225 21:21 15.05.2020
3048 Clouds 8 982 31 0 0.45 140 20:57 15.05.2020
3049 Clouds 8 982 31 0 0.89 224 20:39 15.05.2020
3050 Clouds 9 982 31 0 2.24 247 20:21 15.05.2020
3051 Clouds 10 981 30 0 1.34 117 19:44 15.05.2020
3052 Clouds 11 981 26 0 0.45 138 19:25 15.05.2020
3053 Clouds 11 982 30 0 0.89 268 18:59 15.05.2020
3054 Clouds 12 981 26 0 0.89 270 18:39 15.05.2020
3055 Clouds 11 982 23 0 1.34 270 18:21 15.05.2020
3056 Clouds 12 982 26 0 0.89 96 17:39 15.05.2020
3057 Clouds 12 982 26 0 1.34 271 17:19 15.05.2020
3058 Clouds 12 982 30 0 0.45 161 16:57 15.05.2020
3059 Clouds 11 982 30 0 0.45 223 16:38 15.05.2020
3060 Clouds 11 982 30 0 0.89 184 16:19 15.05.2020
3061 Clouds 11 988 43 0 0.45 329 15:41 15.05.2020
3062 Clouds 11 983 34 0 0.89 96 15:23 15.05.2020
3063 Clouds 10 983 39 0 0.45 45 14:59 15.05.2020
3064 Clouds 11 983 40 0 0.45 312 14:41 15.05.2020
3065 Clouds 10 983 34 0 0.45 268 14:23 15.05.2020
3066 Clouds 11 983 33 0 0.89 180 13:58 15.05.2020
3067 Clouds 11 983 34 0 0.45 45 13:38 15.05.2020
3068 Clouds 12 983 34 0 0.45 317 13:19 15.05.2020
3069 Clouds 12 983 38 0 3.15 280 12:39 15.05.2020
3070 Clouds 10 983 33 0 0.45 180 12:18 15.05.2020
3071 Clouds 11 983 33 0 0.89 273 11:56 15.05.2020
3072 Clouds 12 983 31 0 0.45 270 11:56 15.05.2020
3073 Clouds 12 983 32 0 0.45 92 11:38 15.05.2020
3074 Clouds 11 983 37 0 0.89 225 11:19 15.05.2020
3075 Clouds 10 984 40 0 0.45 137 10:57 15.05.2020
3076 Clouds 10 984 41 0 0.45 270 10:38 15.05.2020
3077 Clouds 10 984 41 0 0.45 225 10:20 15.05.2020
3078 Clouds 10 984 42 0 0.45 225 09:56 15.05.2020
3079 Clouds 8 984 44 0 0.89 184 09:36 15.05.2020
3080 Clear 8 984 52 0 0.45 268 09:18 15.05.2020
3081 Clear 7 985 55 0 0.89 227 08:38 15.05.2020
3082 Clouds 7 985 55 0 0.45 225 08:20 15.05.2020
3083 Clouds 6 985 58 0 0.45 135 07:47 15.05.2020
3084 Clouds 6 985 57 0 0.45 180 07:28 15.05.2020
3085 Clouds 5 985 56 0 1.34 182 06:59 15.05.2020
3086 Clouds 3 1007 64 10000 3.6 190 06:28 15.05.2020
3087 Clouds 2 1008 59 10000 0.5 0 04:39 15.05.2020
3088 Clouds 3 991 43 0 0.71 241 03:51 15.05.2020
3089 Clouds 3 992 43 0 0.6 236 02:55 15.05.2020
3090 Clear 3 992 47 0 0.24 287 01:37 15.05.2020
3091 Clear 2 1007 42 0 0.56 335 01:18 15.05.2020
3092 Clear 2 992 48 0 0.56 335 00:40 15.05.2020
3093 Clear 3 987 50 0 0.69 9 00:22 15.05.2020
3094 Clear 3 987 45 0 0.69 9 23:41 14.05.2020
3095 Clear 4 987 45 0 1.23 18 23:19 14.05.2020
3096 Clear 5 987 44 0 1.23 18 22:43 14.05.2020
3097 Clear 5 986 42 0 1.47 3 22:24 14.05.2020
3098 Clear 5 986 41 0 1.47 3 22:24 14.05.2020
3099 Clear 6 986 40 0 1.47 3 21:59 14.05.2020
3100 Clear 7 986 31 0 1.47 3 21:41 14.05.2020
3101 Clear 7 986 31 0 0.45 290 21:20 14.05.2020
3102 Clear 8 986 31 0 0.45 270 20:58 14.05.2020
3103 Clear 9 986 36 0 0.45 270 20:39 14.05.2020
3104 Clouds 9 986 51 0 1.5 332 20:20 14.05.2020
3105 Clouds 9 986 55 0 1.34 225 19:57 14.05.2020
3106 Clouds 9 985 53 0 0.89 213 19:39 14.05.2020
3107 Clouds 10 985 55 0 0.45 92 19:20 14.05.2020
3108 Clouds 10 986 51 0 0.89 143 18:57 14.05.2020
3109 Clouds 10 986 50 0 0.45 223 18:38 14.05.2020
3110 Clouds 10 985 50 0 0.45 263 18:19 14.05.2020
3111 Clouds 10 986 50 0 0.89 180 17:56 14.05.2020
3112 Clouds 11 986 47 0 1.34 228 17:37 14.05.2020
3113 Clouds 11 986 45 0 1.34 225 17:18 14.05.2020
3114 Clouds 10 986 42 0 1.79 225 16:41 14.05.2020
3115 Clouds 10 987 42 0 2.24 270 16:23 14.05.2020
3116 Clouds 11 987 42 0 1.34 224 15:59 14.05.2020
3117 Clouds 11 987 41 0 1.79 98 15:40 14.05.2020
3118 Clouds 11 987 41 0 1.79 98 15:40 14.05.2020
3119 Clouds 10 987 35 0 1.34 267 15:21 14.05.2020
3120 Clouds 11 987 30 0 0.89 233 14:57 14.05.2020
3121 Clouds 11 987 30 0 1.34 135 14:39 14.05.2020
3122 Clouds 11 987 30 0 0.89 270 14:20 14.05.2020
3123 Clouds 11 987 26 0 0.89 230 13:57 14.05.2020
3124 Clouds 11 987 26 0 0.45 225 13:38 14.05.2020
3125 Clouds 12 987 26 0 0.89 225 13:19 14.05.2020
3126 Clouds 12 987 26 0 0.89 224 12:57 14.05.2020
3127 Clouds 11 988 26 0 0.45 222 12:38 14.05.2020
3128 Clear 10 988 23 0 0.89 227 12:18 14.05.2020
3129 Clear 10 988 23 0 0.45 268 11:56 14.05.2020
3130 Clear 10 988 23 0 0.45 270 11:38 14.05.2020
3131 Clouds 10 988 26 0 0.89 138 11:19 14.05.2020
3132 Clouds 9 988 30 0 0.45 269 10:45 14.05.2020
3133 Clouds 8 988 30 0 0.45 133 10:26 14.05.2020
3134 Clouds 9 988 31 0 0.45 225 09:56 14.05.2020
3135 Clouds 8 988 32 0 1.9 303 09:38 14.05.2020
3136 Clear 5 988 40 0 1.34 225 09:19 14.05.2020
3137 Clear 4 989 42 0 0.45 180 08:40 14.05.2020
3138 Clear 4 988 41 0 1.74 317 08:19 14.05.2020
3139 Clear 4 988 40 0 1.74 317 07:45 14.05.2020
3140 Clear 4 994 49 0 1.7 311 07:22 14.05.2020
3141 Clear 3 1010 36 0 1.7 311 06:53 14.05.2020
3142 Clear 3 1010 36 0 1.7 311 06:53 14.05.2020
3143 Clear 2 1010 50 10000 3.1 310 06:27 14.05.2020
3144 Clear 0 993 55 0 1.48 319 05:43 14.05.2020
3145 Clear 0 993 55 0 1.66 319 05:23 14.05.2020
3146 Clear 1 993 56 0 1.54 311 04:24 14.05.2020
3147 Clear 1 993 55 0 1.41 301 03:21 14.05.2020
3148 Clear 2 1010 68 0 1.41 301 02:40 14.05.2020
3149 Clouds 1 1010 93 0 1.33 323 01:55 14.05.2020
3150 Clouds 1 992 52 0 1.29 335 00:58 14.05.2020
3151 Clouds 2 992 52 0 1.29 335 00:37 14.05.2020
3152 Clouds 1 992 53 0 1.25 339 00:19 14.05.2020
3153 Clouds 2 992 55 0 1.25 339 23:39 13.05.2020
3154 Clouds 3 1007 30 0 1.1 321 23:18 13.05.2020
3155 Clouds 4 992 45 0 0.45 298 22:42 13.05.2020
3156 Clouds 5 987 55 0 1.7 275 22:23 13.05.2020
3157 Clouds 6 987 57 0 0.45 202 21:59 13.05.2020
3158 Clouds 6 987 57 0 0.45 202 21:59 13.05.2020
3159 Clouds 6 987 56 0 0.45 138 21:40 13.05.2020
3160 Clouds 7 987 54 0 0.89 293 21:19 13.05.2020
3161 Clouds 7 987 43 0 1.34 136 20:58 13.05.2020
3162 Clouds 8 987 33 0 0.89 181 20:39 13.05.2020
3163 Clouds 7 987 31 0 0.45 270 20:21 13.05.2020
3164 Clouds 8 987 26 0 0.89 222 19:43 13.05.2020
3165 Clouds 9 987 26 0 0.45 226 19:24 13.05.2020
3166 Clouds 9 987 26 0 0.45 112 18:55 13.05.2020
3167 Clouds 9 987 30 0 0.89 181 18:36 13.05.2020
3168 Clouds 10 987 23 0 0.45 270 18:18 13.05.2020
3169 Clouds 10 987 23 0 0.45 94 17:38 13.05.2020
3170 Clouds 11 987 20 0 0.89 269 17:19 13.05.2020
3171 Clouds 11 987 20 0 0.45 223 16:54 13.05.2020
3172 Clouds 11 987 20 0 2.65 219 16:36 13.05.2020
3173 Clouds 11 987 20 0 2.09 251 16:18 13.05.2020
3174 Clouds 11 1007 15 0 0.45 23 15:42 13.05.2020
3175 Clouds 11 988 20 0 0.45 268 15:19 13.05.2020
3176 Clouds 11 988 20 0 1.97 280 14:56 13.05.2020
3177 Clouds 10 988 23 0 0.45 226 14:38 13.05.2020
3178 Clouds 10 988 23 0 2.15 308 14:19 13.05.2020
3179 Clouds 11 988 23 0 0.45 291 13:55 13.05.2020
3180 Clouds 10 988 23 0 0.45 227 13:36 13.05.2020
3181 Clouds 10 988 23 0 0.45 202 13:18 13.05.2020
3182 Clouds 9 993 33 0 2.23 313 12:42 13.05.2020
3183 Clouds 8 993 35 0 2.25 325 12:21 13.05.2020
3184 Clouds 8 993 34 0 2.25 325 11:56 13.05.2020
3185 Clouds 8 993 35 0 2.25 325 11:38 13.05.2020
3186 Clear 7 993 36 0 2.38 350 11:20 13.05.2020
3187 Clear 8 988 30 0 0.45 225 10:58 13.05.2020
3188 Clear 8 993 37 0 0.45 26 10:38 13.05.2020
3189 Clear 7 993 41 0 2.73 355 10:19 13.05.2020
3190 Clear 9 988 30 0 0.45 224 09:56 13.05.2020
3191 Clear 5 1010 41 10000 6.7 350 09:38 13.05.2020
3192 Clear 5 1010 39 0 2.59 352 09:19 13.05.2020
3193 Clear 5 988 42 0 0.45 140 08:40 13.05.2020
3194 Clear 5 988 42 0 0.45 270 08:21 13.05.2020
3195 Clear 4 987 41 0 0.45 315 07:56 13.05.2020
3196 Clear 4 987 40 0 0.45 268 07:34 13.05.2020
3197 Clear 3 992 48 0 0.45 296 06:55 13.05.2020
3198 Clear 4 987 44 0 0.45 226 06:35 13.05.2020
3199 Clear 0 992 50 0 1.92 317 05:48 13.05.2020
3200 Clear -1 991 47 0 1.73 312 04:20 13.05.2020
3201 Clear 0 985 48 0 1.77 309 02:38 13.05.2020
3202 Clear 1 990 52 0 2.21 314 01:46 13.05.2020
3203 Clear 1 1005 50 0 2.35 329 00:59 13.05.2020
3204 Clear 2 984 45 0 3.11 345 00:28 13.05.2020
3205 Clear 3 984 47 0 0.45 315 23:59 12.05.2020
3206 Clear 3 984 50 0 0.45 225 23:39 12.05.2020
3207 Clear 3 984 52 0 0.45 225 23:20 12.05.2020
3208 Clear 3 983 60 0 3.21 341 22:42 12.05.2020
3209 Clouds 3 983 60 0 3.08 341 22:23 12.05.2020
3210 Clouds 3 983 60 0 3.08 341 22:23 12.05.2020
3211 Clouds 3 983 59 0 3.08 341 21:59 12.05.2020
3212 Clouds 3 983 59 0 3.44 342 21:40 12.05.2020
3213 Clouds 4 983 55 0 2.98 348 21:22 12.05.2020
3214 Clouds 4 982 50 0 2.99 353 20:59 12.05.2020
3215 Clouds 4 982 50 0 2.99 353 20:59 12.05.2020
3216 Clouds 4 982 49 0 2.99 353 20:41 12.05.2020
3217 Clouds 4 982 50 0 3.22 354 20:23 12.05.2020
3218 Clouds 5 982 50 0 0.45 268 19:59 12.05.2020
3219 Clouds 6 982 45 0 1.34 225 19:41 12.05.2020
3220 Clouds 7 981 43 0 0.45 227 19:22 12.05.2020
3221 Clouds 7 981 41 0 0.45 225 18:58 12.05.2020
3222 Clouds 7 981 33 0 0.89 147 18:39 12.05.2020
3223 Snow 7 981 40 0 0.89 288 18:21 12.05.2020
3224 Snow 7 981 48 0 0.89 270 17:44 12.05.2020
3225 Snow 7 980 52 0 5.25 341 17:25 12.05.2020
3226 Snow 6 981 50 0 0.45 311 16:58 12.05.2020
3227 Snow 6 981 51 0 0.45 183 16:40 12.05.2020
3228 Clouds 7 980 32 0 0.45 270 16:19 12.05.2020
3229 Clouds 8 980 35 0 0.89 228 15:54 12.05.2020
3230 Snow 7 980 46 0 0.45 181 15:36 12.05.2020
3231 Snow 6 980 50 0 0.45 317 15:18 12.05.2020
3232 Snow 6 980 52 0 0.45 275 14:54 12.05.2020
3233 Snow 7 980 43 0 0.89 227 14:36 12.05.2020
3234 Snow 7 980 43 0 1.34 42 14:18 12.05.2020
3235 Snow 7 980 34 0 0.89 309 13:54 12.05.2020
3236 Snow 7 980 42 0 0.89 90 13:36 12.05.2020
3237 Clouds 7 979 42 0 0.45 46 13:18 12.05.2020
3238 Clouds 7 979 30 0 0.45 270 12:54 12.05.2020
3239 Clouds 7 979 38 0 0.89 290 12:36 12.05.2020
3240 Clouds 7 979 31 0 0.89 247 12:18 12.05.2020
3241 Clouds 7 979 36 0 5.36 359 11:55 12.05.2020
3242 Clouds 7 979 35 0 0.89 201 11:36 12.05.2020
3243 Clouds 7 979 44 0 0.45 247 11:18 12.05.2020
3244 Clouds 7 979 42 0 4.27 345 10:42 12.05.2020
3245 Clouds 7 979 32 0 4.39 340 10:22 12.05.2020
3246 Clouds 8 979 31 0 0.45 225 09:59 12.05.2020
3247 Clouds 6 984 45 0 4.1 343 09:40 12.05.2020
3248 Clouds 6 1002 44 0 3.85 326 09:21 12.05.2020
3249 Clouds 6 979 46 0 0.45 270 08:57 12.05.2020
3250 Clouds 5 979 50 0 0.45 225 08:38 12.05.2020
3251 Clouds 5 979 51 0 0.89 93 08:19 12.05.2020
3252 Clouds 5 979 50 0 0.45 202 07:42 12.05.2020
3253 Clouds 4 999 46 0 0.45 175 07:23 12.05.2020
3254 Clouds 3 980 51 0 0.45 224 06:49 12.05.2020
3255 Clouds 2 999 50 0 0.98 223 06:27 12.05.2020
3256 Clouds 1 999 49 0 0.98 223 05:51 12.05.2020
3257 Clear 1 1000 48 0 1 222 05:30 12.05.2020
3258 Clear 0 987 46 0 0.8 266 03:27 12.05.2020
3259 Clear 1 1002 43 0 0.8 266 02:52 12.05.2020
3260 Clouds 1 1003 42 0 1.1 313 02:25 12.05.2020
3261 Clouds 2 1003 41 0 1.22 346 01:27 12.05.2020
3262 Clouds 3 989 51 0 0.89 215 00:37 12.05.2020
3263 Clouds 3 989 51 0 1.44 328 00:18 12.05.2020
3264 Clouds 2 989 52 0 0.45 253 23:42 11.05.2020
3265 Clouds 3 989 53 0 1.89 311 23:21 11.05.2020
3266 Clouds 3 989 53 0 0.45 227 22:59 11.05.2020
3267 Clouds 3 989 53 0 0.45 227 22:59 11.05.2020
3268 Clouds 4 989 52 0 1.89 311 22:40 11.05.2020
3269 Clear 6 984 40 0 2.21 307 22:20 11.05.2020
3270 Clear 6 984 40 0 0.89 315 21:58 11.05.2020
3271 Clouds 6 1004 28 0 2.15 327 21:40 11.05.2020
3272 Clouds 7 984 30 0 0.45 44 21:19 11.05.2020
3273 Clouds 7 984 30 0 0.45 138 20:59 11.05.2020
3274 Clouds 8 985 31 0 0.45 270 20:40 11.05.2020
3275 Clouds 8 985 30 0 1.55 310 20:21 11.05.2020
3276 Clouds 8 985 30 0 1.55 310 19:56 11.05.2020
3277 Clouds 8 985 31 0 0.45 292 19:38 11.05.2020
3278 Clouds 9 985 30 0 0.89 262 19:19 11.05.2020
3279 Clouds 9 985 30 0 0.45 140 18:56 11.05.2020
3280 Clouds 9 986 30 0 0.45 136 18:37 11.05.2020
3281 Clouds 10 985 30 0 0.89 91 18:18 11.05.2020
3282 Clouds 10 986 30 0 0.89 230 17:55 11.05.2020
3283 Clouds 10 986 30 0 0.45 225 17:36 11.05.2020
3284 Clouds 10 986 30 0 2.11 298 17:18 11.05.2020
3285 Clouds 11 986 23 0 0.45 90 16:42 11.05.2020
3286 Clouds 11 986 23 0 0.45 270 16:22 11.05.2020
3287 Clouds 11 987 23 0 0.45 226 15:58 11.05.2020
3288 Clouds 12 987 23 0 0.45 223 15:39 11.05.2020
3289 Clouds 11 986 23 0 0.45 270 15:19 11.05.2020
3290 Clouds 11 987 23 0 0.89 136 14:55 11.05.2020
3291 Clouds 11 987 20 0 0.89 287 14:37 11.05.2020
3292 Clouds 11 987 23 0 0.45 225 14:18 11.05.2020
3293 Clouds 11 987 20 0 0.45 225 14:18 11.05.2020
3294 Clouds 9 993 32 0 1.34 264 13:41 11.05.2020
3295 Clear 9 993 34 0 1.34 270 13:22 11.05.2020
3296 Clear 9 993 34 0 1.34 242 12:58 11.05.2020
3297 Clear 10 988 23 0 2.89 318 12:40 11.05.2020
3298 Clear 8 994 37 0 0.45 261 12:22 11.05.2020
3299 Clear 7 994 42 0 0.45 44 11:57 11.05.2020
3300 Clear 7 994 40 0 1.34 202 11:38 11.05.2020
3301 Clear 7 994 42 0 0.89 203 11:19 11.05.2020
3302 Clear 6 995 41 0 0.89 28 10:55 11.05.2020
3303 Clear 6 995 42 0 0.89 28 10:37 11.05.2020
3304 Clear 7 989 30 0 0.45 270 10:18 11.05.2020
3305 Clear 5 995 43 0 0.45 355 10:18 11.05.2020
3306 Clear 7 990 30 0 0.45 227 09:55 11.05.2020
3307 Clear 4 995 45 0 0.45 20 09:37 11.05.2020
3308 Clear 4 995 45 0 0.45 20 09:37 11.05.2020
3309 Clear 5 990 41 0 0.45 226 09:18 11.05.2020
3310 Clear 4 990 44 0 0.89 288 08:40 11.05.2020
3311 Clear 3 990 46 0 0.45 314 08:21 11.05.2020
3312 Clear 3 990 45 0 0.45 227 07:54 11.05.2020
3313 Clear 3 990 43 0 0.45 228 07:36 11.05.2020
3314 Clear 2 995 46 0 0.45 39 07:18 11.05.2020
3315 Clear 0 995 40 0 1.68 322 06:32 11.05.2020
3316 Clear -1 989 55 0 1.68 322 05:44 11.05.2020
3317 Clear -1 989 54 0 1.78 325 05:19 11.05.2020
3318 Clear 0 989 49 0 1.89 329 03:47 11.05.2020
3319 Clear 0 989 46 0 2.08 336 02:35 11.05.2020
3320 Clear 0 988 50 0 0.45 315 01:55 11.05.2020
3321 Clear 1 988 51 0 2.65 353 00:55 11.05.2020
3322 Clear 1 988 51 0 2.97 358 00:28 11.05.2020
3323 Clear 1 988 51 0 2.97 358 23:59 10.05.2020
3324 Clear 2 988 52 0 2.97 358 23:38 10.05.2020
3325 Clear 2 988 52 0 3.26 5 23:19 10.05.2020
3326 Clear 3 987 51 0 3.26 5 22:42 10.05.2020
3327 Clear 3 987 51 0 3.08 1 22:24 10.05.2020
3328 Clear 3 987 52 0 3.08 1 21:55 10.05.2020
3329 Clouds 3 987 51 0 4.08 1 21:37 10.05.2020
3330 Clouds 4 986 51 0 4.3 12 21:18 10.05.2020
3331 Clouds 5 986 51 0 0.45 93 20:41 10.05.2020
3332 Clouds 5 986 51 0 0.45 270 20:23 10.05.2020
3333 Clouds 5 985 50 0 0.45 226 19:56 10.05.2020
3334 Clouds 5 985 52 0 0.45 315 19:38 10.05.2020
3335 Clouds 6 985 49 0 0.45 270 19:20 10.05.2020
3336 Clouds 6 985 46 0 0.45 313 18:54 10.05.2020
3337 Clouds 6 985 46 0 0.89 225 18:54 10.05.2020
3338 Clouds 7 984 44 0 0.89 225 18:36 10.05.2020
3339 Clouds 6 984 42 0 0.45 316 18:18 10.05.2020
3340 Clouds 6 989 45 0 0.45 344 17:56 10.05.2020
3341 Clouds 6 989 45 0 0.45 9 17:36 10.05.2020
3342 Clouds 7 989 42 0 0.89 311 17:18 10.05.2020
3343 Clouds 7 989 34 0 0.89 29 16:43 10.05.2020
3344 Clouds 6 989 17 0 0.89 355 16:21 10.05.2020
3345 Clouds 7 983 58 0 1.34 314 15:58 10.05.2020
3346 Clouds 7 983 66 0 0.45 270 15:38 10.05.2020
3347 Clouds 5 983 68 0 0.89 271 15:20 10.05.2020
3348 Clouds 6 983 69 0 0.89 286 14:55 10.05.2020
3349 Clouds 5 983 70 0 0.45 270 14:37 10.05.2020
3350 Clouds 5 983 70 0 0.45 270 14:18 10.05.2020
3351 Clouds 5 982 73 0 0.45 249 13:55 10.05.2020
3352 Clouds 5 982 71 0 0.45 270 13:36 10.05.2020
3353 Clouds 5 982 71 0 0.45 270 13:36 10.05.2020
3354 Clouds 5 983 70 0 0.45 227 13:18 10.05.2020
3355 Clouds 5 982 69 0 0.89 270 12:42 10.05.2020
3356 Clouds 4 982 69 0 0.89 227 12:22 10.05.2020
3357 Clouds 4 982 70 0 1.34 136 11:58 10.05.2020
3358 Clouds 4 981 71 0 0.89 315 11:40 10.05.2020
3359 Rain 4 981 72 0 0.89 314 11:21 10.05.2020
3360 Rain 3 981 74 0 0.89 180 10:54 10.05.2020
3361 Rain 3 981 74 0 0.89 180 10:54 10.05.2020
3362 Rain 4 981 78 0 0.89 270 10:36 10.05.2020
3363 Rain 4 981 80 0 0.45 226 10:18 10.05.2020
3364 Rain 4 981 80 0 0.45 226 10:18 10.05.2020
3365 Rain 4 981 82 0 0.45 263 09:41 10.05.2020
3366 Rain 3 981 82 0 0.45 270 09:22 10.05.2020
3367 Rain 3 981 82 0 0.45 313 08:55 10.05.2020
3368 Rain 3 981 83 0 0.45 270 08:25 10.05.2020
3369 Rain 3 981 82 0 0.89 291 07:59 10.05.2020
3370 Rain 3 981 81 0 0.45 270 07:38 10.05.2020
3371 Rain 3 981 81 0 0.45 271 07:19 10.05.2020
3372 Rain 3 981 81 0 2.16 24 06:50 10.05.2020
3373 Rain 3 981 81 0 0.45 269 06:23 10.05.2020
3374 Rain 4 981 81 0 0.89 336 06:23 10.05.2020
3375 Rain 5 982 81 0 0.45 270 05:44 10.05.2020
3376 Rain 6 982 81 0 0.45 310 04:42 10.05.2020
3377 Rain 6 982 80 0 0.45 270 04:23 10.05.2020
3378 Rain 7 982 72 0 0.45 225 03:43 10.05.2020
3379 Rain 8 983 74 0 0.69 341 02:59 10.05.2020
3380 Clouds 8 983 73 0 0.7 244 02:24 10.05.2020
3381 Clouds 9 983 72 0 0.45 136 01:57 10.05.2020
3382 Clouds 9 983 72 0 0.45 136 01:57 10.05.2020
3383 Clouds 9 984 70 0 0.7 244 01:39 10.05.2020
3384 Clouds 8 984 68 0 0.45 137 01:18 10.05.2020
3385 Clouds 9 985 64 0 0.89 225 00:42 10.05.2020
3386 Clouds 9 985 63 0 0.45 202 00:20 10.05.2020
3387 Clouds 9 985 60 0 0.83 191 23:40 09.05.2020
3388 Clouds 9 985 60 0 0.45 135 23:21 09.05.2020
3389 Clouds 9 985 58 0 0.45 112 22:57 09.05.2020
3390 Clouds 9 985 57 0 0.89 250 22:39 09.05.2020
3391 Clouds 10 986 54 0 0.89 202 22:20 09.05.2020
3392 Clouds 10 986 52 0 0.89 180 21:55 09.05.2020
3393 Clouds 11 986 49 0 0.45 135 21:37 09.05.2020
3394 Clouds 11 986 48 0 2.5 190 21:19 09.05.2020
3395 Clouds 11 986 47 0 0.89 182 20:55 09.05.2020
3396 Clouds 12 986 48 0 0.45 225 20:36 09.05.2020
3397 Clouds 12 986 40 0 0.45 225 20:18 09.05.2020
3398 Clouds 13 986 36 0 0.89 178 19:40 09.05.2020
3399 Clouds 14 986 31 0 0.45 270 19:20 09.05.2020
3400 Clouds 14 987 30 0 0.45 248 18:55 09.05.2020
3401 Clouds 14 986 30 0 0.45 248 18:55 09.05.2020
3402 Clouds 14 987 28 0 0.45 218 18:37 09.05.2020
3403 Clouds 15 987 28 0 0.45 180 18:18 09.05.2020
3404 Clouds 15 987 24 0 1.34 270 17:44 09.05.2020
3405 Clouds 16 987 30 0 1.79 215 17:22 09.05.2020
3406 Clouds 16 987 30 0 0.89 224 16:43 09.05.2020
3407 Clouds 16 987 31 0 1.34 227 16:20 09.05.2020
3408 Clouds 16 988 30 0 1.34 225 15:58 09.05.2020
3409 Clouds 16 988 30 0 1.34 137 15:39 09.05.2020
3410 Clouds 16 988 26 0 0.45 135 15:21 09.05.2020
3411 Clouds 16 988 30 0 0.45 269 14:43 09.05.2020
3412 Clouds 15 988 26 0 1.34 141 14:20 09.05.2020
3413 Clouds 15 989 30 0 0.89 318 13:59 09.05.2020
3414 Clouds 15 989 30 0 0.89 135 13:41 09.05.2020
3415 Clouds 15 989 30 0 0.89 248 13:21 09.05.2020
3416 Clouds 15 989 31 0 0.45 202 12:57 09.05.2020
3417 Clouds 15 989 32 0 0.45 202 12:57 09.05.2020
3418 Clouds 15 989 33 0 0.45 202 12:39 09.05.2020
3419 Clouds 12 994 43 0 1.79 205 12:21 09.05.2020
3420 Clouds 12 994 46 0 2.47 194 11:43 09.05.2020
3421 Clouds 12 995 46 0 2.02 170 11:20 09.05.2020
3422 Clouds 13 990 33 0 0.89 202 10:48 09.05.2020
3423 Clouds 13 995 47 0 1.81 138 10:26 09.05.2020
3424 Clouds 12 990 41 0 0.45 202 09:59 09.05.2020
3425 Clouds 11 990 42 0 1.81 138 09:40 09.05.2020
3426 Clouds 8 995 47 0 1.45 95 09:19 09.05.2020
3427 Clouds 8 990 44 0 0.45 90 08:51 09.05.2020
3428 Clouds 9 991 44 0 1.45 95 08:33 09.05.2020
3429 Clouds 9 991 43 0 0.45 90 08:33 09.05.2020
3430 Clouds 8 991 46 0 1.12 68 07:55 09.05.2020
3431 Clouds 8 991 46 0 1.12 68 07:36 09.05.2020
3432 Clear 7 1011 44 0 1.04 41 07:18 09.05.2020
3433 Clear 3 995 4 0 1.27 10 06:26 09.05.2020
3434 Clear 2 1011 46 0 1.27 10 05:49 09.05.2020
3435 Clear 5 990 57 0 0.45 90 04:53 09.05.2020
3436 Clear 4 995 35 0 1.87 6 03:39 09.05.2020
3437 Clear 5 995 40 0 2 0 02:50 09.05.2020
3438 Clouds 5 994 41 0 1.95 355 01:54 09.05.2020
3439 Clouds 6 994 42 0 1.79 326 01:27 09.05.2020
3440 Clouds 6 994 42 0 1.79 326 00:59 09.05.2020
3441 Clouds 6 994 44 0 1.79 326 00:38 09.05.2020
3442 Clouds 7 993 44 0 1.84 323 23:58 08.05.2020
3443 Clouds 7 993 47 0 1.84 323 23:39 08.05.2020
3444 Clouds 7 993 49 0 1.86 321 23:19 08.05.2020
3445 Clouds 8 993 50 0 1.86 321 22:54 08.05.2020
3446 Clouds 8 993 50 0 1.86 321 22:36 08.05.2020
3447 Clouds 10 988 41 0 0.45 90 22:18 08.05.2020
3448 Clouds 10 988 41 0 0.45 90 22:18 08.05.2020
3449 Clouds 10 993 53 0 1.94 304 21:42 08.05.2020
3450 Clouds 11 988 38 0 0.45 181 21:19 08.05.2020
3451 Clouds 12 987 37 0 0.45 90 21:19 08.05.2020
3452 Clouds 12 987 36 0 0.45 175 20:59 08.05.2020
3453 Clouds 12 987 33 0 0.45 90 20:41 08.05.2020
3454 Clouds 13 987 32 0 0.89 91 20:23 08.05.2020
3455 Clouds 13 987 31 0 0.89 140 19:55 08.05.2020
3456 Clouds 14 987 30 0 0.89 69 19:37 08.05.2020
3457 Clouds 15 986 30 0 1.34 90 19:19 08.05.2020
3458 Clouds 15 986 30 0 0.89 129 18:43 08.05.2020
3459 Clouds 15 986 30 0 0.45 46 18:25 08.05.2020
3460 Clouds 15 986 24 0 1.79 271 17:42 08.05.2020
3461 Clouds 16 986 26 0 0.89 90 17:20 08.05.2020
3462 Clouds 15 986 30 0 0.45 112 16:54 08.05.2020
3463 Clouds 15 986 30 0 0.89 225 16:36 08.05.2020
3464 Clouds 15 986 30 0 0.45 180 16:18 08.05.2020
3465 Clouds 15 986 30 0 0.45 45 15:42 08.05.2020
3466 Clouds 14 991 41 0 0.45 224 15:20 08.05.2020
3467 Clouds 14 991 42 0 0.89 98 14:55 08.05.2020
3468 Clouds 14 991 43 0 1.34 178 14:37 08.05.2020
3469 Clouds 14 986 34 0 0.45 180 14:18 08.05.2020
3470 Clouds 14 986 34 0 0.45 180 13:41 08.05.2020
3471 Clouds 13 986 34 0 0.89 180 13:20 08.05.2020
3472 Clouds 13 986 36 0 0.45 180 12:55 08.05.2020
3473 Clouds 13 986 36 0 0.89 180 12:37 08.05.2020
3474 Clouds 13 986 34 0 0.45 180 12:18 08.05.2020
3475 Clouds 13 986 33 0 0.45 180 11:44 08.05.2020
3476 Clouds 13 986 33 0 0.89 180 11:44 08.05.2020
3477 Clouds 13 986 33 0 1.34 180 11:23 08.05.2020
3478 Clouds 13 986 33 0 0.45 180 10:58 08.05.2020
3479 Clouds 13 986 33 0 0.45 180 10:40 08.05.2020
3480 Clouds 12 986 34 0 0.89 180 10:19 08.05.2020
3481 Clouds 12 986 38 0 0.45 180 09:56 08.05.2020
3482 Clouds 12 986 41 0 0.45 180 09:37 08.05.2020
3483 Clear 9 1008 45 10000 2.1 0 09:18 08.05.2020
3484 Clear 9 986 46 0 1.85 313 08:42 08.05.2020
3485 Clouds 9 986 49 0 1.58 309 08:21 08.05.2020
3486 Clouds 9 986 52 0 0.45 180 07:43 08.05.2020
3487 Clouds 8 986 53 0 0.45 180 07:23 08.05.2020
3488 Clouds 7 986 71 0 1.05 308 06:51 08.05.2020
3489 Clouds 6 986 77 0 0.76 292 06:23 08.05.2020
3490 Clouds 6 987 77 0 0.76 292 05:42 08.05.2020
3491 Clouds 6 987 77 0 0.47 272 04:32 08.05.2020
3492 Clouds 7 988 81 0 0.45 270 02:33 08.05.2020
3493 Clouds 7 988 71 0 0.45 225 01:53 08.05.2020
3494 Clouds 7 988 70 0 0.45 182 01:28 08.05.2020
3495 Clouds 8 989 65 0 0.45 268 00:52 08.05.2020
3496 Clouds 8 994 1 0 0.45 225 00:30 08.05.2020
3497 Clouds 8 994 1 0 1.2 184 23:59 07.05.2020
3498 Clouds 8 994 13 0 1.2 184 23:40 07.05.2020
3499 Clouds 8 994 13 0 1.2 184 23:40 07.05.2020
3500 Clouds 8 995 20 0 1.43 173 23:21 07.05.2020
3501 Clouds 8 995 20 0 0.89 231 22:56 07.05.2020
3502 Clouds 9 990 55 0 0.45 180 22:37 07.05.2020
3503 Clouds 9 990 54 0 0.45 180 22:19 07.05.2020
3504 Clouds 9 990 52 0 0.45 225 21:55 07.05.2020
3505 Clouds 9 990 51 0 1.46 164 21:36 07.05.2020
3506 Clouds 10 990 50 0 1.95 172 21:18 07.05.2020
3507 Clouds 11 991 49 0 0.45 178 20:42 07.05.2020
3508 Clouds 11 991 44 0 0.45 180 20:23 07.05.2020
3509 Clouds 12 991 41 0 0.45 180 19:56 07.05.2020
3510 Clouds 12 991 40 0 1.79 142 19:38 07.05.2020
3511 Clouds 12 991 32 0 0.89 225 19:19 07.05.2020
3512 Clouds 13 991 31 0 1.34 270 18:44 07.05.2020
3513 Clouds 13 991 31 0 0.89 270 18:26 07.05.2020
3514 Clouds 14 991 30 0 0.89 135 17:44 07.05.2020
3515 Clouds 14 992 28 0 0.89 268 17:21 07.05.2020
3516 Clouds 14 992 30 0 0.89 223 16:59 07.05.2020
3517 Clouds 15 992 28 0 1.34 267 16:40 07.05.2020
3518 Clouds 14 1011 27 0 4.17 184 16:18 07.05.2020
3519 Clouds 15 993 22 0 0.89 248 15:56 07.05.2020
3520 Clouds 15 993 22 0 0.89 289 15:37 07.05.2020
3521 Clouds 15 993 22 0 0.89 289 15:37 07.05.2020
3522 Clouds 15 993 24 0 0.89 270 15:18 07.05.2020
3523 Clouds 14 993 24 0 0.45 158 14:43 07.05.2020
3524 Clouds 12 998 39 0 1.34 128 14:20 07.05.2020
3525 Clouds 13 999 39 0 0.45 109 13:44 07.05.2020
3526 Clouds 12 999 40 0 2.99 202 13:25 07.05.2020
3527 Clouds 12 995 31 0 2.99 202 12:54 07.05.2020
3528 Clouds 12 995 31 0 0.45 248 12:36 07.05.2020
3529 Clouds 12 1000 38 0 0.45 198 12:18 07.05.2020
3530 Clouds 11 1000 43 0 2.87 212 11:39 07.05.2020
3531 Clouds 11 1000 41 0 0.45 51 11:21 07.05.2020
3532 Clouds 11 995 31 0 0.45 270 10:43 07.05.2020
3533 Clouds 10 996 36 0 1.48 182 10:24 07.05.2020
3534 Clouds 9 996 35 0 1.48 182 09:54 07.05.2020
3535 Clouds 8 1001 46 0 1.2 141 09:36 07.05.2020
3536 Clouds 7 1001 42 0 0.98 144 09:18 07.05.2020
3537 Clouds 9 996 40 0 0.98 144 08:41 07.05.2020
3538 Clouds 9 996 40 0 0.45 135 08:21 07.05.2020
3539 Clouds 8 996 41 0 0.93 90 07:57 07.05.2020
3540 Clouds 8 996 43 0 0.93 90 07:39 07.05.2020
3541 Clouds 7 996 43 0 1.04 42 07:18 07.05.2020
3542 Clouds 4 1001 20 0 1.27 25 06:36 07.05.2020
3543 Clouds 5 996 51 0 1.27 25 05:40 07.05.2020
3544 Clouds 5 1016 48 0 1.24 46 04:27 07.05.2020
3545 Clouds 6 995 48 0 0.68 2 03:29 07.05.2020
3546 -273 0 0 0 0 0 02:59 07.05.2020
3547 Clouds 6 1000 51 0 0.5 4 02:19 07.05.2020
3548 Clouds 7 995 35 0 0.97 30 01:25 07.05.2020
3549 Clouds 7 1000 53 0 0.97 30 00:51 07.05.2020
3550 Clouds 8 1015 36 0 1.34 9 00:30 07.05.2020
3551 Clouds 8 999 51 0 0.45 338 23:58 06.05.2020
3552 Clouds 8 999 54 0 1.34 9 23:38 06.05.2020
3553 Clouds 8 999 53 0 1.34 1 23:19 06.05.2020
3554 Clouds 9 998 53 0 1.34 1 22:54 06.05.2020
3555 Clouds 10 993 37 0 0.45 270 22:36 06.05.2020
3556 Clouds 11 993 36 0 1.7 345 22:18 06.05.2020
3557 Clouds 10 997 48 0 0.45 9 21:42 06.05.2020
3558 Clear 12 992 30 0 0.45 248 21:22 06.05.2020
3559 Clear 13 992 30 0 0.45 248 20:56 06.05.2020
3560 Clear 13 992 30 0 0.45 248 20:37 06.05.2020
3561 Clear 14 991 28 0 0.45 225 20:19 06.05.2020
3562 Clear 14 991 26 0 0.45 225 19:56 06.05.2020
3563 Clear 15 991 26 0 0.45 225 19:37 06.05.2020
3564 Clear 15 991 26 0 0.45 270 19:18 06.05.2020
3565 Clear 16 991 26 0 0.45 180 18:55 06.05.2020
3566 Clear 16 991 28 0 0.45 90 18:36 06.05.2020
3567 Clear 16 990 28 0 0.45 225 18:18 06.05.2020
3568 Clear 17 990 28 0 0.45 181 17:54 06.05.2020
3569 Clear 17 991 25 0 0.45 225 17:36 06.05.2020
3570 Clear 17 991 28 0 0.89 133 17:18 06.05.2020
3571 Clear 18 991 23 0 0.45 270 16:56 06.05.2020
3572 Clear 18 991 22 0 0.45 202 16:38 06.05.2020
3573 Clear 17 996 33 0 0.89 5 16:19 06.05.2020
3574 Clear 18 991 24 0 0.89 268 15:45 06.05.2020
3575 Clear 16 996 35 0 2.14 296 15:22 06.05.2020
3576 Clear 16 996 34 0 0.89 25 14:56 06.05.2020
3577 Clear 17 991 25 0 1.34 225 14:38 06.05.2020
3578 Clouds 16 996 38 0 0.45 330 14:18 06.05.2020
3579 Clouds 16 992 30 0 1.79 269 13:57 06.05.2020
3580 Clouds 16 992 30 0 0.45 225 13:37 06.05.2020
3581 Clouds 15 997 39 0 2.15 314 13:18 06.05.2020
3582 Clouds 16 993 30 0 0.45 180 12:42 06.05.2020
3583 Clouds 13 998 41 0 1.34 44 12:24 06.05.2020
3584 Clouds 13 998 42 0 0.45 350 11:41 06.05.2020
3585 Clouds 13 993 35 0 0.45 225 11:22 06.05.2020
3586 Clouds 12 998 44 0 0.45 12 10:58 06.05.2020
3587 Clouds 12 993 38 0 2.07 314 10:39 06.05.2020
3588 Clouds 12 993 37 0 0.45 180 10:19 06.05.2020
3589 Clouds 12 993 41 0 0.45 180 09:56 06.05.2020
3590 Clouds 9 1016 49 10000 1.5 0 09:36 06.05.2020
3591 Clouds 8 1016 48 10000 1.5 300 09:18 06.05.2020
3592 Clouds 8 994 49 0 1.88 320 08:41 06.05.2020
3593 Clouds 8 994 48 0 1.75 321 08:20 06.05.2020
3594 Clouds 7 994 50 0 0.45 180 07:55 06.05.2020
3595 Clouds 7 994 53 0 1.75 321 07:36 06.05.2020
3596 Clouds 6 994 55 0 1.63 317 07:18 06.05.2020
3597 Clouds 6 994 55 0 1.63 317 07:18 06.05.2020
3598 Clouds 5 994 60 0 1.63 317 06:43 06.05.2020
3599 Clouds 4 994 61 0 1.4 314 06:19 06.05.2020
3600 Clouds 4 994 62 0 1.4 314 05:37 06.05.2020
3601 Clouds 4 994 61 0 1.34 315 04:49 06.05.2020
3602 Clouds 4 994 57 0 1.03 316 03:49 06.05.2020
3603 Clouds 5 994 56 0 0.45 180 03:24 06.05.2020
3604 Clouds 4 995 56 0 0.79 292 02:38 06.05.2020
3605 Clouds 4 995 54 0 0.75 276 02:20 06.05.2020
3606 Clouds 5 995 52 0 0.75 276 01:41 06.05.2020
3607 Clouds 4 1016 39 0 0.83 250 00:56 06.05.2020
3608 Clouds 5 1000 47 0 0.83 250 00:37 06.05.2020
3609 Clouds 5 1016 37 0 0.99 224 00:18 06.05.2020
3610 Clouds 6 1016 34 0 0.99 224 23:40 05.05.2020
3611 Clouds 6 1000 43 0 1.32 203 23:19 05.05.2020
3612 Clouds 6 1016 32 0 1.32 203 23:19 05.05.2020
3613 Clouds 7 1000 44 0 0.45 196 22:42 05.05.2020
3614 Clouds 8 995 50 0 0.45 180 22:21 05.05.2020
3615 Clouds 9 996 48 0 0.45 46 21:59 05.05.2020
3616 Clouds 9 995 46 0 0.89 267 21:41 05.05.2020
3617 Clouds 9 995 44 0 0.45 183 21:21 05.05.2020
3618 Clouds 10 996 41 0 0.45 156 20:59 05.05.2020
3619 Clouds 10 995 40 0 0.89 90 20:40 05.05.2020
3620 Clouds 11 996 40 0 0.89 223 20:19 05.05.2020
3621 Clouds 11 995 38 0 1.34 113 19:58 05.05.2020
3622 Clouds 12 996 33 0 0.45 90 19:37 05.05.2020
3623 Clouds 13 996 30 0 1.34 183 19:19 05.05.2020
3624 Clouds 13 996 28 0 1.34 270 18:56 05.05.2020
3625 Clouds 14 995 20 0 0.45 158 18:38 05.05.2020
3626 Clouds 13 995 20 0 0.45 248 18:38 05.05.2020
3627 Clouds 13 996 20 0 0.45 225 18:19 05.05.2020
3628 Clouds 14 996 20 0 0.89 267 17:44 05.05.2020
3629 Clouds 14 996 20 0 2.99 200 17:25 05.05.2020
3630 Clouds 14 997 22 0 0.45 225 16:58 05.05.2020
3631 Clouds 14 997 22 0 0.45 270 16:37 05.05.2020
3632 Clouds 14 997 22 0 0.45 231 16:18 05.05.2020
3633 Clouds 13 997 20 0 0.45 268 15:56 05.05.2020
3634 Clouds 14 997 20 0 0.45 270 15:38 05.05.2020
3635 Clouds 14 997 15 0 0.45 178 15:19 05.05.2020
3636 Clouds 14 997 20 0 2.45 223 14:54 05.05.2020
3637 Clear 14 997 20 0 0.89 225 14:36 05.05.2020
3638 Clear 14 998 26 0 0.89 270 14:18 05.05.2020
3639 Clear 14 997 28 0 0.45 270 13:54 05.05.2020
3640 Clear 14 998 30 0 0.45 205 13:36 05.05.2020
3641 Clear 14 998 26 0 0.89 141 13:18 05.05.2020
3642 Clear 13 998 31 0 0.45 225 12:40 05.05.2020
3643 Clear 11 1003 41 0 0.45 188 12:22 05.05.2020
3644 Clear 11 1004 42 0 0.45 38 11:59 05.05.2020
3645 Clear 13 998 31 0 0.45 225 11:40 05.05.2020
3646 Clear 10 1004 44 0 0.89 121 11:19 05.05.2020
3647 Clear 10 1004 45 0 0.45 78 10:54 05.05.2020
3648 Clear 12 998 36 0 0.45 135 10:36 05.05.2020
3649 Clear 11 999 40 0 0.45 135 10:18 05.05.2020
3650 Clear 10 999 42 0 0.45 225 09:43 05.05.2020
3651 Clear 6 1021 48 10000 4.6 20 09:25 05.05.2020
3652 Clear 6 999 53 0 0.45 270 08:43 05.05.2020
3653 Clear 5 999 53 0 0.45 272 08:21 05.05.2020
3654 Clear 6 999 53 0 0.89 315 07:59 05.05.2020
3655 Clear 6 999 51 0 0.45 225 07:41 05.05.2020
3656 Clear 5 1004 42 0 1.98 349 07:19 05.05.2020
3657 Clear 4 1021 45 0 1.98 349 06:50 05.05.2020
3658 Clear 2 1004 18 0 2.03 342 06:30 05.05.2020
3659 Clear 2 1004 17 0 2.03 342 05:50 05.05.2020
3660 Clear 2 1004 10 0 2.25 340 04:54 05.05.2020
3661 Clear 4 998 54 0 0.45 225 02:37 05.05.2020
3662 Clear 4 1002 35 0 2.24 344 00:56 05.05.2020
3663 Clear 5 997 51 0 0.45 270 00:28 05.05.2020
3664 Clear 5 996 51 0 0.45 226 23:48 04.05.2020
3665 Clear 5 996 51 0 0.45 226 23:48 04.05.2020
3666 Clear 5 997 51 0 0.45 270 23:25 04.05.2020
3667 Clear 6 996 50 0 0.45 314 22:58 04.05.2020
3668 Clear 5 1001 47 0 2.51 357 22:40 04.05.2020
3669 Clear 6 995 48 0 0.45 270 22:21 04.05.2020
3670 Clear 7 996 41 0 0.45 270 21:57 04.05.2020
3671 Clear 7 996 41 0 0.45 270 21:57 04.05.2020
3672 Clear 7 996 40 0 2.71 0 21:37 04.05.2020
3673 Clouds 8 995 40 0 2.9 13 21:19 04.05.2020
3674 Clouds 9 995 36 0 0.45 267 20:41 04.05.2020
3675 Clouds 9 995 36 0 0.45 267 20:41 04.05.2020
3676 Clouds 9 995 36 0 0.45 267 20:41 04.05.2020
3677 Clouds 9 995 35 0 0.45 225 20:41 04.05.2020
3678 Clouds 9 995 36 0 0.45 267 20:41 04.05.2020
3679 Clouds 9 995 34 0 0.45 225 20:20 04.05.2020
3680 Clouds 10 994 31 0 0.45 270 19:55 04.05.2020
3681 Clouds 10 995 33 0 0.89 270 19:37 04.05.2020
3682 Clouds 11 994 35 0 0.45 225 19:18 04.05.2020
3683 Clouds 10 994 34 0 0.45 225 18:39 04.05.2020
3684 Clouds 10 994 34 0 0.45 225 18:39 04.05.2020
3685 Clouds 11 994 31 0 1.34 228 18:20 04.05.2020
3686 Clouds 11 994 33 0 0.45 225 17:56 04.05.2020
3687 Clouds 10 994 33 0 0.45 225 17:38 04.05.2020
3688 Clouds 11 994 33 0 0.89 269 17:19 04.05.2020
3689 Clouds 10 998 38 0 1.34 25 16:44 04.05.2020
3690 Clouds 11 1013 27 0 0.89 91 16:23 04.05.2020
3691 Clouds 10 998 38 0 1.79 344 15:58 04.05.2020
3692 Clouds 10 998 38 0 1.34 17 15:40 04.05.2020
3693 Clouds 10 998 41 0 0.45 24 15:21 04.05.2020
3694 Clouds 11 993 31 0 0.89 250 14:48 04.05.2020
3695 Rain 12 993 30 0 0.45 225 14:20 04.05.2020
3696 Clouds 11 993 32 0 0.45 270 13:21 04.05.2020
3697 Clouds 11 993 32 0 0.45 270 13:21 04.05.2020
3698 Clouds 11 993 33 0 3.54 26 13:21 04.05.2020
3699 Clouds 11 993 32 0 0.45 270 13:21 04.05.2020
3700 Clouds 11 993 32 0 0.45 270 13:20 04.05.2020
3701 Clouds 9 998 44 0 0.89 31 12:43 04.05.2020
3702 Clouds 8 998 44 0 0.89 31 12:43 04.05.2020
3703 Clouds 8 998 44 0 0.89 31 12:43 04.05.2020
3704 Clouds 8 998 44 0 0.89 31 12:43 04.05.2020
3705 Clouds 8 998 44 0 0.89 31 12:43 04.05.2020
3706 Clouds 7 998 41 0 0.45 14 10:42 04.05.2020
3707 Clouds 7 998 41 0 0.45 14 10:42 04.05.2020
3708 Clouds 7 998 41 0 0.45 14 10:42 04.05.2020
3709 Clouds 7 998 41 0 0.45 14 10:42 04.05.2020
3710 Clouds 7 998 41 0 0.45 14 10:42 04.05.2020
3711 Clouds 6 992 60 0 3.76 21 09:26 04.05.2020
3712 Clouds 5 998 21 0 0.89 39 09:26 04.05.2020
3713 Clouds 5 998 21 0 0.89 39 09:26 04.05.2020
3714 Clouds 5 998 21 0 0.89 39 09:26 04.05.2020
3715 Clouds 6 992 60 0 3.76 21 09:26 04.05.2020
3716 Clouds 5 992 73 0 3.63 16 07:53 04.05.2020
3717 Clouds 4 992 73 0 3.02 0 07:33 04.05.2020
3718 Clouds 4 992 74 0 0.45 270 07:33 04.05.2020
3719 Clouds 4 992 73 0 3.02 0 07:33 04.05.2020
3720 Clouds 4 992 74 0 0.45 270 07:33 04.05.2020
3721 Clouds 4 991 78 0 0.45 272 05:24 04.05.2020
3722 Clouds 4 990 79 0 2.2 345 04:48 04.05.2020
3723 Clouds 5 989 80 0 0.45 270 02:42 04.05.2020
3724 Clouds 5 989 80 0 0.45 270 01:22 04.05.2020
3725 Clouds 5 989 80 0 3.94 33 23:59 03.05.2020
3726 Clouds 5 988 80 0 3.94 33 23:41 03.05.2020
3727 Rain 6 988 80 0 4.47 35 23:23 03.05.2020
3728 Rain 6 988 80 0 4.47 35 22:43 03.05.2020
3729 Rain 6 988 80 0 3.88 43 22:24 03.05.2020
3730 Rain 6 988 79 0 3.88 43 21:42 03.05.2020
3731 Rain 6 987 80 0 2.93 47 21:22 03.05.2020
3732 Rain 7 988 76 0 0.45 135 20:56 03.05.2020
3733 Rain 7 988 75 0 0.45 135 20:38 03.05.2020
3734 Rain 7 988 69 0 0.45 225 20:20 03.05.2020
3735 Rain 7 988 70 0 0.45 270 20:20 03.05.2020
3736 Rain 8 988 66 0 3.62 41 19:47 03.05.2020
3737 Rain 8 988 66 0 3.62 41 19:47 03.05.2020
3738 Rain 8 988 65 0 0.45 270 19:47 03.05.2020
3739 Rain 8 988 66 0 3.62 41 19:47 03.05.2020
3740 Rain 8 988 63 0 0.45 270 19:27 03.05.2020
3741 Rain 8 988 63 0 0.45 270 19:27 03.05.2020
3742 Rain 8 988 63 0 0.45 270 19:27 03.05.2020
3743 Rain 8 988 63 0 0.45 270 19:27 03.05.2020
3744 Rain 8 988 63 0 0.45 270 19:27 03.05.2020
3745 Rain 10 987 57 0 2.12 328 18:40 03.05.2020
3746 Rain 12 987 50 0 0.45 135 18:21 03.05.2020
3747 Rain 12 987 41 0 0.45 90 17:59 03.05.2020
3748 Rain 13 986 40 0 0.45 90 17:40 03.05.2020
3749 Rain 14 986 36 0 0.45 270 17:21 03.05.2020
3750 Rain 13 987 35 0 0.45 225 16:45 03.05.2020
3751 Rain 15 986 37 0 0.45 225 16:20 03.05.2020
3752 Rain 15 986 37 0 0.45 225 16:20 03.05.2020
3753 Rain 15 986 33 0 0.45 180 15:58 03.05.2020
3754 Rain 13 992 41 0 1.34 192 15:39 03.05.2020
3755 Rain 15 986 30 0 0.45 135 15:20 03.05.2020
3756 Rain 15 986 26 0 0.89 292 14:57 03.05.2020
3757 Rain 15 986 26 0 0.45 135 14:38 03.05.2020
3758 Clear 16 986 31 0 0.45 135 14:20 03.05.2020
3759 Clear 15 986 31 0 0.45 135 13:41 03.05.2020
3760 Clear 16 986 30 0 0.45 135 13:41 03.05.2020
3761 Clear 15 986 32 0 0.45 113 12:59 03.05.2020
3762 Clear 15 986 32 0 0.45 113 12:59 03.05.2020
3763 Clear 15 986 32 0 0.45 113 12:59 03.05.2020
3764 Clear 13 991 38 0 0.45 19 12:39 03.05.2020
3765 Clear 13 991 39 0 1.5 359 12:18 03.05.2020
3766 Clear 13 991 43 0 0.45 89 11:41 03.05.2020
3767 Clear 12 1008 37 0 1.87 358 11:22 03.05.2020
3768 Clear 11 991 43 0 0.45 63 11:00 03.05.2020
3769 Clear 10 991 44 0 1.87 358 10:39 03.05.2020
3770 Clear 10 991 44 0 1.87 358 10:39 03.05.2020
3771 Clear 10 991 44 0 1.87 358 10:39 03.05.2020
3772 Clear 10 991 44 0 1.87 358 10:39 03.05.2020
3773 Clear 13 985 40 0 0.45 135 09:48 03.05.2020
3774 Clear 12 985 41 0 2.03 353 09:48 03.05.2020
3775 Clear 12 985 41 0 2.03 353 09:48 03.05.2020
3776 Clear 12 985 41 0 2.03 353 09:48 03.05.2020
3777 Clear 12 985 41 0 2.03 353 09:48 03.05.2020
3778 Clear 8 1007 49 10000 4.6 360 09:27 03.05.2020
3779 Clear 8 1007 49 10000 4.6 360 09:27 03.05.2020
3780 Clear 8 1007 49 10000 4.6 360 09:27 03.05.2020
3781 Clear 8 985 52 0 0.45 135 08:37 03.05.2020
3782 Clear 7 985 52 0 2.21 343 08:19 03.05.2020
3783 Clear 7 985 52 0 2.21 343 08:19 03.05.2020
3784 Clear 7 985 52 0 2.21 343 08:19 03.05.2020
3785 Clear 6 984 53 0 2.21 343 08:19 03.05.2020
3786 Clear 8 984 50 0 2.21 343 07:38 03.05.2020
3787 Clear 4 984 66 0 2.04 337 06:18 03.05.2020
3788 Clear 5 983 65 0 2.04 337 05:44 03.05.2020
3789 Clear 5 983 67 0 1.96 334 04:29 03.05.2020
3790 Clear 5 982 70 0 1.96 334 03:58 03.05.2020
3791 Clear 5 982 73 0 1.86 337 02:47 03.05.2020
3792 Clouds 5 982 72 0 1.6 348 02:22 03.05.2020
3793 Clouds 6 982 70 0 1.6 348 01:41 03.05.2020
3794 Clouds 6 982 70 0 1 348 01:23 03.05.2020
3795 Clouds 6 981 62 0 1 348 00:40 03.05.2020
3796 Clouds 7 981 60 0 0.52 324 00:21 03.05.2020
3797 Clouds 7 981 62 0 0.45 112 23:55 02.05.2020
3798 Clouds 7 981 62 0 0.52 324 23:37 02.05.2020
3799 Clouds 7 986 1 0 0.52 222 23:18 02.05.2020
3800 Clouds 8 986 1 0 0.52 222 22:41 02.05.2020
3801 Rain 9 981 72 0 1.22 187 22:22 02.05.2020
3802 Rain 8 980 71 0 1.22 187 21:55 02.05.2020
3803 Rain 10 980 70 0 1.8 185 21:37 02.05.2020
3804 Rain 10 980 70 0 1.8 185 21:18 02.05.2020
3805 Rain 11 980 69 0 1.8 185 20:54 02.05.2020
3806 Rain 11 980 66 0 0.45 202 20:36 02.05.2020
3807 Rain 11 979 65 0 0.45 178 20:18 02.05.2020
3808 Rain 12 979 64 0 0.45 228 19:39 02.05.2020
3809 Rain 12 979 70 0 0.89 141 19:21 02.05.2020
3810 Rain 12 979 65 0 0.45 268 18:59 02.05.2020
3811 Rain 12 979 62 0 0.89 132 18:39 02.05.2020
3812 Rain 13 980 62 0 0.89 201 18:21 02.05.2020
3813 Rain 13 979 51 0 0.45 202 17:57 02.05.2020
3814 Rain 13 979 47 0 0.45 290 17:38 02.05.2020
3815 Rain 14 979 43 0 0.89 263 17:19 02.05.2020
3816 Rain 14 983 46 0 2.24 153 16:56 02.05.2020
3817 Rain 15 983 45 0 2.68 161 16:38 02.05.2020
3818 Clouds 15 983 45 0 1.34 201 16:20 02.05.2020
3819 Clouds 14 983 46 0 1.34 206 15:41 02.05.2020
3820 Clouds 14 983 48 0 0.89 124 15:20 02.05.2020
3821 Clouds 15 997 39 0 2.44 219 14:44 02.05.2020
3822 Clouds 14 997 39 0 2.44 223 14:26 02.05.2020
3823 Clouds 16 978 38 0 0.89 136 13:59 02.05.2020
3824 Clouds 15 978 38 0 0.45 247 13:39 02.05.2020
3825 Clouds 14 978 40 0 0.45 223 13:19 02.05.2020
3826 Clouds 12 983 41 0 0.45 99 12:41 02.05.2020
3827 Clouds 12 983 39 0 1.99 225 12:22 02.05.2020
3828 Clouds 10 983 36 0 1.34 120 11:58 02.05.2020
3829 Clouds 12 979 48 0 0.89 180 11:39 02.05.2020
3830 Clouds 12 978 51 0 0.45 90 11:21 02.05.2020
3831 Clouds 11 978 54 0 0.45 90 10:54 02.05.2020
3832 Clouds 9 983 9 0 0.89 151 10:36 02.05.2020
3833 Clouds 11 978 60 0 0.45 180 10:18 02.05.2020
3834 Clouds 11 978 60 0 0.89 270 10:18 02.05.2020
3835 Clouds 10 978 67 0 0.45 225 09:54 02.05.2020
3836 Clouds 7 983 1 0 0.89 132 09:36 02.05.2020
3837 Clouds 7 978 87 0 0.45 91 09:18 02.05.2020
3838 Clouds 7 978 87 0 0.45 221 08:41 02.05.2020
3839 Clouds 7 978 87 0 0.45 135 08:22 02.05.2020
3840 Clouds 5 977 90 0 0.52 290 07:46 02.05.2020
3841 Clouds 5 978 90 0 0.7 307 07:27 02.05.2020
3842 Clouds 4 977 90 0 0.7 307 06:47 02.05.2020
3843 Clouds 3 997 89 0 0.9 333 05:28 02.05.2020
3844 Clouds 2 995 87 0 0.99 326 04:37 02.05.2020
3845 Clouds 2 996 85 0 0.99 326 04:18 02.05.2020
3846 Clouds 5 982 1 0 0.96 323 02:43 02.05.2020
3847 Clouds 4 982 1 0 1.16 328 02:19 02.05.2020
3848 Clouds 5 995 77 0 1.26 338 01:33 02.05.2020
3849 Clouds 5 994 77 0 1.26 338 00:45 02.05.2020
3850 Clouds 5 977 85 0 1.28 344 00:24 02.05.2020
3851 Clouds 5 976 84 0 1.28 344 23:57 01.05.2020
3852 Clouds 6 976 83 0 1.41 344 23:37 01.05.2020
3853 Clouds 6 976 82 0 1.41 344 23:19 01.05.2020
3854 Clouds 6 982 1 0 1.41 344 22:40 01.05.2020
3855 Clouds 6 982 1 0 1.59 347 22:21 01.05.2020
3856 Clouds 6 982 1 0 1.59 347 21:59 01.05.2020
3857 Clouds 6 995 65 0 1.59 347 21:41 01.05.2020
3858 Clouds 8 976 66 0 1.88 332 21:21 01.05.2020
3859 Clouds 8 976 63 0 1.88 332 20:58 01.05.2020
3860 Clouds 9 976 61 0 1.88 332 20:40 01.05.2020
3861 Clouds 9 976 60 0 2.08 326 20:20 01.05.2020
3862 Clouds 9 976 60 0 2.08 326 20:20 01.05.2020
3863 Clouds 10 976 59 0 2.08 326 19:59 01.05.2020
3864 Clouds 10 976 59 0 0.45 225 19:41 01.05.2020
3865 Clouds 10 976 55 0 2.37 315 19:21 01.05.2020
3866 Clouds 10 976 55 0 0.45 225 19:21 01.05.2020
3867 Clouds 10 976 56 0 0.45 225 18:56 01.05.2020
3868 Clouds 11 976 53 0 0.45 225 18:38 01.05.2020
3869 -273 0 0 0 0 0 18:19 01.05.2020
3870 Rain 12 976 49 0 1.9 297 17:41 01.05.2020
3871 Rain 13 976 49 0 0.45 225 17:22 01.05.2020
3872 Rain 10 981 24 0 1.06 260 16:58 01.05.2020
3873 Rain 10 981 14 0 1.06 260 16:40 01.05.2020
3874 Rain 12 976 53 0 0.45 225 16:20 01.05.2020
3875 Rain 11 981 10 0 0.89 140 16:20 01.05.2020
3876 Rain 12 977 54 0 0.45 225 15:57 01.05.2020
3877 Rain 11 982 1 0 0.8 185 15:39 01.05.2020
3878 Rain 9 982 1 0 0.88 168 15:19 01.05.2020
3879 Rain 10 977 70 0 0.88 168 14:44 01.05.2020
3880 Rain 10 977 71 0 1.03 192 14:25 01.05.2020
3881 Rain 9 977 74 0 0.45 225 13:56 01.05.2020
3882 Rain 10 977 75 0 1.22 104 13:38 01.05.2020
3883 Rain 10 977 83 0 0.68 112 13:20 01.05.2020
3884 Rain 10 977 83 0 0.68 112 13:20 01.05.2020
3885 Rain 8 977 93 0 0.45 225 12:55 01.05.2020
3886 Rain 8 977 94 0 0.45 225 12:37 01.05.2020
3887 Rain 7 977 95 0 0.45 225 12:18 01.05.2020
3888 Rain 6 977 95 0 0.45 225 11:41 01.05.2020
3889 Rain 6 978 95 0 0.45 225 11:23 01.05.2020
3890 Rain 6 977 95 0 0.51 145 10:58 01.05.2020
3891 Rain 6 977 96 0 0.45 181 10:38 01.05.2020
3892 Rain 5 977 98 0 0.89 183 10:20 01.05.2020
3893 Rain 5 977 98 0 1.34 90 09:44 01.05.2020
3894 Rain 5 977 97 0 1.34 112 09:20 01.05.2020
3895 Rain 4 977 96 0 1.34 114 08:57 01.05.2020
3896 Rain 4 976 96 0 1.79 139 08:39 01.05.2020
3897 Rain 4 976 95 0 0.89 94 08:21 01.05.2020
3898 Rain 3 976 93 0 0.89 179 07:44 01.05.2020
3899 Rain 3 976 93 0 0.89 90 07:22 01.05.2020
3900 Rain 3 976 92 0 1.34 222 06:39 01.05.2020
3901 Rain 2 977 90 0 0.89 90 05:35 01.05.2020
3902 Rain 2 977 89 0 0.45 249 04:39 01.05.2020
3903 Rain 2 977 87 0 0.45 250 03:24 01.05.2020
3904 Rain 2 977 87 0 0.89 226 02:43 01.05.2020
3905 Rain 2 978 86 0 0.45 183 02:18 01.05.2020
3906 Rain 2 978 85 0 0.45 227 01:28 01.05.2020
3907 Rain 3 978 85 0 0.45 269 00:58 01.05.2020
3908 Rain 3 979 85 0 0.45 228 00:37 01.05.2020
3909 Rain 3 979 84 0 0.45 270 00:18 01.05.2020
3910 Rain 3 979 84 0 0.45 265 23:54 30.04.2020
3911 Rain 3 979 83 0 0.45 269 23:36 30.04.2020
3912 Rain 3 979 83 0 0.45 185 23:18 30.04.2020
3913 Rain 4 980 82 0 3.6 56 22:40 30.04.2020
3914 Rain 4 980 81 0 0.45 270 22:19 30.04.2020
3915 Rain 4 980 81 0 3.31 62 21:55 30.04.2020
3916 Rain 4 981 80 0 3.31 62 21:37 30.04.2020
3917 Rain 4 981 80 0 3.34 72 21:18 30.04.2020
3918 Rain 4 981 80 0 3.34 72 21:18 30.04.2020
3919 Rain 4 981 77 0 3.34 72 20:42 30.04.2020
3920 Rain 5 981 72 0 3.3 91 20:19 30.04.2020
3921 Rain 5 981 71 0 0.45 134 19:58 30.04.2020
3922 Rain 5 981 67 0 0.89 135 19:38 30.04.2020
3923 Rain 5 981 65 0 1.79 135 19:18 30.04.2020
3924 Rain 6 981 58 0 1.34 137 18:55 30.04.2020
3925 Rain 6 981 54 0 0.89 44 18:36 30.04.2020
3926 Clouds 7 982 52 0 1.34 176 18:18 30.04.2020
3927 Clouds 7 982 50 0 0.45 138 17:40 30.04.2020
3928 Clouds 7 982 50 0 0.45 225 17:22 30.04.2020
3929 Clouds 8 982 48 0 0.89 224 16:59 30.04.2020
3930 Clouds 8 982 48 0 2.24 138 16:40 30.04.2020
3931 Clouds 8 982 47 0 2.68 272 16:20 30.04.2020
3932 Clouds 8 983 46 0 2.68 91 15:57 30.04.2020
3933 Clouds 8 983 47 0 1.34 95 15:39 30.04.2020
3934 Clouds 8 983 46 0 1.34 317 15:21 30.04.2020
3935 Clouds 8 984 41 0 0.45 180 14:41 30.04.2020
3936 Clouds 8 984 48 0 1.34 88 14:20 30.04.2020
3937 Clouds 7 984 50 0 0.45 67 13:58 30.04.2020
3938 Clouds 7 985 50 0 1.34 227 13:39 30.04.2020
3939 Clouds 7 985 49 0 1.34 313 13:39 30.04.2020
3940 Clouds 7 985 50 0 2.68 291 13:21 30.04.2020
3941 Clouds 7 985 50 0 0.89 137 12:55 30.04.2020
3942 Clouds 7 986 51 0 0.89 133 12:37 30.04.2020
3943 Clouds 6 986 51 0 0.89 225 12:18 30.04.2020
3944 Clouds 6 986 50 0 0.89 273 11:38 30.04.2020
3945 Clouds 6 986 50 0 1.34 137 11:18 30.04.2020
3946 Clouds 6 987 48 0 0.89 89 10:56 30.04.2020
3947 Clouds 6 987 47 0 1.34 179 10:38 30.04.2020
3948 Clouds 6 987 49 0 1.34 70 10:18 30.04.2020
3949 Clouds 6 987 50 0 0.45 91 09:44 30.04.2020
3950 Clouds 5 987 51 0 0.45 224 09:23 30.04.2020
3951 Clouds 4 987 52 0 1.34 135 08:54 30.04.2020
3952 Clouds 4 987 53 0 0.45 135 08:36 30.04.2020
3953 Clouds 4 987 57 0 0.89 315 08:18 30.04.2020
3954 Clouds 4 987 60 0 0.45 90 07:42 30.04.2020
3955 Clouds 4 987 59 0 0.45 90 07:23 30.04.2020
3956 Clouds 3 987 58 0 0.45 90 06:40 30.04.2020
3957 Clouds 2 987 57 0 0.45 112 05:49 30.04.2020
3958 Clouds 2 987 55 0 1.49 50 05:27 30.04.2020
3959 Clouds 3 988 53 0 0.45 135 04:32 30.04.2020
3960 Clouds 3 988 52 0 0.89 111 03:52 30.04.2020
3961 Clouds 4 993 52 0 0.45 142 02:29 30.04.2020
3962 Clouds 4 993 52 0 0.45 120 01:58 30.04.2020
3963 Clouds 4 987 51 0 0.89 138 01:20 30.04.2020
3964 Clouds 4 993 53 0 1.05 78 00:40 30.04.2020
3965 Clouds 5 988 50 0 1.34 138 00:18 30.04.2020
3966 Clouds 5 988 50 0 1.34 138 00:18 30.04.2020
3967 Clouds 5 988 51 0 0.45 135 23:54 29.04.2020
3968 Clouds 5 993 53 0 0.89 114 23:36 29.04.2020
3969 Clouds 5 987 51 0 0.45 182 23:18 29.04.2020
3970 Clouds 6 987 51 0 0.45 137 22:39 29.04.2020
3971 Clouds 6 987 51 0 0.45 294 22:20 29.04.2020
3972 Clouds 6 987 50 0 1.34 134 21:56 29.04.2020
3973 Clouds 6 987 50 0 0.45 93 21:36 29.04.2020
3974 Clouds 7 987 48 0 0.89 133 21:18 29.04.2020
3975 Clouds 7 987 47 0 0.45 114 20:40 29.04.2020
3976 Clouds 8 987 49 0 1.48 155 20:20 29.04.2020
3977 Clouds 8 987 47 0 1.48 155 19:57 29.04.2020
3978 Clouds 8 986 40 0 1.48 155 19:39 29.04.2020
3979 Clouds 8 987 40 0 2.05 170 19:18 29.04.2020
3980 Clouds 9 987 36 0 0.45 270 18:42 29.04.2020
3981 Clouds 9 987 36 0 0.45 270 18:42 29.04.2020
3982 Clouds 9 987 35 0 0.45 270 18:22 29.04.2020
3983 Clouds 9 987 35 0 2.16 184 17:57 29.04.2020
3984 Clouds 9 987 34 0 2.16 184 17:39 29.04.2020
3985 Clouds 9 987 33 0 2.16 185 17:20 29.04.2020
3986 Clouds 9 987 33 0 0.45 140 16:38 29.04.2020
3987 Clouds 9 987 33 0 0.45 140 16:38 29.04.2020
3988 Clouds 8 987 33 0 2.35 187 16:19 29.04.2020
3989 Clouds 8 987 33 0 2.35 187 15:57 29.04.2020
3990 Clouds 8 987 35 0 0.45 177 15:39 29.04.2020
3991 Clouds 8 987 34 0 2.54 189 15:20 29.04.2020
3992 Clouds 8 987 35 0 2.54 189 14:56 29.04.2020
3993 Clouds 8 987 34 0 2.7 196 14:38 29.04.2020
3994 Clear 8 987 36 0 2.93 196 14:18 29.04.2020
3995 Clear 8 987 40 0 2.93 196 13:42 29.04.2020
3996 Clear 9 987 42 0 0.89 226 13:20 29.04.2020
3997 Clear 9 987 47 0 0.45 270 12:58 29.04.2020
3998 Clear 8 987 50 0 0.45 270 12:39 29.04.2020
3999 Clear 7 987 47 0 3.31 188 12:19 29.04.2020
4000 Clear 8 987 46 0 0.45 270 11:40 29.04.2020
4001 Clear 9 987 52 0 0.45 225 11:21 29.04.2020
4002 Clear 8 987 49 0 0.45 180 10:58 29.04.2020
4003 Clear 6 992 31 0 3.13 183 10:37 29.04.2020
4004 Clear 7 987 52 0 0.45 270 10:19 29.04.2020
4005 Clear 7 987 63 0 0.45 225 09:42 29.04.2020
4006 Clear 3 992 1 0 0.89 144 09:24 29.04.2020
4007 Clear 4 987 69 0 0.45 225 08:57 29.04.2020
4008 Clear 3 987 70 0 2.11 180 08:39 29.04.2020
4009 Clear 3 987 70 0 2.11 180 08:20 29.04.2020
4010 Clear 2 987 71 0 0.45 222 07:42 29.04.2020
4011 Clear 2 987 72 0 1.55 173 07:23 29.04.2020
4012 Clear 1 986 73 0 0.45 268 06:50 29.04.2020
4013 Clear 0 1006 89 0 1.17 164 06:31 29.04.2020
4014 Clear 0 1007 87 0 1.13 157 05:21 29.04.2020
4015 Clear 0 1007 87 0 1.13 157 04:45 29.04.2020
4016 Clear 0 1007 85 0 0.99 156 04:18 29.04.2020
4017 Clear 1 986 70 0 0.45 270 02:43 29.04.2020
4018 Clear 1 986 71 0 0.6 145 01:44 29.04.2020
4019 Clear 1 986 72 0 0.34 124 01:26 29.04.2020
4020 Clear 2 986 71 0 0.34 124 00:42 29.04.2020
4021 Clear 2 986 71 0 0.23 39 00:20 29.04.2020
4022 Clear 2 986 70 0 0.23 39 23:51 28.04.2020
4023 Clear 2 986 68 0 0.49 4 23:24 28.04.2020
4024 Clear 3 986 67 0 0.49 4 22:58 28.04.2020
4025 Clear 3 986 67 0 0.49 4 22:37 28.04.2020
4026 Clear 4 986 65 0 0.56 356 22:18 28.04.2020
4027 Clear 4 986 65 0 0.56 356 21:57 28.04.2020
4028 Clear 5 986 65 0 1 359 21:38 28.04.2020
4029 Clear 5 986 65 0 1 359 21:20 28.04.2020
4030 Clear 5 986 63 0 1 359 20:55 28.04.2020
4031 Clouds 6 985 60 0 1.14 0 20:37 28.04.2020
4032 Clouds 6 985 57 0 1.14 0 20:19 28.04.2020
4033 Clouds 6 985 56 0 1.14 0 19:43 28.04.2020
4034 Clouds 6 985 56 0 0.45 180 19:22 28.04.2020
4035 Clouds 6 985 55 0 0.45 137 18:59 28.04.2020
4036 Clouds 7 985 53 0 1.47 9 18:59 28.04.2020
4037 Clouds 7 985 54 0 0.45 270 18:40 28.04.2020
4038 Clouds 7 986 55 0 0.45 225 18:19 28.04.2020
4039 Clouds 7 985 56 0 0.45 137 18:19 28.04.2020
4040 Clouds 7 985 56 0 0.45 137 18:19 28.04.2020
4041 Clouds 7 985 53 0 0.89 113 17:57 28.04.2020
4042 Clouds 8 985 52 0 0.45 45 17:36 28.04.2020
4043 Clouds 7 985 53 0 0.45 225 17:18 28.04.2020
4044 Clouds 7 985 53 0 0.45 225 17:18 28.04.2020
4045 Clouds 7 985 54 0 1.91 31 16:43 28.04.2020
4046 Clouds 7 985 56 0 0.45 225 16:23 28.04.2020
4047 Clouds 8 985 53 0 0.45 112 15:58 28.04.2020
4048 Clouds 8 985 53 0 0.45 91 15:39 28.04.2020
4049 Clouds 8 985 53 0 0.45 91 15:39 28.04.2020
4050 Clouds 7 985 52 0 0.89 17 15:21 28.04.2020
4051 Clouds 7 985 48 0 1.34 113 14:59 28.04.2020
4052 Rain 7 985 51 0 0.45 90 14:41 28.04.2020
4053 Rain 7 985 60 0 0.45 135 14:21 28.04.2020
4054 Rain 7 985 53 0 0.45 157 13:58 28.04.2020
4055 Rain 7 985 71 0 0.45 268 13:38 28.04.2020
4056 Rain 6 985 78 0 0.45 270 13:19 28.04.2020
4057 Rain 6 985 74 0 0.89 270 12:46 28.04.2020
4058 Snow 5 985 74 0 0.45 268 12:26 28.04.2020
4059 Snow 4 985 75 0 0.45 270 11:56 28.04.2020
4060 Snow 5 985 80 0 0.45 268 11:37 28.04.2020
4061 Snow 5 985 79 0 3.82 45 11:37 28.04.2020
4062 Snow 4 985 79 0 0.45 227 11:18 28.04.2020
4063 Snow 4 985 78 0 0.45 269 10:39 28.04.2020
4064 Snow 4 985 78 0 0.45 269 10:39 28.04.2020
4065 Clouds 4 985 82 0 0.45 269 10:19 28.04.2020
4066 Clouds 4 984 83 0 0.45 270 09:59 28.04.2020
4067 Clouds 4 984 84 0 0.89 269 09:40 28.04.2020
4068 Clouds 3 984 84 0 0.45 269 09:21 28.04.2020
4069 Clouds 3 984 84 0 0.45 220 08:46 28.04.2020
4070 Snow 3 984 84 0 0.89 229 08:27 28.04.2020
4071 Snow 2 984 86 0 0.89 227 07:46 28.04.2020
4072 Snow 3 983 87 0 0.45 335 07:21 28.04.2020
4073 Snow 3 983 88 0 0.89 228 06:55 28.04.2020
4074 Clouds 3 983 89 0 0.45 313 06:22 28.04.2020
4075 Clouds 3 983 89 0 0.45 183 05:44 28.04.2020
4076 Snow 3 983 90 0 0.45 270 05:25 28.04.2020
4077 Snow 2 983 90 0 0.45 251 04:33 28.04.2020
4078 Rain 2 982 89 0 0.45 268 02:36 28.04.2020
4079 Clouds 3 982 90 0 0.45 268 01:23 28.04.2020
4080 Clouds 3 982 89 0 0.45 270 00:58 28.04.2020
4081 Clouds 3 982 89 0 0.45 272 00:25 28.04.2020
4082 Clouds 4 982 89 0 0.45 135 23:47 27.04.2020
4083 Clouds 4 982 89 0 0.45 227 23:24 27.04.2020
4084 Clouds 4 981 88 0 0.45 273 22:56 27.04.2020
4085 Rain 4 1004 93 10000 4.6 40 22:38 27.04.2020
4086 Rain 4 981 88 0 0.45 225 22:20 27.04.2020
4087 Rain 4 981 88 0 2.21 16 21:56 27.04.2020
4088 Rain 4 981 88 0 0.45 225 21:38 27.04.2020
4089 Rain 4 981 88 0 2.19 9 21:18 27.04.2020
4090 Rain 4 981 86 0 0.45 96 20:44 27.04.2020
4091 Rain 5 980 87 0 0.89 226 20:22 27.04.2020
4092 Rain 5 980 87 0 0.89 226 20:22 27.04.2020
4093 Rain 5 980 88 0 0.45 230 19:59 27.04.2020
4094 Rain 5 980 89 0 2.24 7 19:39 27.04.2020
4095 Rain 5 980 89 0 2.08 9 19:21 27.04.2020
4096 Rain 5 980 90 0 0.45 270 18:58 27.04.2020
4097 Rain 5 980 90 0 0.45 315 18:40 27.04.2020
4098 Rain 5 979 90 0 0.45 267 18:19 27.04.2020
4099 Rain 5 979 90 0 0.45 225 17:44 27.04.2020
4100 Rain 5 979 90 0 0.89 270 17:24 27.04.2020
4101 Rain 5 980 90 0 1.5 55 17:00 27.04.2020
4102 Rain 5 979 90 0 0.45 314 16:40 27.04.2020
4103 Rain 5 979 90 0 0.45 313 16:21 27.04.2020
4104 Rain 6 980 90 0 0.45 270 15:56 27.04.2020
4105 Rain 6 980 90 0 0.45 248 15:38 27.04.2020
4106 Rain 6 980 90 0 0.45 248 15:38 27.04.2020
4107 Rain 6 980 90 0 0.45 180 15:18 27.04.2020
4108 Rain 6 980 90 0 0.45 91 14:44 27.04.2020
4109 Rain 6 980 90 0 0.89 268 14:23 27.04.2020
4110 Rain 6 981 89 0 0.89 137 14:00 27.04.2020
4111 Rain 6 981 90 0 0.45 180 13:41 27.04.2020
4112 Rain 6 981 90 0 0.89 213 13:20 27.04.2020
4113 Rain 6 981 89 0 0.45 130 12:56 27.04.2020
4114 Rain 6 981 90 0 0.45 267 12:38 27.04.2020
4115 Rain 6 981 90 0 0.89 45 12:19 27.04.2020
4116 Rain 6 981 90 0 0.45 270 11:41 27.04.2020
4117 Rain 5 981 88 0 2.24 135 11:19 27.04.2020
4118 Rain 5 982 88 0 1.34 135 10:57 27.04.2020
4119 Rain 5 981 87 0 1.34 134 10:38 27.04.2020
4120 Rain 5 982 88 0 0.89 134 10:38 27.04.2020
4121 Rain 6 982 87 0 0.89 314 10:20 27.04.2020
4122 Rain 5 982 87 0 0.45 90 09:43 27.04.2020
4123 Rain 6 982 86 0 0.89 219 09:19 27.04.2020
4124 Rain 6 982 86 0 0.89 157 08:57 27.04.2020
4125 Rain 6 982 82 0 0.89 94 08:38 27.04.2020
4126 Rain 6 982 82 0 0.89 94 08:19 27.04.2020
4127 Rain 6 982 82 0 0.89 94 07:44 27.04.2020
4128 Rain 6 982 82 0 0.89 134 07:20 27.04.2020
4129 Rain 6 982 80 0 0.45 134 06:47 27.04.2020
4130 Clouds 6 982 80 0 0.45 136 06:25 27.04.2020
4131 Clouds 6 983 80 0 0.45 180 05:49 27.04.2020
4132 Clouds 6 983 80 0 0.45 158 04:41 27.04.2020
4133 Clouds 6 984 80 0 0.45 94 03:49 27.04.2020
4134 Clouds 6 983 80 0 0.89 215 02:48 27.04.2020
4135 Clouds 6 984 79 0 1.31 117 01:35 27.04.2020
4136 Clouds 6 984 78 0 0.89 138 00:57 27.04.2020
4137 Clouds 7 984 77 0 1.16 154 00:20 27.04.2020
4138 Clouds 7 984 74 0 0.45 220 23:56 26.04.2020
4139 Clouds 7 989 1 0 0.89 140 23:37 26.04.2020
4140 Clouds 7 989 1 0 1.34 157 23:19 26.04.2020
4141 Clouds 7 989 1 0 0.89 152 22:58 26.04.2020
4142 Clouds 7 989 1 0 1.34 157 22:39 26.04.2020
4143 Clouds 8 984 57 0 0.45 225 22:19 26.04.2020
4144 Clouds 8 984 42 0 0.89 135 21:57 26.04.2020
4145 Clouds 9 984 42 0 1.16 154 21:37 26.04.2020
4146 Clouds 9 983 41 0 1.71 142 21:18 26.04.2020
4147 Clouds 10 983 40 0 1.71 142 20:42 26.04.2020
4148 Clouds 11 983 40 0 1.71 142 20:24 26.04.2020
4149 Clouds 11 983 40 0 0.45 248 19:59 26.04.2020
4150 Clouds 12 983 38 0 0.89 296 19:38 26.04.2020
4151 Clouds 12 983 37 0 0.89 181 19:20 26.04.2020
4152 Clouds 13 983 33 0 0.45 270 18:57 26.04.2020
4153 Clouds 13 983 32 0 0.45 180 18:39 26.04.2020
4154 Clouds 13 983 33 0 0.45 270 18:21 26.04.2020
4155 Clouds 13 984 32 0 0.45 225 17:42 26.04.2020
4156 Clouds 13 984 32 0 0.45 270 17:22 26.04.2020
4157 Clouds 13 984 32 0 0.45 270 16:55 26.04.2020
4158 Clouds 13 984 31 0 0.45 270 16:37 26.04.2020
4159 Clouds 13 984 31 0 0.45 44 16:18 26.04.2020
4160 Clouds 14 989 41 0 0.45 5 15:55 26.04.2020
4161 Clouds 13 989 42 0 1.59 76 15:36 26.04.2020
4162 Clouds 14 989 42 0 0.45 17 15:18 26.04.2020
4163 Clouds 14 989 40 0 1.59 76 14:40 26.04.2020
4164 Clouds 13 989 39 0 0.89 28 14:19 26.04.2020
4165 Clouds 13 989 38 0 0.89 24 13:58 26.04.2020
4166 Clouds 13 989 41 0 2 83 13:39 26.04.2020
4167 Clouds 13 989 40 0 0.89 105 13:20 26.04.2020
4168 Clouds 12 989 41 0 0.45 64 12:55 26.04.2020
4169 Clouds 13 985 30 0 0.89 226 12:36 26.04.2020
4170 Clouds 10 1007 42 10000 1.5 0 12:18 26.04.2020
4171 Clouds 11 990 44 0 0.45 360 11:43 26.04.2020
4172 Clouds 10 1007 45 10000 3.1 0 11:23 26.04.2020
4173 Clouds 9 1007 45 10000 3.6 80 10:59 26.04.2020
4174 -273 0 0 0 0 0 10:59 26.04.2020
4175 Clouds 10 990 46 0 0.89 349 10:41 26.04.2020
4176 Clouds 10 990 46 0 1.34 67 10:23 26.04.2020
4177 Clouds 10 1005 32 0 1.34 246 09:57 26.04.2020
4178 Clouds 9 990 49 0 0.45 54 09:37 26.04.2020
4179 Clouds 8 1007 60 10000 1.5 220 09:18 26.04.2020
4180 Clouds 7 985 48 0 0.45 184 08:41 26.04.2020
4181 Clouds 7 985 53 0 0.45 271 08:22 26.04.2020
4182 Clouds 6 984 56 0 1.46 71 07:48 26.04.2020
4183 Clouds 5 984 56 0 0.45 45 07:23 26.04.2020
4184 Clouds 5 985 57 0 0.45 225 06:47 26.04.2020
4185 Clouds 4 984 61 0 1.12 51 06:21 26.04.2020
4186 Clouds 3 984 60 0 0.89 179 05:49 26.04.2020
4187 Clouds 3 984 60 0 1.12 51 05:28 26.04.2020
4188 Clouds 4 984 58 0 0.45 225 04:30 26.04.2020
4189 Clouds 4 984 60 0 1.25 62 03:39 26.04.2020
4190 Clouds 5 984 59 0 1.25 62 02:37 26.04.2020
4191 Clouds 4 985 60 0 1.27 69 02:19 26.04.2020
4192 Clouds 5 984 60 0 0.45 90 01:36 26.04.2020
4193 Clouds 5 984 59 0 1.27 69 00:41 26.04.2020
4194 Clouds 6 984 53 0 0.45 45 00:21 26.04.2020
4195 Clouds 6 985 52 0 1.4 69 23:55 25.04.2020
4196 Clouds 6 985 51 0 0.45 45 23:36 25.04.2020
4197 Clouds 7 985 50 0 0.45 45 23:18 25.04.2020
4198 Clouds 7 985 47 0 0.45 45 22:42 25.04.2020
4199 Clouds 8 985 43 0 0.45 225 22:20 25.04.2020
4200 Clouds 9 985 41 0 1.4 69 21:58 25.04.2020
4201 Clouds 9 985 40 0 1.4 69 21:38 25.04.2020
4202 Clouds 10 985 38 0 0.65 154 21:18 25.04.2020
4203 Clouds 11 985 31 0 0.65 154 20:43 25.04.2020
4204 Clouds 12 985 30 0 0.65 154 20:23 25.04.2020
4205 Clouds 13 985 30 0 0.65 154 19:59 25.04.2020
4206 Clouds 14 985 30 0 0.45 270 19:39 25.04.2020
4207 Clouds 14 985 28 0 0.45 136 19:20 25.04.2020
4208 Clouds 14 985 26 0 0.45 203 18:44 25.04.2020
4209 Clouds 14 985 26 0 0.45 308 18:22 25.04.2020
4210 Clouds 15 985 28 0 0.45 45 17:59 25.04.2020
4211 Clouds 16 986 24 0 0.45 225 17:40 25.04.2020
4212 Clouds 16 986 24 0 0.45 225 17:22 25.04.2020
4213 Clouds 15 991 33 0 1.68 323 16:59 25.04.2020
4214 Clouds 15 991 35 0 0.45 113 16:41 25.04.2020
4215 Clouds 15 1005 26 0 0.45 220 16:23 25.04.2020
4216 Clouds 15 1005 25 0 1.68 323 15:55 25.04.2020
4217 Clouds 14 1006 25 0 0.89 254 15:37 25.04.2020
4218 Clouds 14 1006 25 0 0.89 254 15:18 25.04.2020
4219 Clouds 14 992 39 0 2.54 346 14:56 25.04.2020
4220 Clouds 14 987 28 0 0.89 266 14:37 25.04.2020
4221 Clouds 14 987 30 0 0.45 269 14:18 25.04.2020
4222 Clouds 14 988 30 0 0.45 180 13:41 25.04.2020
4223 Clouds 13 988 30 0 2.17 346 13:19 25.04.2020
4224 Clouds 13 993 38 0 0.45 105 12:56 25.04.2020
4225 Clouds 12 993 43 0 2.17 346 12:38 25.04.2020
4226 Clouds 11 1010 39 10000 4.1 350 12:19 25.04.2020
4227 Clouds 11 993 43 0 0.45 11 11:43 25.04.2020
4228 Clouds 11 993 46 0 1.99 324 11:25 25.04.2020
4229 Clouds 10 993 48 0 1.99 324 10:57 25.04.2020
4230 Clouds 10 988 33 0 1.99 324 10:38 25.04.2020
4231 Clouds 9 994 49 0 0.45 26 10:20 25.04.2020
4232 Clear 10 989 33 0 0.45 225 09:44 25.04.2020
4233 Clear 7 1011 52 10000 2.1 310 09:22 25.04.2020
4234 Clear 7 989 49 0 1.71 348 08:56 25.04.2020
4235 Clear 7 989 53 0 1.62 341 08:38 25.04.2020
4236 Clear 6 989 54 0 1.71 348 08:19 25.04.2020
4237 Clear 5 989 53 0 1.71 348 07:44 25.04.2020
4238 Clear 5 989 50 0 1.71 348 07:22 25.04.2020
4239 Clear 4 989 54 0 1.62 341 06:43 25.04.2020
4240 Clear 3 989 57 0 1.98 349 05:47 25.04.2020
4241 Clear 3 989 57 0 1.98 349 05:28 25.04.2020
4242 Clear 4 989 56 0 1.98 349 04:24 25.04.2020
4243 Clear 4 989 54 0 2.63 5 02:44 25.04.2020
4244 Clear 5 989 53 0 2.63 5 02:19 25.04.2020
4245 Clear 5 989 52 0 2.63 5 01:50 25.04.2020
4246 Clear 6 989 51 0 2.63 5 01:26 25.04.2020
4247 Clear 6 989 51 0 2.63 5 00:49 25.04.2020
4248 Clear 6 988 45 0 0.45 270 00:28 25.04.2020
4249 Clear 6 1009 38 0 2.46 10 23:43 24.04.2020
4250 Clear 7 988 42 0 2.46 10 23:22 24.04.2020
4251 Clear 7 993 50 0 0.45 5 22:54 24.04.2020
4252 Clear 7 1008 33 0 2.46 10 22:54 24.04.2020
4253 Clear 8 993 50 0 2.46 10 22:36 24.04.2020
4254 Clear 8 988 40 0 2.46 10 22:18 24.04.2020
4255 Clear 8 988 39 0 0.45 270 21:54 24.04.2020
4256 Clouds 9 987 38 0 3.79 17 21:36 24.04.2020
4257 Clouds 9 987 38 0 0.45 270 21:18 24.04.2020
4258 Clouds 10 987 36 0 0.45 270 20:42 24.04.2020
4259 Clouds 10 987 34 0 0.45 270 20:19 24.04.2020
4260 Clouds 10 987 34 0 0.89 267 19:58 24.04.2020
4261 Clouds 11 987 35 0 0.45 270 19:38 24.04.2020
4262 Clouds 11 987 34 0 0.89 247 19:20 24.04.2020
4263 Clouds 11 987 36 0 0.89 312 18:41 24.04.2020
4264 Clouds 11 987 36 0 0.89 312 18:41 24.04.2020
4265 Clouds 12 987 35 0 0.45 227 18:23 24.04.2020
4266 Clouds 12 987 34 0 0.45 225 17:54 24.04.2020
4267 Clouds 12 987 34 0 0.89 292 17:36 24.04.2020
4268 Clouds 12 987 32 0 0.89 227 17:18 24.04.2020
4269 Clouds 12 987 35 0 0.45 187 16:41 24.04.2020
4270 Clouds 12 987 35 0 0.89 225 16:22 24.04.2020
4271 Clouds 12 987 32 0 1.34 224 16:00 24.04.2020
4272 Clouds 12 987 31 0 0.89 225 15:39 24.04.2020
4273 Clouds 12 987 31 0 0.89 269 15:20 24.04.2020
4274 Clouds 13 987 31 0 0.45 314 14:40 24.04.2020
4275 Clouds 12 987 31 0 0.45 225 14:22 24.04.2020
4276 Clouds 12 987 32 0 0.89 313 13:57 24.04.2020
4277 Clouds 13 987 32 0 0.45 269 13:39 24.04.2020
4278 Clouds 11 992 48 0 0.89 26 13:20 24.04.2020
4279 Clouds 12 992 45 0 4.34 16 12:45 24.04.2020
4280 Clouds 11 993 49 0 4.26 31 12:25 24.04.2020
4281 Clouds 11 993 50 0 0.45 323 11:59 24.04.2020
4282 Clouds 10 993 49 0 0.45 29 11:39 24.04.2020
4283 Clouds 11 993 49 0 1.79 348 11:20 24.04.2020
4284 Clouds 10 993 50 0 0.89 338 10:56 24.04.2020
4285 Clouds 10 993 50 0 0.45 319 10:37 24.04.2020
4286 Clouds 10 989 42 0 0.45 269 10:19 24.04.2020
4287 Clouds 10 989 44 0 0.45 97 09:47 24.04.2020
4288 Clouds 8 989 50 0 3.5 36 09:24 24.04.2020
4289 Clouds 8 989 52 0 0.45 268 08:58 24.04.2020
4290 Clouds 8 989 52 0 0.45 223 08:40 24.04.2020
4291 Clouds 7 989 60 0 0.45 225 08:18 24.04.2020
4292 Clouds 7 989 60 0 1.34 225 07:47 24.04.2020
4293 Clouds 6 989 60 0 0.89 274 07:27 24.04.2020
4294 Clouds 6 989 60 0 0.45 225 06:58 24.04.2020
4295 Clouds 6 989 60 0 0.45 181 06:38 24.04.2020
4296 Clouds 6 989 59 0 0.89 180 05:49 24.04.2020
4297 Clouds 8 989 50 0 1.34 274 04:33 24.04.2020
4298 Clouds 9 989 44 0 0.89 270 03:24 24.04.2020
4299 Clouds 9 989 41 0 0.45 314 02:41 24.04.2020
4300 Clouds 9 989 41 0 0.89 270 02:20 24.04.2020
4301 Clouds 9 994 52 0 0.45 20 01:37 24.04.2020
4302 Clouds 9 994 53 0 3.37 43 00:43 24.04.2020
4303 Clouds 9 1009 37 0 2.14 44 00:18 24.04.2020
4304 Clouds 10 1009 37 0 2.14 44 23:44 23.04.2020
4305 Clouds 10 990 32 0 0.45 90 23:26 23.04.2020
4306 Clouds 10 990 30 0 2.14 44 22:55 23.04.2020
4307 Clouds 11 990 28 0 2.14 44 22:37 23.04.2020
4308 Clouds 11 990 28 0 2.14 44 22:19 23.04.2020
4309 Clouds 12 991 28 0 2.14 44 21:56 23.04.2020
4310 Clear 12 991 26 0 2.4 44 21:38 23.04.2020
4311 Clouds 13 991 24 0 0.64 2 21:20 23.04.2020
4312 Clouds 15 991 20 0 0.64 2 20:54 23.04.2020
4313 Clouds 17 991 20 0 0.64 2 20:36 23.04.2020
4314 Clouds 18 991 15 0 0.64 2 20:18 23.04.2020
4315 Clouds 18 992 15 0 0.64 2 19:41 23.04.2020
4316 Clouds 18 992 15 0 0.64 2 19:22 23.04.2020
4317 Clouds 19 992 20 0 0.89 225 18:58 23.04.2020
4318 Clouds 19 992 15 0 0.45 248 18:39 23.04.2020
4319 Clouds 19 993 15 0 0.89 248 18:21 23.04.2020
4320 Rain 20 993 15 0 0.45 225 17:56 23.04.2020
4321 Rain 20 994 15 0 0.45 225 17:38 23.04.2020
4322 Clouds 19 998 23 0 0.45 250 17:19 23.04.2020
4323 Clouds 20 999 25 0 0.45 360 16:43 23.04.2020
4324 Clouds 20 995 15 0 0.45 269 16:21 23.04.2020
4325 Rain 20 996 15 0 0.45 270 15:43 23.04.2020
4326 Clouds 19 1000 25 0 0.45 96 15:24 23.04.2020
4327 Rain 20 996 20 0 0.45 265 14:59 23.04.2020
4328 Clouds 19 1001 28 0 0.45 72 14:41 23.04.2020
4329 Clouds 19 1002 27 0 0.45 67 14:22 23.04.2020
4330 Clouds 18 1002 28 0 0.52 39 13:58 23.04.2020
4331 Clouds 19 1002 27 0 0.89 68 13:40 23.04.2020
4332 Clouds 19 1002 28 0 0.52 39 13:22 23.04.2020
4333 Clouds 18 1003 31 0 0.45 48 12:57 23.04.2020
4334 Clouds 16 1022 33 10000 2.6 60 12:38 23.04.2020
4335 Clouds 15 1022 35 10000 2.1 40 12:20 23.04.2020
4336 Clouds 15 1004 36 0 0.89 38 11:46 23.04.2020
4337 Clouds 15 1004 37 0 0.89 340 11:27 23.04.2020
4338 Clouds 14 1004 40 0 0.45 17 10:57 23.04.2020
4339 Clouds 13 1005 42 0 0.89 40 10:39 23.04.2020
4340 Clouds 13 1005 42 0 0.89 40 10:19 23.04.2020
4341 Clouds 14 1005 44 0 0.45 84 09:38 23.04.2020
4342 Clouds 10 1024 52 10000 1.5 10 09:18 23.04.2020
4343 Clouds 11 1001 40 0 0.45 270 08:47 23.04.2020
4344 Clouds 10 1001 40 0 0.45 270 08:29 23.04.2020
4345 Clouds 9 1001 41 0 0.45 45 07:47 23.04.2020
4346 Clouds 8 1001 40 0 0.45 45 07:24 23.04.2020
4347 Clouds 8 1001 40 0 0.89 272 06:58 23.04.2020
4348 Clouds 7 1001 40 0 0.45 227 06:40 23.04.2020
4349 Clouds 7 1001 39 0 0.89 270 05:37 23.04.2020
4350 Clouds 7 1001 38 0 0.45 225 05:18 23.04.2020
4351 Clouds 8 1002 45 0 0.45 225 02:48 23.04.2020
4352 Clouds 7 1002 46 0 1.8 359 02:23 23.04.2020
4353 Clouds 8 1002 46 0 1.8 359 01:38 23.04.2020
4354 Clouds 9 1002 43 0 1.8 359 00:51 23.04.2020
4355 Clouds 10 1002 41 0 0.55 17 00:26 23.04.2020
4356 Clouds 10 1003 37 0 0.55 17 23:55 22.04.2020
4357 Clouds 11 1003 35 0 0.45 225 23:27 22.04.2020
4358 Clouds 12 1003 34 0 0.45 225 22:59 22.04.2020
4359 Clouds 12 1003 34 0 0.55 17 22:39 22.04.2020
4360 Clouds 13 1003 33 0 0.55 17 22:20 22.04.2020
4361 Clouds 14 1003 32 0 0.45 225 21:58 22.04.2020
4362 Clear 14 1003 32 0 0.77 23 21:40 22.04.2020
4363 Clear 15 1003 31 0 0.86 189 21:21 22.04.2020
4364 Clear 16 1003 30 0 0.45 225 20:55 22.04.2020
4365 Clear 16 1004 30 0 0.86 189 20:37 22.04.2020
4366 Clear 17 1003 28 0 0.45 225 20:18 22.04.2020
4367 Clear 17 1003 28 0 0.45 225 20:18 22.04.2020
4368 Clear 18 1004 24 0 0.89 268 19:56 22.04.2020
4369 Clear 18 1004 23 0 0.45 268 19:36 22.04.2020
4370 Clear 19 1004 22 0 0.45 161 19:18 22.04.2020
4371 Clear 19 1004 22 0 0.45 161 19:18 22.04.2020
4372 Clear 20 1004 21 0 1.34 139 18:55 22.04.2020
4373 Clear 21 1004 15 0 0.89 225 18:37 22.04.2020
4374 Clear 21 1004 15 0 0.45 270 18:18 22.04.2020
4375 Clear 22 1004 15 0 0.89 270 17:42 22.04.2020
4376 Clear 22 1009 21 0 0.45 52 17:23 22.04.2020
4377 Clear 22 1028 19 10000 3.6 0 16:47 22.04.2020
4378 Clear 22 1026 16 0 1.48 256 16:28 22.04.2020
4379 Clear 22 1027 14 0 1.48 256 15:59 22.04.2020
4380 Clear 22 1029 22 10000 3.1 0 15:38 22.04.2020
4381 Clear 21 1026 14 0 0.45 265 15:19 22.04.2020
4382 Clear 21 1027 14 0 1.65 234 14:56 22.04.2020
4383 Clear 20 1030 24 10000 1.5 0 14:37 22.04.2020
4384 Clouds 21 1012 27 0 0.45 86 14:18 22.04.2020
4385 Clouds 20 1012 28 0 0.45 75 13:43 22.04.2020
4386 Clouds 20 1012 29 0 1.36 243 13:20 22.04.2020
4387 Clouds 19 1013 29 0 0.89 75 12:44 22.04.2020
4388 Clear 17 1031 26 10000 2.1 180 12:24 22.04.2020
4389 Clear 16 1031 28 10000 1.5 170 11:58 22.04.2020
4390 Clear 16 1013 33 0 0.71 28 11:39 22.04.2020
4391 Clear 16 1013 33 0 0.71 28 11:39 22.04.2020
4392 Clear 15 1032 33 10000 2.1 150 11:20 22.04.2020
4393 Clear 17 1031 26 0 0.71 28 10:45 22.04.2020
4394 Clear 15 1031 27 0 0.71 28 10:25 22.04.2020
4395 Clear 14 1031 29 0 0.71 28 09:56 22.04.2020
4396 Clear 13 1032 46 10000 2.1 20 09:37 22.04.2020
4397 Clouds 9 1033 56 10000 2.1 340 09:19 22.04.2020
4398 Clouds 10 1009 34 0 0.45 270 08:42 22.04.2020
4399 Clouds 10 1010 34 0 0.45 248 08:23 22.04.2020
4400 Clouds 10 1009 35 0 0.45 225 08:23 22.04.2020
4401 Clouds 9 1010 35 0 0.45 225 07:58 22.04.2020
4402 Clouds 8 1010 36 0 1.59 357 07:39 22.04.2020
4403 Clouds 7 1009 34 0 1.59 357 07:19 22.04.2020
4404 Clouds 6 1009 40 0 1.59 357 06:42 22.04.2020
4405 Clouds 6 1010 43 0 1.94 354 05:45 22.04.2020
4406 Clouds 7 1009 42 0 1.94 354 04:59 22.04.2020
4407 Clouds 6 1014 55 0 1.94 354 03:54 22.04.2020
4408 Clear 7 1014 57 0 1.79 354 02:35 22.04.2020
4409 Clear 9 1031 45 0 1.86 353 01:41 22.04.2020
4410 Clear 9 1031 45 0 1.86 353 01:23 22.04.2020
4411 Clear 9 1014 55 0 1.86 353 00:41 22.04.2020
4412 Clear 10 1031 40 0 1.61 359 00:20 22.04.2020
4413 Clear 11 1030 39 0 1.61 359 23:45 21.04.2020
4414 Clear 11 1009 28 0 1.61 359 23:23 21.04.2020
4415 Clear 12 1009 26 0 1.61 359 22:58 21.04.2020
4416 Clear 12 1009 24 0 1.61 359 22:39 21.04.2020
4417 Clear 13 1009 24 0 1.61 359 22:20 21.04.2020
4418 Clear 13 1009 24 0 0.45 225 21:57 21.04.2020
4419 Clear 14 1009 26 0 1.61 359 21:39 21.04.2020
4420 Clear 13 1013 46 0 1.6 3 21:39 21.04.2020
4421 Clear 15 1009 30 0 0.57 327 21:21 21.04.2020
4422 Clear 17 1009 25 0 0.57 327 20:41 21.04.2020
4423 Clear 18 1008 24 0 0.57 327 20:23 21.04.2020
4424 Clear 18 1008 23 0 0.57 327 19:58 21.04.2020
4425 Clear 19 1008 23 0 0.57 327 19:38 21.04.2020
4426 Clear 19 1008 23 0 0.57 327 19:19 21.04.2020
4427 Clear 20 1009 22 0 0.57 327 18:55 21.04.2020
4428 Clear 20 1009 22 0 0.6 280 18:37 21.04.2020
4429 Clear 20 1008 22 0 0.45 225 18:37 21.04.2020
4430 Clear 20 1008 22 0 0.45 225 18:18 21.04.2020
4431 Clear 22 1009 20 0 0.45 180 17:40 21.04.2020
4432 Clear 22 1013 29 0 0.45 49 17:20 21.04.2020
4433 Clear 22 1014 29 0 0.5 306 16:58 21.04.2020
4434 Clear 21 1030 22 0 0.5 306 16:37 21.04.2020
4435 Clear 21 1031 22 0 0.5 306 16:18 21.04.2020
4436 Clear 21 1031 22 0 0.5 306 15:55 21.04.2020
4437 Clear 21 1031 22 0 0.45 255 15:37 21.04.2020
4438 Clear 21 1031 22 0 0.45 255 15:37 21.04.2020
4439 Clear 20 1031 22 0 0.54 246 15:19 21.04.2020
4440 Clear 21 1031 20 0 0.24 258 14:45 21.04.2020
4441 Clear 20 1015 32 0 0.45 59 14:24 21.04.2020
4442 Clear 20 1032 22 0 0.24 258 13:57 21.04.2020
4443 Clear 20 1015 33 0 0.24 258 13:38 21.04.2020
4444 Clear 19 1032 22 0 0.24 258 13:18 21.04.2020
4445 Clear 18 1033 23 0 0.24 258 12:39 21.04.2020
4446 Clear 16 1034 43 10000 1.5 0 12:20 21.04.2020
4447 Clear 16 1016 40 0 0.55 28 11:58 21.04.2020
4448 Clear 15 1016 41 0 0.89 126 11:39 21.04.2020
4449 Clear 14 1034 43 10000 1 0 11:39 21.04.2020
4450 Clear 15 1016 42 0 0.89 115 11:19 21.04.2020
4451 Clear 14 1016 44 0 0.55 28 10:59 21.04.2020
4452 Clear 14 1016 42 0 0.45 62 10:40 21.04.2020
4453 Clear 14 1016 44 0 0.55 28 10:22 21.04.2020
4454 Clear 13 1016 46 0 0.55 28 09:59 21.04.2020
4455 Clear 12 1034 45 10000 2.6 30 09:37 21.04.2020
4456 Clear 10 1011 44 0 1.32 17 09:18 21.04.2020
4457 Clear 10 1011 44 0 0.45 248 08:46 21.04.2020
4458 Clear 10 1011 42 0 0.45 269 08:27 21.04.2020
4459 Clear 9 1011 40 0 0.45 270 07:55 21.04.2020
4460 Clear 8 1011 40 0 0.45 225 07:36 21.04.2020
4461 Clear 8 1011 34 0 0.45 45 07:18 21.04.2020
4462 Clear 7 1011 38 0 0.45 248 06:42 21.04.2020
4463 Clear 6 1033 52 0 1.59 2 05:51 21.04.2020
4464 Clear 6 1033 52 0 1.59 2 05:32 21.04.2020
4465 Clear 7 1032 49 0 1.59 2 03:48 21.04.2020
4466 Clear 8 1031 46 0 2.01 12 02:47 21.04.2020
4467 Clear 8 1031 44 0 2.01 12 01:33 21.04.2020
4468 Clear 9 1031 43 0 2.01 12 00:47 21.04.2020
4469 Clear 10 1030 42 0 1.84 14 00:23 21.04.2020
4470 Clear 11 1030 40 0 1.84 14 23:44 20.04.2020
4471 Clear 11 1030 39 0 1.84 14 23:23 20.04.2020
4472 Clear 10 1029 38 0 1.84 14 22:57 20.04.2020
4473 Clear 10 1013 48 0 1.84 14 22:37 20.04.2020
4474 Clear 12 1008 31 0 1.84 14 22:19 20.04.2020
4475 Clear 12 1008 31 0 1.84 14 22:18 20.04.2020
4476 Clear 12 1008 31 0 1.84 14 21:55 20.04.2020
4477 Clear 13 1008 31 0 1.35 37 21:36 20.04.2020
4478 Clear 13 1008 31 0 1.26 42 21:18 20.04.2020
4479 Clear 14 1007 30 0 1.26 42 20:55 20.04.2020
4480 Clear 15 1012 43 0 1.26 42 20:36 20.04.2020
4481 Clear 16 1007 22 0 0.45 90 20:18 20.04.2020
4482 Clear 17 1007 21 0 0.45 90 19:41 20.04.2020
4483 Rain 18 1007 21 0 0.45 90 19:23 20.04.2020
4484 Rain 19 1006 31 0 0.45 270 18:59 20.04.2020
4485 Rain 19 1006 20 0 0.45 90 18:40 20.04.2020
4486 Clear 19 1006 20 0 1.79 27 18:20 20.04.2020
4487 Clear 20 1006 22 0 1.79 27 17:54 20.04.2020
4488 Clear 19 1029 23 10000 3.1 350 17:36 20.04.2020
4489 Clear 19 1029 23 10000 4.1 30 17:18 20.04.2020
4490 Clear 19 1029 23 10000 4.1 40 16:43 20.04.2020
4491 Clear 19 1011 31 0 1.79 27 16:20 20.04.2020
4492 Clear 19 1027 24 0 0.45 239 15:56 20.04.2020
4493 Clear 19 1012 33 0 0.45 73 15:38 20.04.2020
4494 Clear 18 1028 24 0 0.45 242 15:20 20.04.2020
4495 Clear 17 1012 35 0 0.45 140 14:42 20.04.2020
4496 Clear 17 1012 36 0 1.34 184 14:20 20.04.2020
4497 Clear 17 1012 37 0 0.89 117 13:58 20.04.2020
4498 Clear 17 1012 38 0 1.56 23 13:39 20.04.2020
4499 Clear 18 1029 24 0 1.56 23 13:20 20.04.2020
4500 Clear 17 1029 26 0 1.56 23 12:44 20.04.2020
4501 Clear 15 1012 40 0 0.45 78 12:24 20.04.2020
4502 Clear 14 1013 42 0 0.45 80 11:58 20.04.2020
4503 Clear 14 1013 44 0 1.16 7 11:38 20.04.2020
4504 Clear 13 1013 44 0 0.45 38 11:20 20.04.2020
4505 Clear 12 1013 46 0 1.16 7 10:55 20.04.2020
4506 Clear 14 1013 45 0 1.16 7 10:37 20.04.2020
4507 Clear 14 1013 45 0 1.16 7 10:37 20.04.2020
4508 Clear 13 1031 34 0 1.16 7 10:18 20.04.2020
4509 Clear 12 1031 35 0 1.16 7 09:44 20.04.2020
4510 Clear 9 1013 51 0 1.32 12 09:26 20.04.2020
4511 Clear 9 1008 52 0 0.45 315 08:59 20.04.2020
4512 Clear 8 1008 52 0 0.45 315 08:40 20.04.2020
4513 Clear 8 1008 53 0 0.45 315 08:19 20.04.2020
4514 Clear 8 1008 53 0 0.45 315 08:19 20.04.2020
4515 Clear 7 1008 59 0 0.45 315 07:52 20.04.2020
4516 Clear 6 1008 57 0 0.45 315 07:28 20.04.2020
4517 Clear 5 1008 59 0 1.32 12 06:54 20.04.2020
4518 Clear 5 1008 58 0 1.5 8 06:35 20.04.2020
4519 Clear 5 1007 56 0 0.45 180 05:25 20.04.2020
4520 Clear 7 1007 49 0 0.45 180 03:36 20.04.2020
4521 Clear 7 1007 46 0 0.45 225 02:42 20.04.2020
4522 Clear 9 1006 42 0 0.45 271 01:32 20.04.2020
4523 Clear 8 1005 41 0 0.45 273 00:58 20.04.2020
4524 Clear 7 1010 53 0 1.5 12 00:33 20.04.2020
4525 Clear 7 1026 47 0 1.44 12 23:55 19.04.2020
4526 Clear 8 1010 54 0 1.44 12 23:37 19.04.2020
4527 Clear 9 1005 38 0 0.45 226 23:18 19.04.2020
4528 Clear 8 1025 41 0 1.44 12 22:39 19.04.2020
4529 Clear 10 1004 35 0 1.44 12 22:21 19.04.2020
4530 Clear 10 1004 35 0 1.44 12 21:56 19.04.2020
4531 Clear 10 1009 49 0 1.44 12 21:37 19.04.2020
4532 Clear 11 1004 31 0 0.72 11 21:18 19.04.2020
4533 Clear 13 1003 30 0 0.72 11 20:41 19.04.2020
4534 Clear 14 1003 30 0 0.45 248 20:21 19.04.2020
4535 Clear 14 1003 28 0 0.72 11 19:59 19.04.2020
4536 Clear 15 1003 28 0 0.45 135 19:41 19.04.2020
4537 Clear 15 1002 28 0 0.45 135 19:22 19.04.2020
4538 Clear 16 1003 28 0 0.72 11 18:58 19.04.2020
4539 Clear 16 1002 28 0 0.72 11 18:39 19.04.2020
4540 Clear 17 1003 26 0 1.16 336 18:20 19.04.2020
4541 Clear 17 1003 26 0 1.16 336 17:57 19.04.2020
4542 Clear 17 1008 34 0 1.16 336 17:38 19.04.2020
4543 Clear 17 1008 34 0 1.16 336 17:20 19.04.2020
4544 Clear 17 1008 34 0 1.16 336 16:57 19.04.2020
4545 Clear 17 1008 34 0 0.45 130 16:38 19.04.2020
4546 Clear 16 1023 26 0 1.16 336 16:19 19.04.2020
4547 Clear 17 1025 26 0 1.16 336 15:43 19.04.2020
4548 Clouds 16 1025 26 0 0.45 220 15:22 19.04.2020
4549 Clouds 15 1009 38 0 0.89 77 14:55 19.04.2020
4550 Clouds 15 1009 39 0 0.89 137 14:37 19.04.2020
4551 Clouds 14 1009 42 0 1.69 330 14:18 19.04.2020
4552 Clouds 13 1009 45 0 0.45 93 13:40 19.04.2020
4553 Clouds 13 1009 45 0 0.45 93 13:21 19.04.2020
4554 Clouds 12 1010 45 0 0.45 76 12:50 19.04.2020
4555 Clouds 12 1010 46 0 0.45 217 12:25 19.04.2020
4556 Clouds 12 1010 46 0 0.45 128 11:59 19.04.2020
4557 Clouds 11 1010 48 0 0.89 48 11:37 19.04.2020
4558 Clouds 11 1010 48 0 0.89 48 11:19 19.04.2020
4559 Clouds 11 1010 48 0 0.45 90 10:58 19.04.2020
4560 Clouds 11 1010 48 0 0.45 90 10:39 19.04.2020
4561 Clouds 9 1010 50 0 1.22 346 10:19 19.04.2020
4562 Clouds 10 1027 37 0 1.22 346 09:46 19.04.2020
4563 Clear 8 1010 47 0 1.17 342 09:28 19.04.2020
4564 Clear 6 1005 62 0 0.45 270 08:42 19.04.2020
4565 Clear 6 1005 62 0 1.17 342 08:24 19.04.2020
4566 Clear 5 1004 63 0 1.26 343 07:59 19.04.2020
4567 Clear 4 1004 62 0 1.26 343 07:41 19.04.2020
4568 Clear 4 1004 61 0 1.26 343 07:23 19.04.2020
4569 Clear 4 1004 61 0 1.17 342 07:23 19.04.2020
4570 Clear 2 1004 63 0 1.73 342 06:30 19.04.2020
4571 Clear 2 1004 63 0 1.57 340 05:56 19.04.2020
4572 Clear 3 1004 62 0 1.57 340 04:48 19.04.2020
4573 Clear 4 1003 60 0 0.45 270 02:59 19.04.2020
4574 Clear 4 1003 60 0 0.45 270 02:21 19.04.2020
4575 Clear 4 1003 56 0 1.95 341 01:39 19.04.2020
4576 Clear 5 1002 54 0 0.45 270 00:50 19.04.2020
4577 Clear 5 1002 53 0 2.04 355 00:26 19.04.2020
4578 Clear 5 1002 52 0 0.45 270 23:56 18.04.2020
4579 Clear 6 1002 51 0 0.45 270 23:36 18.04.2020
4580 Clear 6 1001 50 0 2.04 355 23:18 18.04.2020
4581 Clear 6 1023 37 0 2.04 355 22:42 18.04.2020
4582 Clear 7 1001 41 0 2.04 355 22:21 18.04.2020
4583 Clear 7 1001 40 0 2.04 355 21:57 18.04.2020
4584 Clear 7 1001 40 0 2.03 360 21:38 18.04.2020
4585 Clear 8 1001 38 0 2.33 10 21:20 18.04.2020
4586 Clear 9 1000 35 0 0.45 270 20:42 18.04.2020
4587 Clear 10 1000 34 0 0.89 228 20:23 18.04.2020
4588 Clear 10 1000 33 0 0.45 226 19:59 18.04.2020
4589 Clear 11 1000 33 0 0.45 270 19:39 18.04.2020
4590 Clear 11 1000 32 0 0.45 270 19:21 18.04.2020
4591 Clear 12 1000 31 0 0.45 292 18:39 18.04.2020
4592 Clear 12 1000 31 0 0.45 270 18:20 18.04.2020
4593 Clear 12 1005 36 0 0.45 350 17:56 18.04.2020
4594 Clear 13 1005 34 0 0.89 5 17:38 18.04.2020
4595 Clear 13 1005 34 0 0.89 5 17:18 18.04.2020
4596 Clear 12 1005 35 0 0.89 51 16:42 18.04.2020
4597 Clear 13 1005 33 0 1.79 360 16:22 18.04.2020
4598 Clear 12 1005 36 0 3.17 359 15:55 18.04.2020
4599 Clear 12 1005 35 0 0.89 348 15:37 18.04.2020
4600 Clear 12 1005 35 0 0.45 5 15:18 18.04.2020
4601 Clear 11 1005 35 0 1.34 9 14:41 18.04.2020
4602 Clear 12 1005 36 0 0.45 119 14:19 18.04.2020
4603 Clear 11 1006 34 0 0.45 136 13:43 18.04.2020
4604 Clear 11 1006 34 0 0.45 23 13:20 18.04.2020
4605 Clear 9 1006 37 0 0.45 57 12:43 18.04.2020
4606 Clouds 10 1006 36 0 0.89 21 12:25 18.04.2020
4607 Clouds 9 1006 38 0 0.89 355 11:58 18.04.2020
4608 Clouds 9 1006 39 0 1.54 320 11:40 18.04.2020
4609 Clouds 8 1007 41 0 0.45 18 11:21 18.04.2020
4610 Clouds 8 1007 41 0 0.45 18 11:21 18.04.2020
4611 Clouds 8 1007 42 0 0.89 21 10:42 18.04.2020
4612 Clouds 7 1007 43 0 0.89 53 10:22 18.04.2020
4613 Clouds 8 1023 33 0 1.54 320 09:59 18.04.2020
4614 Clouds 6 1007 48 0 0.59 323 09:40 18.04.2020
4615 Clouds 6 1007 48 0 0.59 323 09:20 18.04.2020
4616 Clouds 5 1002 45 0 0.45 68 08:43 18.04.2020
4617 Clouds 4 1001 48 0 0.59 323 08:22 18.04.2020
4618 Clouds 3 1001 50 0 0.59 323 07:48 18.04.2020
4619 Clouds 3 1001 50 0 0.59 323 07:28 18.04.2020
4620 Clouds 2 1001 51 0 0.59 323 06:42 18.04.2020
4621 Clouds 1 1001 51 0 0.51 7 05:49 18.04.2020
4622 Clouds 1 1001 51 0 0.51 7 04:55 18.04.2020
4623 Clouds 1 1001 51 0 0.45 68 04:31 18.04.2020
4624 Clouds 2 1001 50 0 0.45 68 03:33 18.04.2020
4625 Clear 2 1000 50 0 0.45 68 02:40 18.04.2020
4626 Clear 2 1000 50 0 0.97 346 02:21 18.04.2020
4627 Clear 3 1000 50 0 0.45 45 01:45 18.04.2020
4628 Clear 3 1000 50 0 0.45 45 01:22 18.04.2020
4629 Clear 4 1000 47 0 0.45 112 00:24 18.04.2020
4630 Clear 4 1000 47 0 0.45 112 00:24 18.04.2020
4631 Clear 4 1000 46 0 1.95 45 23:59 17.04.2020
4632 Clear 4 999 45 0 1.95 45 23:40 17.04.2020
4633 Clear 5 999 44 0 0.45 270 23:20 17.04.2020
4634 Clear 5 999 43 0 0.45 270 22:58 17.04.2020
4635 Clear 5 999 42 0 0.45 270 22:40 17.04.2020
4636 Clear 6 999 41 0 0.45 270 22:20 17.04.2020
4637 Clear 6 999 40 0 0.45 270 21:58 17.04.2020
4638 Clear 7 999 40 0 0.45 315 21:39 17.04.2020
4639 Clear 7 999 31 0 1.82 33 21:19 17.04.2020
4640 Clear 8 998 30 0 0.45 225 20:55 17.04.2020
4641 Clear 8 998 30 0 0.45 270 20:36 17.04.2020
4642 Clear 9 998 26 0 1.34 315 20:18 17.04.2020
4643 Clear 10 998 23 0 0.45 225 19:44 17.04.2020
4644 Clear 10 998 23 0 0.89 270 19:24 17.04.2020
4645 Clear 11 998 23 0 0.89 270 18:47 17.04.2020
4646 Clear 11 997 23 0 1.34 268 18:25 17.04.2020
4647 Clear 12 1002 29 0 0.45 336 17:59 17.04.2020
4648 Clear 12 1002 28 0 0.89 328 17:37 17.04.2020
4649 Clear 12 1002 29 0 0.45 323 17:19 17.04.2020
4650 Clear 12 1002 29 0 0.45 323 17:19 17.04.2020
4651 Clear 12 1002 29 0 1.34 44 16:44 17.04.2020
4652 Clear 12 1002 30 0 0.45 346 16:23 17.04.2020
4653 Clear 11 1002 29 0 0.45 40 15:58 17.04.2020
4654 Clear 11 1002 30 0 2.19 1 15:38 17.04.2020
4655 Clouds 11 1003 30 0 0.89 47 15:19 17.04.2020
4656 Clouds 10 1003 32 0 1.79 22 14:41 17.04.2020
4657 Clouds 10 1003 32 0 1.79 22 14:41 17.04.2020
4658 Clouds 10 1003 32 0 1.79 22 14:41 17.04.2020
4659 Clouds 10 1003 32 0 1.79 22 14:22 17.04.2020
4660 Clouds 9 1003 33 0 1.34 11 13:58 17.04.2020
4661 Clouds 10 1003 33 0 0.89 251 13:37 17.04.2020
4662 Clouds 9 1020 26 10000 5.7 10 13:19 17.04.2020
4663 Clouds 9 1020 26 10000 5.7 10 12:48 17.04.2020
4664 Clouds 8 1020 30 10000 6.2 350 12:26 17.04.2020
4665 Clouds 8 1020 30 10000 6.2 350 11:58 17.04.2020
4666 Clouds 8 1021 33 10000 8.2 10 11:37 17.04.2020
4667 Clouds 7 1022 33 10000 4.1 10 11:18 17.04.2020
4668 Clouds 6 1020 32 10000 5.1 350 10:39 17.04.2020
4669 Clouds 6 1020 35 10000 4.1 360 10:19 17.04.2020
4670 Clouds 6 1020 41 10000 2.6 10 09:55 17.04.2020
4671 Clouds 4 1020 41 10000 2.6 10 09:36 17.04.2020
4672 Clear 4 1020 38 10000 2.1 320 09:18 17.04.2020
4673 Clear 3 1020 44 10000 2.1 70 08:45 17.04.2020
4674 Clear 2 1020 44 10000 2.1 70 08:25 17.04.2020
4675 Clear 1 1019 47 10000 1.5 0 07:44 17.04.2020
4676 Clear 0 1019 47 10000 1.5 0 07:25 17.04.2020
4677 Clear -1 1019 50 10000 2.6 280 06:57 17.04.2020
4678 Clear -1 1019 50 10000 2.6 310 06:28 17.04.2020
4679 Clear -1 1018 47 10000 2.1 280 05:42 17.04.2020
4680 Clear 1 1018 43 10000 2.1 290 03:22 17.04.2020
4681 Clear 1 1017 43 10000 2.1 260 02:49 17.04.2020
4682 Clear 2 1017 44 10000 2.6 310 01:30 17.04.2020
4683 Clear 3 1017 40 10000 3.1 340 00:59 17.04.2020
4684 Clear 4 1016 38 10000 5.7 350 00:20 17.04.2020
4685 Clear 4 1016 38 10000 5.7 350 23:46 16.04.2020
4686 Clear 4 1015 38 10000 4.6 350 23:23 16.04.2020
4687 Clear 4 1015 38 10000 3.1 330 22:59 16.04.2020
4688 Clear 5 1015 38 10000 2.1 340 22:39 16.04.2020
4689 Clear 5 1015 38 10000 2.1 340 22:39 16.04.2020
4690 Clear 5 1015 38 10000 2.1 340 22:20 16.04.2020
4691 Clear 6 1014 35 10000 3.6 360 21:57 16.04.2020
4692 Clear 6 1014 35 10000 3.6 360 21:38 16.04.2020
4693 Clouds 7 1014 35 10000 4.6 10 21:18 16.04.2020
4694 Clouds 8 1013 30 10000 6.7 360 20:41 16.04.2020
4695 Clouds 8 1013 28 10000 5.7 360 20:22 16.04.2020
4696 Clouds 9 1013 28 10000 5.7 360 19:57 16.04.2020
4697 Clouds 9 1013 26 10000 6.7 350 19:38 16.04.2020
4698 Clouds 10 1013 26 10000 6.7 350 19:19 16.04.2020
4699 Clouds 10 1012 29 10000 6.7 360 18:46 16.04.2020
4700 Clouds 10 1012 29 10000 6.7 360 18:27 16.04.2020
4701 Clouds 11 1012 27 10000 7.7 360 17:59 16.04.2020
4702 Clouds 10 1011 33 10000 6.7 360 17:40 16.04.2020
4703 Clouds 10 1011 33 10000 6.7 360 17:21 16.04.2020
4704 Clouds 10 1011 27 10000 5.1 10 16:45 16.04.2020
4705 Clouds 10 1011 27 10000 5.1 40 16:45 16.04.2020
4706 Clouds 10 1011 27 10000 5.1 10 16:26 16.04.2020
4707 Clouds 10 1011 27 10000 5.1 10 16:26 16.04.2020
4708 Clouds 10 1011 29 10000 5.7 10 15:58 16.04.2020
4709 Clouds 11 1010 27 10000 3.1 0 15:39 16.04.2020
4710 Clouds 11 1010 27 10000 3.1 0 15:19 16.04.2020
4711 Clouds 10 1010 27 10000 4.1 310 14:55 16.04.2020
4712 Clouds 10 1010 29 10000 3.6 0 14:37 16.04.2020
4713 Clouds 10 1010 29 10000 3.6 0 14:18 16.04.2020
4714 Clouds 10 1010 29 10000 4.1 320 13:41 16.04.2020
4715 Clouds 10 1010 27 10000 3.6 340 13:23 16.04.2020
4716 Clouds 10 1010 24 10000 5.1 340 12:58 16.04.2020
4717 Clouds 10 1009 26 10000 3.6 320 12:39 16.04.2020
4718 Clouds 10 1009 26 10000 3.6 320 12:39 16.04.2020
4719 Clear 9 1009 26 10000 3.6 320 12:20 16.04.2020
4720 Clear 10 1009 26 10000 4.1 350 11:59 16.04.2020
4721 Clear 9 1009 31 10000 4.6 280 11:40 16.04.2020
4722 Clear 9 1009 31 10000 4.6 280 11:21 16.04.2020
4723 Clear 9 1009 30 10000 4.1 290 10:55 16.04.2020
4724 Clear 9 1009 30 10000 3.6 320 10:37 16.04.2020
4725 Clear 8 1009 30 10000 3.6 320 10:18 16.04.2020
4726 Clear 7 1008 35 10000 4.1 320 09:39 16.04.2020
4727 Clear 6 1008 35 10000 4.1 320 09:21 16.04.2020
4728 Clear 6 1008 38 10000 3.6 310 09:00 16.04.2020
4729 Clear 6 1008 38 10000 3.6 310 08:41 16.04.2020
4730 Clear 5 1008 44 10000 2.6 280 08:21 16.04.2020
4731 Clear 5 1007 44 10000 2.6 250 07:46 16.04.2020
4732 Clear 4 1007 47 10000 1 0 07:26 16.04.2020
4733 Clear 5 1005 44 10000 3.1 310 06:43 16.04.2020
4734 Clear 5 1005 44 10000 3.1 310 06:24 16.04.2020
4735 Clear 5 1004 44 10000 4.6 310 05:30 16.04.2020
4736 Clear 7 1001 41 10000 4.6 310 03:49 16.04.2020
4737 Clear 7 1001 42 10000 4.6 0 03:23 16.04.2020
4738 Clear 7 1000 48 10000 3.1 300 02:47 16.04.2020
4739 Clear 8 1000 52 10000 2.6 280 02:26 16.04.2020
4740 Clear 8 999 49 10000 4.6 0 01:18 16.04.2020
4741 Clear 8 999 49 10000 4.6 0 01:18 16.04.2020
4742 Clear 9 998 46 10000 3.6 260 00:27 16.04.2020
4743 Clear 9 998 46 10000 4.6 240 23:57 15.04.2020
4744 Clear 9 997 49 10000 5.1 230 23:39 15.04.2020
4745 Clear 9 997 49 10000 5.1 230 23:20 15.04.2020
4746 Clear 9 997 49 10000 4.6 220 22:40 15.04.2020
4747 Clear 10 997 46 10000 3.6 230 22:22 15.04.2020
4748 Clear 10 998 46 10000 4.6 240 21:59 15.04.2020
4749 Clouds 11 998 43 10000 3.6 250 21:40 15.04.2020
4750 Clouds 11 998 43 10000 3.6 250 21:22 15.04.2020
4751 Clouds 12 998 40 10000 3.6 240 20:57 15.04.2020
4752 Clouds 12 998 40 10000 5.1 230 20:39 15.04.2020
4753 Clouds 12 998 40 10000 5.1 230 20:21 15.04.2020
4754 Clouds 13 999 33 10000 6.7 240 19:45 15.04.2020
4755 Clouds 14 999 33 10000 6.7 240 19:21 15.04.2020
4756 Clouds 14 999 33 10000 6.7 220 18:56 15.04.2020
4757 Clouds 15 999 33 10000 4.6 240 18:37 15.04.2020
4758 Clouds 15 999 30 10000 4.6 240 18:19 15.04.2020
4759 Clouds 16 999 26 10000 5.1 260 17:40 15.04.2020
4760 Clouds 16 999 26 10000 5.1 260 17:21 15.04.2020
4761 Clouds 16 1000 25 10000 6.7 260 16:58 15.04.2020
4762 Clouds 17 1000 40 10000 5.7 240 16:39 15.04.2020
4763 Clouds 17 1000 40 10000 5.7 240 16:20 15.04.2020
4764 Clouds 17 1001 40 10000 5.1 250 15:59 15.04.2020
4765 Clouds 17 1001 40 10000 5.1 250 15:40 15.04.2020
4766 Clouds 17 1001 43 10000 4.6 260 15:20 15.04.2020
4767 Clouds 17 1001 33 10000 5.7 250 14:59 15.04.2020
4768 Clouds 17 1001 41 10000 5.1 240 14:40 15.04.2020
4769 Clouds 17 1001 41 10000 5.1 240 14:22 15.04.2020
4770 Clouds 17 1002 41 10000 6.2 220 13:58 15.04.2020
4771 Clouds 16 1002 41 10000 8.7 190 13:39 15.04.2020
4772 Clouds 16 1002 41 10000 8.7 190 13:21 15.04.2020
4773 Clouds 16 1003 44 10000 7.2 200 12:57 15.04.2020
4774 Clouds 15 1004 41 10000 6.2 210 12:39 15.04.2020
4775 Clouds 15 1004 41 10000 6.2 210 12:21 15.04.2020
4776 Clouds 14 1004 46 10000 7.2 210 11:45 15.04.2020
4777 Clouds 13 1005 46 10000 6.2 200 11:25 15.04.2020
4778 Clouds 13 1004 46 10000 4.1 210 10:59 15.04.2020
4779 Clouds 12 1005 50 10000 3.6 220 10:37 15.04.2020
4780 Clouds 11 1005 50 10000 3.6 220 10:19 15.04.2020
4781 Clouds 10 1005 50 10000 4.1 210 09:55 15.04.2020
4782 Clouds 9 1005 69 10000 2.1 210 09:37 15.04.2020
4783 Clouds 8 1005 69 10000 2.1 210 09:19 15.04.2020
4784 Clouds 7 1005 60 10000 1.5 250 08:41 15.04.2020
4785 Clouds 7 1005 60 10000 1.5 250 08:21 15.04.2020
4786 Clouds 6 1005 65 10000 1.5 280 07:57 15.04.2020
4787 Clouds 6 1005 69 10000 1 0 07:38 15.04.2020
4788 Clouds 5 1005 60 10000 1.5 20 06:49 15.04.2020
4789 Clouds 5 1004 60 10000 1 0 06:24 15.04.2020
4790 Clouds 5 1004 60 10000 2.1 230 05:22 15.04.2020
4791 Clouds 6 1004 56 10000 1.5 230 04:46 15.04.2020
4792 Clouds 6 1004 56 10000 4.6 230 03:55 15.04.2020
4793 Clouds 6 1005 56 10000 3.1 220 03:20 15.04.2020
4794 Clouds 6 1005 56 10000 2.1 260 02:39 15.04.2020
4795 Clouds 6 1005 56 10000 1.5 0 01:50 15.04.2020
4796 Clouds 6 1005 56 10000 1.5 0 01:22 15.04.2020
4797 Clouds 6 1005 56 10000 3.6 220 00:39 15.04.2020
4798 Clouds 6 1005 60 10000 1.5 0 00:20 15.04.2020
4799 Clouds 6 1006 60 10000 3.1 170 23:55 14.04.2020
4800 Clouds 6 1006 60 10000 3.1 170 23:37 14.04.2020
4801 Clouds 6 1006 60 10000 3.1 190 23:18 14.04.2020
4802 Clouds 6 1006 60 10000 4.6 200 22:56 14.04.2020
4803 Clouds 6 1007 65 10000 3.6 200 22:38 14.04.2020
4804 Clouds 6 1007 65 10000 3.6 200 22:19 14.04.2020
4805 Clouds 6 1007 66 10000 4.6 190 21:55 14.04.2020
4806 Clouds 5 1007 66 10000 4.6 190 21:37 14.04.2020
4807 Clouds 5 1007 66 10000 4.6 180 21:37 14.04.2020
4808 Clouds 5 1007 61 10000 4.6 180 21:18 14.04.2020
4809 Clouds 5 1008 61 10000 4.1 160 20:41 14.04.2020
4810 Clouds 5 1008 61 10000 4.1 170 20:23 14.04.2020
4811 Clouds 5 1009 61 10000 4.1 170 19:59 14.04.2020
4812 Clouds 5 1009 61 10000 5.1 180 19:40 14.04.2020
4813 Clouds 5 1009 61 10000 5.1 180 19:21 14.04.2020
4814 Clouds 5 1009 61 10000 5.1 180 18:57 14.04.2020
4815 Clouds 5 1010 53 10000 5.1 180 18:38 14.04.2020
4816 Clouds 5 1010 53 10000 5.1 180 18:19 14.04.2020
4817 Rain 5 1010 49 10000 6.2 200 17:56 14.04.2020
4818 Rain 6 1011 49 10000 5.7 190 17:37 14.04.2020
4819 Rain 6 1011 53 10000 5.7 190 17:37 14.04.2020
4820 Rain 6 1011 53 10000 5.7 190 17:37 14.04.2020
4821 Rain 6 1011 49 10000 5.7 190 17:19 14.04.2020
4822 Rain 6 1011 65 10000 5.1 200 16:42 14.04.2020
4823 Clouds 6 1011 65 10000 4.1 220 16:24 14.04.2020
4824 Clouds 6 1011 65 10000 3.6 200 15:58 14.04.2020
4825 Rain 6 1012 49 10000 4.1 210 15:39 14.04.2020
4826 Rain 7 1012 48 10000 4.1 210 15:21 14.04.2020
4827 Rain 7 1015 48 10000 7.7 280 14:58 14.04.2020
4828 Clouds 6 1013 69 10000 2.6 240 14:40 14.04.2020
4829 Clouds 6 1013 69 10000 2.6 240 14:21 14.04.2020
4830 Drizzle 6 1013 65 10000 2.1 0 13:56 14.04.2020
4831 Clouds 7 1013 45 10000 2.1 0 13:38 14.04.2020
4832 Clouds 7 1013 45 10000 2.1 0 13:20 14.04.2020
4833 Clouds 8 1016 39 10000 3.6 240 12:42 14.04.2020
4834 Clouds 7 1014 41 10000 2.6 210 12:21 14.04.2020
4835 Clouds 6 1014 41 10000 3.6 190 11:55 14.04.2020
4836 Clouds 6 1014 41 10000 3.6 190 11:37 14.04.2020
4837 Clouds 5 1014 41 10000 1.5 200 11:18 14.04.2020
4838 Clouds 4 1014 41 10000 1.5 230 10:44 14.04.2020
4839 Clouds 4 1014 40 10000 1.5 190 10:24 14.04.2020
4840 Clouds 3 1014 43 10000 1.5 210 09:55 14.04.2020
4841 Clouds 3 1017 47 10000 3.1 240 09:37 14.04.2020
4842 Clouds 2 1017 47 10000 3.1 240 09:18 14.04.2020
4843 Clouds 1 1014 77 10000 3.6 180 08:41 14.04.2020
4844 Clouds 1 1014 40 10000 1 0 08:22 14.04.2020
4845 Clouds 0 1015 77 10000 2.1 160 07:54 14.04.2020
4846 Clouds -1 1015 54 10000 1.5 230 07:30 14.04.2020
4847 Clouds -1 1015 54 10000 1.5 230 07:30 14.04.2020
4848 Clouds -1 1015 50 10000 2.1 250 06:49 14.04.2020
4849 Clouds -1 1015 50 10000 1 0 06:18 14.04.2020
4850 Clouds 0 1016 83 10000 2.6 280 03:52 14.04.2020
4851 Clear -1 1016 54 10000 1.5 290 02:56 14.04.2020
4852 Clear 0 1015 84 10000 4.1 310 01:46 14.04.2020
4853 Clear 1 1015 84 10000 4.6 320 01:24 14.04.2020
4854 Clear 1 1015 37 10000 5.7 330 00:38 14.04.2020
4855 Clear 1 1015 40 10000 5.1 340 00:18 14.04.2020
4856 Clear 1 1015 40 10000 4.6 320 23:44 13.04.2020
4857 Clear 1 1015 40 10000 4.6 320 23:25 13.04.2020
4858 Clear 1 1014 40 10000 4.6 330 22:58 13.04.2020
4859 Clear 2 1014 37 10000 4.6 340 22:40 13.04.2020
4860 Clear 2 1014 37 10000 4.6 340 22:22 13.04.2020
4861 Clear 2 1014 40 10000 4.1 330 21:56 13.04.2020
4862 Clear 2 1014 34 10000 6.7 360 21:37 13.04.2020
4863 Clouds 3 1014 34 10000 6.7 360 21:19 13.04.2020
4864 Clouds 3 1013 34 10000 6.7 360 20:54 13.04.2020
4865 Clouds 3 1013 34 10000 6.7 360 20:54 13.04.2020
4866 Clouds 3 1013 34 10000 5.7 350 20:36 13.04.2020
4867 Clouds 4 1013 34 10000 5.7 350 20:18 13.04.2020
4868 Clouds 4 1013 34 10000 5.7 350 20:18 13.04.2020
4869 Clouds 4 1012 34 10000 8.2 350 19:38 13.04.2020
4870 Clouds 4 1012 34 10000 8.2 350 19:20 13.04.2020
4871 Clouds 4 1012 37 10000 9.8 340 18:59 13.04.2020
4872 Clouds 5 1012 38 10000 8.2 330 18:39 13.04.2020
4873 Clouds 5 1012 44 10000 6.7 340 18:20 13.04.2020
4874 Clouds 5 1012 44 10000 6.7 340 17:58 13.04.2020
4875 Clouds 5 1012 44 10000 6.7 340 17:58 13.04.2020
4876 Clouds 5 1012 44 10000 6.7 340 17:58 13.04.2020
4877 Clouds 5 1012 44 10000 6.7 340 17:58 13.04.2020
4878 Rain 5 1012 44 10000 8.2 330 17:38 13.04.2020
4879 Rain 5 1012 44 10000 8.2 330 17:38 13.04.2020
4880 Rain 5 1012 44 10000 8.2 330 17:19 13.04.2020
4881 Rain 5 1012 44 10000 6.2 330 16:58 13.04.2020
4882 Rain 5 1011 37 10000 7.7 340 16:40 13.04.2020
4883 Rain 5 1011 37 10000 7.7 340 16:20 13.04.2020
4884 Rain 5 1011 32 10000 8.7 350 15:58 13.04.2020
4885 Rain 5 1011 27 10000 8.2 340 15:39 13.04.2020
4886 Rain 5 1011 27 10000 8.2 340 15:21 13.04.2020
4887 Rain 5 1010 25 10000 10.3 340 14:54 13.04.2020
4888 Clouds 5 1010 25 10000 8.2 340 14:36 13.04.2020
4889 Clouds 6 1010 25 10000 8.2 340 14:18 13.04.2020
4890 Clouds 5 1010 25 10000 9.8 340 13:55 13.04.2020
4891 Clouds 5 1010 27 10000 9.8 330 13:37 13.04.2020
4892 Clouds 5 1010 27 10000 8.7 330 13:18 13.04.2020
4893 Clouds 5 1010 27 10000 8.7 330 12:55 13.04.2020
4894 Clouds 5 1010 32 10000 7.7 320 12:37 13.04.2020
4895 Clouds 5 1010 25 10000 8.7 330 12:18 13.04.2020
4896 Clouds 4 1010 25 10000 8.7 330 11:41 13.04.2020
4897 Clouds 5 1010 27 10000 9.3 340 11:19 13.04.2020
4898 Clouds 4 1009 29 10000 8.2 330 10:56 13.04.2020
4899 Clouds 4 1009 27 10000 7.7 320 10:37 13.04.2020
4900 Clouds 4 1009 27 10000 7.7 320 10:19 13.04.2020
4901 Clouds 4 1009 29 10000 9.3 330 09:46 13.04.2020
4902 Clear 4 1009 29 10000 9.3 330 09:26 13.04.2020
4903 Clear 3 1008 34 10000 8.7 330 08:52 13.04.2020
4904 Clear 3 1008 37 10000 6.2 330 08:31 13.04.2020
4905 Clear 2 1007 43 10000 7.2 330 07:59 13.04.2020
4906 Clear 2 1007 43 10000 8.2 330 07:39 13.04.2020
4907 Clear 2 1006 47 10000 8.2 340 07:20 13.04.2020
4908 Clear 2 1006 47 10000 8.2 340 06:47 13.04.2020
4909 Clear 1 1005 43 10000 8.7 320 06:25 13.04.2020
4910 Clear 1 1005 40 10000 5.7 320 05:32 13.04.2020
4911 Clear 1 1005 40 10000 5.7 320 04:53 13.04.2020
4912 Clear 1 1005 40 10000 6.2 310 04:24 13.04.2020
4913 Clear 2 1005 40 10000 5.1 320 03:47 13.04.2020
4914 Clouds 2 1004 43 10000 5.1 330 02:59 13.04.2020
4915 Clouds 2 1005 43 10000 5.7 330 02:25 13.04.2020
4916 Clouds 3 1004 47 10000 5.1 330 01:42 13.04.2020
4917 Clouds 3 1003 47 10000 5.1 340 01:23 13.04.2020
4918 Clouds 3 1002 40 10000 5.7 320 00:42 13.04.2020
4919 Clouds 3 1002 40 10000 5.7 320 00:20 13.04.2020
4920 Clouds 3 1002 40 10000 5.7 320 00:20 13.04.2020
4921 Clouds 3 1002 43 10000 5.1 320 23:48 12.04.2020
4922 Clouds 3 1001 44 10000 4.1 330 23:23 12.04.2020
4923 Clouds 4 1001 34 10000 4.1 350 22:58 12.04.2020
4924 Clouds 4 1000 29 10000 6.2 330 22:37 12.04.2020
4925 Clouds 5 1000 29 10000 6.2 330 22:19 12.04.2020
4926 Clouds 5 1000 29 10000 6.2 330 22:19 12.04.2020
4927 Clouds 5 999 41 10000 6.2 320 21:41 12.04.2020
4928 Rain 6 999 41 10000 6.2 320 21:22 12.04.2020
4929 Rain 6 999 33 10000 6.2 320 20:59 12.04.2020
4930 Rain 7 999 33 10000 6.2 320 20:40 12.04.2020
4931 Rain 7 998 26 10000 6.7 330 20:22 12.04.2020
4932 Rain 8 998 28 10000 6.2 330 19:56 12.04.2020
4933 Rain 8 998 28 10000 6.2 330 19:56 12.04.2020
4934 Rain 9 997 31 10000 5.1 320 19:38 12.04.2020
4935 Rain 9 997 31 10000 5.1 320 19:18 12.04.2020
4936 Clouds 11 996 30 10000 6.2 310 18:41 12.04.2020
4937 Clouds 11 996 30 10000 6.2 310 18:23 12.04.2020
4938 Clouds 12 996 40 10000 5.1 290 17:58 12.04.2020
4939 Clouds 12 996 40 10000 4.1 260 17:40 12.04.2020
4940 Clouds 12 996 40 10000 4.1 260 17:21 12.04.2020
4941 Clouds 12 996 40 10000 4.6 240 16:57 12.04.2020
4942 Clouds 12 996 40 10000 6.7 230 16:39 12.04.2020
4943 Clouds 12 996 40 10000 6.7 230 16:20 12.04.2020
4944 Clouds 13 996 35 10000 8.2 230 15:47 12.04.2020
4945 Clouds 12 997 37 10000 7.7 220 15:29 12.04.2020
4946 Clouds 12 997 46 10000 6.7 230 14:54 12.04.2020
4947 Clouds 11 997 57 10000 5.7 210 14:36 12.04.2020
4948 Clouds 11 997 57 10000 5.7 210 14:18 12.04.2020
4949 Clouds 11 998 70 10000 7.7 200 13:41 12.04.2020
4950 Clouds 11 998 70 10000 7.7 200 13:23 12.04.2020
4951 Clouds 10 999 75 10000 8.2 190 12:49 12.04.2020
4952 Clouds 9 999 87 10000 5.7 210 12:23 12.04.2020
4953 Clouds 9 999 87 10000 5.7 210 12:23 12.04.2020
4954 Clouds 8 1000 87 10000 6.2 210 11:59 12.04.2020
4955 Clouds 8 1000 87 10000 6.2 210 11:59 12.04.2020
4956 Clouds 8 1000 87 10000 6.2 210 11:40 12.04.2020
4957 Clouds 7 1000 87 10000 6.2 190 11:22 12.04.2020
4958 Clouds 7 1000 93 10000 7.2 200 10:58 12.04.2020
4959 Clouds 7 1000 93 10000 6.7 190 10:40 12.04.2020
4960 Clouds 7 1000 93 10000 6.7 190 10:21 12.04.2020
4961 Clouds 6 1001 86 10000 6.7 200 10:00 12.04.2020
4962 Clouds 6 1001 86 10000 6.7 200 10:00 12.04.2020
4963 Clouds 6 1001 86 10000 6.7 200 09:39 12.04.2020
4964 Clouds 6 1001 86 10000 6.7 200 09:21 12.04.2020
4965 Clouds 5 1002 100 10000 6.2 200 08:52 12.04.2020
4966 Clouds 5 1002 93 10000 4.1 200 08:33 12.04.2020
4967 Clouds 5 1002 93 10000 5.7 210 07:58 12.04.2020
4968 Clouds 5 1003 100 10000 5.1 200 07:40 12.04.2020
4969 Clouds 5 1003 93 10000 5.7 210 07:18 12.04.2020
4970 Clouds 4 1003 93 10000 5.1 200 06:33 12.04.2020
4971 Clouds 4 1004 93 10000 5.1 200 05:51 12.04.2020
4972 Clouds 4 1005 93 10000 5.1 200 05:29 12.04.2020
4973 Clouds 5 1006 100 10000 4.6 180 03:43 12.04.2020
4974 Clouds 5 1006 93 10000 3.6 200 03:19 12.04.2020
4975 Clouds 5 1007 100 10000 4.6 210 02:34 12.04.2020
4976 Clouds 5 1008 100 10000 5.7 200 01:47 12.04.2020
4977 Clouds 5 1009 100 10000 4.6 210 00:57 12.04.2020
4978 Clouds 5 1009 100 10000 4.6 210 00:57 12.04.2020
4979 Clouds 5 1009 100 10000 4.6 210 00:39 12.04.2020
4980 Clouds 5 1009 100 10000 4.6 210 00:19 12.04.2020
4981 Rain 5 1009 100 10000 4.1 200 23:46 11.04.2020
4982 Rain 5 1010 100 10000 5.1 190 23:25 11.04.2020
4983 Rain 5 1011 93 10000 4.6 200 22:42 11.04.2020
4984 Rain 5 1011 93 10000 4.6 200 22:42 11.04.2020
4985 Rain 5 1011 93 10000 4.6 200 22:23 11.04.2020
4986 Rain 5 1011 93 10000 4.6 200 22:23 11.04.2020
4987 Rain 5 1012 93 10000 4.6 190 21:57 11.04.2020
4988 Rain 5 1012 93 10000 5.1 190 21:38 11.04.2020
4989 Rain 5 1012 93 10000 5.1 190 21:38 11.04.2020
4990 Rain 5 1012 93 10000 5.1 190 21:19 11.04.2020
4991 Rain 4 1013 100 10000 4.6 190 20:58 11.04.2020
4992 Rain 4 1013 100 10000 4.6 190 20:39 11.04.2020
4993 Rain 4 1013 93 10000 4.6 190 20:20 11.04.2020
4994 Rain 4 1014 93 10000 6.2 190 19:58 11.04.2020
4995 Rain 4 1014 93 10000 6.2 190 19:39 11.04.2020
4996 Rain 4 1014 93 10000 5.1 180 19:20 11.04.2020
4997 Rain 4 1015 93 10000 5.1 180 18:57 11.04.2020
4998 Rain 4 1016 93 10000 6.7 190 18:39 11.04.2020
4999 Rain 4 1016 93 10000 6.7 190 18:21 11.04.2020
5000 Rain 4 1017 93 10000 7.7 180 17:59 11.04.2020
5001 Rain 4 1017 86 10000 8.7 190 17:41 11.04.2020
5002 Rain 4 1017 86 10000 8.7 190 17:21 11.04.2020
5003 Rain 4 1018 93 10000 4.6 180 16:58 11.04.2020
5004 Rain 5 1018 93 7000 6.2 180 16:40 11.04.2020
5005 Rain 5 1018 93 7000 6.2 180 16:20 11.04.2020
5006 Rain 5 1018 93 7000 6.2 180 16:20 11.04.2020
5007 Clouds 5 1019 86 10000 5.1 170 15:39 11.04.2020
5008 Rain 5 1020 86 10000 5.7 190 15:19 11.04.2020
5009 Rain 5 1021 86 10000 4.6 220 14:43 11.04.2020
5010 Rain 5 1021 86 10000 4.6 220 14:43 11.04.2020
5011 Rain 5 1021 86 10000 4.6 220 14:25 11.04.2020
5012 Rain 5 1021 75 10000 4.6 190 13:59 11.04.2020
5013 Rain 5 1021 88 10000 7.2 170 13:40 11.04.2020
5014 Rain 6 1021 88 10000 7.2 170 13:22 11.04.2020
5015 Rain 6 1022 60 10000 4.1 170 12:43 11.04.2020
5016 Snow 6 1022 60 10000 3.1 180 12:22 11.04.2020
5017 Snow 5 1022 64 10000 3.1 160 11:58 11.04.2020
5018 Rain 5 1022 64 10000 3.1 160 11:40 11.04.2020
5019 Snow 5 1023 64 10000 2.1 160 11:19 11.04.2020
5020 Snow 5 1023 64 10000 1.5 190 10:55 11.04.2020
5021 Snow 4 1023 64 10000 1.5 160 10:36 11.04.2020
5022 Snow 4 1023 64 10000 1.5 160 10:18 11.04.2020
5023 Clouds 3 1023 64 10000 1 0 09:41 11.04.2020
5024 Clouds 2 1023 74 10000 0.56 188 09:22 11.04.2020
5025 Clouds 2 1023 74 10000 1 0 08:54 11.04.2020
5026 Clouds 1 1025 74 0 1 120 08:36 11.04.2020
5027 Clouds 1 1023 74 10000 0.56 188 08:18 11.04.2020
5028 Clouds 0 1024 79 10000 0.56 188 07:41 11.04.2020
5029 Clouds 0 1024 79 10000 1 350 07:23 11.04.2020
5030 Clear -1 1024 79 10000 0.5 0 06:37 11.04.2020
5031 Clear -1 1024 74 10000 0.5 0 05:57 11.04.2020
5032 Clear 0 1024 74 10000 2.6 10 03:57 11.04.2020
5033 Clear 0 1024 68 10000 0.5 0 02:51 11.04.2020
5034 Clear 1 1024 68 10000 2.1 330 01:26 11.04.2020
5035 Clear 1 1024 75 10000 1.5 350 00:55 11.04.2020
5036 Clear 1 1024 51 10000 1.5 320 00:37 11.04.2020
5037 Clear 2 1024 51 10000 1.5 320 00:18 11.04.2020
5038 Clear 3 1023 51 10000 2.6 340 23:41 10.04.2020
5039 Clear 3 1023 51 10000 2.6 340 23:19 10.04.2020
5040 Clear 3 1023 41 10000 1.5 240 22:57 10.04.2020
5041 Clear 4 1023 44 10000 2.1 310 22:37 10.04.2020
5042 Clear 4 1023 44 10000 2.1 310 22:19 10.04.2020
5043 Clear 5 1023 31 10000 1 220 21:41 10.04.2020
5044 Clear 6 1023 31 10000 1 220 21:21 10.04.2020
5045 Clear 7 1022 29 10000 0.99 232 20:58 10.04.2020
5046 Clear 7 1022 26 10000 1 0 20:39 10.04.2020
5047 Clear 8 1022 26 10000 1 0 20:20 10.04.2020
5048 Clear 9 1022 25 10000 1.5 310 19:55 10.04.2020
5049 Clear 10 1022 25 10000 2.1 270 19:37 10.04.2020
5050 Clear 11 1022 27 10000 3.1 280 19:19 10.04.2020
5051 Clear 10 1022 27 10000 3.1 280 18:56 10.04.2020
5052 Clear 11 1022 27 10000 2.1 340 18:37 10.04.2020
5053 Clear 11 1022 27 10000 2.1 340 18:19 10.04.2020
5054 Clear 11 1022 25 10000 2.6 310 17:57 10.04.2020
5055 Clear 11 1022 25 10000 3.6 340 17:38 10.04.2020
5056 Clear 11 1022 25 10000 3.6 340 17:19 10.04.2020
5057 Clear 11 1024 25 0 2.1 0 16:44 10.04.2020
5058 Clear 11 1024 25 0 2.1 0 16:23 10.04.2020
5059 Clear 11 1023 27 10000 3.1 340 15:59 10.04.2020
5060 Clear 11 1023 27 10000 2.1 0 15:39 10.04.2020
5061 Clear 11 1023 27 10000 2.1 0 15:21 10.04.2020
5062 Clear 10 1023 26 10000 2.1 0 14:59 10.04.2020
5063 Clear 10 1023 26 10000 2.1 0 14:40 10.04.2020
5064 Clear 9 1023 26 10000 2.1 0 14:21 10.04.2020
5065 Clear 9 1023 28 10000 1.5 0 13:49 10.04.2020
5066 Clear 9 1023 28 10000 1.5 0 13:23 10.04.2020
5067 Clear 9 1024 33 10000 2.1 0 12:59 10.04.2020
5068 Clear 9 1024 33 10000 2.1 0 12:41 10.04.2020
5069 Clear 8 1024 30 10000 5.1 10 12:21 10.04.2020
5070 Clear 8 1024 30 10000 3.6 20 12:21 10.04.2020
5071 Clear 7 1024 30 10000 5.1 10 11:44 10.04.2020
5072 Clear 7 1024 33 10000 3.6 20 11:25 10.04.2020
5073 Clear 6 1024 38 10000 2.6 350 10:59 10.04.2020
5074 Clear 6 1024 38 10000 1.5 330 10:41 10.04.2020
5075 Clear 5 1024 38 10000 1.5 330 10:22 10.04.2020
5076 Clear 3 1024 44 10000 1.5 10 09:44 10.04.2020
5077 Clouds 3 1024 44 10000 1.5 10 09:24 10.04.2020
5078 Clouds 2 1024 51 10000 0.95 333 08:55 10.04.2020
5079 Clouds 2 1024 55 10000 1.5 340 08:37 10.04.2020
5080 Clouds 1 1024 55 10000 1.5 340 08:18 10.04.2020
5081 Clouds 0 1024 73 10000 1.5 330 07:41 10.04.2020
5082 Clouds 0 1024 73 10000 1.5 330 07:21 10.04.2020
5083 Clouds -1 1024 73 10000 1.5 340 06:43 10.04.2020
5084 Clouds -1 1024 79 10000 2.1 340 06:23 10.04.2020
5085 Clouds 0 1024 50 10000 2.6 330 05:35 10.04.2020
5086 Clouds 0 1024 50 10000 2.1 330 04:57 10.04.2020
5087 Clouds 1 1024 50 10000 2.1 10 03:37 10.04.2020
5088 Clouds 1 1024 50 10000 2.6 340 02:59 10.04.2020
5089 Clear 1 1024 50 10000 1 0 02:38 10.04.2020
5090 Clear 1 1024 50 10000 2.6 330 02:19 10.04.2020
5091 Clear 1 1024 47 10000 1.5 330 01:29 10.04.2020
5092 Clear 2 1024 47 10000 3.6 310 00:49 10.04.2020
5093 Clear 2 1024 47 10000 3.6 290 00:22 10.04.2020
5094 Clear 3 1024 47 10000 1.5 360 23:44 09.04.2020
5095 Clear 3 1023 47 10000 0.5 0 23:26 09.04.2020
5096 Clear 3 1023 44 10000 2.6 340 22:59 09.04.2020
5097 Clear 4 1023 35 10000 2.1 350 22:40 09.04.2020
5098 Clear 4 1023 35 10000 2.1 350 22:22 09.04.2020
5099 Clear 5 1022 32 10000 1 0 21:45 09.04.2020
5100 Clear 5 1022 32 10000 1 0 21:26 09.04.2020
5101 Clear 6 1022 33 10000 2.1 350 20:57 09.04.2020
5102 Clear 7 1021 30 10000 4.1 360 20:38 09.04.2020
5103 Clear 8 1021 26 10000 4.6 360 20:19 09.04.2020
5104 Clear 8 1021 24 10000 5.7 10 19:41 09.04.2020
5105 Clear 9 1021 24 10000 5.7 10 19:23 09.04.2020
5106 Clear 9 1020 23 10000 4.1 360 18:59 09.04.2020
5107 Clear 10 1020 23 10000 6.7 360 18:40 09.04.2020
5108 Clear 10 1020 23 10000 6.7 360 18:18 09.04.2020
5109 Clear 10 1020 26 10000 5.1 360 17:40 09.04.2020
5110 Clear 10 1020 26 10000 5.1 360 17:21 09.04.2020
5111 Clear 10 1020 26 10000 5.7 360 16:42 09.04.2020
5112 Clear 10 1020 26 10000 4.1 350 16:23 09.04.2020
5113 Clear 10 1020 31 10000 3.6 30 15:58 09.04.2020
5114 Clear 10 1020 31 10000 3.6 30 15:39 09.04.2020
5115 Clear 10 1020 31 10000 3.6 30 15:39 09.04.2020
5116 Clear 10 1019 31 10000 5.1 20 15:21 09.04.2020
5117 Clear 10 1019 31 10000 4.6 10 14:59 09.04.2020
5118 Clear 10 1019 31 10000 4.6 10 14:39 09.04.2020
5119 Clear 10 1019 31 10000 5.7 10 14:20 09.04.2020
5120 Clear 9 1019 28 10000 4.1 10 13:42 09.04.2020
5121 Clear 9 1019 26 10000 3.6 340 13:24 09.04.2020
5122 Clear 9 1019 28 10000 3.1 270 12:59 09.04.2020
5123 Clear 9 1019 31 10000 3.6 310 12:39 09.04.2020
5124 Clear 9 1019 31 10000 3.6 310 12:21 09.04.2020
5125 Clear 8 1018 30 10000 3.6 300 11:55 09.04.2020
5126 Clear 8 1018 33 10000 4.1 310 11:36 09.04.2020
5127 Clear 8 1018 33 10000 4.1 310 11:36 09.04.2020
5128 Clear 8 1018 33 10000 4.1 310 11:18 09.04.2020
5129 Clear 7 1018 38 10000 4.1 260 10:54 09.04.2020
5130 Clear 7 1017 38 10000 4.1 310 10:36 09.04.2020
5131 Clear 7 1017 38 10000 4.1 310 10:18 09.04.2020
5132 Clear 6 1016 44 10000 2.1 0 09:40 09.04.2020
5133 Clear 5 1016 44 10000 2.1 0 09:21 09.04.2020
5134 Clear 4 1016 48 10000 2.1 320 08:57 09.04.2020
5135 Clear 4 1016 55 10000 1.79 299 08:39 09.04.2020
5136 Clear 3 1016 55 10000 1.79 299 08:21 09.04.2020
5137 Clear 2 1015 59 10000 2.1 290 07:40 09.04.2020
5138 Clear 1 1015 59 10000 2.1 290 07:21 09.04.2020
5139 Clear 1 1015 55 10000 1.5 10 06:42 09.04.2020
5140 Clear 2 1014 59 10000 1.5 300 05:49 09.04.2020
5141 Clear 2 1014 59 10000 2.1 310 05:25 09.04.2020
5142 Clouds 4 1013 44 10000 2.1 0 02:36 09.04.2020
5143 Clouds 5 1013 44 10000 1.5 280 01:46 09.04.2020
5144 Clouds 5 1013 41 10000 4.6 290 01:27 09.04.2020
5145 Clouds 6 1013 41 10000 4.1 280 00:55 09.04.2020
5146 Clouds 6 1013 45 10000 4.1 300 00:37 09.04.2020
5147 Clouds 7 1013 48 10000 2.6 290 00:18 09.04.2020
5148 Clouds 7 1013 48 10000 2.6 290 23:42 08.04.2020
5149 Clouds 7 1013 49 10000 3.6 300 23:23 08.04.2020
5150 Clouds 8 1014 70 0 5.1 220 22:54 08.04.2020
5151 Clouds 8 1011 70 10000 2.6 210 22:36 08.04.2020
5152 Clouds 8 1011 70 10000 5.7 180 22:18 08.04.2020
5153 Clouds 8 1011 70 10000 5.7 180 21:54 08.04.2020
5154 Clouds 8 1011 66 10000 6.7 170 21:36 08.04.2020
5155 Clouds 9 1011 66 10000 6.7 170 21:18 08.04.2020
5156 Clouds 9 1011 61 10000 7.7 180 20:40 08.04.2020
5157 Clouds 10 1012 61 10000 6.7 190 20:21 08.04.2020
5158 Clouds 10 1012 61 10000 7.7 200 19:59 08.04.2020
5159 Clouds 10 1012 61 10000 7.7 200 19:40 08.04.2020
5160 Clouds 10 1012 61 10000 7.7 200 19:21 08.04.2020
5161 Clouds 11 1012 53 10000 7.2 200 18:45 08.04.2020
5162 Clouds 11 1013 53 10000 8.2 190 18:27 08.04.2020
5163 Clouds 11 1013 53 10000 8.2 190 17:57 08.04.2020
5164 Clouds 11 1014 53 10000 9.8 200 17:39 08.04.2020
5165 Clouds 11 1014 53 10000 9.8 200 17:20 08.04.2020
5166 Clouds 11 1014 50 10000 10.3 200 16:56 08.04.2020
5167 Clouds 11 1015 50 10000 9.8 210 16:37 08.04.2020
5168 Clouds 11 1015 50 10000 9.8 210 16:19 08.04.2020
5169 Clouds 10 1017 57 10000 9.3 200 15:38 08.04.2020
5170 Clouds 10 1017 57 10000 9.3 200 15:20 08.04.2020
5171 Clouds 10 1017 57 10000 9.3 200 14:55 08.04.2020
5172 Clouds 10 1017 57 10000 9.3 200 14:55 08.04.2020
5173 Clouds 10 1017 57 10000 7.7 200 14:37 08.04.2020
5174 Clouds 10 1017 57 10000 7.7 200 14:19 08.04.2020
5175 Clouds 10 1018 61 10000 7.7 200 13:44 08.04.2020
5176 Clouds 9 1018 61 10000 9.3 200 13:21 08.04.2020
5177 Clouds 9 1018 61 10000 7.2 190 12:43 08.04.2020
5178 Clouds 9 1019 61 10000 5.1 210 12:19 08.04.2020
5179 Clouds 8 1019 54 10000 5.7 180 11:59 08.04.2020
5180 Clouds 8 1020 54 10000 5.7 180 11:41 08.04.2020
5181 Clouds 8 1020 54 10000 5.7 180 11:22 08.04.2020
5182 Clouds 8 1020 54 10000 6.7 180 10:58 08.04.2020
5183 Clouds 8 1024 87 10000 7.2 200 10:39 08.04.2020
5184 Clouds 7 1020 54 10000 7.2 180 10:20 08.04.2020
5185 Clouds 7 1021 54 10000 7.7 180 09:56 08.04.2020
5186 Clouds 6 1021 69 10000 6.7 180 09:38 08.04.2020
5187 Clouds 6 1021 69 10000 6.7 180 09:18 08.04.2020
5188 Clouds 5 1021 69 10000 5.7 180 08:42 08.04.2020
5189 Clouds 5 1021 69 10000 4.1 190 08:23 08.04.2020
5190 Clouds 4 1022 64 10000 5.7 210 07:57 08.04.2020
5191 Clouds 4 1022 64 10000 4.6 220 07:39 08.04.2020
5192 Clouds 4 1022 64 10000 4.6 220 07:19 08.04.2020
5193 Clouds 3 1022 64 10000 3.6 230 06:22 08.04.2020
5194 Clouds 3 1024 64 10000 4.6 210 04:44 08.04.2020
5195 Clouds 3 1025 59 10000 1 210 02:49 08.04.2020
5196 Clouds 3 1025 55 10000 1 0 02:21 08.04.2020
5197 Clouds 4 1025 55 10000 1 0 01:51 08.04.2020
5198 Clouds 4 1025 55 10000 2.1 170 01:27 08.04.2020
5199 Clouds 4 1025 45 10000 2.6 210 00:41 08.04.2020
5200 Clouds 4 1025 45 10000 2.6 210 00:22 08.04.2020
5201 Rain 5 1026 48 10000 1.5 240 23:40 07.04.2020
5202 Rain 5 1026 48 10000 1.5 240 23:22 07.04.2020
5203 Rain 6 1026 48 10000 1.5 240 22:58 07.04.2020
5204 Clouds 6 1026 45 10000 2.6 220 22:40 07.04.2020
5205 Clouds 7 1026 45 10000 2.6 220 22:21 07.04.2020
5206 Clouds 7 1026 45 10000 2.6 270 21:58 07.04.2020
5207 Clouds 8 1026 39 10000 2.6 250 21:40 07.04.2020
5208 Clouds 8 1026 34 10000 1.5 250 21:20 07.04.2020
5209 Clouds 8 1026 32 10000 2.1 260 20:57 07.04.2020
5210 Clouds 9 1026 32 10000 2.1 260 20:39 07.04.2020
5211 Clouds 9 1026 32 10000 2.1 260 20:20 07.04.2020
5212 Clouds 10 1026 29 10000 3.1 230 19:57 07.04.2020
5213 Clouds 11 1025 27 10000 2.1 280 19:37 07.04.2020
5214 Clouds 12 1025 24 10000 2.6 310 19:18 07.04.2020
5215 Clouds 12 1025 24 10000 2.6 310 19:18 07.04.2020
5216 Clouds 13 1025 24 10000 2.6 310 18:57 07.04.2020
5217 Clouds 13 1025 22 10000 3.6 290 18:39 07.04.2020
5218 Rain 14 1025 22 10000 3.6 290 18:19 07.04.2020
5219 Clear 14 1025 24 10000 4.1 280 17:44 07.04.2020
5220 Clear 14 1025 22 10000 4.1 270 17:21 07.04.2020
5221 Clear 14 1025 22 10000 4.6 300 16:47 07.04.2020
5222 Clear 14 1024 26 10000 4.1 290 16:29 07.04.2020
5223 Clear 14 1024 26 10000 4.1 290 15:58 07.04.2020
5224 Clear 14 1024 26 10000 5.1 290 15:40 07.04.2020
5225 Clear 14 1023 28 10000 5.1 270 15:22 07.04.2020
5226 Clear 13 1023 27 10000 5.1 280 14:41 07.04.2020
5227 Clear 13 1023 27 10000 5.1 280 14:22 07.04.2020
5228 Clear 13 1023 30 10000 4.6 290 13:57 07.04.2020
5229 Clear 13 1022 30 10000 5.1 310 13:38 07.04.2020
5230 Clear 13 1022 30 10000 5.1 310 13:18 07.04.2020
5231 Clear 13 1022 30 10000 5.1 310 13:18 07.04.2020
5232 Clear 13 1021 32 10000 4.6 300 12:55 07.04.2020
5233 Clear 13 1021 34 10000 5.1 290 12:36 07.04.2020
5234 Clear 12 1021 34 10000 5.1 290 12:18 07.04.2020
5235 Clear 11 1019 46 10000 5.7 310 11:44 07.04.2020
5236 Clear 11 1019 46 10000 5.7 310 11:25 07.04.2020
5237 Clear 11 1019 42 10000 5.7 310 10:58 07.04.2020
5238 Clear 10 1018 42 10000 4.6 300 10:38 07.04.2020
5239 Clear 10 1018 42 10000 4.6 300 10:19 07.04.2020
5240 Clear 9 1017 57 10000 3.6 320 09:45 07.04.2020
5241 Clouds 7 1017 70 10000 1.5 0 09:19 07.04.2020
5242 Clouds 7 1017 70 10000 1.5 0 09:19 07.04.2020
5243 Clouds 6 1016 93 6000 1 0 08:55 07.04.2020
5244 Clouds 6 1016 93 6000 1 0 08:36 07.04.2020
5245 Clouds 5 1016 93 6000 1 0 08:18 07.04.2020
5246 Clouds 4 1015 93 9000 1 0 07:40 07.04.2020
5247 Clouds 4 1015 93 9000 1 0 07:21 07.04.2020
5248 Clouds 4 1015 93 7000 2.1 190 06:51 07.04.2020
5249 Clouds 5 1015 86 7000 2.1 200 06:23 07.04.2020
5250 Clouds 5 1015 93 9000 2.6 210 05:43 07.04.2020
5251 Rain 5 1015 93 10000 3.6 180 05:22 07.04.2020
5252 Rain 6 1015 86 10000 0.5 0 03:32 07.04.2020
5253 Rain 6 1016 81 10000 1 0 02:59 07.04.2020
5254 Clouds 6 1016 75 10000 3.1 200 01:57 07.04.2020
5255 Clouds 6 1015 70 10000 3.6 170 01:29 07.04.2020
5256 Clear 6 1016 65 10000 4.1 200 00:29 07.04.2020
5257 Clear 6 1016 70 10000 4.1 190 23:57 06.04.2020
5258 Clear 6 1016 75 10000 4.6 180 23:38 06.04.2020
5259 Clear 6 1016 75 10000 4.6 180 23:19 06.04.2020
5260 Clear 6 1017 83 10000 6.7 190 22:41 06.04.2020
5261 Clear 7 1017 83 10000 6.7 190 22:22 06.04.2020
5262 Clear 7 1017 83 10000 6.2 190 21:58 06.04.2020
5263 Clear 7 1017 83 10000 8.2 190 21:40 06.04.2020
5264 Clear 7 1017 75 10000 8.2 190 21:19 06.04.2020
5265 Clear 8 1017 75 10000 8.7 190 20:56 06.04.2020
5266 Clear 9 1017 46 10000 5.1 200 20:38 06.04.2020
5267 Clear 9 1017 46 10000 5.1 200 20:19 06.04.2020
5268 Clear 9 1019 61 10000 4.6 190 19:42 06.04.2020
5269 Clear 10 1017 37 10000 7.2 200 19:23 06.04.2020
5270 Clear 11 1017 37 10000 8.7 180 18:59 06.04.2020
5271 Clear 11 1017 37 10000 8.7 180 18:41 06.04.2020
5272 Clear 11 1019 57 10000 6.2 170 18:23 06.04.2020
5273 Clear 12 1018 35 10000 8.7 200 17:55 06.04.2020
5274 Clear 12 1018 35 10000 8.2 190 17:36 06.04.2020
5275 Clear 13 1018 35 10000 8.2 190 17:18 06.04.2020
5276 Clear 13 1018 35 10000 8.2 190 17:18 06.04.2020
5277 Clear 13 1019 55 10000 6.2 200 16:45 06.04.2020
5278 Clear 13 1019 55 10000 5.7 220 16:27 06.04.2020
5279 Clouds 12 1019 51 10000 6.7 190 14:46 06.04.2020
5280 Clouds 12 1019 51 10000 6.7 190 14:46 06.04.2020
5281 Clouds 12 1019 51 10000 6.7 190 14:46 06.04.2020
5282 Clouds 12 1019 51 10000 6.7 190 14:46 06.04.2020
5283 Clouds 12 1019 51 10000 6.7 190 14:46 06.04.2020
5284 Clouds 12 1020 54 10000 5.7 170 13:44 06.04.2020
5285 Clouds 11 1020 53 10000 5.1 160 13:21 06.04.2020
5286 Clouds 11 1021 57 10000 4.1 140 12:41 06.04.2020
5287 Clouds 10 1021 61 10000 4.1 160 12:18 06.04.2020
5288 Clouds 10 1021 61 10000 4.1 160 12:18 06.04.2020
5289 Clouds 9 1021 61 10000 3.6 170 11:40 06.04.2020
5290 Clouds 10 1021 61 10000 3.6 170 11:40 06.04.2020
5291 Clouds 9 1021 61 10000 3.6 170 11:40 06.04.2020
5292 Clouds 9 1021 61 10000 3.6 170 11:40 06.04.2020
5293 Clouds 10 1021 61 10000 3.6 170 11:40 06.04.2020
5294 Clouds 8 1022 68 10000 4.1 160 10:53 06.04.2020
5295 Clouds 8 1022 68 10000 4.1 160 10:53 06.04.2020
5296 Clouds 8 1022 68 10000 4.1 160 10:53 06.04.2020
5297 Clouds 7 1022 70 10000 3.1 170 10:23 06.04.2020
5298 Clouds 7 1022 70 10000 3.1 170 10:23 06.04.2020
5299 Clouds 6 1022 70 10000 3.1 170 10:03 06.04.2020
5300 Clouds 6 1022 70 10000 3.1 170 10:03 06.04.2020
5301 Clouds 7 1022 70 10000 3.1 170 10:02 06.04.2020
5302 Clouds 5 1022 80 10000 1 0 09:26 06.04.2020
5303 Clouds 4 1022 93 10000 1 0 08:56 06.04.2020
5304 Clouds 4 1022 93 10000 1 0 08:37 06.04.2020
5305 Clouds 3 1022 93 10000 1 0 08:37 06.04.2020
5306 Clouds 3 1022 93 10000 1 0 08:37 06.04.2020
5307 Clouds 3 1022 86 10000 1.5 130 07:56 06.04.2020
5308 Clouds 3 1022 86 10000 1.5 130 07:56 06.04.2020
5309 Clouds 3 1022 86 10000 1.5 130 07:56 06.04.2020
5310 Clouds 2 1022 86 10000 1 0 07:19 06.04.2020
5311 Clouds 2 1023 86 0 3.1 140 06:26 06.04.2020
5312 Clouds 2 1023 87 10000 2.41 170 05:40 06.04.2020
5313 Clouds 3 1023 83 10000 2.6 160 03:29 06.04.2020
5314 Clouds 3 1023 80 10000 1 0 02:49 06.04.2020
5315 Clouds 3 1024 86 10000 3.6 190 01:52 06.04.2020
5316 Clouds 3 1024 84 10000 3.1 170 00:51 06.04.2020
5317 Clouds 4 1024 80 10000 1 0 00:27 06.04.2020
5318 Clouds 4 1024 80 10000 1 0 00:27 06.04.2020
5319 Clouds 3 1024 80 10000 2.24 172 23:49 05.04.2020
5320 Clouds 3 1024 80 10000 1.5 190 23:30 05.04.2020
5321 Clouds 3 1024 80 10000 1.5 190 23:30 05.04.2020
5322 Fog 4 1024 86 10000 1.5 200 22:56 05.04.2020
5323 Fog 4 1024 93 10000 1 0 22:38 05.04.2020
5324 Fog 4 1024 93 10000 1 0 22:19 05.04.2020
5325 Clouds 5 1024 93 10000 1 0 21:58 05.04.2020
5326 Clouds 5 1024 93 10000 1 0 21:39 05.04.2020
5327 Clouds 5 1024 86 10000 1.5 190 21:21 05.04.2020
5328 Clouds 6 1024 87 10000 1 0 20:20 05.04.2020
5329 Clouds 7 1024 81 10000 1.5 230 19:41 05.04.2020
5330 Clouds 8 1024 81 10000 3.6 210 19:22 05.04.2020
5331 Clouds 8 1024 81 10000 4.1 200 18:46 05.04.2020
5332 Clouds 8 1024 81 10000 4.1 200 18:46 05.04.2020
5333 Clouds 9 1024 81 10000 5.1 190 17:58 05.04.2020
5334 Clouds 9 1024 81 10000 5.1 190 17:58 05.04.2020
5335 Clouds 9 1024 81 10000 5.1 190 17:39 05.04.2020
5336 Clouds 9 1024 81 10000 5.7 190 17:20 05.04.2020
5337 Clouds 9 1024 81 10000 5.7 190 17:20 05.04.2020
5338 Clouds 9 1025 81 10000 5.7 200 16:46 05.04.2020
5339 Clouds 9 1025 81 10000 5.7 200 16:45 05.04.2020
5340 Clouds 9 1025 81 10000 5.7 200 16:45 05.04.2020
5341 Clouds 9 1025 81 10000 5.7 200 16:45 05.04.2020
5342 Clouds 9 1025 81 10000 5.7 200 16:45 05.04.2020
5343 Clouds 8 1025 81 10000 6.2 190 16:18 05.04.2020
5344 Clouds 8 1025 87 10000 5.7 190 15:44 05.04.2020
5345 Clouds 8 1025 87 10000 6.2 190 15:25 05.04.2020
5346 Clouds 8 1025 87 10000 6.2 190 15:25 05.04.2020
5347 Clouds 7 1025 87 10000 4.1 200 14:48 05.04.2020
5348 Clouds 7 1025 87 10000 4.1 200 14:48 05.04.2020
5349 Clouds 7 1025 87 10000 4.1 200 14:48 05.04.2020
5350 Clouds 7 1025 87 10000 4.1 200 14:48 05.04.2020
5351 Clouds 7 1025 87 10000 4.1 200 14:47 05.04.2020
5352 Clouds 6 1025 93 7000 4.6 190 13:46 05.04.2020
5353 Clouds 6 1025 93 7000 4.6 190 13:46 05.04.2020
5354 Clouds 6 1025 93 7000 4.6 190 13:46 05.04.2020
5355 Mist 6 1027 93 0 3.6 180 12:57 05.04.2020
5356 Drizzle 6 1025 100 3200 4.1 180 12:57 05.04.2020
5357 Rain 5 1025 100 3900 4.1 180 11:58 05.04.2020
5358 Rain 5 1025 100 3900 4.1 180 11:58 05.04.2020
5359 Rain 5 1025 100 3900 4.1 180 11:58 05.04.2020
5360 Rain 5 1025 100 3900 4.1 180 11:38 05.04.2020
5361 Rain 5 1025 100 10000 2.6 170 11:19 05.04.2020
5362 Rain 4 1025 100 8000 3.1 170 10:44 05.04.2020
5363 Rain 4 1025 100 8000 3.1 170 10:44 05.04.2020
5364 Rain 4 1025 100 8000 3.1 170 10:44 05.04.2020
5365 Rain 4 1025 100 8000 3.1 170 10:44 05.04.2020
5366 Rain 4 1025 93 8000 3.6 160 10:19 05.04.2020
5367 Drizzle 4 1025 100 7000 3.1 170 09:52 05.04.2020
5368 Drizzle 4 1025 100 7000 3.1 170 09:52 05.04.2020
5369 Drizzle 4 1025 100 7000 3.1 170 09:52 05.04.2020
5370 Drizzle 4 1025 100 7000 3.1 170 09:52 05.04.2020
5371 Drizzle 4 1025 100 7000 3.1 170 09:52 05.04.2020
5372 Drizzle 3 1025 100 7000 2.6 160 09:25 05.04.2020
5373 Drizzle 3 1025 100 7000 2.6 160 09:25 05.04.2020
5374 Drizzle 3 1025 100 7000 2.6 160 09:25 05.04.2020
5375 Clouds 3 1025 93 8000 2.6 170 07:58 05.04.2020
5376 Drizzle 3 1024 93 10000 2.6 140 07:58 05.04.2020
5377 Drizzle 2 1023 90 10000 3.1 190 04:56 05.04.2020
5378 Clouds 2 1023 90 10000 2.1 160 03:35 05.04.2020
5379 Clouds 2 1023 86 10000 2.1 170 02:53 05.04.2020
5380 Clouds 2 1022 80 10000 1 0 01:51 05.04.2020
5381 Clouds 2 1022 80 10000 1 0 01:32 05.04.2020
5382 Clouds 2 1022 74 10000 2.6 210 00:48 05.04.2020
5383 Clouds 2 1022 69 10000 2.1 180 00:22 05.04.2020
5384 Clouds 2 1022 69 10000 2.1 180 00:22 05.04.2020
5385 Clouds 2 1021 69 10000 1 0 23:57 04.04.2020
5386 Clouds 2 1021 69 10000 1 0 23:38 04.04.2020
5387 Clouds 2 1021 64 10000 1 0 23:20 04.04.2020
5388 Clouds 3 1020 59 10000 3.6 210 22:56 04.04.2020
5389 Clouds 3 1020 59 10000 3.6 210 22:37 04.04.2020
5390 Clouds 3 1020 51 10000 2.6 200 22:19 04.04.2020
5391 Clouds 3 1020 47 10000 4.1 220 21:54 04.04.2020
5392 Clouds 3 1020 47 10000 4.1 220 21:36 04.04.2020
5393 Clouds 3 1020 44 10000 3.1 190 21:18 04.04.2020
5394 Clouds 4 1019 40 10000 4.1 210 20:42 04.04.2020
5395 Clouds 4 1019 35 10000 4.1 190 20:23 04.04.2020
5396 Clouds 4 1019 35 10000 4.1 190 19:59 04.04.2020
5397 Clouds 5 1019 24 10000 2.1 240 19:37 04.04.2020
5398 Clouds 6 1018 26 10000 4.1 230 19:19 04.04.2020
5399 Clouds 6 1018 28 10000 3.1 230 18:57 04.04.2020
5400 Clouds 6 1018 28 10000 3.1 230 18:38 04.04.2020
5401 Clouds 6 1018 26 10000 4.1 230 18:19 04.04.2020
5402 Clouds 6 1017 26 10000 5.7 220 17:56 04.04.2020
5403 Clouds 7 1017 26 10000 5.7 220 17:38 04.04.2020
5404 Clouds 7 1017 26 10000 6.7 230 17:19 04.04.2020
5405 Clouds 6 1017 26 10000 5.1 230 16:42 04.04.2020
5406 Clouds 6 1017 26 10000 6.2 230 16:23 04.04.2020
5407 Clouds 6 1017 24 10000 5.1 230 15:58 04.04.2020
5408 Clouds 6 1017 24 10000 5.1 230 15:38 04.04.2020
5409 Clouds 6 1016 26 10000 5.1 230 15:19 04.04.2020
5410 Clouds 6 1016 26 10000 5.1 230 15:19 04.04.2020
5411 Clouds 6 1016 26 10000 5.1 230 15:19 04.04.2020
5412 Clouds 6 1016 27 10000 4.6 230 14:46 04.04.2020
5413 Clouds 6 1019 38 10000 4.6 230 14:25 04.04.2020
5414 Clouds 6 1016 27 10000 4.1 280 13:58 04.04.2020
5415 Clouds 6 1016 27 10000 4.1 280 13:40 04.04.2020
5416 Clouds 6 1015 29 10000 4.1 310 13:20 04.04.2020
5417 Clouds 5 1015 29 10000 4.6 290 12:55 04.04.2020
5418 Clouds 5 1015 29 10000 4.6 290 12:55 04.04.2020
5419 Clouds 5 1015 29 10000 4.6 290 12:36 04.04.2020
5420 Clouds 5 1015 29 10000 4.6 260 12:18 04.04.2020
5421 Clouds 4 1014 29 10000 4.6 300 11:41 04.04.2020
5422 Clouds 4 1014 29 10000 4.6 280 11:23 04.04.2020
5423 Clouds 4 1013 34 10000 5.1 230 10:58 04.04.2020
5424 Clouds 3 1013 34 10000 5.1 230 10:40 04.04.2020
5425 Clouds 3 1015 47 10000 6.2 270 10:21 04.04.2020
5426 Clouds 2 1012 43 10000 4.1 220 09:55 04.04.2020
5427 Clouds 2 1012 43 10000 4.1 220 09:37 04.04.2020
5428 Clear 1 1012 81 10000 3.6 230 09:19 04.04.2020
5429 Clear 0 1012 54 10000 3.6 240 08:42 04.04.2020
5430 Clear -1 1011 58 10000 3.6 250 08:23 04.04.2020
5431 Clear -2 1010 58 10000 3.6 250 07:55 04.04.2020
5432 Clear -2 1010 58 10000 3.6 250 07:37 04.04.2020
5433 Clear -3 1010 58 10000 3.1 250 07:19 04.04.2020
5434 Clear -3 1009 58 10000 3.1 250 06:22 04.04.2020
5435 Clear -3 1009 58 10000 1.5 310 05:51 04.04.2020
5436 Clear -2 1009 54 10000 2.6 250 05:32 04.04.2020
5437 Clear -2 1008 54 10000 2.6 230 04:34 04.04.2020
5438 Clear -2 1008 46 10000 1.5 0 03:55 04.04.2020
5439 Clear -2 1008 54 10000 1.5 0 03:27 04.04.2020
5440 Clear -1 1007 50 10000 2.1 180 02:42 04.04.2020
5441 Clear -1 1007 50 10000 1 0 02:24 04.04.2020
5442 Clear -1 1006 50 10000 2.1 260 01:27 04.04.2020
5443 Clear -1 1006 46 10000 1.5 270 00:57 04.04.2020
5444 Clear -1 1006 46 10000 3.1 260 00:30 04.04.2020
5445 Clear 0 1005 84 10000 3.1 260 23:56 03.04.2020
5446 Clear 0 1005 84 10000 3.1 260 23:37 03.04.2020
5447 Clear 0 1005 84 10000 3.1 260 23:18 03.04.2020
5448 Clear 1 1005 84 10000 3.1 250 22:40 03.04.2020
5449 Clear 1 1004 34 10000 1.5 0 22:19 03.04.2020
5450 Clear 1 1004 34 10000 1.5 0 21:56 03.04.2020
5451 Clear 2 1004 34 10000 2.6 250 21:38 03.04.2020
5452 Clouds 2 1004 34 10000 1.5 0 21:20 03.04.2020
5453 Clouds 2 1003 31 10000 2.6 300 20:55 03.04.2020
5454 Clouds 3 1003 31 10000 2.6 300 20:36 03.04.2020
5455 Clouds 3 1002 27 10000 3.6 300 20:18 03.04.2020
5456 Clouds 4 1002 25 10000 4.1 290 19:55 03.04.2020
5457 Clouds 4 1002 25 10000 4.1 290 19:36 03.04.2020
5458 Clouds 4 1001 23 10000 4.1 290 19:18 03.04.2020
5459 Clouds 5 1001 25 10000 4.1 280 18:56 03.04.2020
5460 Clouds 5 1000 29 10000 5.7 330 18:38 03.04.2020
5461 Clouds 5 1000 29 10000 5.7 330 18:20 03.04.2020
5462 Rain 6 1000 27 10000 3.6 290 17:41 03.04.2020
5463 Rain 6 999 35 10000 3.1 340 17:19 03.04.2020
5464 Rain 6 999 38 10000 5.7 350 16:55 03.04.2020
5465 Rain 6 999 38 10000 5.7 350 16:36 03.04.2020
5466 Rain 6 999 38 10000 4.6 10 16:18 03.04.2020
5467 Clouds 6 1000 22 10000 9.3 290 15:55 03.04.2020
5468 Clouds 6 998 40 10000 6.2 350 15:36 03.04.2020
5469 Clouds 6 998 40 10000 6.2 350 15:18 03.04.2020
5470 Clouds 5 982 33 0 0.89 5 14:40 03.04.2020
5471 Rain 6 996 27 10000 3.6 280 14:22 03.04.2020
5472 Rain 6 996 27 10000 3.6 280 13:46 03.04.2020
5473 Rain 6 996 27 10000 3.6 280 13:27 03.04.2020
5474 Clouds 6 995 27 10000 4.1 280 12:58 03.04.2020
5475 Clouds 6 995 27 10000 4.1 280 12:40 03.04.2020
5476 Clouds 5 995 29 10000 4.1 280 12:18 03.04.2020
5477 Clouds 5 995 32 10000 4.1 290 11:56 03.04.2020
5478 Clouds 5 994 34 10000 4.6 280 11:37 03.04.2020
5479 Clouds 5 994 34 10000 4.6 280 11:18 03.04.2020
5480 Clouds 4 994 34 10000 4.1 290 10:57 03.04.2020
5481 Clouds 4 994 34 10000 4.1 290 10:57 03.04.2020
5482 Clouds 4 993 34 10000 4.6 300 10:38 03.04.2020
5483 Clouds 5 994 34 10000 4.1 290 10:38 03.04.2020
5484 Clouds 4 993 34 10000 4.6 300 10:20 03.04.2020
5485 Clouds 4 993 34 10000 4.6 300 10:20 03.04.2020
5486 Clouds 3 992 37 10000 4.6 300 09:56 03.04.2020
5487 Clouds 3 992 37 10000 4.6 300 09:38 03.04.2020
5488 Clear 3 992 37 10000 4.1 300 09:20 03.04.2020
5489 Clear 2 991 40 10000 3.6 300 08:45 03.04.2020
5490 Clear 1 991 77 10000 2.1 300 08:25 03.04.2020
5491 Clear 0 990 50 10000 1.5 290 07:59 03.04.2020
5492 Clear 0 990 50 10000 1.5 290 07:40 03.04.2020
5493 Clear 0 990 77 10000 1.5 280 07:22 03.04.2020
5494 Clear 0 988 77 10000 2.1 310 06:28 03.04.2020
5495 Clear 1 987 54 10000 1.5 360 05:43 03.04.2020
5496 Clear 1 985 47 10000 2.1 340 04:30 03.04.2020
5497 Clear 1 984 47 10000 3.1 330 03:35 03.04.2020
5498 Clouds 2 983 43 10000 4.6 310 02:40 03.04.2020
5499 Clouds 2 981 47 10000 2.6 300 01:25 03.04.2020
5500 Clouds 2 980 50 10000 2.6 300 00:52 03.04.2020
5501 Clouds 2 980 50 10000 2.6 300 00:33 03.04.2020
5502 Clouds 1 979 55 10000 3.1 270 23:55 02.04.2020
5503 Clouds 1 979 55 10000 3.1 270 23:37 02.04.2020
5504 Clouds 1 978 55 10000 3.1 0 23:18 02.04.2020
5505 Clouds 1 978 55 10000 3.1 0 23:18 02.04.2020
5506 Clouds 1 978 55 10000 3.1 280 22:42 02.04.2020
5507 Clouds 1 978 55 10000 3.1 280 22:42 02.04.2020
5508 Clouds 1 977 55 10000 4.1 260 22:23 02.04.2020
5509 Clouds 1 977 55 10000 3.6 250 21:59 02.04.2020
5510 Clouds 1 977 55 10000 3.6 250 21:37 02.04.2020
5511 Snow 1 977 55 10000 3.1 270 21:18 02.04.2020
5512 Snow 1 976 64 10000 4.1 240 20:45 02.04.2020
5513 Rain 1 976 59 10000 4.1 240 20:25 02.04.2020
5514 Rain 1 976 59 10000 4.1 240 19:59 02.04.2020
5515 Rain 1 976 51 10000 3.6 250 19:59 02.04.2020
5516 Rain 2 976 51 10000 3.6 250 19:40 02.04.2020
5517 Rain 2 976 47 10000 4.1 270 19:20 02.04.2020
5518 Rain 3 976 37 10000 3.6 280 18:56 02.04.2020
5519 Rain 3 976 37 10000 3.6 280 18:37 02.04.2020
5520 Clouds 4 976 37 10000 8.2 250 18:18 02.04.2020
5521 Clouds 5 975 32 10000 6.2 250 17:43 02.04.2020
5522 Clouds 5 976 32 10000 6.7 250 17:24 02.04.2020
5523 Clouds 5 976 32 10000 7.7 240 16:58 02.04.2020
5524 Clouds 6 976 32 10000 7.7 240 16:40 02.04.2020
5525 Rain 5 976 38 10000 5.7 270 16:22 02.04.2020
5526 Clouds 6 976 48 10000 4.6 280 15:57 02.04.2020
5527 Clouds 6 976 48 10000 4.6 280 15:39 02.04.2020
5528 Clouds 6 976 55 10000 5.7 270 15:19 02.04.2020
5529 Rain 6 981 56 10000 10.8 270 14:57 02.04.2020
5530 Snow 5 977 74 10000 5.1 250 14:38 02.04.2020
5531 Rain 4 977 69 10000 7.7 260 14:18 02.04.2020
5532 Rain 6 977 69 10000 6.7 230 13:55 02.04.2020
5533 Rain 6 977 69 10000 6.7 230 13:37 02.04.2020
5534 Rain 6 977 65 10000 12.3 220 13:18 02.04.2020
5535 Rain 7 977 65 10000 11.3 200 12:45 02.04.2020
5536 Rain 7 977 65 10000 11.3 200 12:45 02.04.2020
5537 Rain 7 977 65 10000 11.3 200 12:45 02.04.2020
5538 Rain 6 979 52 10000 12.9 190 12:20 02.04.2020
5539 Clouds 7 979 48 10000 12.3 190 11:58 02.04.2020
5540 Clouds 8 979 48 10000 12.3 190 11:39 02.04.2020
5541 Clouds 7 981 52 10000 11.3 200 11:20 02.04.2020
5542 Clouds 7 981 52 10000 11.3 200 11:20 02.04.2020
5543 Clear 7 982 56 10000 10.8 200 10:57 02.04.2020
5544 Clear 7 982 56 10000 10.8 200 10:38 02.04.2020
5545 Clear 7 983 52 10000 12.3 210 10:20 02.04.2020
5546 Clear 6 983 52 10000 12.3 210 10:20 02.04.2020
5547 Clouds 6 984 55 10000 7.2 200 09:59 02.04.2020
5548 Clouds 6 984 55 10000 7.2 200 09:41 02.04.2020
5549 Clouds 4 985 59 10000 7.7 200 09:21 02.04.2020
5550 Clear 4 986 59 10000 6.7 210 08:47 02.04.2020
5551 Clear 3 987 69 10000 4.1 160 08:28 02.04.2020
5552 Clear 2 989 76 10000 5.1 160 07:59 02.04.2020
5553 Clear 2 989 76 10000 5.1 160 07:40 02.04.2020
5554 Clear 1 989 76 10000 5.1 160 07:19 02.04.2020
5555 Clear 1 991 76 10000 5.7 190 06:25 02.04.2020
5556 Clear 1 991 64 10000 4.1 220 05:46 02.04.2020
5557 Clear 1 993 83 10000 2.6 180 04:58 02.04.2020
5558 Clear 3 994 48 10000 3.6 250 02:21 02.04.2020
5559 Clear 4 995 44 10000 3.1 250 01:27 02.04.2020
5560 Clear 4 995 48 10000 2.6 260 00:41 02.04.2020
5561 Clear 5 995 52 10000 3.1 240 00:19 02.04.2020
5562 Clear 5 995 52 10000 3.1 220 23:39 01.04.2020
5563 Clear 5 995 52 10000 1.5 240 23:19 01.04.2020
5564 Clear 6 995 52 10000 3.1 240 22:57 01.04.2020
5565 Clear 6 995 52 10000 3.1 240 22:38 01.04.2020
5566 Clear 6 995 48 10000 3.6 240 22:19 01.04.2020
5567 Clear 7 995 45 10000 2.1 260 21:41 01.04.2020
5568 Clouds 7 995 45 10000 4.6 250 21:19 01.04.2020
5569 Clouds 7 995 45 10000 4.6 250 21:19 01.04.2020
5570 Clouds 8 995 49 10000 2.1 260 20:56 01.04.2020
5571 Clouds 8 995 49 10000 2.1 260 20:38 01.04.2020
5572 Clouds 8 995 49 10000 3.1 200 20:19 01.04.2020
5573 Clouds 9 995 45 10000 6.2 200 19:58 01.04.2020
5574 Clouds 9 995 45 10000 6.2 200 19:38 01.04.2020
5575 Clouds 10 995 42 10000 5.7 210 19:19 01.04.2020
5576 Clouds 10 996 37 10000 6.2 220 18:42 01.04.2020
5577 Clouds 10 996 37 10000 6.2 220 18:42 01.04.2020
5578 Clouds 10 996 40 10000 6.7 210 18:23 01.04.2020
5579 Clouds 10 997 42 10000 8.2 220 17:57 01.04.2020
5580 Clouds 9 997 42 10000 8.2 220 17:38 01.04.2020
5581 Clouds 9 998 49 10000 6.7 210 17:19 01.04.2020
5582 Clouds 9 998 49 10000 7.2 210 16:58 01.04.2020
5583 Clouds 9 998 49 10000 7.2 210 16:39 01.04.2020
5584 Clouds 9 999 45 10000 7.2 210 16:21 01.04.2020
5585 Clouds 9 999 45 10000 7.2 200 15:57 01.04.2020
5586 Clouds 9 1000 45 10000 6.2 200 15:37 01.04.2020
5587 Clouds 9 1000 45 10000 6.2 200 15:18 01.04.2020
5588 Clouds 9 1000 45 10000 5.7 200 14:55 01.04.2020
5589 Clouds 9 1000 45 10000 5.7 200 14:55 01.04.2020
5590 Clouds 9 1000 45 10000 5.7 200 14:36 01.04.2020
5591 Clouds 9 1001 42 10000 5.7 210 14:18 01.04.2020
5592 Clouds 9 1001 39 10000 3.6 230 13:55 01.04.2020
5593 Clouds 9 1002 39 10000 4.1 220 13:36 01.04.2020
5594 Clouds 9 1002 39 10000 4.1 220 13:18 01.04.2020
5595 Clouds 9 1002 42 10000 3.6 220 12:42 01.04.2020
5596 Clouds 9 1002 49 10000 3.6 200 12:23 01.04.2020
5597 Clouds 8 1003 52 10000 4.1 170 11:59 01.04.2020
5598 Clouds 7 1003 52 10000 4.1 170 11:39 01.04.2020
5599 Clouds 7 1003 56 10000 4.6 180 11:20 01.04.2020
5600 Clouds 6 1004 60 10000 3.1 190 10:41 01.04.2020
5601 Clouds 6 1004 60 10000 3.1 180 10:22 01.04.2020
5602 Clouds 5 1004 60 10000 3.1 180 09:59 01.04.2020
5603 Clouds 5 1004 64 10000 1 0 09:40 01.04.2020
5604 Clouds 3 1005 74 10000 1 180 09:21 01.04.2020
5605 Clouds 3 1005 74 10000 1.5 200 08:57 01.04.2020
5606 Clouds 2 1005 74 10000 1.5 200 08:38 01.04.2020
5607 Clouds 2 1005 69 10000 1.5 210 08:18 01.04.2020
5608 Clouds 2 1006 74 10000 1.5 190 07:41 01.04.2020
5609 Clouds 2 1006 74 10000 1.5 220 07:19 01.04.2020
5610 Clouds 2 1006 69 10000 1.5 210 06:47 01.04.2020
5611 Clouds 2 1007 69 10000 1.5 190 06:21 01.04.2020
5612 Clouds 2 1007 64 10000 1 210 05:53 01.04.2020
5613 Clouds 2 1008 59 10000 1.5 170 04:29 01.04.2020
5614 Clouds 3 1009 56 10000 1.5 0 03:21 01.04.2020
5615 Clouds 3 1009 56 10000 2.1 0 02:46 01.04.2020
5616 Clouds 3 1009 55 10000 1 0 01:53 01.04.2020
5617 Clouds 3 1010 60 10000 2.1 360 01:29 01.04.2020
5618 Clouds 3 1010 59 10000 1.5 0 00:48 01.04.2020
5619 Clouds 4 1010 55 10000 1.5 350 00:25 01.04.2020
5620 Clouds 4 1010 52 10000 2.1 340 23:59 31.03.2020
5621 Clouds 4 1010 52 10000 2.1 340 23:41 31.03.2020
5622 Clouds 5 1010 48 10000 2.1 30 23:22 31.03.2020
5623 Clouds 5 1010 48 10000 2.1 30 23:22 31.03.2020
5624 Clouds 5 1011 45 10000 2.6 280 22:42 31.03.2020
5625 Clouds 5 1011 45 10000 2.6 280 22:23 31.03.2020
5626 Clouds 6 1011 42 10000 3.6 300 21:59 31.03.2020
5627 Clouds 6 1011 42 10000 3.6 300 21:59 31.03.2020
5628 Clouds 6 1011 45 10000 2.1 0 21:41 31.03.2020
5629 Clouds 6 1011 45 10000 2.1 0 21:22 31.03.2020
5630 Clouds 7 1011 45 10000 2.1 0 20:58 31.03.2020
5631 Clouds 7 1011 42 10000 3.6 270 20:38 31.03.2020
5632 Clouds 8 1011 42 10000 3.6 270 20:20 31.03.2020
5633 Clouds 8 1012 39 10000 3.1 0 19:59 31.03.2020
5634 Clouds 8 1012 39 10000 3.1 0 19:40 31.03.2020
5635 Clouds 9 1012 36 10000 4.6 0 19:21 31.03.2020
5636 Clouds 10 1012 37 10000 5.1 280 18:54 31.03.2020
5637 Clouds 10 1012 37 10000 5.1 280 18:36 31.03.2020
5638 Clouds 10 1013 36 10000 3.1 0 18:18 31.03.2020
5639 Clouds 10 1014 36 10000 4.1 0 17:54 31.03.2020
5640 Clouds 10 1014 36 10000 4.1 0 17:36 31.03.2020
5641 Clouds 10 1014 36 10000 4.1 0 17:36 31.03.2020
5642 Clouds 10 1014 36 10000 3.1 240 17:18 31.03.2020
5643 Clouds 10 1015 36 10000 1.5 290 16:37 31.03.2020
5644 Clouds 10 1015 36 10000 2.6 280 16:18 31.03.2020
5645 Clouds 9 1015 36 10000 3.1 260 15:56 31.03.2020
5646 Clouds 9 1015 36 10000 3.1 260 15:37 31.03.2020
5647 Clear 9 1016 36 10000 4.1 250 15:19 31.03.2020
5648 Clear 10 1016 34 10000 4.6 250 14:56 31.03.2020
5649 Clear 10 1016 34 10000 4.6 250 14:38 31.03.2020
5650 Clear 9 1016 34 10000 5.7 250 14:18 31.03.2020
5651 Clear 9 1017 34 10000 4.6 270 13:41 31.03.2020
5652 Clear 9 1017 34 10000 5.7 240 13:19 31.03.2020
5653 Clear 9 1017 39 10000 5.1 220 12:55 31.03.2020
5654 Clear 8 1017 39 10000 5.1 220 12:37 31.03.2020
5655 Clear 6 1018 42 10000 5.1 200 12:18 31.03.2020
5656 Clear 6 1019 45 10000 4.6 220 11:38 31.03.2020
5657 Clear 5 1019 44 10000 4.1 200 11:19 31.03.2020
5658 Clear 5 1020 48 10000 4.1 190 10:57 31.03.2020
5659 Clear 5 1020 48 10000 4.1 190 10:39 31.03.2020
5660 Clear 4 1021 51 10000 4.1 180 10:21 31.03.2020
5661 Clear 3 1021 55 10000 3.6 160 09:56 31.03.2020
5662 Clear 2 1021 55 10000 3.6 160 09:37 31.03.2020
5663 Clear 3 1021 55 10000 3.6 160 09:37 31.03.2020
5664 Clouds 1 1022 85 10000 3.6 170 09:19 31.03.2020
5665 Clouds 0 1022 63 10000 3.1 170 08:56 31.03.2020
5666 Clouds -1 1022 63 10000 3.1 170 08:37 31.03.2020
5667 Clouds -1 1023 68 10000 3.1 200 08:18 31.03.2020
5668 Clouds -2 1023 68 10000 3.1 200 07:54 31.03.2020
5669 Clouds -2 1023 68 10000 3.1 200 07:36 31.03.2020
5670 Clouds -3 1024 73 10000 3.6 200 07:18 31.03.2020
5671 Clouds -3 1024 68 10000 3.6 190 06:42 31.03.2020
5672 Clouds -2 1025 63 10000 4.1 170 05:53 31.03.2020
5673 Clouds -2 1025 63 10000 3.1 200 05:26 31.03.2020
5674 Clouds -2 1028 68 10000 2.1 200 02:57 31.03.2020
5675 Clouds -2 1028 68 10000 1 0 01:47 31.03.2020
5676 Clouds -2 1028 68 10000 1.5 200 01:27 31.03.2020
5677 Clouds -2 1028 63 10000 1 0 00:43 31.03.2020
5678 Clear -2 1029 63 10000 0.6 176 00:23 31.03.2020
5679 Clear -2 1029 63 10000 0.6 176 23:41 30.03.2020
5680 Clear -2 1029 58 10000 1 0 23:20 30.03.2020
5681 Clear -2 1029 58 10000 1 0 23:20 30.03.2020
5682 Clear -2 1029 58 10000 1 330 22:58 30.03.2020
5683 Clear -2 1029 58 10000 1 330 22:38 30.03.2020
5684 Clear -1 1029 58 10000 0.6 176 22:19 30.03.2020
5685 Clear -1 1029 85 10000 0.6 176 21:57 30.03.2020
5686 Clear 0 1029 85 10000 0.6 176 21:38 30.03.2020
5687 Clouds 0 1028 40 10000 1.06 7 21:20 30.03.2020
5688 Clouds 0 1028 40 10000 1.06 7 21:20 30.03.2020
5689 Clouds 1 1028 40 10000 1.5 270 20:58 30.03.2020
5690 Clouds 1 1028 40 10000 1.5 270 20:39 30.03.2020
5691 Clouds 2 1028 37 10000 2.6 360 20:20 30.03.2020
5692 Clouds 2 1028 34 10000 4.6 30 19:56 30.03.2020
5693 Clouds 3 1028 34 10000 4.6 30 19:37 30.03.2020
5694 Clouds 4 1028 34 10000 4.6 10 19:19 30.03.2020
5695 Clouds 5 1028 29 10000 5.7 360 18:42 30.03.2020
5696 Clouds 5 1028 29 10000 5.7 360 18:42 30.03.2020
5697 Clouds 5 1028 32 10000 7.7 360 18:24 30.03.2020
5698 Clouds 5 1028 29 10000 5.7 360 17:58 30.03.2020
5699 Clouds 5 1028 29 10000 5.7 360 17:39 30.03.2020
5700 Clouds 5 1028 29 10000 7.7 360 17:19 30.03.2020
5701 Clouds 5 1028 32 10000 7.7 360 16:58 30.03.2020
5702 Clouds 5 1029 30 10000 4.6 30 16:39 30.03.2020
5703 Clouds 5 1028 32 10000 5.1 10 16:20 30.03.2020
5704 Clouds 5 1028 34 10000 5.1 20 15:55 30.03.2020
5705 Clouds 5 1028 34 10000 5.1 20 15:37 30.03.2020
5706 Clear 5 1029 30 10000 4.6 20 15:19 30.03.2020
5707 Clear 5 1029 30 10000 4.6 20 15:19 30.03.2020
5708 Clear 4 1028 37 10000 6.7 360 14:56 30.03.2020
5709 Clear 5 1028 37 10000 6.7 360 14:37 30.03.2020
5710 Rain 4 1028 37 10000 6.7 10 14:18 30.03.2020
5711 Rain 4 1028 40 10000 5.1 20 13:55 30.03.2020
5712 Rain 4 1028 40 10000 5.1 20 13:37 30.03.2020
5713 Rain 4 1028 40 10000 5.1 360 13:19 30.03.2020
5714 Clouds 3 1028 40 10000 4.1 360 12:44 30.03.2020
5715 Clouds 3 1028 43 10000 4.1 360 12:21 30.03.2020
5716 Clouds 3 1028 43 10000 4.1 340 11:57 30.03.2020
5717 Clouds 3 1028 43 10000 4.1 340 11:39 30.03.2020
5718 Clear 3 1028 47 10000 4.1 350 11:21 30.03.2020
5719 Clear 3 1028 50 10000 2.1 0 10:41 30.03.2020
5720 Clear 2 1028 63 10000 2.6 300 10:23 30.03.2020
5721 Clear 2 1028 63 10000 2.1 290 09:59 30.03.2020
5722 Clear 1 1028 63 10000 2.1 290 09:40 30.03.2020
5723 Clouds 0 1028 58 10000 2.1 330 09:19 30.03.2020
5724 Clouds 0 1027 58 10000 3.1 350 08:47 30.03.2020
5725 Clouds -1 1027 63 10000 2.1 320 08:28 30.03.2020
5726 Clouds -1 1027 63 10000 2.1 320 08:28 30.03.2020
5727 Clouds -1 1026 63 10000 2.1 300 07:58 30.03.2020
5728 Clouds -1 1026 63 10000 2.1 300 07:39 30.03.2020
5729 Clouds -2 1026 63 10000 1.5 330 07:18 30.03.2020
5730 Clouds -1 1025 68 10000 4.1 350 06:39 30.03.2020
5731 Clouds -1 1025 68 10000 4.1 350 06:19 30.03.2020
5732 Clouds -1 1025 58 10000 2.6 340 05:39 30.03.2020
5733 Clouds 0 1025 58 10000 3.1 330 04:28 30.03.2020
5734 Clouds 0 1025 90 10000 4.1 350 03:52 30.03.2020
5735 Clouds 0 1024 80 10000 3.1 10 02:44 30.03.2020
5736 Clouds 0 1024 88 10000 3.1 350 01:54 30.03.2020
5737 Clouds 1 1024 69 10000 5.1 10 00:57 30.03.2020
5738 Clouds 1 1023 59 10000 6.2 360 00:26 30.03.2020
5739 Clouds 1 1023 47 10000 2.6 340 23:55 29.03.2020
5740 Clouds 1 1023 47 10000 2.6 340 23:36 29.03.2020
5741 Clouds 1 1023 47 10000 3.1 310 23:18 29.03.2020
5742 Clouds 1 1023 47 10000 2.6 310 22:40 29.03.2020
5743 Clouds 2 1023 44 10000 2.6 310 22:20 29.03.2020
5744 Clouds 2 1023 40 10000 1.5 350 21:59 29.03.2020
5745 Clouds 2 1023 40 10000 1.5 350 21:37 29.03.2020
5746 Clouds 2 1023 38 10000 1 0 21:19 29.03.2020
5747 Clouds 3 1023 38 10000 1.5 330 20:55 29.03.2020
5748 Clouds 3 1023 38 10000 1.5 330 20:37 29.03.2020
5749 Clouds 3 1023 38 10000 1.5 310 20:18 29.03.2020
5750 Clouds 3 1023 38 10000 1.5 310 20:18 29.03.2020
5751 Clouds 3 1023 38 10000 1.5 310 20:18 29.03.2020
5752 Clouds 4 1023 38 10000 2.6 290 19:55 29.03.2020
5753 Clouds 4 1024 32 10000 4.1 270 19:37 29.03.2020
5754 Clouds 5 1024 32 10000 4.1 270 19:19 29.03.2020
5755 Clouds 5 1024 35 10000 2.1 260 18:55 29.03.2020
5756 Clouds 5 1024 35 10000 2.1 260 18:37 29.03.2020
5757 Clouds 5 1025 32 10000 3.6 280 18:18 29.03.2020
5758 Clouds 5 1025 30 10000 2.1 250 17:54 29.03.2020
5759 Clouds 5 1025 27 10000 3.1 290 17:36 29.03.2020
5760 Clouds 5 1025 27 10000 3.1 290 17:18 29.03.2020
5761 Clouds 5 1025 27 10000 3.1 290 17:18 29.03.2020
5762 Clouds 5 1026 27 10000 5.1 290 16:55 29.03.2020
5763 Clouds 5 1026 27 10000 5.1 290 16:36 29.03.2020
5764 Clouds 5 1026 27 10000 5.1 290 16:36 29.03.2020
5765 Clouds 6 1026 26 10000 5.1 290 16:18 29.03.2020
5766 Clouds 6 1027 30 10000 4.6 240 15:40 29.03.2020
5767 Clouds 6 1028 27 10000 4.6 230 15:21 29.03.2020
5768 Clouds 5 1029 29 10000 4.6 230 14:57 29.03.2020
5769 Clouds 5 1029 29 10000 4.6 230 14:38 29.03.2020
5770 Clouds 5 1029 29 10000 4.6 200 14:19 29.03.2020
5771 Clouds 5 1030 29 10000 4.6 230 13:56 29.03.2020
5772 Clouds 4 1030 29 10000 4.6 230 13:37 29.03.2020
5773 Clouds 4 1033 29 0 3.6 260 13:19 29.03.2020
5774 Clouds 4 1031 31 10000 3.6 280 12:54 29.03.2020
5775 Clouds 3 1031 31 10000 4.1 290 12:36 29.03.2020
5776 Clear 3 1031 31 10000 4.1 290 12:18 29.03.2020
5777 Clear 3 1032 31 10000 4.6 240 11:39 29.03.2020
5778 Clear 2 1032 29 10000 3.6 260 11:21 29.03.2020
5779 Clear 1 1032 59 10000 2.6 280 10:55 29.03.2020
5780 Clear 1 1032 59 10000 2.6 280 10:37 29.03.2020
5781 Clear 0 1033 42 10000 3.6 300 10:18 29.03.2020
5782 Clear -1 1033 46 10000 4.1 310 09:39 29.03.2020
5783 Clear -2 1033 49 10000 3.6 300 09:19 29.03.2020
5784 Clear -2 1033 49 10000 3.6 310 08:52 29.03.2020
5785 Clear -3 1033 53 10000 2.1 310 08:28 29.03.2020
5786 Clear -4 1033 53 10000 3.1 280 07:58 29.03.2020
5787 Clear -4 1033 53 10000 3.1 280 07:39 29.03.2020
5788 Clear -4 1033 53 10000 2.6 300 07:20 29.03.2020
5789 Clear -3 1034 53 10000 2.1 290 04:59 29.03.2020
5790 Clear -3 1034 53 10000 1.5 330 03:48 29.03.2020
5791 Clear -3 1034 53 10000 2.1 330 03:26 29.03.2020
5792 Clear -3 1034 53 10000 2.6 330 01:50 29.03.2020
5793 Clear -2 1034 53 10000 3.1 350 01:23 29.03.2020
5794 Clear -2 1033 53 10000 4.6 350 00:53 29.03.2020
5795 Clear -2 1033 53 10000 6.2 350 00:30 29.03.2020
5796 Clear -1 1033 50 10000 7.2 10 23:42 28.03.2020
5797 Clear -1 1032 50 10000 6.7 360 23:23 28.03.2020
5798 Clear -1 1032 50 10000 6.7 360 22:57 28.03.2020
5799 Clear -1 1032 50 10000 6.7 360 22:37 28.03.2020
5800 Clear 0 1032 42 10000 6.7 10 22:19 28.03.2020
5801 Clear 0 1031 46 10000 8.2 10 21:42 28.03.2020
5802 Clear 0 1031 46 10000 7.7 10 21:24 28.03.2020
5803 Clear 1 1030 79 10000 8.2 360 20:58 28.03.2020
5804 Clear 1 1030 81 10000 8.2 360 20:39 28.03.2020
5805 Clouds 1 1030 75 10000 8.2 360 20:21 28.03.2020
5806 Clouds 1 1029 75 10000 8.7 360 19:56 28.03.2020
5807 Clouds 2 1029 75 10000 8.7 360 19:37 28.03.2020
5808 Clouds 2 1029 75 10000 8.7 360 19:37 28.03.2020
5809 Clouds 2 1028 37 10000 7.7 360 19:19 28.03.2020
5810 Clouds 3 1028 37 10000 10.3 10 18:55 28.03.2020
5811 Clouds 3 1027 37 10000 9.8 10 18:36 28.03.2020
5812 Clouds 3 1027 37 10000 9.8 10 18:18 28.03.2020
5813 Rain 4 1027 29 10000 9.3 10 17:38 28.03.2020
5814 Rain 5 1026 35 10000 7.2 10 17:19 28.03.2020
5815 Rain 5 1026 32 10000 9.8 10 16:42 28.03.2020
5816 Clouds 6 1025 33 0 7.7 360 16:20 28.03.2020
5817 Rain 6 1025 32 10000 9.3 360 15:56 28.03.2020
5818 Clouds 6 1025 30 10000 7.7 20 15:38 28.03.2020
5819 Rain 7 1025 33 10000 8.2 360 15:18 28.03.2020
5820 Clouds 7 1025 28 10000 9.3 10 14:42 28.03.2020
5821 Clouds 6 1025 35 10000 8.7 360 14:22 28.03.2020
5822 Clouds 7 1025 35 10000 8.7 360 13:57 28.03.2020
5823 Clouds 7 1024 33 10000 8.7 360 13:37 28.03.2020
5824 Clouds 7 1024 33 10000 8.7 360 13:18 28.03.2020
5825 Clouds 7 1024 35 10000 7.2 360 12:38 28.03.2020
5826 Clouds 7 1024 30 10000 8.7 20 12:19 28.03.2020
5827 Clouds 6 1024 35 10000 7.7 350 11:42 28.03.2020
5828 Clouds 6 1024 35 10000 7.7 350 11:42 28.03.2020
5829 Clouds 6 1024 35 10000 7.7 350 11:21 28.03.2020
5830 Clouds 5 1024 35 10000 9.3 360 10:55 28.03.2020
5831 Clouds 5 1024 35 10000 9.3 360 10:36 28.03.2020
5832 Clouds 5 1024 32 10000 8.2 350 10:18 28.03.2020
5833 Clouds 4 1024 32 10000 6.7 360 09:40 28.03.2020
5834 Clouds 4 1023 35 10000 6.7 360 09:22 28.03.2020
5835 Clouds 3 1023 37 10000 6.2 350 08:45 28.03.2020
5836 Clear 2 1023 37 10000 7.2 360 08:25 28.03.2020
5837 Clear 1 1023 37 10000 7.2 360 07:59 28.03.2020
5838 Clear 1 1023 59 10000 3.1 350 07:41 28.03.2020
5839 Clear 0 1022 69 10000 3.1 350 06:54 28.03.2020
5840 Clear 0 1022 64 10000 2.1 310 06:29 28.03.2020
5841 Clear 0 1022 64 10000 2.1 310 05:38 28.03.2020
5842 Clear 0 1022 64 10000 2.1 310 05:19 28.03.2020
5843 Clear -1 1022 89 10000 1 0 04:39 28.03.2020
5844 Clear -1 1022 92 10000 1 0 02:52 28.03.2020
5845 Clouds -1 1022 86 10000 1.5 150 01:48 28.03.2020
5846 Clouds -1 1022 80 10000 2.1 30 01:23 28.03.2020
5847 Clouds -1 1022 86 10000 0.96 279 00:51 28.03.2020
5848 Clouds 0 1023 87 10000 0.96 279 00:28 28.03.2020
5849 Clouds 0 1023 80 10000 1.5 290 23:44 27.03.2020
5850 Clouds 0 1023 80 10000 1.5 290 23:26 27.03.2020
5851 Clouds 1 1023 80 10000 2.6 250 22:57 27.03.2020
5852 Clouds 1 1023 80 10000 2.6 250 22:39 27.03.2020
5853 Clouds 1 1023 80 10000 2.6 250 22:39 27.03.2020
5854 Clouds 1 1023 74 10000 2.6 260 22:20 27.03.2020
5855 Clouds 2 1023 74 10000 2.1 260 21:58 27.03.2020
5856 Clouds 2 1023 83 10000 1 0 21:40 27.03.2020
5857 Clouds 2 1023 83 10000 1 0 21:22 27.03.2020
5858 Clouds 3 1023 86 10000 1.5 250 20:57 27.03.2020
5859 Clouds 3 1023 80 10000 1.5 220 20:38 27.03.2020
5860 Clouds 4 1023 80 10000 1.5 220 20:19 27.03.2020
5861 Clouds 4 1023 80 10000 1.5 220 20:19 27.03.2020
5862 Clouds 4 1023 80 10000 1.5 220 20:19 27.03.2020
5863 Clouds 4 1024 80 10000 3.1 210 19:54 27.03.2020
5864 Clouds 5 1024 80 10000 3.1 210 19:36 27.03.2020
5865 Clouds 5 1023 75 10000 3.1 210 19:18 27.03.2020
5866 Clouds 6 1023 70 10000 3.1 210 18:42 27.03.2020
5867 Clouds 7 1023 70 10000 3.1 210 18:22 27.03.2020
5868 Clouds 7 1024 75 10000 3.6 190 17:41 27.03.2020
5869 Clouds 8 1024 75 10000 4.6 190 17:21 27.03.2020
5870 Clouds 8 1024 75 10000 3.6 180 16:57 27.03.2020
5871 Clouds 8 1024 75 10000 3.6 180 16:39 27.03.2020
5872 Clouds 8 1024 75 10000 3.6 180 16:20 27.03.2020
5873 Clouds 8 1025 75 10000 3.6 190 15:43 27.03.2020
5874 Clouds 8 1002 67 0 0.45 267 15:25 27.03.2020
5875 Clouds 8 1003 67 0 0.45 227 14:48 27.03.2020
5876 Clouds 8 1003 67 0 0.45 225 14:27 27.03.2020
5877 Clouds 8 1003 64 0 2.38 201 13:58 27.03.2020
5878 Clouds 8 1003 63 0 2.38 201 13:40 27.03.2020
5879 Clouds 8 1003 62 0 0.45 90 13:21 27.03.2020
5880 Clouds 8 1003 66 0 0.45 90 12:57 27.03.2020
5881 Clouds 7 1003 71 0 0.45 137 12:39 27.03.2020
5882 Clouds 7 1004 74 0 1.9 201 12:19 27.03.2020
5883 Clouds 6 1004 74 0 0.45 180 11:41 27.03.2020
5884 Clouds 6 1004 75 0 1.55 187 11:23 27.03.2020
5885 Clouds 6 1004 75 0 1.55 187 11:23 27.03.2020
5886 Clouds 6 1004 76 0 1.55 187 10:55 27.03.2020
5887 Clouds 6 1004 75 0 0.45 313 10:37 27.03.2020
5888 Clouds 5 1004 76 0 1.55 187 10:19 27.03.2020
5889 Clouds 5 1004 79 0 1.55 187 09:57 27.03.2020
5890 Clouds 5 1004 80 0 0.45 88 09:37 27.03.2020
5891 Clouds 5 1004 80 0 0.45 178 09:18 27.03.2020
5892 Clouds 4 1004 82 0 0.45 221 08:56 27.03.2020
5893 Clouds 4 1004 84 0 0.89 269 08:38 27.03.2020
5894 Clouds 4 1004 85 0 0.45 179 08:20 27.03.2020
5895 Clouds 3 1004 87 0 0.58 181 07:50 27.03.2020
5896 Clouds 3 1004 88 0 0.45 153 07:24 27.03.2020
5897 Clouds 3 1004 89 0 0.45 358 06:53 27.03.2020
5898 Clouds 3 1004 90 0 0.89 88 06:35 27.03.2020
5899 Clouds 3 1004 86 0 0.45 138 04:59 27.03.2020
5900 Clouds 3 1005 81 0 0.9 162 02:36 27.03.2020
5901 Clouds 3 1005 81 0 0.45 311 01:23 27.03.2020
5902 Clouds 3 1005 80 0 0.45 135 00:50 27.03.2020
5903 Clouds 3 1005 80 0 0.45 355 00:31 27.03.2020
5904 Clouds 4 1005 79 0 0.45 315 23:44 26.03.2020
5905 Clouds 4 1005 76 0 0.89 269 23:23 26.03.2020
5906 Clouds 4 1005 74 0 0.45 225 22:59 26.03.2020
5907 Clouds 4 1005 73 0 0.45 45 22:38 26.03.2020
5908 Clouds 4 1005 72 0 0.45 160 22:20 26.03.2020
5909 Clouds 4 1005 71 0 1.28 176 21:57 26.03.2020
5910 Clouds 4 1005 71 0 0.45 178 21:39 26.03.2020
5911 Clouds 4 1005 71 0 0.45 135 21:20 26.03.2020
5912 Clouds 4 1005 70 0 0.89 188 20:58 26.03.2020
5913 Clouds 4 1005 70 0 0.45 270 20:38 26.03.2020
5914 Clouds 4 1005 70 0 0.45 270 20:38 26.03.2020
5915 Clouds 4 1005 70 0 0.45 183 20:20 26.03.2020
5916 Clouds 5 1005 68 0 0.89 226 19:55 26.03.2020
5917 Clouds 5 1005 68 0 0.45 225 19:37 26.03.2020
5918 Clouds 5 1005 67 0 0.89 137 19:19 26.03.2020
5919 Clouds 5 1005 66 0 0.89 177 18:55 26.03.2020
5920 Clouds 6 1005 65 0 0.89 179 18:36 26.03.2020
5921 Clouds 6 1005 64 0 0.45 179 18:18 26.03.2020
5922 Clouds 6 1004 63 0 1.34 315 17:42 26.03.2020
5923 Clouds 6 1005 62 0 1.34 180 17:18 26.03.2020
5924 Clouds 7 1005 61 0 0.45 135 16:45 26.03.2020
5925 Clouds 7 1005 60 0 0.89 222 16:26 26.03.2020
5926 Clouds 8 1005 59 0 0.45 335 15:58 26.03.2020
5927 Clouds 8 1005 59 0 1.34 270 15:39 26.03.2020
5928 Clouds 8 1005 60 0 1.34 135 15:20 26.03.2020
5929 Clouds 9 1005 60 0 0.89 268 14:57 26.03.2020
5930 Clouds 9 1004 55 0 1.34 137 14:37 26.03.2020
5931 Clouds 10 1004 55 0 0.89 180 14:18 26.03.2020
5932 Clouds 11 1004 59 0 0.45 225 13:41 26.03.2020
5933 Clouds 10 1026 61 0 2.88 191 13:22 26.03.2020
5934 Clouds 10 1004 67 0 0.45 225 12:56 26.03.2020
5935 Clouds 9 1004 69 0 2.88 191 12:37 26.03.2020
5936 Clouds 9 1004 71 0 0.89 226 12:18 26.03.2020
5937 Clouds 8 1004 80 0 0.45 180 11:44 26.03.2020
5938 Clouds 7 1004 81 0 0.45 179 11:20 26.03.2020
5939 Clouds 7 1004 83 0 0.45 218 10:56 26.03.2020
5940 Clouds 6 1004 84 0 0.45 46 10:36 26.03.2020
5941 Clouds 6 1004 85 0 0.89 93 10:18 26.03.2020
5942 Clouds 5 1004 87 0 0.89 143 09:42 26.03.2020
5943 Clouds 5 1004 90 0 0.89 178 09:19 26.03.2020
5944 Clouds 5 1004 90 0 0.45 223 08:46 26.03.2020
5945 Clouds 4 1004 91 0 0.45 135 08:27 26.03.2020
5946 Clouds 4 1003 91 0 0.89 177 07:58 26.03.2020
5947 Clouds 4 1003 91 0 0.89 137 07:40 26.03.2020
5948 Clouds 4 1003 91 0 0.45 267 07:20 26.03.2020
5949 Clouds 3 1003 91 0 0.45 135 06:46 26.03.2020
5950 Clouds 3 1003 91 0 0.89 282 05:52 26.03.2020
5951 Clouds 3 1002 91 0 0.89 93 03:52 26.03.2020
5952 Clouds 3 1002 91 0 1.34 159 03:33 26.03.2020
5953 Clouds 3 1002 90 0 0.45 263 02:53 26.03.2020
5954 Clouds 4 1002 90 0 0.45 227 01:20 26.03.2020
5955 Clouds 4 1001 88 0 1.34 137 00:33 26.03.2020
5956 Clouds 3 1001 87 0 0.89 177 23:44 25.03.2020
5957 Clouds 4 1001 86 0 0.45 91 23:26 25.03.2020
5958 Clouds 4 1002 86 0 0.45 221 22:56 25.03.2020
5959 Clouds 4 1002 86 0 0.45 90 22:38 25.03.2020
5960 Clouds 4 1002 86 0 3.98 191 22:19 25.03.2020
5961 Clouds 4 1001 85 0 0.45 270 21:54 25.03.2020
5962 Clouds 4 1001 84 0 0.89 179 21:36 25.03.2020
5963 Clouds 4 1001 84 0 0.45 135 21:18 25.03.2020
5964 Clouds 5 1001 83 0 3.98 191 20:39 25.03.2020
5965 Clouds 5 1001 83 0 0.45 91 20:20 25.03.2020
5966 Clouds 5 1001 83 0 0.45 90 19:57 25.03.2020
5967 Clouds 5 1001 83 0 0.89 180 19:38 25.03.2020
5968 Clouds 6 1001 83 0 0.89 201 19:20 25.03.2020
5969 Clouds 6 1000 82 0 1.34 356 18:54 25.03.2020
5970 Clouds 6 1000 82 0 1.34 269 18:36 25.03.2020
5971 Clouds 6 1000 82 0 1.34 269 18:36 25.03.2020
5972 Clouds 6 1000 81 0 2.24 178 18:18 25.03.2020
5973 Clouds 6 1000 80 0 2.68 182 17:41 25.03.2020
5974 Clouds 6 1000 80 0 2.68 200 17:22 25.03.2020
5975 Clouds 6 1000 80 0 2.68 200 17:22 25.03.2020
5976 Clouds 7 1000 78 0 2.24 313 16:59 25.03.2020
5977 Clouds 7 1000 78 0 2.24 132 16:39 25.03.2020
5978 Clouds 7 1000 76 0 2.24 184 16:21 25.03.2020
5979 Clouds 7 1000 76 0 2.24 184 16:21 25.03.2020
5980 Clouds 8 1000 73 0 1.34 174 15:43 25.03.2020
5981 Clouds 8 1000 72 0 2.24 179 15:21 25.03.2020
5982 Clouds 7 1000 66 0 2.24 183 14:59 25.03.2020
5983 Clouds 8 1000 66 0 2.24 315 14:40 25.03.2020
5984 Clouds 8 999 67 0 2.24 133 14:20 25.03.2020
5985 Clouds 8 999 65 0 1.79 290 13:46 25.03.2020
5986 Clouds 8 999 65 0 1.34 181 13:25 25.03.2020
5987 Clouds 8 999 63 0 1.34 0 12:54 25.03.2020
5988 Clouds 8 999 62 0 2.24 135 12:36 25.03.2020
5989 Clouds 8 999 61 0 1.79 178 12:18 25.03.2020
5990 Clouds 9 999 59 0 1.79 135 11:41 25.03.2020
5991 Clouds 7 1004 27 0 4.47 213 11:21 25.03.2020
5992 Clouds 8 999 57 0 2.24 0 10:59 25.03.2020
5993 Clouds 8 999 57 0 2.24 0 10:59 25.03.2020
5994 Clouds 6 1004 28 0 4.02 157 10:40 25.03.2020
5995 Clouds 8 999 57 0 1.79 182 10:40 25.03.2020
5996 Clouds 8 999 59 0 0.89 316 10:19 25.03.2020
5997 Clouds 7 999 60 0 1.34 229 09:58 25.03.2020
5998 Clouds 7 999 62 0 0.45 2 09:39 25.03.2020
5999 Clouds 7 999 68 0 1.34 182 09:21 25.03.2020
6000 Clouds 6 999 70 0 2.24 135 08:43 25.03.2020
6001 Clouds 5 998 72 0 2.24 136 08:25 25.03.2020
6002 Clouds 4 998 73 0 2.68 223 07:58 25.03.2020
6003 Clouds 4 998 73 0 2.68 180 07:38 25.03.2020
6004 Clouds 4 998 73 0 1.34 315 07:18 25.03.2020
6005 Clouds 4 998 73 0 1.79 136 06:43 25.03.2020
6006 Clouds 4 998 73 0 1.34 176 06:25 25.03.2020
6007 Clouds 3 998 74 0 1.34 135 05:47 25.03.2020
6008 Clouds 3 999 74 0 1.34 270 04:46 25.03.2020
6009 Clouds 3 999 74 0 1.79 131 03:58 25.03.2020
6010 Clouds 3 999 74 0 3.13 292 03:34 25.03.2020
6011 Clouds 4 1000 75 0 0.89 312 01:41 25.03.2020
6012 Clouds 4 1000 75 0 0.89 312 01:41 25.03.2020
6013 Clouds 4 1000 75 0 0.89 312 01:41 25.03.2020
6014 Clouds 4 1000 75 0 0.89 312 01:41 25.03.2020
6015 Clouds 4 1000 75 0 2.24 182 00:58 25.03.2020
6016 Clouds 4 1000 74 0 2.24 135 00:40 25.03.2020
6017 Clouds 4 1000 72 0 2.24 0 00:18 25.03.2020
6018 Clouds 4 1000 73 0 2.24 317 23:40 24.03.2020
6019 Clouds 4 1000 73 0 2.24 136 23:21 24.03.2020
6020 Clouds 4 1001 73 0 1.34 3 22:55 24.03.2020
6021 Clouds 4 1000 73 0 1.34 184 22:36 24.03.2020
6022 Clouds 4 1000 73 0 2.24 229 22:18 24.03.2020
6023 Clouds 4 1001 73 0 1.79 132 21:43 24.03.2020
6024 Clouds 4 1001 73 0 1.79 69 21:19 24.03.2020
6025 Clouds 4 1001 72 0 1.34 178 20:59 24.03.2020
6026 Clouds 4 1001 72 0 2.24 91 20:41 24.03.2020
6027 Clouds 4 1001 72 0 2.24 73 20:23 24.03.2020
6028 Clouds 4 1001 72 0 3.13 222 19:48 24.03.2020
6029 Clouds 4 1001 72 0 3.13 222 19:48 24.03.2020
6030 Clouds 4 1001 72 0 2.24 137 19:24 24.03.2020
6031 Clouds 4 1001 71 0 2.24 158 18:59 24.03.2020
6032 Clouds 4 1002 71 0 3.13 222 18:40 24.03.2020
6033 -273 0 0 0 0 0 18:20 24.03.2020
6034 Clouds 4 1001 72 0 2.68 158 18:20 24.03.2020
6035 Clouds 4 1002 72 0 1.79 340 17:59 24.03.2020
6036 Clouds 4 1002 73 0 3.13 223 17:40 24.03.2020
6037 Clouds 4 1002 74 0 1.79 180 17:22 24.03.2020
6038 Clouds 5 1024 65 10000 9.8 190 16:57 24.03.2020
6039 Clouds 5 1024 65 10000 9.8 190 16:38 24.03.2020
6040 Clouds 5 1024 65 10000 9.8 200 16:20 24.03.2020
6041 Clouds 5 1024 65 10000 8.7 200 15:44 24.03.2020
6042 Clouds 5 1024 65 10000 9.8 200 15:25 24.03.2020
6043 Clouds 5 1024 65 10000 10.8 200 14:59 24.03.2020
6044 Clouds 5 1024 65 10000 10.8 200 14:40 24.03.2020
6045 Clouds 71 1026 62 0 7.66 200 14:18 24.03.2020
6046 Clouds 71 1026 62 0 7.66 200 13:42 24.03.2020
6047 Clouds 71 1026 62 0 7.57 201 13:23 24.03.2020
6048 Clouds 71 1026 62 0 7.57 201 13:23 24.03.2020
6049 Clouds 71 1026 62 0 7.57 201 12:47 24.03.2020
6050 Clouds 71 1026 62 0 7.57 201 12:28 24.03.2020
6051 Clouds 71 1026 62 0 7.57 201 11:59 24.03.2020
6052 Clouds 5 1025 69 10000 9.3 200 11:39 24.03.2020
6053 Clouds 5 1025 69 10000 9.3 200 11:19 24.03.2020
6054 Clouds 4 1025 69 10000 9.8 200 10:42 24.03.2020
6055 Clouds 4 1025 69 10000 9.8 200 10:19 24.03.2020
6056 Clouds 4 1025 74 10000 9.3 200 09:57 24.03.2020
6057 Clouds 4 1025 74 10000 9.3 200 09:39 24.03.2020
6058 Clouds 4 1025 74 10000 10.3 200 09:20 24.03.2020
6059 Clouds 3 1025 74 10000 8.2 200 08:38 24.03.2020
6060 Clouds 3 1025 80 10000 10.3 200 08:20 24.03.2020
6061 Clouds 3 1025 80 10000 9.8 200 07:47 24.03.2020
6062 Clouds 3 1025 80 10000 10.3 190 07:24 24.03.2020
6063 Clouds 3 1025 80 10000 9.8 200 06:52 24.03.2020
6064 Clouds 2 1025 80 10000 9.8 180 06:25 24.03.2020
6065 Clouds 2 1026 74 10000 9.3 190 04:57 24.03.2020
6066 Clouds 2 1026 74 10000 9.8 190 03:48 24.03.2020
6067 Clouds 2 1026 69 10000 7.7 190 03:18 24.03.2020
6068 Clouds 1 1027 66 10000 6.7 190 01:45 24.03.2020
6069 Clouds 2 1027 74 10000 7.7 200 00:46 24.03.2020
6070 Clouds 2 1027 74 10000 8.7 200 00:24 24.03.2020
6071 Clouds 2 1028 74 10000 9.3 200 23:44 23.03.2020
6072 Clouds 2 1028 74 10000 8.2 200 23:26 23.03.2020
6073 Clouds 2 1028 74 10000 9.3 200 22:55 23.03.2020
6074 Clouds 2 1028 74 10000 9.3 200 22:55 23.03.2020
6075 Clouds 2 1028 74 10000 9.3 200 22:37 23.03.2020
6076 Clouds 2 1028 74 10000 9.8 200 22:19 23.03.2020
6077 Clouds 2 1028 74 10000 9.8 200 21:43 23.03.2020
6078 Clouds 2 1028 74 10000 9.3 200 21:20 23.03.2020
6079 Rain 2 1028 74 10000 8.2 190 20:58 23.03.2020
6080 Rain 3 1028 74 10000 8.2 190 20:39 23.03.2020
6081 Rain 3 1028 80 10000 7.7 190 20:21 23.03.2020
6082 Rain 3 1028 80 10000 8.7 190 19:45 23.03.2020
6083 Rain 3 1028 74 10000 9.3 190 19:27 23.03.2020
6084 Rain 3 1029 74 10000 9.8 200 18:59 23.03.2020
6085 Rain 3 1029 74 10000 9.8 190 18:41 23.03.2020
6086 Rain 3 1029 74 10000 9.8 190 18:21 23.03.2020
6087 Clouds 3 1029 69 10000 9.8 190 17:56 23.03.2020
6088 Clouds 4 1033 76 10000 7.7 190 17:37 23.03.2020
6089 Clouds 4 1033 68 10000 7.7 190 17:18 23.03.2020
6090 Clouds 4 1030 64 10000 8.7 200 16:43 23.03.2020
6091 Clouds 5 1030 64 10000 9.3 200 16:24 23.03.2020
6092 Clouds 5 1030 64 10000 8.7 210 15:42 23.03.2020
6093 Clouds 5 1030 64 10000 8.7 210 15:42 23.03.2020
6094 Clouds 5 1030 60 10000 7.7 200 15:20 23.03.2020
6095 Clouds 4 1031 60 10000 7.7 200 14:55 23.03.2020
6096 Clouds 4 1031 60 10000 7.7 200 14:36 23.03.2020
6097 Clouds 4 1031 55 10000 7.7 210 14:18 23.03.2020
6098 Clouds 5 1031 55 10000 8.2 190 13:41 23.03.2020
6099 Clouds 5 1031 52 10000 7.7 190 13:22 23.03.2020
6100 Clouds 5 1031 55 10000 7.7 210 12:55 23.03.2020
6101 Clouds 4 1031 51 10000 8.7 200 12:37 23.03.2020
6102 Clouds 4 1031 51 10000 8.7 200 12:19 23.03.2020
6103 Clouds 4 1032 59 10000 9.3 200 11:42 23.03.2020
6104 Clouds 4 1032 55 10000 7.7 200 11:42 23.03.2020
6105 Clouds 4 1032 59 10000 9.3 200 11:21 23.03.2020
6106 Clouds 4 1032 59 10000 7.2 200 10:58 23.03.2020
6107 Clouds 4 1032 59 10000 7.2 200 10:39 23.03.2020
6108 Clouds 3 1032 59 10000 7.7 200 10:21 23.03.2020
6109 Clouds 3 1032 64 10000 8.2 210 09:57 23.03.2020
6110 Clouds 3 1032 64 10000 6.2 210 09:37 23.03.2020
6111 Clouds 3 1032 64 10000 6.2 210 09:18 23.03.2020
6112 Clouds 3 1032 69 10000 5.7 200 08:37 23.03.2020
6113 Clouds 2 1032 69 10000 5.7 210 08:19 23.03.2020
6114 Clouds 2 1032 69 10000 7.2 210 07:50 23.03.2020
6115 Clouds 2 1032 69 10000 7.2 210 07:50 23.03.2020
6116 Clouds 2 1032 69 10000 6.7 210 07:31 23.03.2020
6117 Clouds 2 1032 69 10000 7.2 210 06:53 23.03.2020
6118 Clouds 2 1032 69 10000 7.2 210 06:32 23.03.2020
6119 Clouds 2 1032 69 10000 6.7 210 05:42 23.03.2020
6120 Clouds 2 1033 70 10000 4.6 200 03:45 23.03.2020
6121 Clouds 1 1033 70 10000 5.1 180 02:43 23.03.2020
6122 Clouds 1 1034 74 10000 5.7 190 01:38 23.03.2020
6123 Clouds 0 1034 73 10000 5.1 180 00:44 23.03.2020
6124 Clouds 0 1034 73 10000 4.6 160 23:54 22.03.2020
6125 Clouds 0 1034 73 10000 4.6 160 23:36 22.03.2020
6126 Clouds 0 1034 78 10000 4.6 170 23:18 22.03.2020
6127 Clouds 1 1035 74 10000 4.6 180 22:40 22.03.2020
6128 Clouds 0 1035 74 10000 4.6 180 22:19 22.03.2020
6129 Clouds 1 1035 78 10000 4.6 190 21:40 22.03.2020
6130 Clouds 1 1035 74 10000 5.7 180 21:21 22.03.2020
6131 Clouds 1 1035 74 10000 6.2 190 20:58 22.03.2020
6132 Clouds 1 1035 74 10000 6.2 190 20:39 22.03.2020
6133 Clouds 1 1035 74 10000 6.2 180 20:21 22.03.2020
6134 Clouds 2 1035 69 10000 6.2 190 19:55 22.03.2020
6135 Clouds 2 1035 69 10000 6.2 190 19:37 22.03.2020
6136 Clouds 2 1035 69 10000 5.7 190 19:19 22.03.2020
6137 Clouds 2 1035 59 10000 6.7 190 18:56 22.03.2020
6138 Clouds 2 1035 55 10000 6.7 200 18:38 22.03.2020
6139 Clouds 3 1035 55 10000 6.7 200 18:18 22.03.2020
6140 Clouds 3 1035 51 10000 6.7 200 17:56 22.03.2020
6141 Clouds 3 1035 51 10000 6.7 200 17:37 22.03.2020
6142 Clouds 4 1035 48 10000 7.7 200 17:19 22.03.2020
6143 Clouds 4 1035 51 10000 7.2 200 16:55 22.03.2020
6144 Clouds 4 1035 51 10000 7.2 200 16:36 22.03.2020
6145 Clouds 4 1035 48 10000 7.2 200 16:18 22.03.2020
6146 Clouds 4 1036 44 10000 7.2 210 15:39 22.03.2020
6147 Clouds 4 1036 48 10000 8.2 200 14:55 22.03.2020
6148 Clouds 5 1036 48 10000 8.2 200 14:37 22.03.2020
6149 Clouds 5 1036 48 10000 6.7 210 14:18 22.03.2020
6150 Clouds 5 1036 48 10000 7.2 210 13:41 22.03.2020
6151 Clouds 5 1036 44 10000 7.2 210 13:19 22.03.2020
6152 Clouds 5 1036 44 10000 7.2 210 12:47 22.03.2020
6153 Clouds 5 1036 44 10000 6.2 200 12:23 22.03.2020
6154 Clouds 5 1036 47 10000 6.2 210 11:59 22.03.2020
6155 Clouds 4 1036 47 10000 6.2 210 11:41 22.03.2020
6156 Clouds 4 1036 47 10000 5.7 210 11:23 22.03.2020
6157 Clear 4 1037 47 10000 6.2 210 10:54 22.03.2020
6158 Clear 4 1037 47 10000 6.2 210 10:36 22.03.2020
6159 Clear 3 1037 69 10000 4.6 170 10:18 22.03.2020
6160 Clear 2 1037 49 10000 4.1 170 09:41 22.03.2020
6161 Clear 1 1037 79 10000 3.6 190 09:19 22.03.2020
6162 Clear -1 1037 79 10000 2.6 170 08:43 22.03.2020
6163 Clear -1 1037 85 10000 2.1 140 08:24 22.03.2020
6164 Clear -2 1039 80 0 2.6 150 07:51 22.03.2020
6165 Clear -3 1037 85 10000 3.34 198 07:23 22.03.2020
6166 Clear -4 1037 85 10000 3.34 198 06:35 22.03.2020
6167 Clear -4 1037 79 10000 0.5 0 05:35 22.03.2020
6168 Clear -4 1037 79 10000 0.5 0 03:30 22.03.2020
6169 Clear -3 1037 73 10000 0.97 187 01:27 22.03.2020
6170 Clear -3 1037 73 10000 1 0 00:48 22.03.2020
6171 Clear -3 1037 68 10000 1.5 50 00:28 22.03.2020
6172 Clear -3 1037 73 10000 1.5 20 23:43 21.03.2020
6173 Clear -3 1036 73 10000 2.1 340 23:19 21.03.2020
6174 Clear -2 1036 68 10000 1 10 22:58 21.03.2020
6175 Clear -2 1036 68 10000 1 10 22:37 21.03.2020
6176 Clear -2 1036 73 10000 1.5 360 22:18 21.03.2020
6177 Clear -1 1036 68 10000 1.5 350 21:56 21.03.2020
6178 Clear -1 1036 68 10000 1.5 350 21:37 21.03.2020
6179 Clear -1 1036 63 10000 1 0 21:18 21.03.2020
6180 Clear -1 1036 58 10000 1 270 20:41 21.03.2020
6181 Clear -1 1036 47 10000 2.1 210 20:20 21.03.2020
6182 Clear 0 1036 40 10000 1 0 19:44 21.03.2020
6183 Clear 1 1036 37 10000 2.1 210 19:25 21.03.2020
6184 Clear 2 1036 32 10000 1 0 18:58 21.03.2020
6185 Clear 3 1036 32 10000 1 0 18:39 21.03.2020
6186 Clear 4 1036 30 10000 1 0 18:20 21.03.2020
6187 Clear 5 1037 35 0 2.6 310 17:55 21.03.2020
6188 Clear 5 1036 32 10000 0.25 277 17:37 21.03.2020
6189 Clear 5 1036 32 10000 0.3 165 17:18 21.03.2020
6190 Clear 6 1036 32 10000 1 0 16:41 21.03.2020
6191 Clear 6 1036 30 10000 2.1 0 16:21 21.03.2020
6192 Clear 6 1036 30 10000 2.1 0 16:20 21.03.2020
6193 Clear 6 1036 32 10000 2.1 190 15:56 21.03.2020
6194 Clear 6 1036 32 10000 2.1 190 15:37 21.03.2020
6195 Clear 6 1036 32 10000 2.6 150 15:19 21.03.2020
6196 Clear 6 1037 35 10000 2.6 40 14:54 21.03.2020
6197 Clear 6 1037 35 10000 2.6 40 14:36 21.03.2020
6198 Clear 6 1037 35 10000 2.6 40 14:36 21.03.2020
6199 Clear 6 1037 35 10000 2.1 0 14:18 21.03.2020
6200 Clear 6 1037 35 10000 2.1 0 13:57 21.03.2020
6201 Clear 5 1037 35 10000 2.1 0 13:38 21.03.2020
6202 Clouds 6 1038 35 10000 2.1 10 13:19 21.03.2020
6203 Clouds 5 1037 44 10000 1.5 140 12:40 21.03.2020
6204 Clouds 5 1038 43 10000 1 0 12:20 21.03.2020
6205 Clouds 5 1038 40 10000 2.1 10 11:59 21.03.2020
6206 Clouds 4 1038 43 10000 3.1 60 11:39 21.03.2020
6207 Clear 3 1038 43 10000 3.1 60 11:19 21.03.2020
6208 Clear 4 1038 43 10000 3.1 60 11:19 21.03.2020
6209 Clear 3 1038 47 10000 3.1 40 10:57 21.03.2020
6210 Clear 4 1038 47 10000 3.1 40 10:57 21.03.2020
6211 Clear 3 1038 47 10000 3.1 40 10:39 21.03.2020
6212 Clear 3 1038 47 10000 3.1 20 10:21 21.03.2020
6213 Clear 2 1038 55 10000 3.1 30 09:58 21.03.2020
6214 Clear 1 1038 55 10000 3.1 30 09:38 21.03.2020
6215 Clear 1 1038 43 10000 2.6 30 09:20 21.03.2020
6216 Clear 0 1037 63 10000 1 0 08:55 21.03.2020
6217 Clear -1 1037 63 10000 2.1 340 08:37 21.03.2020
6218 Clear -2 1037 63 10000 2.1 340 08:18 21.03.2020
6219 Clear -3 1037 73 10000 2.1 330 07:32 21.03.2020
6220 Clear -3 1037 68 10000 2.6 310 06:56 21.03.2020
6221 Clear -3 1037 68 10000 2.6 310 06:36 21.03.2020
6222 Clear -3 1036 68 10000 2.1 320 06:18 21.03.2020
6223 Clear -2 1036 63 10000 0.5 0 05:23 21.03.2020
6224 Clear -3 1036 58 10000 1 0 03:38 21.03.2020
6225 Clear -3 1035 68 10000 2.6 340 02:36 21.03.2020
6226 Clear -2 1034 58 10000 2.6 340 01:42 21.03.2020
6227 Clear -3 1034 68 10000 3.6 360 01:21 21.03.2020
6228 Clear -2 1034 58 10000 1.5 330 00:38 21.03.2020
6229 Clear -2 1034 54 10000 1.5 340 23:59 20.03.2020
6230 Clear -2 1033 68 10000 1.5 360 23:41 20.03.2020
6231 Clear -2 1033 68 10000 1.5 360 23:20 20.03.2020
6232 Clear -2 1033 68 10000 2.1 350 22:43 20.03.2020
6233 Clear -2 1033 68 10000 2.1 320 22:24 20.03.2020
6234 Clear -1 1032 68 10000 1 0 21:58 20.03.2020
6235 Clear -1 1032 68 10000 1 0 21:39 20.03.2020
6236 Clear -1 1032 63 10000 1.5 350 21:19 20.03.2020
6237 Clear 0 1032 63 10000 0.5 0 20:57 20.03.2020
6238 Clear 0 1032 63 10000 0.5 0 20:39 20.03.2020
6239 Clear 0 1031 47 10000 0.5 260 20:19 20.03.2020
6240 Clear 0 1031 43 10000 1.5 290 19:46 20.03.2020
6241 Clear 2 1031 40 10000 0.72 333 19:20 20.03.2020
6242 Clear 2 1031 37 10000 3.1 30 18:57 20.03.2020
6243 Clear 3 1031 37 10000 3.1 30 18:38 20.03.2020
6244 Clear 4 1031 35 10000 3.6 50 18:19 20.03.2020
6245 Clear 5 1031 35 10000 3.6 40 17:56 20.03.2020
6246 Clear 5 1031 27 10000 4.1 10 17:37 20.03.2020
6247 Clear 5 1031 27 10000 4.1 10 17:18 20.03.2020
6248 Clear 6 1030 30 10000 5.7 20 16:41 20.03.2020
6249 Clear 6 1030 30 10000 6.2 10 16:20 20.03.2020
6250 Clear 6 1030 30 10000 5.7 20 15:44 20.03.2020
6251 Clear 6 1030 32 10000 4.1 360 15:23 20.03.2020
6252 Clear 6 1030 32 10000 4.6 10 14:58 20.03.2020
6253 Clear 6 1030 32 10000 4.6 10 14:40 20.03.2020
6254 Clear 6 1030 32 10000 6.2 360 14:20 20.03.2020
6255 Clear 6 1030 38 10000 5.7 10 13:48 20.03.2020
6256 Clear 5 1030 41 10000 4.6 40 13:21 20.03.2020
6257 Clear 5 1030 41 10000 4.6 10 12:58 20.03.2020
6258 Clear 5 1030 41 10000 4.6 10 12:38 20.03.2020
6259 Clear 5 1030 41 10000 5.1 340 12:19 20.03.2020
6260 Clear 4 1030 44 10000 5.1 30 11:39 20.03.2020
6261 Clear 3 1030 44 10000 5.1 30 11:20 20.03.2020
6262 Clear 3 1029 47 10000 5.1 20 10:55 20.03.2020
6263 Clear 3 1029 47 10000 6.2 10 10:36 20.03.2020
6264 Clear 3 1029 47 10000 6.2 10 10:18 20.03.2020
6265 Clear 2 1029 50 10000 5.1 360 09:44 20.03.2020
6266 Clear 1 1029 42 10000 5.7 350 09:20 20.03.2020
6267 Clear 0 1028 42 10000 4.1 360 08:44 20.03.2020
6268 Clouds -1 1028 58 10000 2.6 340 08:23 20.03.2020
6269 Clouds -1 1028 63 10000 2.1 350 07:59 20.03.2020
6270 Clouds -1 1028 63 10000 2.1 350 07:38 20.03.2020
6271 Clouds -1 1027 63 10000 2.6 340 07:19 20.03.2020
6272 Clouds -1 1027 63 10000 1 0 06:42 20.03.2020
6273 Clouds -1 1027 63 10000 1 0 06:18 20.03.2020
6274 Clear -1 1025 63 10000 1.5 0 04:36 20.03.2020
6275 Clear 0 1024 75 10000 1.5 330 02:50 20.03.2020
6276 Clouds 1 1023 79 10000 4.1 360 01:50 20.03.2020
6277 Clear 1 1022 64 10000 6.7 20 00:38 20.03.2020
6278 Clear 2 1021 59 10000 4.6 350 23:58 19.03.2020
6279 Clear 2 1021 55 10000 3.1 330 23:40 19.03.2020
6280 Clear 2 1021 55 10000 3.1 330 23:19 19.03.2020
6281 Clear 2 1021 55 10000 3.1 330 23:19 19.03.2020
6282 Clear 2 1019 64 10000 1.5 320 22:40 19.03.2020
6283 Clear 2 1019 64 10000 1.5 320 22:22 19.03.2020
6284 Clear 2 1019 69 10000 1.5 300 21:58 19.03.2020
6285 Clear 3 1018 84 10000 2.6 320 21:38 19.03.2020
6286 Clear 3 1018 84 10000 2.6 320 21:18 19.03.2020
6287 Clear 3 1018 80 10000 2.1 330 20:43 19.03.2020
6288 Clear 3 1018 80 10000 2.1 330 20:43 19.03.2020
6289 Rain 3 1018 80 10000 2.1 330 20:25 19.03.2020
6290 Rain 4 1017 65 10000 2.6 350 19:59 19.03.2020
6291 Rain 4 1017 56 10000 3.1 330 19:38 19.03.2020
6292 Rain 5 1017 56 10000 3.1 330 19:20 19.03.2020
6293 Rain 5 1017 56 10000 3.1 330 19:20 19.03.2020
6294 Rain 5 1016 56 10000 3.1 240 18:58 19.03.2020
6295 Rain 6 1016 42 10000 3.6 220 18:40 19.03.2020
6296 Rain 6 1016 42 10000 3.6 220 18:21 19.03.2020
6297 Clouds 8 1015 36 10000 3.6 240 17:44 19.03.2020
6298 Clouds 8 1015 36 10000 3.6 240 17:20 19.03.2020
6299 Clouds 9 1015 36 10000 3.6 250 16:58 19.03.2020
6300 Clouds 9 1015 34 10000 3.6 230 16:39 19.03.2020
6301 Clouds 9 1015 34 10000 3.6 230 16:21 19.03.2020
6302 Clouds 9 1016 36 10000 4.1 240 15:42 19.03.2020
6303 Clouds 9 1016 36 10000 3.6 250 15:23 19.03.2020
6304 Clouds 9 1016 36 10000 3.6 250 15:23 19.03.2020
6305 Clouds 9 1016 34 10000 4.1 250 14:43 19.03.2020
6306 Clouds 9 1016 36 10000 3.6 280 14:22 19.03.2020
6307 Clouds 9 1016 39 10000 3.6 250 13:57 19.03.2020
6308 Clouds 9 1016 39 10000 3.6 250 13:37 19.03.2020
6309 Clouds 9 1016 39 10000 4.1 240 13:18 19.03.2020
6310 Clouds 9 1016 45 10000 5.1 210 12:41 19.03.2020
6311 Clouds 9 1019 52 10000 5.7 220 12:22 19.03.2020
6312 Clouds 8 1019 56 10000 5.7 220 11:57 19.03.2020
6313 Clouds 8 1019 56 10000 5.7 220 11:38 19.03.2020
6314 Clouds 6 1016 56 10000 3.1 210 11:20 19.03.2020
6315 Clouds 6 1016 56 10000 3.1 210 10:41 19.03.2020
6316 Clouds 5 1016 60 10000 4.1 200 10:20 19.03.2020
6317 Clouds 5 1015 59 10000 1.5 200 09:57 19.03.2020
6318 Clouds 4 1015 59 10000 1.5 200 09:37 19.03.2020
6319 Clouds 3 1015 64 10000 2.6 230 09:18 19.03.2020
6320 Clouds 2 1015 64 10000 2.1 230 08:42 19.03.2020
6321 Clouds 0 1014 74 10000 2.1 190 08:21 19.03.2020
6322 Clouds 0 1014 79 10000 1 0 07:46 19.03.2020
6323 Clouds 0 1014 86 10000 0.5 0 07:28 19.03.2020
6324 Clouds -1 1013 79 10000 1.5 230 06:48 19.03.2020
6325 Clouds 0 1016 69 0 3.6 200 05:49 19.03.2020
6326 Clear 0 1012 74 10000 3.6 150 04:58 19.03.2020
6327 Clear 0 1012 74 10000 3.6 150 04:40 19.03.2020
6328 Clear 0 1011 79 10000 2.6 200 02:50 19.03.2020
6329 Clear 1 1011 78 10000 3.6 180 01:21 19.03.2020
6330 Clear 2 1014 64 0 5.1 220 00:28 19.03.2020
6331 Clear 2 1010 59 10000 6.2 180 23:51 18.03.2020
6332 Clear 2 1010 55 10000 4.6 180 23:30 18.03.2020
6333 Clear 2 1010 55 10000 4.6 180 23:30 18.03.2020
6334 Clear 3 1010 55 10000 5.1 200 22:56 18.03.2020
6335 Clear 3 1009 55 10000 4.1 170 22:38 18.03.2020
6336 Clear 3 1009 55 10000 4.1 170 22:20 18.03.2020
6337 Clear 3 1009 51 10000 3.6 210 21:42 18.03.2020
6338 Clear 4 1009 48 10000 4.6 220 21:21 18.03.2020
6339 Clear 4 1009 51 10000 5.7 190 20:59 18.03.2020
6340 Clear 4 1009 51 10000 5.7 190 20:59 18.03.2020
6341 Clear 4 1009 51 10000 5.7 190 20:40 18.03.2020
6342 Clear 4 1009 44 10000 4.1 210 20:20 18.03.2020
6343 Clear 5 1008 41 10000 3.6 230 19:58 18.03.2020
6344 Clear 5 1008 41 10000 3.6 230 19:39 18.03.2020
6345 Clear 5 1008 41 10000 4.1 230 19:20 18.03.2020
6346 Clear 6 1008 38 10000 4.6 240 18:41 18.03.2020
6347 Clear 6 1007 35 10000 5.7 240 18:21 18.03.2020
6348 Clear 6 1007 35 10000 5.7 240 18:21 18.03.2020
6349 Clear 7 1007 33 10000 5.7 250 17:59 18.03.2020
6350 Clear 7 1007 33 10000 5.7 240 17:41 18.03.2020
6351 Clear 8 1007 33 10000 5.7 240 17:22 18.03.2020
6352 Clear 8 1007 31 10000 5.7 260 16:58 18.03.2020
6353 Clear 8 1007 31 10000 5.7 260 16:40 18.03.2020
6354 Clear 9 1007 28 10000 6.7 250 16:20 18.03.2020
6355 Clear 9 1006 28 10000 4.6 260 15:45 18.03.2020
6356 Clear 9 1006 31 10000 5.7 240 15:23 18.03.2020
6357 Clear 9 1006 31 10000 5.1 260 14:56 18.03.2020
6358 Clear 9 1006 28 10000 6.7 250 14:38 18.03.2020
6359 Clouds 9 1006 28 10000 6.7 250 14:19 18.03.2020
6360 Rain 9 1005 31 10000 5.1 270 13:38 18.03.2020
6361 Rain 9 1005 31 10000 5.1 270 13:19 18.03.2020
6362 Rain 9 1005 36 10000 4.6 250 12:42 18.03.2020
6363 Clouds 9 1008 39 10000 8.2 270 12:20 18.03.2020
6364 Clouds 8 1004 56 10000 2.1 0 11:41 18.03.2020
6365 Clouds 7 1004 56 10000 2.1 0 11:21 18.03.2020
6366 Clouds 7 1003 65 10000 4.6 220 10:58 18.03.2020
6367 Clouds 7 1003 65 10000 4.6 220 10:39 18.03.2020
6368 Clouds 6 1003 80 10000 4.1 210 10:20 18.03.2020
6369 Clouds 6 1003 80 10000 4.1 210 09:59 18.03.2020
6370 Clouds 6 1003 80 10000 4.1 210 09:39 18.03.2020
6371 Clouds 6 1003 80 10000 4.6 210 09:21 18.03.2020
6372 Clouds 4 1003 86 10000 4.6 190 08:40 18.03.2020
6373 Clouds 4 1003 86 10000 4.1 180 08:21 18.03.2020
6374 Clouds 4 1003 86 10000 4.1 190 07:49 18.03.2020
6375 Clouds 4 1003 86 10000 4.6 180 07:31 18.03.2020
6376 Clouds 4 1004 86 10000 7.7 190 06:50 18.03.2020
6377 Clouds 4 1004 80 10000 7.7 190 06:31 18.03.2020
6378 Clouds 4 1007 93 0 3.6 200 05:36 18.03.2020
6379 Clouds 5 1005 69 10000 7.2 180 04:29 18.03.2020
6380 Clouds 5 1007 79 10000 5.1 180 02:51 18.03.2020
6381 Clouds 5 1007 80 10000 4.6 190 02:23 18.03.2020
6382 Clouds 5 1010 93 0 6.7 190 01:29 18.03.2020
6383 Clouds 5 1008 71 10000 6.2 190 00:26 18.03.2020
6384 Clouds 5 1008 71 10000 5.1 200 23:59 17.03.2020
6385 Clouds 5 1008 72 10000 6.2 190 23:40 17.03.2020
6386 Clouds 5 1011 93 10000 7.7 200 23:19 17.03.2020
6387 Clouds 5 1009 60 10000 5.7 200 22:42 17.03.2020
6388 Clouds 5 1009 60 10000 5.7 200 22:23 17.03.2020
6389 Clouds 5 1009 52 10000 5.7 210 21:42 17.03.2020
6390 Clouds 6 1009 56 10000 5.7 200 21:22 17.03.2020
6391 Clouds 6 1009 52 10000 5.1 200 20:56 17.03.2020
6392 Clouds 6 1009 52 10000 5.1 200 20:37 17.03.2020
6393 Clouds 6 1009 48 10000 4.1 220 20:18 17.03.2020
6394 Clouds 7 1008 42 10000 5.1 220 19:41 17.03.2020
6395 Clouds 7 1008 39 10000 5.7 220 19:18 17.03.2020
6396 Clouds 7 1008 42 10000 5.1 220 18:56 17.03.2020
6397 Clouds 7 1008 39 10000 5.7 220 18:38 17.03.2020
6398 Clouds 8 1008 39 10000 5.7 220 18:20 17.03.2020
6399 Clouds 9 1008 37 10000 6.7 220 17:41 17.03.2020
6400 Clouds 9 1008 46 10000 5.1 210 17:23 17.03.2020
6401 Clouds 9 1008 53 10000 6.7 200 16:57 17.03.2020
6402 Clouds 10 1008 53 10000 6.7 200 16:39 17.03.2020
6403 Clouds 10 1008 57 10000 7.7 200 16:18 17.03.2020
6404 Clouds 10 1008 57 10000 6.7 210 15:44 17.03.2020
6405 Clouds 10 1008 61 10000 7.2 220 15:22 17.03.2020
6406 Clouds 11 1008 61 10000 8.7 210 14:44 17.03.2020
6407 Clouds 11 1008 61 10000 8.7 210 14:23 17.03.2020
6408 Clouds 11 1008 66 10000 9.3 200 13:56 17.03.2020
6409 Clouds 10 1008 66 10000 9.3 200 13:38 17.03.2020
6410 Clouds 10 1008 66 10000 7.7 210 13:20 17.03.2020
6411 Clouds 9 1008 66 10000 8.2 210 12:42 17.03.2020
6412 Clouds 9 1008 75 10000 9.3 190 12:22 17.03.2020
6413 Clouds 8 1008 75 10000 8.7 190 11:47 17.03.2020
6414 Clouds 8 1008 75 10000 8.7 190 11:29 17.03.2020
6415 Clouds 7 1008 75 10000 7.7 210 10:58 17.03.2020
6416 Clouds 7 1008 75 10000 7.7 210 10:39 17.03.2020
6417 Clouds 7 1008 75 10000 7.7 200 10:21 17.03.2020
6418 Clouds 7 1008 75 10000 7.7 200 09:59 17.03.2020
6419 Clouds 7 1008 80 10000 4.6 210 09:40 17.03.2020
6420 Clouds 6 1008 80 10000 6.2 200 09:19 17.03.2020
6421 Clouds 6 1007 80 10000 6.7 190 08:48 17.03.2020
6422 Clouds 6 1008 86 10000 5.7 190 08:23 17.03.2020
6423 Clouds 5 1008 86 10000 6.7 180 07:50 17.03.2020
6424 Clouds 5 1008 80 10000 6.7 190 07:28 17.03.2020
6425 Clouds 5 1008 86 10000 6.2 190 06:59 17.03.2020
6426 Clouds 4 1009 86 10000 6.2 190 06:34 17.03.2020
6427 Clouds 4 1009 83 10000 7.2 180 05:56 17.03.2020
6428 Clouds 4 1010 80 10000 6.2 180 03:56 17.03.2020
6429 Clouds 3 1011 79 10000 5.7 200 02:46 17.03.2020
6430 Clouds 3 1011 76 10000 7.2 200 01:44 17.03.2020
6431 Clouds 3 1011 77 10000 6.7 200 01:25 17.03.2020
6432 Clouds 3 1012 77 10000 5.7 190 00:38 17.03.2020
6433 Clouds 3 1012 86 10000 6.2 190 23:48 16.03.2020
6434 Clouds 4 1013 86 10000 5.7 190 23:30 16.03.2020
6435 Rain 4 1013 87 10000 5.1 190 22:41 16.03.2020
6436 Drizzle 4 1013 87 10000 5.7 170 22:23 16.03.2020
6437 Clouds 4 1013 74 10000 6.7 180 21:58 16.03.2020
6438 Clouds 3 1013 74 10000 6.7 180 21:40 16.03.2020
6439 Clouds 3 1014 69 10000 4.6 180 21:21 16.03.2020
6440 Clouds 4 1014 64 10000 4.6 170 20:56 16.03.2020
6441 Clouds 4 1014 60 10000 3.1 170 20:37 16.03.2020
6442 Clouds 4 1014 60 10000 3.1 170 20:18 16.03.2020
6443 Clear 4 1014 64 10000 2.6 200 19:41 16.03.2020
6444 Clear 4 1014 64 10000 3.1 190 19:20 16.03.2020
6445 Clear 4 1014 56 10000 3.6 170 18:43 16.03.2020
6446 Clear 5 1014 56 10000 3.6 170 18:21 16.03.2020
6447 Clear 5 1014 52 10000 4.1 170 17:55 16.03.2020
6448 Clear 6 1014 52 10000 3.1 170 17:37 16.03.2020
6449 Clear 6 1014 52 10000 3.1 170 17:18 16.03.2020
6450 Clear 6 1014 52 10000 2.6 160 16:44 16.03.2020
6451 Clear 6 1014 52 10000 3.6 200 16:24 16.03.2020
6452 Clear 7 1014 45 10000 1.5 140 15:45 16.03.2020
6453 Clear 6 1014 44 10000 2.1 130 15:27 16.03.2020
6454 Clear 6 1014 48 10000 1.5 0 14:49 16.03.2020
6455 Clear 6 1014 48 10000 2.1 110 14:28 16.03.2020
6456 Clear 6 1014 48 10000 3.1 60 13:59 16.03.2020
6457 Clear 6 1014 48 10000 3.1 60 13:41 16.03.2020
6458 Clear 6 1014 44 10000 2.6 30 13:22 16.03.2020
6459 Clear 5 1014 51 10000 3.1 50 12:45 16.03.2020
6460 Clear 5 1013 51 10000 4.1 50 12:24 16.03.2020
6461 Clear 5 1013 51 10000 4.6 30 11:47 16.03.2020
6462 Clouds 5 1013 65 10000 4.6 30 11:28 16.03.2020
6463 Clear 4 1012 59 10000 4.6 30 10:56 16.03.2020
6464 Clear 4 1012 59 10000 4.6 30 10:37 16.03.2020
6465 Clear 3 1012 69 10000 3.6 10 10:18 16.03.2020
6466 Clear 3 1011 69 10000 3.6 10 09:42 16.03.2020
6467 Clear 3 1010 69 10000 4.6 20 09:21 16.03.2020
6468 Clear 2 1010 69 10000 3.6 360 08:52 16.03.2020
6469 Clouds 2 1009 69 10000 4.1 360 08:25 16.03.2020
6470 Clear 2 1009 69 10000 4.1 360 08:25 16.03.2020
6471 Clouds 2 1008 74 10000 4.6 360 07:48 16.03.2020
6472 Clouds 2 1008 74 10000 5.1 360 07:25 16.03.2020
6473 Clouds 2 1007 74 10000 4.6 20 06:54 16.03.2020
6474 Clouds 2 1006 74 10000 4.6 20 06:25 16.03.2020
6475 Clouds 2 1004 86 10000 7.7 10 04:55 16.03.2020
6476 Clouds 3 1001 83 10000 0.5 0 02:42 16.03.2020
6477 Clouds 3 1000 86 10000 2.1 210 00:52 16.03.2020
6478 Clouds 3 1000 93 10000 1 0 00:33 16.03.2020
6479 Clouds 4 999 93 10000 1.5 0 23:46 15.03.2020
6480 Clouds 4 998 93 10000 6.7 210 23:20 15.03.2020
6481 Clouds 4 998 93 10000 6.7 200 22:43 15.03.2020
6482 Clouds 4 998 93 10000 8.7 200 22:23 15.03.2020
6483 Clouds 5 1000 93 0 5.7 210 21:58 15.03.2020
6484 Clouds 5 1000 93 0 5.7 210 21:38 15.03.2020
6485 Clouds 5 998 86 10000 6.2 190 21:18 15.03.2020
6486 Clouds 5 997 93 10000 4.1 170 20:42 15.03.2020
6487 Clouds 5 996 93 10000 4.1 180 20:21 15.03.2020
6488 Clouds 5 996 93 10000 5.1 200 19:58 15.03.2020
6489 Clouds 5 996 93 10000 5.1 200 19:39 15.03.2020
6490 Clouds 5 996 93 10000 6.2 200 19:20 15.03.2020
6491 Clouds 5 996 93 10000 5.7 210 18:55 15.03.2020
6492 Clouds 6 996 93 10000 5.7 210 18:37 15.03.2020
6493 Clouds 6 995 93 10000 7.7 190 18:19 15.03.2020
6494 Rain 6 995 93 10000 7.2 190 17:41 15.03.2020
6495 Rain 6 995 93 10000 7.7 190 17:21 15.03.2020
6496 Rain 6 995 93 10000 7.7 190 16:58 15.03.2020
6497 Rain 6 995 93 10000 7.7 190 16:39 15.03.2020
6498 Rain 6 995 93 10000 8.2 190 16:21 15.03.2020
6499 Rain 6 995 93 10000 8.7 190 15:46 15.03.2020
6500 Rain 6 995 93 10000 9.3 190 15:28 15.03.2020
6501 Rain 6 995 93 10000 9.8 190 14:58 15.03.2020
6502 Rain 6 995 93 10000 9.8 190 14:38 15.03.2020
6503 Rain 6 995 93 10000 12.3 190 14:19 15.03.2020
6504 Rain 5 995 93 10000 12.3 190 13:55 15.03.2020
6505 Rain 5 995 93 10000 12.3 190 13:55 15.03.2020
6506 Rain 5 996 100 10000 11.8 190 13:37 15.03.2020
6507 Rain 5 996 100 10000 11.8 190 13:18 15.03.2020
6508 Rain 5 996 100 10000 11.8 190 13:18 15.03.2020
6509 Rain 5 996 93 10000 10.3 180 12:40 15.03.2020
6510 Drizzle 5 997 93 7000 10.8 180 12:21 15.03.2020
6511 Drizzle 5 997 93 7000 10.3 180 11:43 15.03.2020
6512 Rain 4 998 100 7000 9.8 180 11:24 15.03.2020
6513 Rain 4 999 100 5000 9.3 180 10:59 15.03.2020
6514 Rain 4 999 100 5000 9.3 180 10:39 15.03.2020
6515 Rain 4 999 93 10000 8.7 170 10:21 15.03.2020
6516 Rain 4 999 100 4000 7.7 170 09:57 15.03.2020
6517 Rain 4 999 100 4000 7.7 170 09:36 15.03.2020
6518 Rain 4 1000 93 5000 9.8 180 09:18 15.03.2020
6519 Rain 3 1000 93 9000 8.7 170 08:41 15.03.2020
6520 Rain 3 1001 93 9000 9.8 170 08:19 15.03.2020
6521 Clouds 3 1001 93 9000 7.2 170 07:45 15.03.2020
6522 Clouds 3 1002 100 6000 7.2 170 07:21 15.03.2020
6523 Clouds 3 1003 95 9000 6.7 150 06:36 15.03.2020
6524 Clouds 3 1004 95 5000 6.2 170 05:48 15.03.2020
6525 Clouds 2 1005 96 7000 7.7 170 04:56 15.03.2020
6526 Clouds 2 1005 96 7000 7.7 170 04:37 15.03.2020
6527 Clouds 2 1006 96 8000 7.7 170 04:18 15.03.2020
6528 Snow 2 1008 86 9000 6.7 170 02:54 15.03.2020
6529 Snow 2 1009 86 9000 6.7 170 02:21 15.03.2020
6530 Snow 2 1011 85 10000 3.6 170 00:57 15.03.2020
6531 Snow 2 1011 85 10000 3.6 170 00:39 15.03.2020
6532 Clouds 2 1011 85 8000 5.1 190 00:18 15.03.2020
6533 Clouds 2 1012 64 10000 5.1 180 23:38 14.03.2020
6534 Clouds 1 1012 64 10000 6.2 190 23:19 14.03.2020
6535 Clouds 2 1013 59 10000 6.2 210 22:55 14.03.2020
6536 Clouds 2 1013 59 10000 6.2 210 22:37 14.03.2020
6537 Clouds 1 1013 74 10000 6.2 190 22:19 14.03.2020
6538 Clouds 1 1014 74 10000 7.7 180 21:54 14.03.2020
6539 Clouds 1 1014 74 10000 5.7 190 21:36 14.03.2020
6540 Clouds 1 1014 74 10000 5.7 190 21:18 14.03.2020
6541 Clouds 1 1014 68 10000 5.1 190 20:55 14.03.2020
6542 Clouds 1 1014 68 10000 5.1 190 20:36 14.03.2020
6543 Clouds 1 1015 72 10000 5.1 170 20:18 14.03.2020
6544 Clouds 0 1015 72 10000 4.1 180 19:40 14.03.2020
6545 Clouds 0 1015 72 10000 4.1 180 19:20 14.03.2020
6546 Clouds 1 1015 72 10000 8.2 200 18:39 14.03.2020
6547 Clouds 1 1015 72 10000 8.2 200 18:20 14.03.2020
6548 Clouds 2 1016 43 10000 9.3 200 17:42 14.03.2020
6549 Clouds 2 1016 43 10000 9.3 200 17:21 14.03.2020
6550 Clouds 2 1016 40 10000 8.2 200 16:58 14.03.2020
6551 Clouds 3 1016 43 10000 9.8 200 16:38 14.03.2020
6552 Clouds 3 1016 43 10000 9.8 200 16:19 14.03.2020
6553 Clouds 3 1017 47 10000 8.7 200 15:44 14.03.2020
6554 Clouds 3 1017 47 10000 8.7 210 15:22 14.03.2020
6555 Clouds 3 1020 55 10000 6.7 200 14:40 14.03.2020
6556 Clear 3 1018 40 10000 7.2 210 14:21 14.03.2020
6557 Clear 3 1018 37 10000 6.7 200 13:57 14.03.2020
6558 Clear 2 1018 40 10000 8.2 190 13:38 14.03.2020
6559 Clear 2 1018 40 10000 8.2 190 13:19 14.03.2020
6560 Clear 2 1018 37 10000 5.7 200 12:44 14.03.2020
6561 Clear 2 1018 40 10000 6.2 190 12:25 14.03.2020
6562 Clear 2 1021 51 10000 5.1 190 11:46 14.03.2020
6563 Clear 2 1021 51 10000 5.1 190 11:26 14.03.2020
6564 Clear 0 1019 58 10000 2.1 170 10:57 14.03.2020
6565 Clear 0 1021 41 10000 2.1 130 10:38 14.03.2020
6566 Clear -1 1019 58 10000 2.1 200 10:20 14.03.2020
6567 Clear -2 1019 67 10000 0.5 0 09:41 14.03.2020
6568 Clear -3 1019 62 10000 2.42 214 09:22 14.03.2020
6569 Clear -4 1019 67 10000 2.42 214 08:47 14.03.2020
6570 Clear -4 1019 67 10000 2.42 214 08:47 14.03.2020
6571 Clouds -6 1019 73 10000 0.49 292 08:27 14.03.2020
6572 Clouds -6 1019 72 10000 1 20 07:49 14.03.2020
6573 Clouds -7 1019 72 10000 1 350 07:23 14.03.2020
6574 Clouds -6 1018 72 10000 0.49 292 06:59 14.03.2020
6575 Clouds -7 1018 72 10000 2.6 350 06:39 14.03.2020
6576 Clear -6 1018 67 10000 1.5 10 04:58 14.03.2020
6577 Clear -5 1017 62 10000 1.5 350 03:41 14.03.2020
6578 Clear -5 1017 62 10000 2.1 330 03:20 14.03.2020
6579 Clear -4 1016 62 10000 2.1 310 02:19 14.03.2020
6580 Clear -4 1015 53 10000 1 0 00:42 14.03.2020
6581 Clear -3 1015 49 10000 1.5 280 23:44 13.03.2020
6582 Clear -3 1014 53 10000 1.5 270 23:25 13.03.2020
6583 Clear -3 1014 49 10000 0.95 340 22:46 13.03.2020
6584 Clear -3 1013 49 10000 1 0 22:25 13.03.2020
6585 Clear -2 1013 53 10000 1.5 340 21:42 13.03.2020
6586 Clear -2 1012 58 10000 0.5 0 21:21 13.03.2020
6587 Clear -2 1012 54 10000 0.5 0 20:57 13.03.2020
6588 Clear -2 1012 54 10000 0.5 0 20:38 13.03.2020
6589 Clear -1 1011 50 10000 2.6 350 20:19 13.03.2020
6590 Clear -1 1011 50 10000 3.6 350 19:42 13.03.2020
6591 Clear 0 1010 46 10000 5.1 360 19:23 13.03.2020
6592 Clear 0 1010 46 10000 5.1 360 19:23 13.03.2020
6593 Clear 0 1009 50 10000 4.1 360 18:44 13.03.2020
6594 Clear 1 1009 56 10000 5.1 360 18:25 13.03.2020
6595 Rain 1 1008 56 10000 5.7 350 17:55 13.03.2020
6596 Rain 2 1007 34 10000 7.2 350 17:37 13.03.2020
6597 Rain 2 1007 34 10000 7.2 350 17:18 13.03.2020
6598 Rain 2 1007 34 10000 5.1 340 16:40 13.03.2020
6599 Clear 3 1006 31 10000 8.2 350 16:22 13.03.2020
6600 Clear 3 1006 31 10000 8.7 350 15:55 13.03.2020
6601 Clear 3 1006 31 10000 8.7 350 15:37 13.03.2020
6602 Clear 3 1005 29 10000 8.2 350 15:18 13.03.2020
6603 Clear 3 1005 29 10000 7.7 350 14:41 13.03.2020
6604 Clouds 3 1004 31 10000 8.2 360 14:22 13.03.2020
6605 Clouds 3 1003 31 10000 8.7 360 13:56 13.03.2020
6606 Clouds 3 1003 31 10000 8.7 360 13:37 13.03.2020
6607 Clouds 2 1003 31 10000 9.3 360 13:18 13.03.2020
6608 Clouds 2 1002 31 10000 9.3 360 12:40 13.03.2020
6609 Clouds 2 1002 31 10000 9.3 360 12:21 13.03.2020
6610 Clouds 2 1001 31 10000 9.3 350 11:57 13.03.2020
6611 Clouds 1 1003 64 10000 5.1 350 11:38 13.03.2020
6612 Clouds 1 1001 44 10000 4.1 350 11:19 13.03.2020
6613 Clouds 0 1001 46 10000 6.7 360 10:47 13.03.2020
6614 Clouds 0 1000 42 10000 6.7 10 10:26 13.03.2020
6615 Clouds 0 1000 50 10000 6.2 10 09:57 13.03.2020
6616 Clouds 0 1000 50 10000 6.2 10 09:38 13.03.2020
6617 Clouds 0 999 54 10000 6.2 10 09:20 13.03.2020
6618 Rain 0 998 50 10000 8.7 10 08:44 13.03.2020
6619 Rain 0 997 56 10000 7.2 10 08:22 13.03.2020
6620 Snow 0 997 56 10000 5.7 360 07:47 13.03.2020
6621 Snow 0 996 56 10000 6.2 360 07:28 13.03.2020
6622 Rain 0 995 56 10000 4.1 360 06:47 13.03.2020
6623 Rain 1 994 59 10000 4.6 360 06:26 13.03.2020
6624 Clouds 1 994 59 10000 3.6 10 05:49 13.03.2020
6625 Clouds 1 994 74 0 3.6 30 05:20 13.03.2020
6626 Clouds 1 993 68 0 3.1 40 04:37 13.03.2020
6627 Clouds 1 990 59 10000 3.6 360 03:31 13.03.2020
6628 Clouds 1 989 59 10000 4.6 350 01:45 13.03.2020
6629 Clouds 2 988 55 10000 2.6 350 01:18 13.03.2020
6630 Clouds 2 988 59 10000 2.1 350 00:47 13.03.2020
6631 Clouds 2 990 74 0 4.1 220 00:23 13.03.2020
6632 Clouds 3 986 55 10000 2.6 310 23:48 12.03.2020
6633 Clouds 3 986 55 10000 2.6 250 23:26 12.03.2020
6634 Clouds 3 985 51 10000 1.5 280 22:56 12.03.2020
6635 Clouds 3 985 51 10000 1.5 280 22:38 12.03.2020
6636 Clouds 3 985 51 10000 2.1 270 22:19 12.03.2020
6637 Clouds 4 984 51 10000 4.1 240 21:43 12.03.2020
6638 Clouds 4 984 51 10000 4.1 230 21:25 12.03.2020
6639 Clouds 4 984 51 10000 4.6 220 20:56 12.03.2020
6640 Clouds 4 984 51 10000 4.6 220 20:37 12.03.2020
6641 Clouds 4 983 51 10000 5.7 220 20:18 12.03.2020
6642 Clouds 4 983 48 10000 4.1 210 19:39 12.03.2020
6643 Clouds 4 982 44 10000 2.6 230 19:20 12.03.2020
6644 Clouds 4 982 44 10000 3.1 220 18:43 12.03.2020
6645 Clouds 5 986 52 10000 3.1 220 18:24 12.03.2020
6646 Clouds 5 985 45 10000 2.6 240 17:57 12.03.2020
6647 Clouds 6 981 33 10000 3.1 260 17:38 12.03.2020
6648 Clouds 6 981 33 10000 3.1 260 17:19 12.03.2020
6649 Clouds 6 981 33 10000 3.1 260 16:54 12.03.2020
6650 Clouds 6 981 33 10000 3.1 260 16:36 12.03.2020
6651 Clouds 6 981 33 10000 3.1 270 16:18 12.03.2020
6652 Clouds 7 980 38 10000 3.6 270 15:43 12.03.2020
6653 Clouds 7 980 38 10000 4.6 270 15:24 12.03.2020
6654 Clouds 6 980 38 10000 2.6 290 14:40 12.03.2020
6655 Clouds 6 979 44 10000 3.1 270 14:21 12.03.2020
6656 Clouds 6 979 44 10000 3.6 270 13:41 12.03.2020
6657 Clouds 4 979 69 10000 3.1 230 13:22 12.03.2020
6658 Clouds 4 979 69 10000 1 0 12:56 12.03.2020
6659 Clouds 4 979 69 10000 1 0 12:38 12.03.2020
6660 Clouds 3 978 80 10000 1 0 12:20 12.03.2020
6661 Clouds 3 980 93 10000 4.6 350 11:56 12.03.2020
6662 Clouds 3 979 93 8000 3.1 360 11:37 12.03.2020
6663 Clouds 2 979 93 8000 3.1 360 11:19 12.03.2020
6664 Clouds 2 978 76 10000 1 0 10:58 12.03.2020
6665 Clouds 2 978 76 10000 1 0 10:40 12.03.2020
6666 Clouds 2 979 76 10000 1.82 337 10:22 12.03.2020
6667 Clouds 1 979 76 10000 2.6 50 09:45 12.03.2020
6668 Clouds 1 979 92 10000 1.5 350 09:25 12.03.2020
6669 Clouds 1 979 92 10000 1.5 260 08:43 12.03.2020
6670 Clouds 0 980 92 10000 1.5 0 08:20 12.03.2020
6671 Clouds 0 980 92 10000 1.5 0 07:53 12.03.2020
6672 Clouds 0 981 92 10000 1 0 07:23 12.03.2020
6673 Clouds 0 981 91 10000 2.6 170 06:59 12.03.2020
6674 Clouds 0 983 91 10000 3.1 210 05:43 12.03.2020
6675 Clear 0 983 84 10000 3.1 210 05:25 12.03.2020
6676 Clear 1 984 86 10000 2.1 170 02:41 12.03.2020
6677 Clouds 3 985 88 10000 3.1 200 01:31 12.03.2020
6678 Clouds 3 985 88 10000 3.6 210 00:45 12.03.2020
6679 Clouds 3 985 86 10000 5.7 180 00:26 12.03.2020
6680 Clouds 4 986 86 10000 5.7 190 23:47 11.03.2020
6681 Clouds 4 986 86 10000 5.7 190 23:24 11.03.2020
6682 Clouds 4 986 81 10000 6.2 180 22:48 11.03.2020
6683 Clouds 4 986 81 10000 6.2 170 22:30 11.03.2020
6684 Clouds 4 987 81 10000 6.2 180 21:59 11.03.2020
6685 Clouds 4 987 81 10000 6.2 180 21:59 11.03.2020
6686 Clouds 4 987 81 10000 6.2 180 21:41 11.03.2020
6687 Clouds 4 987 74 10000 5.1 180 21:22 11.03.2020
6688 Clouds 4 987 64 10000 3.6 140 20:58 11.03.2020
6689 Clouds 4 987 64 10000 3.6 140 20:39 11.03.2020
6690 Clouds 5 987 56 10000 5.1 140 20:19 11.03.2020
6691 Clouds 5 988 56 10000 6.2 160 19:44 11.03.2020
6692 Clouds 5 988 56 10000 4.1 150 19:25 11.03.2020
6693 Clouds 5 989 56 10000 4.6 150 18:59 11.03.2020
6694 Clouds 6 989 52 10000 3.6 220 18:40 11.03.2020
6695 Clouds 6 989 52 10000 3.6 220 18:40 11.03.2020
6696 Clouds 6 989 52 10000 3.6 220 18:21 11.03.2020
6697 Clouds 7 989 48 10000 2.6 210 17:57 11.03.2020
6698 Clouds 7 989 48 10000 2.6 210 17:57 11.03.2020
6699 Clouds 7 989 48 10000 3.1 220 17:39 11.03.2020
6700 Clouds 8 989 48 10000 3.1 220 17:20 11.03.2020
6701 Clouds 8 989 45 10000 4.6 220 16:46 11.03.2020
6702 Clouds 9 989 45 10000 5.1 230 16:23 11.03.2020
6703 Clouds 9 989 49 10000 5.1 230 15:46 11.03.2020
6704 Clouds 9 989 42 10000 5.7 240 15:25 11.03.2020
6705 Clouds 9 988 48 10000 5.1 240 14:59 11.03.2020
6706 Clouds 9 988 48 10000 5.1 240 14:41 11.03.2020
6707 Clouds 9 988 48 10000 3.6 250 14:22 11.03.2020
6708 Clouds 8 988 51 10000 4.1 210 13:45 11.03.2020
6709 Clouds 8 987 51 10000 4.1 190 13:27 11.03.2020
6710 Clouds 8 987 56 10000 3.1 240 12:58 11.03.2020
6711 Clouds 8 990 61 10000 5.1 230 12:40 11.03.2020
6712 Clouds 7 987 51 10000 2.6 220 12:19 11.03.2020
6713 Clouds 7 986 75 10000 3.6 190 11:42 11.03.2020
6714 Clouds 5 986 86 10000 4.1 210 11:24 11.03.2020
6715 Clouds 5 985 93 10000 4.6 200 10:59 11.03.2020
6716 Clouds 5 989 75 10000 4.6 220 10:41 11.03.2020
6717 Clouds 5 985 68 10000 4.1 210 10:18 11.03.2020
6718 Clouds 4 988 80 10000 5.7 220 09:43 11.03.2020
6719 Clouds 3 984 68 10000 2.1 210 09:24 11.03.2020
6720 Clouds 3 983 68 10000 2.6 220 08:45 11.03.2020
6721 Clouds 2 983 68 10000 2.6 220 08:27 11.03.2020
6722 Fog 2 983 96 8000 2.6 200 07:58 11.03.2020
6723 Fog 2 983 96 8000 2.6 200 07:38 11.03.2020
6724 Clouds 1 983 96 8000 0.5 0 07:18 11.03.2020
6725 Clouds 2 986 93 0 3.6 200 06:37 11.03.2020
6726 Clouds 2 982 96 6000 3.1 180 05:34 11.03.2020
6727 Snow 2 982 99 2500 1.5 200 03:59 11.03.2020
6728 Clouds 2 983 99 10000 1 350 01:59 11.03.2020
6729 Drizzle 2 983 99 10000 0.5 350 01:26 11.03.2020
6730 Clouds 2 983 100 10000 1 350 00:45 11.03.2020
6731 Rain 2 983 100 10000 1 0 23:56 10.03.2020
6732 Rain 2 983 100 10000 1 0 23:55 10.03.2020
6733 Rain 2 983 100 10000 1 0 23:55 10.03.2020
6734 Rain 2 983 100 10000 1 0 23:55 10.03.2020
6735 Rain 2 983 100 10000 1 0 23:37 10.03.2020
6736 Rain 2 983 100 10000 1 0 23:18 10.03.2020
6737 Rain 2 984 93 10000 1.5 110 22:38 10.03.2020
6738 Rain 2 984 93 10000 1.5 110 22:19 10.03.2020
6739 Rain 2 984 93 10000 1.5 110 22:19 10.03.2020
6740 Drizzle 2 984 93 10000 2.6 110 21:56 10.03.2020
6741 Drizzle 2 984 93 10000 2.6 110 21:38 10.03.2020
6742 Drizzle 2 984 93 10000 3.1 100 21:19 10.03.2020
6743 Drizzle 3 985 93 10000 3.6 110 20:57 10.03.2020
6744 Drizzle 3 985 93 10000 3.6 110 20:38 10.03.2020
6745 Rain 3 985 100 10000 3.6 110 20:18 10.03.2020
6746 Rain 3 985 100 10000 3.6 110 20:18 10.03.2020
6747 Rain 3 985 93 10000 4.1 120 19:56 10.03.2020
6748 Rain 3 985 93 10000 4.1 120 19:36 10.03.2020
6749 Rain 3 986 93 10000 5.1 130 19:18 10.03.2020
6750 Rain 3 986 93 10000 4.6 130 18:43 10.03.2020
6751 Rain 3 986 93 10000 5.1 130 18:25 10.03.2020
6752 Rain 3 987 93 10000 5.1 140 17:57 10.03.2020
6753 Rain 3 987 93 10000 5.1 140 17:38 10.03.2020
6754 Rain 3 987 93 10000 5.1 140 17:20 10.03.2020
6755 Rain 4 988 93 10000 4.6 130 16:38 10.03.2020
6756 Rain 4 988 93 10000 4.6 130 16:18 10.03.2020
6757 Rain 4 989 93 10000 5.1 150 15:55 10.03.2020
6758 Rain 4 990 93 9000 4.1 120 15:37 10.03.2020
6759 Rain 4 990 93 9000 4.1 120 15:18 10.03.2020
6760 Rain 4 990 93 9000 4.1 120 15:18 10.03.2020
6761 Rain 4 990 93 10000 4.6 140 14:41 10.03.2020
6762 Rain 4 991 93 10000 4.6 150 14:19 10.03.2020
6763 Rain 4 992 93 10000 6.2 140 13:57 10.03.2020
6764 Rain 4 992 93 10000 6.2 140 13:37 10.03.2020
6765 Clouds 4 992 80 10000 4.6 140 13:19 10.03.2020
6766 Clouds 4 993 86 10000 5.7 150 12:39 10.03.2020
6767 Clouds 4 993 86 10000 6.2 170 12:19 10.03.2020
6768 Clouds 4 994 93 10000 5.1 160 11:43 10.03.2020
6769 Clouds 4 994 93 10000 5.1 150 11:25 10.03.2020
6770 Rain 4 995 93 10000 4.1 150 10:59 10.03.2020
6771 Rain 4 995 93 10000 4.1 150 10:41 10.03.2020
6772 Rain 4 995 93 10000 4.1 150 10:41 10.03.2020
6773 Rain 4 995 100 10000 4.1 150 10:22 10.03.2020
6774 Rain 3 996 93 10000 4.1 160 09:57 10.03.2020
6775 Rain 3 996 93 10000 4.1 160 09:38 10.03.2020
6776 Clouds 3 996 100 10000 3.6 150 09:18 10.03.2020
6777 Clouds 2 996 93 10000 3.1 140 08:45 10.03.2020
6778 Clouds 2 996 93 10000 3.1 160 08:26 10.03.2020
6779 Clouds 2 997 93 10000 3.6 180 07:49 10.03.2020
6780 Clouds 2 997 100 10000 3.6 180 07:30 10.03.2020
6781 Clouds 2 997 93 10000 3.6 170 06:44 10.03.2020
6782 Clouds 2 997 93 10000 4.1 170 06:25 10.03.2020
6783 Clouds 2 997 93 10000 4.1 180 05:41 10.03.2020
6784 Rain 2 998 100 8000 1.5 190 04:37 10.03.2020
6785 Clouds 2 999 100 7000 1 0 03:37 10.03.2020
6786 Clouds 2 1000 100 7000 2.1 190 02:26 10.03.2020
6787 Clouds 3 1000 100 7000 3.1 200 01:20 10.03.2020
6788 Clouds 3 1000 100 9000 4.6 200 00:41 10.03.2020
6789 Rain 3 1001 93 7000 5.1 210 00:22 10.03.2020
6790 Clouds 3 1001 93 8000 4.6 190 23:40 09.03.2020
6791 Clouds 4 1001 93 8000 4.6 190 23:21 09.03.2020
6792 Clouds 4 1001 93 10000 4.6 190 22:41 09.03.2020
6793 Clouds 4 1001 93 10000 2.6 150 22:22 09.03.2020
6794 Clouds 4 1001 93 10000 4.6 180 21:57 09.03.2020
6795 Clouds 4 1001 93 10000 4.6 180 21:38 09.03.2020
6796 Clouds 4 1001 93 10000 4.1 190 21:20 09.03.2020
6797 Clouds 4 1001 93 10000 5.1 170 20:56 09.03.2020
6798 Clouds 4 1001 93 10000 5.1 170 20:37 09.03.2020
6799 Clouds 4 1002 93 10000 3.1 170 20:18 09.03.2020
6800 Clouds 4 1002 93 10000 4.6 170 19:44 09.03.2020